<?xml version="1.0" encoding="utf-8"?>
<gpx xmlns:xsi="http://www.w3.org/2001/XMLSchema-instance" xmlns:xsd="http://www.w3.org/2001/XMLSchema" version="1.1" creator="Shapelink.com" xmlns="http://www.topografix.com/GPX/1/1" xmlns:gpxtpx="http://www.garmin.com/xmlschemas/TrackPointExtension/v1">
  <metadata>
    <name>Löpning 19.00 km, 2011-03-18</name>
    <desc></desc>
    <author><name>Jojje Borssén</name></author> 
    <time>2011-03-18T10:39:14Z</time>
  </metadata>
  <trk>
    <name>Löpning 19.00 km, 2011-03-18</name>
    <trkseg>
      <trkpt lat="37.3331648225" lon="-7.48845877831">
        <ele>48.4</ele>
        <time>2011-03-18T10:39:14Z</time>
      </trkpt>
      <trkpt lat="37.3332144434" lon="-7.48851409885">
        <ele>48.4</ele>
        <time>2011-03-18T10:39:16Z</time>
      </trkpt>
      <trkpt lat="37.3332384156" lon="-7.48854662063">
        <ele>48.4</ele>
        <time>2011-03-18T10:39:17Z</time>
      </trkpt>
      <trkpt lat="37.3332975918" lon="-7.48861040688">
        <ele>48.4</ele>
        <time>2011-03-18T10:39:20Z</time>
      </trkpt>
      <trkpt lat="37.3333464583" lon="-7.48866673325">
        <ele>48.4</ele>
        <time>2011-03-18T10:39:22Z</time>
      </trkpt>
      <trkpt lat="37.3333878649" lon="-7.4887317768">
        <ele>48.6</ele>
        <time>2011-03-18T10:39:24Z</time>
      </trkpt>
      <trkpt lat="37.3334343844" lon="-7.48878022418">
        <ele>48.8</ele>
        <time>2011-03-18T10:39:26Z</time>
      </trkpt>
      <trkpt lat="37.333489705" lon="-7.48881308123">
        <ele>49</ele>
        <time>2011-03-18T10:39:28Z</time>
      </trkpt>
      <trkpt lat="37.3336344604" lon="-7.48886052278">
        <ele>49.2</ele>
        <time>2011-03-18T10:39:32Z</time>
      </trkpt>
      <trkpt lat="37.3336960673" lon="-7.48888550084">
        <ele>49.2</ele>
        <time>2011-03-18T10:39:35Z</time>
      </trkpt>
      <trkpt lat="37.333730014" lon="-7.48890519831">
        <ele>49.4</ele>
        <time>2011-03-18T10:39:36Z</time>
      </trkpt>
      <trkpt lat="37.3337616976" lon="-7.48898482636">
        <ele>49.4</ele>
        <time>2011-03-18T10:39:39Z</time>
      </trkpt>
      <trkpt lat="37.333770331" lon="-7.48905741361">
        <ele>49.4</ele>
        <time>2011-03-18T10:39:41Z</time>
      </trkpt>
      <trkpt lat="37.3337875139" lon="-7.48913352126">
        <ele>49.6</ele>
        <time>2011-03-18T10:39:43Z</time>
      </trkpt>
      <trkpt lat="37.3338043615" lon="-7.48920837163">
        <ele>50</ele>
        <time>2011-03-18T10:39:45Z</time>
      </trkpt>
      <trkpt lat="37.333817102" lon="-7.48927919869">
        <ele>50.4</ele>
        <time>2011-03-18T10:39:46Z</time>
      </trkpt>
      <trkpt lat="37.3338212929" lon="-7.48931691724">
        <ele>50.6</ele>
        <time>2011-03-18T10:39:48Z</time>
      </trkpt>
      <trkpt lat="37.3338618613" lon="-7.48941917642">
        <ele>50.8</ele>
        <time>2011-03-18T10:39:51Z</time>
      </trkpt>
      <trkpt lat="37.3339025973" lon="-7.4894636843">
        <ele>51.2</ele>
        <time>2011-03-18T10:39:53Z</time>
      </trkpt>
      <trkpt lat="37.3339274078" lon="-7.48948581252">
        <ele>51.4</ele>
        <time>2011-03-18T10:39:54Z</time>
      </trkpt>
      <trkpt lat="37.3339694849" lon="-7.48952336343">
        <ele>51.8</ele>
        <time>2011-03-18T10:39:56Z</time>
      </trkpt>
      <trkpt lat="37.3340317624" lon="-7.48954800622">
        <ele>52.2</ele>
        <time>2011-03-18T10:39:58Z</time>
      </trkpt>
      <trkpt lat="37.3340991529" lon="-7.48958052799">
        <ele>52.8</ele>
        <time>2011-03-18T10:40:00Z</time>
      </trkpt>
      <trkpt lat="37.3341389669" lon="-7.4896013151">
        <ele>53.4</ele>
        <time>2011-03-18T10:40:02Z</time>
      </trkpt>
      <trkpt lat="37.3341846483" lon="-7.48964071003">
        <ele>53.8</ele>
        <time>2011-03-18T10:40:04Z</time>
      </trkpt>
      <trkpt lat="37.3342330957" lon="-7.48969519238">
        <ele>54.6</ele>
        <time>2011-03-18T10:40:07Z</time>
      </trkpt>
      <trkpt lat="37.3342673776" lon="-7.48974824981">
        <ele>55.2</ele>
        <time>2011-03-18T10:40:09Z</time>
      </trkpt>
      <trkpt lat="37.3343049285" lon="-7.48980080432">
        <ele>55.8</ele>
        <time>2011-03-18T10:40:11Z</time>
      </trkpt>
      <trkpt lat="37.334341306" lon="-7.48985654396">
        <ele>56.2</ele>
        <time>2011-03-18T10:40:13Z</time>
      </trkpt>
      <trkpt lat="37.3343722352" lon="-7.48992326388">
        <ele>57</ele>
        <time>2011-03-18T10:40:15Z</time>
      </trkpt>
      <trkpt lat="37.3343960398" lon="-7.48998235628">
        <ele>57.6</ele>
        <time>2011-03-18T10:40:16Z</time>
      </trkpt>
      <trkpt lat="37.3344273881" lon="-7.49006148141">
        <ele>58</ele>
        <time>2011-03-18T10:40:19Z</time>
      </trkpt>
      <trkpt lat="37.3344498516" lon="-7.49013364957">
        <ele>58.4</ele>
        <time>2011-03-18T10:40:21Z</time>
      </trkpt>
      <trkpt lat="37.3344717284" lon="-7.49020028568">
        <ele>59.2</ele>
        <time>2011-03-18T10:40:23Z</time>
      </trkpt>
      <trkpt lat="37.3344861452" lon="-7.49026650269">
        <ele>59.8</ele>
        <time>2011-03-18T10:40:25Z</time>
      </trkpt>
      <trkpt lat="37.3344920126" lon="-7.49032618181">
        <ele>60.4</ele>
        <time>2011-03-18T10:40:27Z</time>
      </trkpt>
      <trkpt lat="37.3345030767" lon="-7.49038376547">
        <ele>60.8</ele>
        <time>2011-03-18T10:40:29Z</time>
      </trkpt>
      <trkpt lat="37.3345133864" lon="-7.49044637826">
        <ele>61</ele>
        <time>2011-03-18T10:40:31Z</time>
      </trkpt>
      <trkpt lat="37.3345211816" lon="-7.49051737295">
        <ele>62</ele>
        <time>2011-03-18T10:40:34Z</time>
      </trkpt>
      <trkpt lat="37.3345319104" lon="-7.49058652363">
        <ele>62.8</ele>
        <time>2011-03-18T10:40:37Z</time>
      </trkpt>
      <trkpt lat="37.3345473331" lon="-7.49065894324">
        <ele>63.2</ele>
        <time>2011-03-18T10:40:40Z</time>
      </trkpt>
      <trkpt lat="37.3345611632" lon="-7.49072893211">
        <ele>63.8</ele>
        <time>2011-03-18T10:40:43Z</time>
      </trkpt>
      <trkpt lat="37.3345725626" lon="-7.49080068117">
        <ele>64.6</ele>
        <time>2011-03-18T10:40:46Z</time>
      </trkpt>
      <trkpt lat="37.3345899131" lon="-7.49087586682">
        <ele>65.2</ele>
        <time>2011-03-18T10:40:49Z</time>
      </trkpt>
      <trkpt lat="37.3346090239" lon="-7.49094694533">
        <ele>65.8</ele>
        <time>2011-03-18T10:40:52Z</time>
      </trkpt>
      <trkpt lat="37.3346337505" lon="-7.49101232415">
        <ele>66.8</ele>
        <time>2011-03-18T10:40:55Z</time>
      </trkpt>
      <trkpt lat="37.3346592315" lon="-7.49104744431">
        <ele>67.2</ele>
        <time>2011-03-18T10:40:57Z</time>
      </trkpt>
      <trkpt lat="37.3347272087" lon="-7.49100804938">
        <ele>67.8</ele>
        <time>2011-03-18T10:41:00Z</time>
      </trkpt>
      <trkpt lat="37.3347401168" lon="-7.49094627478">
        <ele>68</ele>
        <time>2011-03-18T10:41:03Z</time>
      </trkpt>
      <trkpt lat="37.334744643" lon="-7.4909172734">
        <ele>68.2</ele>
        <time>2011-03-18T10:41:04Z</time>
      </trkpt>
      <trkpt lat="37.3347589761" lon="-7.49083395732">
        <ele>68.4</ele>
        <time>2011-03-18T10:41:07Z</time>
      </trkpt>
      <trkpt lat="37.3347735606" lon="-7.49074745611">
        <ele>68.6</ele>
        <time>2011-03-18T10:41:10Z</time>
      </trkpt>
      <trkpt lat="37.3347888995" lon="-7.49066606786">
        <ele>68.6</ele>
        <time>2011-03-18T10:41:13Z</time>
      </trkpt>
      <trkpt lat="37.3348012208" lon="-7.49060999295">
        <ele>68.8</ele>
        <time>2011-03-18T10:41:15Z</time>
      </trkpt>
      <trkpt lat="37.3348118659" lon="-7.49055869572">
        <ele>68.8</ele>
        <time>2011-03-18T10:41:16Z</time>
      </trkpt>
      <trkpt lat="37.3348274562" lon="-7.49049356836">
        <ele>68.8</ele>
        <time>2011-03-18T10:41:19Z</time>
      </trkpt>
      <trkpt lat="37.3348448905" lon="-7.49041218011">
        <ele>68.8</ele>
        <time>2011-03-18T10:41:22Z</time>
      </trkpt>
      <trkpt lat="37.3348571281" lon="-7.49035442882">
        <ele>68.8</ele>
        <time>2011-03-18T10:41:24Z</time>
      </trkpt>
      <trkpt lat="37.334871545" lon="-7.49027488459">
        <ele>69</ele>
        <time>2011-03-18T10:41:27Z</time>
      </trkpt>
      <trkpt lat="37.3348859619" lon="-7.49019081413">
        <ele>69</ele>
        <time>2011-03-18T10:41:30Z</time>
      </trkpt>
      <trkpt lat="37.3348969421" lon="-7.49011043171">
        <ele>68.6</ele>
        <time>2011-03-18T10:41:33Z</time>
      </trkpt>
      <trkpt lat="37.334909515" lon="-7.49003650335">
        <ele>68</ele>
        <time>2011-03-18T10:41:36Z</time>
      </trkpt>
      <trkpt lat="37.3349189865" lon="-7.48994748757">
        <ele>67.8</ele>
        <time>2011-03-18T10:41:39Z</time>
      </trkpt>
      <trkpt lat="37.3349390193" lon="-7.48987942654">
        <ele>67</ele>
        <time>2011-03-18T10:41:42Z</time>
      </trkpt>
      <trkpt lat="37.3349479879" lon="-7.48979812211">
        <ele>66.4</ele>
        <time>2011-03-18T10:41:45Z</time>
      </trkpt>
      <trkpt lat="37.3349533523" lon="-7.48977230586">
        <ele>66.2</ele>
        <time>2011-03-18T10:41:46Z</time>
      </trkpt>
      <trkpt lat="37.3349596388" lon="-7.48966652628">
        <ele>65.6</ele>
        <time>2011-03-18T10:41:50Z</time>
      </trkpt>
      <trkpt lat="37.3349743071" lon="-7.48957524739">
        <ele>64.8</ele>
        <time>2011-03-18T10:41:53Z</time>
      </trkpt>
      <trkpt lat="37.3349858741" lon="-7.48950266014">
        <ele>64.2</ele>
        <time>2011-03-18T10:41:56Z</time>
      </trkpt>
      <trkpt lat="37.3349855388" lon="-7.48943208454">
        <ele>63.4</ele>
        <time>2011-03-18T10:41:59Z</time>
      </trkpt>
      <trkpt lat="37.3349784142" lon="-7.4894085314">
        <ele>63</ele>
        <time>2011-03-18T10:42:00Z</time>
      </trkpt>
      <trkpt lat="37.3349699485" lon="-7.48934256585">
        <ele>62.4</ele>
        <time>2011-03-18T10:42:03Z</time>
      </trkpt>
      <trkpt lat="37.3349629915" lon="-7.48931976708">
        <ele>62.2</ele>
        <time>2011-03-18T10:42:04Z</time>
      </trkpt>
      <trkpt lat="37.3349469821" lon="-7.48926905659">
        <ele>61.4</ele>
        <time>2011-03-18T10:42:06Z</time>
      </trkpt>
      <trkpt lat="37.3349262788" lon="-7.48921633444">
        <ele>60.8</ele>
        <time>2011-03-18T10:42:08Z</time>
      </trkpt>
      <trkpt lat="37.3349002949" lon="-7.48913955623">
        <ele>60</ele>
        <time>2011-03-18T10:42:11Z</time>
      </trkpt>
      <trkpt lat="37.3348781667" lon="-7.48906948355">
        <ele>59</ele>
        <time>2011-03-18T10:42:14Z</time>
      </trkpt>
      <trkpt lat="37.3348562061" lon="-7.48901273808">
        <ele>58.4</ele>
        <time>2011-03-18T10:42:16Z</time>
      </trkpt>
      <trkpt lat="37.3348297193" lon="-7.48894207867">
        <ele>57.6</ele>
        <time>2011-03-18T10:42:19Z</time>
      </trkpt>
      <trkpt lat="37.3348163083" lon="-7.48889438566">
        <ele>56.8</ele>
        <time>2011-03-18T10:42:21Z</time>
      </trkpt>
      <trkpt lat="37.3348584692" lon="-7.48882481589">
        <ele>55.4</ele>
        <time>2011-03-18T10:42:25Z</time>
      </trkpt>
      <trkpt lat="37.3349233451" lon="-7.48882716282">
        <ele>54.4</ele>
        <time>2011-03-18T10:42:28Z</time>
      </trkpt>
      <trkpt lat="37.334937762" lon="-7.48883479035">
        <ele>54</ele>
        <time>2011-03-18T10:42:29Z</time>
      </trkpt>
      <trkpt lat="37.3350173062" lon="-7.48887259272">
        <ele>52.4</ele>
        <time>2011-03-18T10:42:33Z</time>
      </trkpt>
      <trkpt lat="37.3350712018" lon="-7.48890486303">
        <ele>51.6</ele>
        <time>2011-03-18T10:42:36Z</time>
      </trkpt>
      <trkpt lat="37.3351337308" lon="-7.48893034401">
        <ele>50.6</ele>
        <time>2011-03-18T10:42:39Z</time>
      </trkpt>
      <trkpt lat="37.3351871235" lon="-7.48894367123">
        <ele>49.8</ele>
        <time>2011-03-18T10:42:42Z</time>
      </trkpt>
      <trkpt lat="37.3352380017" lon="-7.48893989937">
        <ele>49.2</ele>
        <time>2011-03-18T10:42:44Z</time>
      </trkpt>
      <trkpt lat="37.335291562" lon="-7.48894668871">
        <ele>48.4</ele>
        <time>2011-03-18T10:42:46Z</time>
      </trkpt>
      <trkpt lat="37.3353440327" lon="-7.48896705673">
        <ele>47.4</ele>
        <time>2011-03-18T10:42:50Z</time>
      </trkpt>
      <trkpt lat="37.3353938212" lon="-7.48899421409">
        <ele>46.8</ele>
        <time>2011-03-18T10:42:53Z</time>
      </trkpt>
      <trkpt lat="37.3354411789" lon="-7.48902195817">
        <ele>46.4</ele>
        <time>2011-03-18T10:42:56Z</time>
      </trkpt>
      <trkpt lat="37.3355110001" lon="-7.48904970226">
        <ele>45.6</ele>
        <time>2011-03-18T10:42:59Z</time>
      </trkpt>
      <trkpt lat="37.335562465" lon="-7.48906302948">
        <ele>45</ele>
        <time>2011-03-18T10:43:02Z</time>
      </trkpt>
      <trkpt lat="37.3356263351" lon="-7.48908222404">
        <ele>44.4</ele>
        <time>2011-03-18T10:43:05Z</time>
      </trkpt>
      <trkpt lat="37.3356841702" lon="-7.48909236613">
        <ele>44</ele>
        <time>2011-03-18T10:43:08Z</time>
      </trkpt>
      <trkpt lat="37.3357445199" lon="-7.48910988431">
        <ele>43.4</ele>
        <time>2011-03-18T10:43:11Z</time>
      </trkpt>
      <trkpt lat="37.3357882734" lon="-7.48913662257">
        <ele>42.8</ele>
        <time>2011-03-18T10:43:14Z</time>
      </trkpt>
      <trkpt lat="37.3358502156" lon="-7.48915975661">
        <ele>42.2</ele>
        <time>2011-03-18T10:43:16Z</time>
      </trkpt>
      <trkpt lat="37.335918109" lon="-7.48917937026">
        <ele>42</ele>
        <time>2011-03-18T10:43:19Z</time>
      </trkpt>
      <trkpt lat="37.3359782072" lon="-7.48917819679">
        <ele>41.8</ele>
        <time>2011-03-18T10:43:21Z</time>
      </trkpt>
      <trkpt lat="37.3360056999" lon="-7.48917626895">
        <ele>41.4</ele>
        <time>2011-03-18T10:43:22Z</time>
      </trkpt>
      <trkpt lat="37.336085747" lon="-7.48911055486">
        <ele>40.8</ele>
        <time>2011-03-18T10:43:25Z</time>
      </trkpt>
      <trkpt lat="37.3361231303" lon="-7.48906579551">
        <ele>40.4</ele>
        <time>2011-03-18T10:43:27Z</time>
      </trkpt>
      <trkpt lat="37.3361613518" lon="-7.48902698731">
        <ele>40</ele>
        <time>2011-03-18T10:43:29Z</time>
      </trkpt>
      <trkpt lat="37.3361872518" lon="-7.48896328487">
        <ele>39.6</ele>
        <time>2011-03-18T10:43:31Z</time>
      </trkpt>
      <trkpt lat="37.3361994056" lon="-7.48893260712">
        <ele>39.4</ele>
        <time>2011-03-18T10:43:32Z</time>
      </trkpt>
      <trkpt lat="37.3362683886" lon="-7.48891659769">
        <ele>38.6</ele>
        <time>2011-03-18T10:43:35Z</time>
      </trkpt>
      <trkpt lat="37.3363294089" lon="-7.48891978281">
        <ele>38.2</ele>
        <time>2011-03-18T10:43:37Z</time>
      </trkpt>
      <trkpt lat="37.3364054327" lon="-7.48891609478">
        <ele>37.4</ele>
        <time>2011-03-18T10:43:40Z</time>
      </trkpt>
      <trkpt lat="37.3364635193" lon="-7.48890989217">
        <ele>37</ele>
        <time>2011-03-18T10:43:42Z</time>
      </trkpt>
      <trkpt lat="37.3365216896" lon="-7.48890620414">
        <ele>36.4</ele>
        <time>2011-03-18T10:43:44Z</time>
      </trkpt>
      <trkpt lat="37.3365876552" lon="-7.488901175">
        <ele>35.6</ele>
        <time>2011-03-18T10:43:46Z</time>
      </trkpt>
      <trkpt lat="37.336657225" lon="-7.48893922882">
        <ele>34.8</ele>
        <time>2011-03-18T10:43:50Z</time>
      </trkpt>
      <trkpt lat="37.336709528" lon="-7.48897384607">
        <ele>34</ele>
        <time>2011-03-18T10:43:53Z</time>
      </trkpt>
      <trkpt lat="37.3367551256" lon="-7.4890097206">
        <ele>33.4</ele>
        <time>2011-03-18T10:43:55Z</time>
      </trkpt>
      <trkpt lat="37.3368038244" lon="-7.48904115273">
        <ele>32.6</ele>
        <time>2011-03-18T10:43:58Z</time>
      </trkpt>
      <trkpt lat="37.3368700414" lon="-7.48910602863">
        <ele>31.6</ele>
        <time>2011-03-18T10:44:01Z</time>
      </trkpt>
      <trkpt lat="37.3369258649" lon="-7.48916528866">
        <ele>30.8</ele>
        <time>2011-03-18T10:44:04Z</time>
      </trkpt>
      <trkpt lat="37.3369891482" lon="-7.48920669525">
        <ele>29.6</ele>
        <time>2011-03-18T10:44:07Z</time>
      </trkpt>
      <trkpt lat="37.3370644177" lon="-7.48923343351">
        <ele>28.8</ele>
        <time>2011-03-18T10:44:10Z</time>
      </trkpt>
      <trkpt lat="37.3371475661" lon="-7.48926168051">
        <ele>27.8</ele>
        <time>2011-03-18T10:44:13Z</time>
      </trkpt>
      <trkpt lat="37.3371701972" lon="-7.48925950122">
        <ele>27.6</ele>
        <time>2011-03-18T10:44:14Z</time>
      </trkpt>
      <trkpt lat="37.3372409405" lon="-7.48922337523">
        <ele>26.6</ele>
        <time>2011-03-18T10:44:17Z</time>
      </trkpt>
      <trkpt lat="37.3373171319" lon="-7.48918984763">
        <ele>26</ele>
        <time>2011-03-18T10:44:20Z</time>
      </trkpt>
      <trkpt lat="37.3373383382" lon="-7.48917048544">
        <ele>25.6</ele>
        <time>2011-03-18T10:44:21Z</time>
      </trkpt>
      <trkpt lat="37.3373900545" lon="-7.48910669918">
        <ele>24.6</ele>
        <time>2011-03-18T10:44:24Z</time>
      </trkpt>
      <trkpt lat="37.3374121827" lon="-7.4890939587">
        <ele>24.2</ele>
        <time>2011-03-18T10:44:25Z</time>
      </trkpt>
      <trkpt lat="37.3374773939" lon="-7.48905422849">
        <ele>23.4</ele>
        <time>2011-03-18T10:44:29Z</time>
      </trkpt>
      <trkpt lat="37.3375436109" lon="-7.48904241001">
        <ele>22.4</ele>
        <time>2011-03-18T10:44:32Z</time>
      </trkpt>
      <trkpt lat="37.3375941537" lon="-7.48904593041">
        <ele>22</ele>
        <time>2011-03-18T10:44:34Z</time>
      </trkpt>
      <trkpt lat="37.3376523241" lon="-7.48905950909">
        <ele>21.4</ele>
        <time>2011-03-18T10:44:37Z</time>
      </trkpt>
      <trkpt lat="37.3377072256" lon="-7.48908096675">
        <ele>21</ele>
        <time>2011-03-18T10:44:40Z</time>
      </trkpt>
      <trkpt lat="37.3377694193" lon="-7.48910091567">
        <ele>20.6</ele>
        <time>2011-03-18T10:44:43Z</time>
      </trkpt>
      <trkpt lat="37.3378332055" lon="-7.48912463645">
        <ele>20.2</ele>
        <time>2011-03-18T10:44:46Z</time>
      </trkpt>
      <trkpt lat="37.3378949801" lon="-7.48914651321">
        <ele>19.6</ele>
        <time>2011-03-18T10:44:49Z</time>
      </trkpt>
      <trkpt lat="37.3379370573" lon="-7.48916403138">
        <ele>19.2</ele>
        <time>2011-03-18T10:44:51Z</time>
      </trkpt>
      <trkpt lat="37.3379932998" lon="-7.48918490231">
        <ele>18.8</ele>
        <time>2011-03-18T10:44:54Z</time>
      </trkpt>
      <trkpt lat="37.3380564155" lon="-7.48920267194">
        <ele>18.4</ele>
        <time>2011-03-18T10:44:57Z</time>
      </trkpt>
      <trkpt lat="37.3381165976" lon="-7.48920686289">
        <ele>18.2</ele>
        <time>2011-03-18T10:45:00Z</time>
      </trkpt>
      <trkpt lat="37.3381827308" lon="-7.48921046711">
        <ele>18.2</ele>
        <time>2011-03-18T10:45:03Z</time>
      </trkpt>
      <trkpt lat="37.3382458465" lon="-7.48922027393">
        <ele>18</ele>
        <time>2011-03-18T10:45:06Z</time>
      </trkpt>
      <trkpt lat="37.3382994068" lon="-7.48923024839">
        <ele>18</ele>
        <time>2011-03-18T10:45:09Z</time>
      </trkpt>
      <trkpt lat="37.3383500335" lon="-7.48923997139">
        <ele>17.8</ele>
        <time>2011-03-18T10:45:12Z</time>
      </trkpt>
      <trkpt lat="37.3384063599" lon="-7.48925933358">
        <ele>17.8</ele>
        <time>2011-03-18T10:45:15Z</time>
      </trkpt>
      <trkpt lat="37.3384731636" lon="-7.48925723811">
        <ele>17.8</ele>
        <time>2011-03-18T10:45:18Z</time>
      </trkpt>
      <trkpt lat="37.3385393806" lon="-7.48926654202">
        <ele>17.8</ele>
        <time>2011-03-18T10:45:21Z</time>
      </trkpt>
      <trkpt lat="37.3385929409" lon="-7.48925748956">
        <ele>17.8</ele>
        <time>2011-03-18T10:45:23Z</time>
      </trkpt>
      <trkpt lat="37.3386576492" lon="-7.48924902385">
        <ele>17.8</ele>
        <time>2011-03-18T10:45:26Z</time>
      </trkpt>
      <trkpt lat="37.3387190885" lon="-7.48923904938">
        <ele>17.8</ele>
        <time>2011-03-18T10:45:29Z</time>
      </trkpt>
      <trkpt lat="37.3387863952" lon="-7.48921935192">
        <ele>17.8</ele>
        <time>2011-03-18T10:45:32Z</time>
      </trkpt>
      <trkpt lat="37.3388397879" lon="-7.48919873245">
        <ele>17.8</ele>
        <time>2011-03-18T10:45:34Z</time>
      </trkpt>
      <trkpt lat="37.3388862236" lon="-7.48918347739">
        <ele>17.8</ele>
        <time>2011-03-18T10:45:36Z</time>
      </trkpt>
      <trkpt lat="37.3389145544" lon="-7.48917258092">
        <ele>17.8</ele>
        <time>2011-03-18T10:45:37Z</time>
      </trkpt>
      <trkpt lat="37.3389781731" lon="-7.48913528146">
        <ele>17.8</ele>
        <time>2011-03-18T10:45:40Z</time>
      </trkpt>
      <trkpt lat="37.3390334098" lon="-7.48910125095">
        <ele>17.8</ele>
        <time>2011-03-18T10:45:43Z</time>
      </trkpt>
      <trkpt lat="37.3390788397" lon="-7.48907602143">
        <ele>17.8</ele>
        <time>2011-03-18T10:45:45Z</time>
      </trkpt>
      <trkpt lat="37.339147236" lon="-7.48903830288">
        <ele>17.8</ele>
        <time>2011-03-18T10:45:48Z</time>
      </trkpt>
      <trkpt lat="37.3392209129" lon="-7.48900687075">
        <ele>17.8</ele>
        <time>2011-03-18T10:45:51Z</time>
      </trkpt>
      <trkpt lat="37.3392625709" lon="-7.48898239561">
        <ele>17.8</ele>
        <time>2011-03-18T10:45:53Z</time>
      </trkpt>
      <trkpt lat="37.3393076656" lon="-7.48895020911">
        <ele>17.8</ele>
        <time>2011-03-18T10:45:55Z</time>
      </trkpt>
      <trkpt lat="37.3393670932" lon="-7.48891282584">
        <ele>17.8</ele>
        <time>2011-03-18T10:45:58Z</time>
      </trkpt>
      <trkpt lat="37.3394290355" lon="-7.48887468819">
        <ele>17.8</ele>
        <time>2011-03-18T10:46:01Z</time>
      </trkpt>
      <trkpt lat="37.3394917321" lon="-7.48884233406">
        <ele>17.8</ele>
        <time>2011-03-18T10:46:04Z</time>
      </trkpt>
      <trkpt lat="37.3395545963" lon="-7.4888116563">
        <ele>17.8</ele>
        <time>2011-03-18T10:46:07Z</time>
      </trkpt>
      <trkpt lat="37.3396220706" lon="-7.48878483422">
        <ele>17.8</ele>
        <time>2011-03-18T10:46:10Z</time>
      </trkpt>
      <trkpt lat="37.3396795705" lon="-7.48875776069">
        <ele>17.8</ele>
        <time>2011-03-18T10:46:13Z</time>
      </trkpt>
      <trkpt lat="37.3397431053" lon="-7.48873806322">
        <ele>17.8</ele>
        <time>2011-03-18T10:46:16Z</time>
      </trkpt>
      <trkpt lat="37.3398040417" lon="-7.4887176952">
        <ele>17.8</ele>
        <time>2011-03-18T10:46:19Z</time>
      </trkpt>
      <trkpt lat="37.3398701749" lon="-7.48869539935">
        <ele>17.8</ele>
        <time>2011-03-18T10:46:22Z</time>
      </trkpt>
      <trkpt lat="37.3399363919" lon="-7.48865625588">
        <ele>17.8</ele>
        <time>2011-03-18T10:46:25Z</time>
      </trkpt>
      <trkpt lat="37.3399969092" lon="-7.48861082598">
        <ele>17.8</ele>
        <time>2011-03-18T10:46:28Z</time>
      </trkpt>
      <trkpt lat="37.3400623718" lon="-7.4885539967">
        <ele>17.8</ele>
        <time>2011-03-18T10:46:31Z</time>
      </trkpt>
      <trkpt lat="37.3401101487" lon="-7.48850764479">
        <ele>17.4</ele>
        <time>2011-03-18T10:46:34Z</time>
      </trkpt>
      <trkpt lat="37.3401528964" lon="-7.48846808222">
        <ele>17</ele>
        <time>2011-03-18T10:46:36Z</time>
      </trkpt>
      <trkpt lat="37.3402061214" lon="-7.48842332288">
        <ele>16.6</ele>
        <time>2011-03-18T10:46:39Z</time>
      </trkpt>
      <trkpt lat="37.3402647947" lon="-7.48837420494">
        <ele>16.4</ele>
        <time>2011-03-18T10:46:42Z</time>
      </trkpt>
      <trkpt lat="37.3403039382" lon="-7.48833858187">
        <ele>16.2</ele>
        <time>2011-03-18T10:46:44Z</time>
      </trkpt>
      <trkpt lat="37.3403466021" lon="-7.48830103096">
        <ele>16.2</ele>
        <time>2011-03-18T10:46:46Z</time>
      </trkpt>
      <trkpt lat="37.3403880925" lon="-7.48826456969">
        <ele>16</ele>
        <time>2011-03-18T10:46:48Z</time>
      </trkpt>
      <trkpt lat="37.3404328518" lon="-7.48820556111">
        <ele>16</ele>
        <time>2011-03-18T10:46:51Z</time>
      </trkpt>
      <trkpt lat="37.3404793714" lon="-7.48814630108">
        <ele>15.8</ele>
        <time>2011-03-18T10:46:54Z</time>
      </trkpt>
      <trkpt lat="37.3405126475" lon="-7.48810724143">
        <ele>15.4</ele>
        <time>2011-03-18T10:46:56Z</time>
      </trkpt>
      <trkpt lat="37.3405571554" lon="-7.48804907104">
        <ele>15.2</ele>
        <time>2011-03-18T10:46:59Z</time>
      </trkpt>
      <trkpt lat="37.340579116" lon="-7.48801906384">
        <ele>14.8</ele>
        <time>2011-03-18T10:47:01Z</time>
      </trkpt>
      <trkpt lat="37.3406387113" lon="-7.48795963617">
        <ele>14.4</ele>
        <time>2011-03-18T10:47:05Z</time>
      </trkpt>
      <trkpt lat="37.3407967101" lon="-7.4878578799">
        <ele>14</ele>
        <time>2011-03-18T10:47:13Z</time>
      </trkpt>
      <trkpt lat="37.3408433973" lon="-7.4878331533">
        <ele>13.6</ele>
        <time>2011-03-18T10:47:15Z</time>
      </trkpt>
      <trkpt lat="37.3408877375" lon="-7.48780884579">
        <ele>13.2</ele>
        <time>2011-03-18T10:47:17Z</time>
      </trkpt>
      <trkpt lat="37.3409360173" lon="-7.48777045669">
        <ele>12.8</ele>
        <time>2011-03-18T10:47:19Z</time>
      </trkpt>
      <trkpt lat="37.3409739035" lon="-7.48773692908">
        <ele>12.6</ele>
        <time>2011-03-18T10:47:21Z</time>
      </trkpt>
      <trkpt lat="37.3410112029" lon="-7.48770105455">
        <ele>12.4</ele>
        <time>2011-03-18T10:47:23Z</time>
      </trkpt>
      <trkpt lat="37.3410649309" lon="-7.48765411591">
        <ele>12.2</ele>
        <time>2011-03-18T10:47:26Z</time>
      </trkpt>
      <trkpt lat="37.3411153899" lon="-7.48760214813">
        <ele>12</ele>
        <time>2011-03-18T10:47:29Z</time>
      </trkpt>
      <trkpt lat="37.3411526894" lon="-7.48756065773">
        <ele>12</ele>
        <time>2011-03-18T10:47:31Z</time>
      </trkpt>
      <trkpt lat="37.3411915814" lon="-7.48751221035">
        <ele>11.8</ele>
        <time>2011-03-18T10:47:34Z</time>
      </trkpt>
      <trkpt lat="37.3412204151" lon="-7.48746711572">
        <ele>11.8</ele>
        <time>2011-03-18T10:47:36Z</time>
      </trkpt>
      <trkpt lat="37.3412420404" lon="-7.48741498031">
        <ele>11.8</ele>
        <time>2011-03-18T10:47:38Z</time>
      </trkpt>
      <trkpt lat="37.3412664318" lon="-7.48734935003">
        <ele>11.8</ele>
        <time>2011-03-18T10:47:41Z</time>
      </trkpt>
      <trkpt lat="37.3412768253" lon="-7.48732881437">
        <ele>11.4</ele>
        <time>2011-03-18T10:47:42Z</time>
      </trkpt>
      <trkpt lat="37.3412859616" lon="-7.48722873449">
        <ele>10.8</ele>
        <time>2011-03-18T10:47:46Z</time>
      </trkpt>
      <trkpt lat="37.341290404" lon="-7.48718196349">
        <ele>10.6</ele>
        <time>2011-03-18T10:47:48Z</time>
      </trkpt>
      <trkpt lat="37.3412965228" lon="-7.48710183252">
        <ele>10.2</ele>
        <time>2011-03-18T10:47:51Z</time>
      </trkpt>
      <trkpt lat="37.3413045694" lon="-7.48704558997">
        <ele>10</ele>
        <time>2011-03-18T10:47:54Z</time>
      </trkpt>
      <trkpt lat="37.341321417" lon="-7.4869777804">
        <ele>10</ele>
        <time>2011-03-18T10:47:57Z</time>
      </trkpt>
      <trkpt lat="37.3413395219" lon="-7.48690519315">
        <ele>9.8</ele>
        <time>2011-03-18T10:48:00Z</time>
      </trkpt>
      <trkpt lat="37.3413598061" lon="-7.48683553956">
        <ele>9.8</ele>
        <time>2011-03-18T10:48:03Z</time>
      </trkpt>
      <trkpt lat="37.3413764861" lon="-7.48675649824">
        <ele>9.6</ele>
        <time>2011-03-18T10:48:06Z</time>
      </trkpt>
      <trkpt lat="37.3413960998" lon="-7.48668466536">
        <ele>9.6</ele>
        <time>2011-03-18T10:48:09Z</time>
      </trkpt>
      <trkpt lat="37.3414059066" lon="-7.48662347749">
        <ele>9.6</ele>
        <time>2011-03-18T10:48:11Z</time>
      </trkpt>
      <trkpt lat="37.3414179765" lon="-7.48655374008">
        <ele>9.6</ele>
        <time>2011-03-18T10:48:14Z</time>
      </trkpt>
      <trkpt lat="37.3414328125" lon="-7.48648039846">
        <ele>9.6</ele>
        <time>2011-03-18T10:48:17Z</time>
      </trkpt>
      <trkpt lat="37.3414366682" lon="-7.48641652838">
        <ele>9.6</ele>
        <time>2011-03-18T10:48:19Z</time>
      </trkpt>
      <trkpt lat="37.3414439604" lon="-7.48633773852">
        <ele>9.4</ele>
        <time>2011-03-18T10:48:22Z</time>
      </trkpt>
      <trkpt lat="37.3414521747" lon="-7.48625760755">
        <ele>8.8</ele>
        <time>2011-03-18T10:48:25Z</time>
      </trkpt>
      <trkpt lat="37.3414584611" lon="-7.48617202835">
        <ele>8.4</ele>
        <time>2011-03-18T10:48:28Z</time>
      </trkpt>
      <trkpt lat="37.3414577067" lon="-7.48611226541">
        <ele>8.2</ele>
        <time>2011-03-18T10:48:30Z</time>
      </trkpt>
      <trkpt lat="37.3414671783" lon="-7.48602492601">
        <ele>8</ele>
        <time>2011-03-18T10:48:33Z</time>
      </trkpt>
      <trkpt lat="37.3414761469" lon="-7.48594630379">
        <ele>8</ele>
        <time>2011-03-18T10:48:36Z</time>
      </trkpt>
      <trkpt lat="37.3414831877" lon="-7.48588955833">
        <ele>7.8</ele>
        <time>2011-03-18T10:48:38Z</time>
      </trkpt>
      <trkpt lat="37.3414875463" lon="-7.48582116202">
        <ele>7.8</ele>
        <time>2011-03-18T10:48:41Z</time>
      </trkpt>
      <trkpt lat="37.3414922402" lon="-7.48574647929">
        <ele>7.6</ele>
        <time>2011-03-18T10:48:44Z</time>
      </trkpt>
      <trkpt lat="37.3414938327" lon="-7.48567783153">
        <ele>7.6</ele>
        <time>2011-03-18T10:48:47Z</time>
      </trkpt>
      <trkpt lat="37.3414994486" lon="-7.48561077633">
        <ele>7.6</ele>
        <time>2011-03-18T10:48:50Z</time>
      </trkpt>
      <trkpt lat="37.3415019632" lon="-7.48554112274">
        <ele>7.6</ele>
        <time>2011-03-18T10:48:53Z</time>
      </trkpt>
      <trkpt lat="37.3415012926" lon="-7.48546954132">
        <ele>7.6</ele>
        <time>2011-03-18T10:48:56Z</time>
      </trkpt>
      <trkpt lat="37.3414921563" lon="-7.4853922602">
        <ele>7.6</ele>
        <time>2011-03-18T10:48:59Z</time>
      </trkpt>
      <trkpt lat="37.3414799188" lon="-7.48533869986">
        <ele>7.6</ele>
        <time>2011-03-18T10:49:01Z</time>
      </trkpt>
      <trkpt lat="37.341463155" lon="-7.48526628024">
        <ele>7.8</ele>
        <time>2011-03-18T10:49:04Z</time>
      </trkpt>
      <trkpt lat="37.34145251" lon="-7.48519092696">
        <ele>8.2</ele>
        <time>2011-03-18T10:49:07Z</time>
      </trkpt>
      <trkpt lat="37.3414391827" lon="-7.48511666333">
        <ele>8.6</ele>
        <time>2011-03-18T10:49:10Z</time>
      </trkpt>
      <trkpt lat="37.3414197367" lon="-7.48505161978">
        <ele>8.8</ele>
        <time>2011-03-18T10:49:13Z</time>
      </trkpt>
      <trkpt lat="37.3413938366" lon="-7.48498246911">
        <ele>9</ele>
        <time>2011-03-18T10:49:16Z</time>
      </trkpt>
      <trkpt lat="37.3413783301" lon="-7.48491030095">
        <ele>9.2</ele>
        <time>2011-03-18T10:49:19Z</time>
      </trkpt>
      <trkpt lat="37.3413773243" lon="-7.48483561822">
        <ele>9.2</ele>
        <time>2011-03-18T10:49:22Z</time>
      </trkpt>
      <trkpt lat="37.3413985305" lon="-7.48476001348">
        <ele>9.6</ele>
        <time>2011-03-18T10:49:25Z</time>
      </trkpt>
      <trkpt lat="37.3414208264" lon="-7.48470888389">
        <ele>10</ele>
        <time>2011-03-18T10:49:27Z</time>
      </trkpt>
      <trkpt lat="37.3414431222" lon="-7.48462305324">
        <ele>10.4</ele>
        <time>2011-03-18T10:49:30Z</time>
      </trkpt>
      <trkpt lat="37.3414378416" lon="-7.48458315539">
        <ele>10.6</ele>
        <time>2011-03-18T10:49:31Z</time>
      </trkpt>
      <trkpt lat="37.3413998716" lon="-7.48452112933">
        <ele>10.8</ele>
        <time>2011-03-18T10:49:34Z</time>
      </trkpt>
      <trkpt lat="37.3413447187" lon="-7.48448374606">
        <ele>11</ele>
        <time>2011-03-18T10:49:37Z</time>
      </trkpt>
      <trkpt lat="37.3413018872" lon="-7.48445776217">
        <ele>11.2</ele>
        <time>2011-03-18T10:49:39Z</time>
      </trkpt>
      <trkpt lat="37.3412483269" lon="-7.48441367337">
        <ele>11.2</ele>
        <time>2011-03-18T10:49:42Z</time>
      </trkpt>
      <trkpt lat="37.3412018911" lon="-7.48436204087">
        <ele>11.4</ele>
        <time>2011-03-18T10:49:45Z</time>
      </trkpt>
      <trkpt lat="37.34116258" lon="-7.48430018245">
        <ele>11.4</ele>
        <time>2011-03-18T10:49:48Z</time>
      </trkpt>
      <trkpt lat="37.3411272084" lon="-7.48423346252">
        <ele>11.4</ele>
        <time>2011-03-18T10:49:51Z</time>
      </trkpt>
      <trkpt lat="37.3411062537" lon="-7.4841685028">
        <ele>11.4</ele>
        <time>2011-03-18T10:49:54Z</time>
      </trkpt>
      <trkpt lat="37.34108664" lon="-7.48410019031">
        <ele>11.6</ele>
        <time>2011-03-18T10:49:57Z</time>
      </trkpt>
      <trkpt lat="37.3410728937" lon="-7.48402299301">
        <ele>11.6</ele>
        <time>2011-03-18T10:50:00Z</time>
      </trkpt>
      <trkpt lat="37.3410649309" lon="-7.48396197278">
        <ele>11.6</ele>
        <time>2011-03-18T10:50:02Z</time>
      </trkpt>
      <trkpt lat="37.3410614943" lon="-7.48391947655">
        <ele>11.6</ele>
        <time>2011-03-18T10:50:03Z</time>
      </trkpt>
      <trkpt lat="37.3410598179" lon="-7.48381143386">
        <ele>11.6</ele>
        <time>2011-03-18T10:50:07Z</time>
      </trkpt>
      <trkpt lat="37.3410577225" lon="-7.48371504201">
        <ele>11.6</ele>
        <time>2011-03-18T10:50:10Z</time>
      </trkpt>
      <trkpt lat="37.3410555432" lon="-7.48363139065">
        <ele>11.6</ele>
        <time>2011-03-18T10:50:13Z</time>
      </trkpt>
      <trkpt lat="37.3410569681" lon="-7.48354539235">
        <ele>11.6</ele>
        <time>2011-03-18T10:50:16Z</time>
      </trkpt>
      <trkpt lat="37.3410610752" lon="-7.48347992971">
        <ele>11.6</ele>
        <time>2011-03-18T10:50:18Z</time>
      </trkpt>
      <trkpt lat="37.3410700439" lon="-7.48342268134">
        <ele>11.6</ele>
        <time>2011-03-18T10:50:20Z</time>
      </trkpt>
      <trkpt lat="37.3410828682" lon="-7.48336828281">
        <ele>11.6</ele>
        <time>2011-03-18T10:50:22Z</time>
      </trkpt>
      <trkpt lat="37.3410957763" lon="-7.48330877132">
        <ele>11.6</ele>
        <time>2011-03-18T10:50:24Z</time>
      </trkpt>
      <trkpt lat="37.3411238557" lon="-7.48323392095">
        <ele>11.6</ele>
        <time>2011-03-18T10:50:27Z</time>
      </trkpt>
      <trkpt lat="37.3411513483" lon="-7.4831609146">
        <ele>11.6</ele>
        <time>2011-03-18T10:50:30Z</time>
      </trkpt>
      <trkpt lat="37.3411775836" lon="-7.4830868186">
        <ele>11.6</ele>
        <time>2011-03-18T10:50:33Z</time>
      </trkpt>
      <trkpt lat="37.3412049924" lon="-7.48302001486">
        <ele>11.6</ele>
        <time>2011-03-18T10:50:36Z</time>
      </trkpt>
      <trkpt lat="37.3412379333" lon="-7.48295773734">
        <ele>11.6</ele>
        <time>2011-03-18T10:50:39Z</time>
      </trkpt>
      <trkpt lat="37.3412752328" lon="-7.4828997346">
        <ele>11.6</ele>
        <time>2011-03-18T10:50:42Z</time>
      </trkpt>
      <trkpt lat="37.3413105206" lon="-7.48284156421">
        <ele>11.6</ele>
        <time>2011-03-18T10:50:45Z</time>
      </trkpt>
      <trkpt lat="37.3413588841" lon="-7.48279781069">
        <ele>11.6</ele>
        <time>2011-03-18T10:50:48Z</time>
      </trkpt>
      <trkpt lat="37.3414162163" lon="-7.48274810602">
        <ele>11.6</ele>
        <time>2011-03-18T10:50:51Z</time>
      </trkpt>
      <trkpt lat="37.3414593831" lon="-7.48270762145">
        <ele>11.6</ele>
        <time>2011-03-18T10:50:54Z</time>
      </trkpt>
      <trkpt lat="37.3415113509" lon="-7.48266487376">
        <ele>11.6</ele>
        <time>2011-03-18T10:50:57Z</time>
      </trkpt>
      <trkpt lat="37.3415637378" lon="-7.48261726457">
        <ele>11.6</ele>
        <time>2011-03-18T10:51:00Z</time>
      </trkpt>
      <trkpt lat="37.3416072398" lon="-7.48257711526">
        <ele>11.6</ele>
        <time>2011-03-18T10:51:03Z</time>
      </trkpt>
      <trkpt lat="37.3416569445" lon="-7.48252850024">
        <ele>11.6</ele>
        <time>2011-03-18T10:51:06Z</time>
      </trkpt>
      <trkpt lat="37.3417091637" lon="-7.48247460463">
        <ele>12</ele>
        <time>2011-03-18T10:51:09Z</time>
      </trkpt>
      <trkpt lat="37.3417493968" lon="-7.48243277895">
        <ele>12.2</ele>
        <time>2011-03-18T10:51:11Z</time>
      </trkpt>
      <trkpt lat="37.3417592875" lon="-7.48242238539">
        <ele>12.4</ele>
        <time>2011-03-18T10:51:12Z</time>
      </trkpt>
      <trkpt lat="37.3418091598" lon="-7.48233303434">
        <ele>12.8</ele>
        <time>2011-03-18T10:51:16Z</time>
      </trkpt>
      <trkpt lat="37.3418358142" lon="-7.4822843355">
        <ele>13</ele>
        <time>2011-03-18T10:51:18Z</time>
      </trkpt>
      <trkpt lat="37.3418586968" lon="-7.48220738966">
        <ele>13.2</ele>
        <time>2011-03-18T10:51:21Z</time>
      </trkpt>
      <trkpt lat="37.3418634745" lon="-7.48215064419">
        <ele>13.2</ele>
        <time>2011-03-18T10:51:23Z</time>
      </trkpt>
      <trkpt lat="37.3418657376" lon="-7.48206632228">
        <ele>13.4</ele>
        <time>2011-03-18T10:51:26Z</time>
      </trkpt>
      <trkpt lat="37.341862804" lon="-7.48198417966">
        <ele>13.4</ele>
        <time>2011-03-18T10:51:29Z</time>
      </trkpt>
      <trkpt lat="37.3418591159" lon="-7.48192190214">
        <ele>13.4</ele>
        <time>2011-03-18T10:51:31Z</time>
      </trkpt>
      <trkpt lat="37.3418560984" lon="-7.48184931489">
        <ele>13.6</ele>
        <time>2011-03-18T10:51:34Z</time>
      </trkpt>
      <trkpt lat="37.3418580263" lon="-7.48176574734">
        <ele>13.6</ele>
        <time>2011-03-18T10:51:37Z</time>
      </trkpt>
      <trkpt lat="37.3418589483" lon="-7.48168184453">
        <ele>13.6</ele>
        <time>2011-03-18T10:51:40Z</time>
      </trkpt>
      <trkpt lat="37.3418654023" lon="-7.48160431195">
        <ele>13.6</ele>
        <time>2011-03-18T10:51:43Z</time>
      </trkpt>
      <trkpt lat="37.341869258" lon="-7.48152149878">
        <ele>13.6</ele>
        <time>2011-03-18T10:51:46Z</time>
      </trkpt>
      <trkpt lat="37.3418756283" lon="-7.4814395238">
        <ele>13.6</ele>
        <time>2011-03-18T10:51:49Z</time>
      </trkpt>
      <trkpt lat="37.3418809089" lon="-7.48136903202">
        <ele>13.6</ele>
        <time>2011-03-18T10:51:51Z</time>
      </trkpt>
      <trkpt lat="37.3418835911" lon="-7.48129761823">
        <ele>13.6</ele>
        <time>2011-03-18T10:51:54Z</time>
      </trkpt>
      <trkpt lat="37.3418846807" lon="-7.48121371541">
        <ele>14</ele>
        <time>2011-03-18T10:51:57Z</time>
      </trkpt>
      <trkpt lat="37.341885016" lon="-7.48113475791">
        <ele>14.4</ele>
        <time>2011-03-18T10:52:00Z</time>
      </trkpt>
      <trkpt lat="37.3418907157" lon="-7.48107658753">
        <ele>14.8</ele>
        <time>2011-03-18T10:52:02Z</time>
      </trkpt>
      <trkpt lat="37.341897505" lon="-7.48099008632">
        <ele>15</ele>
        <time>2011-03-18T10:52:05Z</time>
      </trkpt>
      <trkpt lat="37.3419019474" lon="-7.4809048424">
        <ele>15.2</ele>
        <time>2011-03-18T10:52:08Z</time>
      </trkpt>
      <trkpt lat="37.3419071442" lon="-7.48081549134">
        <ele>15.4</ele>
        <time>2011-03-18T10:52:11Z</time>
      </trkpt>
      <trkpt lat="37.341912341" lon="-7.48073980278">
        <ele>15.4</ele>
        <time>2011-03-18T10:52:14Z</time>
      </trkpt>
      <trkpt lat="37.3419230698" lon="-7.48066076147">
        <ele>15.6</ele>
        <time>2011-03-18T10:52:17Z</time>
      </trkpt>
      <trkpt lat="37.3419343016" lon="-7.48057459554">
        <ele>15.6</ele>
        <time>2011-03-18T10:52:20Z</time>
      </trkpt>
      <trkpt lat="37.3419425158" lon="-7.48049086035">
        <ele>15.8</ele>
        <time>2011-03-18T10:52:23Z</time>
      </trkpt>
      <trkpt lat="37.341951233" lon="-7.48040184458">
        <ele>16.4</ele>
        <time>2011-03-18T10:52:26Z</time>
      </trkpt>
      <trkpt lat="37.3419560945" lon="-7.48033998615">
        <ele>16.6</ele>
        <time>2011-03-18T10:52:28Z</time>
      </trkpt>
      <trkpt lat="37.3419615427" lon="-7.48027837919">
        <ele>16.8</ele>
        <time>2011-03-18T10:52:30Z</time>
      </trkpt>
      <trkpt lat="37.3419680806" lon="-7.48018818995">
        <ele>17</ele>
        <time>2011-03-18T10:52:33Z</time>
      </trkpt>
      <trkpt lat="37.3419730259" lon="-7.48010168874">
        <ele>17.2</ele>
        <time>2011-03-18T10:52:36Z</time>
      </trkpt>
      <trkpt lat="37.3419760434" lon="-7.48001493607">
        <ele>17.4</ele>
        <time>2011-03-18T10:52:39Z</time>
      </trkpt>
      <trkpt lat="37.3419856826" lon="-7.4799303627">
        <ele>17.4</ele>
        <time>2011-03-18T10:52:42Z</time>
      </trkpt>
      <trkpt lat="37.3419954056" lon="-7.47987194086">
        <ele>17.6</ele>
        <time>2011-03-18T10:52:44Z</time>
      </trkpt>
      <trkpt lat="37.34201284" lon="-7.47981284846">
        <ele>17.6</ele>
        <time>2011-03-18T10:52:46Z</time>
      </trkpt>
      <trkpt lat="37.3420295199" lon="-7.479756103">
        <ele>17.6</ele>
        <time>2011-03-18T10:52:48Z</time>
      </trkpt>
      <trkpt lat="37.3420486307" lon="-7.4797022912">
        <ele>17.6</ele>
        <time>2011-03-18T10:52:50Z</time>
      </trkpt>
      <trkpt lat="37.342073022" lon="-7.47962568064">
        <ele>17.6</ele>
        <time>2011-03-18T10:52:53Z</time>
      </trkpt>
      <trkpt lat="37.3420937253" lon="-7.47956876754">
        <ele>17.6</ele>
        <time>2011-03-18T10:52:55Z</time>
      </trkpt>
      <trkpt lat="37.3421218047" lon="-7.4794883013">
        <ele>17.8</ele>
        <time>2011-03-18T10:52:58Z</time>
      </trkpt>
      <trkpt lat="37.3421509737" lon="-7.47941437294">
        <ele>17.2</ele>
        <time>2011-03-18T10:53:01Z</time>
      </trkpt>
      <trkpt lat="37.3421751135" lon="-7.47933985785">
        <ele>16.8</ele>
        <time>2011-03-18T10:53:04Z</time>
      </trkpt>
      <trkpt lat="37.3421998402" lon="-7.47926944989">
        <ele>16.4</ele>
        <time>2011-03-18T10:53:07Z</time>
      </trkpt>
      <trkpt lat="37.3422291768" lon="-7.4791993772">
        <ele>15.8</ele>
        <time>2011-03-18T10:53:10Z</time>
      </trkpt>
      <trkpt lat="37.342265219" lon="-7.47913433366">
        <ele>15.2</ele>
        <time>2011-03-18T10:53:13Z</time>
      </trkpt>
      <trkpt lat="37.3422963158" lon="-7.47909326235">
        <ele>15</ele>
        <time>2011-03-18T10:53:15Z</time>
      </trkpt>
      <trkpt lat="37.3423450147" lon="-7.47904305477">
        <ele>14.6</ele>
        <time>2011-03-18T10:53:18Z</time>
      </trkpt>
      <trkpt lat="37.3423869242" lon="-7.47900676114">
        <ele>14.4</ele>
        <time>2011-03-18T10:53:20Z</time>
      </trkpt>
      <trkpt lat="37.3424457651" lon="-7.47896275617">
        <ele>13.6</ele>
        <time>2011-03-18T10:53:23Z</time>
      </trkpt>
      <trkpt lat="37.342505109" lon="-7.47892595962">
        <ele>13</ele>
        <time>2011-03-18T10:53:26Z</time>
      </trkpt>
      <trkpt lat="37.3425605133" lon="-7.47888949836">
        <ele>12.6</ele>
        <time>2011-03-18T10:53:29Z</time>
      </trkpt>
      <trkpt lat="37.3426066138" lon="-7.47886695105">
        <ele>12.4</ele>
        <time>2011-03-18T10:53:31Z</time>
      </trkpt>
      <trkpt lat="37.3426554802" lon="-7.47885370765">
        <ele>12.2</ele>
        <time>2011-03-18T10:53:34Z</time>
      </trkpt>
      <trkpt lat="37.342673669" lon="-7.4788473374">
        <ele>12</ele>
        <time>2011-03-18T10:53:35Z</time>
      </trkpt>
      <trkpt lat="37.3427532132" lon="-7.47887533295">
        <ele>11.8</ele>
        <time>2011-03-18T10:53:39Z</time>
      </trkpt>
      <trkpt lat="37.3427998166" lon="-7.478926714">
        <ele>11.8</ele>
        <time>2011-03-18T10:53:42Z</time>
      </trkpt>
      <trkpt lat="37.3428400497" lon="-7.47898371092">
        <ele>11.6</ele>
        <time>2011-03-18T10:53:45Z</time>
      </trkpt>
      <trkpt lat="37.3428770139" lon="-7.47904355768">
        <ele>11.6</ele>
        <time>2011-03-18T10:53:48Z</time>
      </trkpt>
      <trkpt lat="37.3429250421" lon="-7.4791058352">
        <ele>11.6</ele>
        <time>2011-03-18T10:53:51Z</time>
      </trkpt>
      <trkpt lat="37.3429779319" lon="-7.47914154209">
        <ele>11.6</ele>
        <time>2011-03-18T10:53:54Z</time>
      </trkpt>
      <trkpt lat="37.3430207634" lon="-7.47916660397">
        <ele>11.6</ele>
        <time>2011-03-18T10:53:56Z</time>
      </trkpt>
      <trkpt lat="37.343079772" lon="-7.47920725619">
        <ele>11.6</ele>
        <time>2011-03-18T10:53:59Z</time>
      </trkpt>
      <trkpt lat="37.3431240284" lon="-7.47923734721">
        <ele>11.6</ele>
        <time>2011-03-18T10:54:01Z</time>
      </trkpt>
      <trkpt lat="37.3431774212" lon="-7.4792880577">
        <ele>11.6</ele>
        <time>2011-03-18T10:54:04Z</time>
      </trkpt>
      <trkpt lat="37.3432339152" lon="-7.4793339067">
        <ele>11.6</ele>
        <time>2011-03-18T10:54:07Z</time>
      </trkpt>
      <trkpt lat="37.3432903253" lon="-7.47937481037">
        <ele>11.6</ele>
        <time>2011-03-18T10:54:10Z</time>
      </trkpt>
      <trkpt lat="37.3433717974" lon="-7.4793709547">
        <ele>11.6</ele>
        <time>2011-03-18T10:54:13Z</time>
      </trkpt>
      <trkpt lat="37.3434251901" lon="-7.47935142487">
        <ele>11.4</ele>
        <time>2011-03-18T10:54:15Z</time>
      </trkpt>
      <trkpt lat="37.3434721288" lon="-7.47933231414">
        <ele>11.4</ele>
        <time>2011-03-18T10:54:17Z</time>
      </trkpt>
      <trkpt lat="37.3435253538" lon="-7.47928939881">
        <ele>11.4</ele>
        <time>2011-03-18T10:54:19Z</time>
      </trkpt>
      <trkpt lat="37.343534071" lon="-7.47925369191">
        <ele>11.4</ele>
        <time>2011-03-18T10:54:20Z</time>
      </trkpt>
      <trkpt lat="37.3435650002" lon="-7.4791808532">
        <ele>11.4</ele>
        <time>2011-03-18T10:54:23Z</time>
      </trkpt>
      <trkpt lat="37.3435912356" lon="-7.4790956931">
        <ele>11.4</ele>
        <time>2011-03-18T10:54:26Z</time>
      </trkpt>
      <trkpt lat="37.3436235059" lon="-7.47902293821">
        <ele>11.4</ele>
        <time>2011-03-18T10:54:29Z</time>
      </trkpt>
      <trkpt lat="37.3436325583" lon="-7.47899787633">
        <ele>11.4</ele>
        <time>2011-03-18T10:54:30Z</time>
      </trkpt>
      <trkpt lat="37.3436644095" lon="-7.47888983364">
        <ele>11.4</ele>
        <time>2011-03-18T10:54:34Z</time>
      </trkpt>
      <trkpt lat="37.3436797484" lon="-7.47881146287">
        <ele>11.6</ele>
        <time>2011-03-18T10:54:37Z</time>
      </trkpt>
      <trkpt lat="37.3436911478" lon="-7.47872135744">
        <ele>12.2</ele>
        <time>2011-03-18T10:54:40Z</time>
      </trkpt>
      <trkpt lat="37.3436861187" lon="-7.4786413103">
        <ele>12.6</ele>
        <time>2011-03-18T10:54:43Z</time>
      </trkpt>
      <trkpt lat="37.3436651639" lon="-7.47857350073">
        <ele>12.8</ele>
        <time>2011-03-18T10:54:46Z</time>
      </trkpt>
      <trkpt lat="37.3436634037" lon="-7.47855019905">
        <ele>12.8</ele>
        <time>2011-03-18T10:54:47Z</time>
      </trkpt>
      <trkpt lat="37.3436522558" lon="-7.47849119047">
        <ele>13</ele>
        <time>2011-03-18T10:54:49Z</time>
      </trkpt>
      <trkpt lat="37.3436466399" lon="-7.47846629623">
        <ele>13</ele>
        <time>2011-03-18T10:54:50Z</time>
      </trkpt>
      <trkpt lat="37.3436148725" lon="-7.47836982056">
        <ele>14</ele>
        <time>2011-03-18T10:54:54Z</time>
      </trkpt>
      <trkpt lat="37.3436016291" lon="-7.47830930324">
        <ele>14.4</ele>
        <time>2011-03-18T10:54:56Z</time>
      </trkpt>
      <trkpt lat="37.343572963" lon="-7.47821659943">
        <ele>14.6</ele>
        <time>2011-03-18T10:55:00Z</time>
      </trkpt>
      <trkpt lat="37.3435449675" lon="-7.47814434745">
        <ele>15</ele>
        <time>2011-03-18T10:55:03Z</time>
      </trkpt>
      <trkpt lat="37.3435089253" lon="-7.4780633783">
        <ele>15</ele>
        <time>2011-03-18T10:55:06Z</time>
      </trkpt>
      <trkpt lat="37.343473386" lon="-7.47800395062">
        <ele>15.8</ele>
        <time>2011-03-18T10:55:09Z</time>
      </trkpt>
      <trkpt lat="37.3434428759" lon="-7.47794754044">
        <ele>16.2</ele>
        <time>2011-03-18T10:55:11Z</time>
      </trkpt>
      <trkpt lat="37.3434039001" lon="-7.47788777749">
        <ele>16.6</ele>
        <time>2011-03-18T10:55:14Z</time>
      </trkpt>
      <trkpt lat="37.3433611524" lon="-7.47782265013">
        <ele>16.8</ele>
        <time>2011-03-18T10:55:17Z</time>
      </trkpt>
      <trkpt lat="37.3433315643" lon="-7.4777779746">
        <ele>17</ele>
        <time>2011-03-18T10:55:19Z</time>
      </trkpt>
      <trkpt lat="37.3433042393" lon="-7.47773086832">
        <ele>17</ele>
        <time>2011-03-18T10:55:21Z</time>
      </trkpt>
      <trkpt lat="37.3432752379" lon="-7.47766356167">
        <ele>17.2</ele>
        <time>2011-03-18T10:55:24Z</time>
      </trkpt>
      <trkpt lat="37.3432541155" lon="-7.47759038768">
        <ele>17.4</ele>
        <time>2011-03-18T10:55:27Z</time>
      </trkpt>
      <trkpt lat="37.3432478291" lon="-7.47750656868">
        <ele>17.4</ele>
        <time>2011-03-18T10:55:30Z</time>
      </trkpt>
      <trkpt lat="37.3432698735" lon="-7.4774224144">
        <ele>17.4</ele>
        <time>2011-03-18T10:55:33Z</time>
      </trkpt>
      <trkpt lat="37.3432933428" lon="-7.4773686026">
        <ele>17.4</ele>
        <time>2011-03-18T10:55:35Z</time>
      </trkpt>
      <trkpt lat="37.3433184047" lon="-7.47732074196">
        <ele>17.4</ele>
        <time>2011-03-18T10:55:37Z</time>
      </trkpt>
      <trkpt lat="37.343362745" lon="-7.47725368676">
        <ele>17.6</ele>
        <time>2011-03-18T10:55:40Z</time>
      </trkpt>
      <trkpt lat="37.3434012179" lon="-7.4771881403">
        <ele>17.6</ele>
        <time>2011-03-18T10:55:43Z</time>
      </trkpt>
      <trkpt lat="37.3434369248" lon="-7.4771374298">
        <ele>17.6</ele>
        <time>2011-03-18T10:55:45Z</time>
      </trkpt>
      <trkpt lat="37.3434667643" lon="-7.47709719668">
        <ele>17.6</ele>
        <time>2011-03-18T10:55:47Z</time>
      </trkpt>
      <trkpt lat="37.3434828576" lon="-7.47707691248">
        <ele>17.6</ele>
        <time>2011-03-18T10:55:48Z</time>
      </trkpt>
      <trkpt lat="37.343520157" lon="-7.47703651173">
        <ele>17.6</ele>
        <time>2011-03-18T10:55:50Z</time>
      </trkpt>
      <trkpt lat="37.3435359988" lon="-7.47701153366">
        <ele>17.6</ele>
        <time>2011-03-18T10:55:51Z</time>
      </trkpt>
      <trkpt lat="37.3435856197" lon="-7.47694137716">
        <ele>17.6</ele>
        <time>2011-03-18T10:55:55Z</time>
      </trkpt>
      <trkpt lat="37.3436178062" lon="-7.47689343269">
        <ele>17.6</ele>
        <time>2011-03-18T10:55:58Z</time>
      </trkpt>
      <trkpt lat="37.3436557762" lon="-7.47682973025">
        <ele>17.6</ele>
        <time>2011-03-18T10:56:01Z</time>
      </trkpt>
      <trkpt lat="37.3436893876" lon="-7.47677440971">
        <ele>17.6</ele>
        <time>2011-03-18T10:56:04Z</time>
      </trkpt>
      <trkpt lat="37.3437172993" lon="-7.47672839308">
        <ele>17.6</ele>
        <time>2011-03-18T10:56:06Z</time>
      </trkpt>
      <trkpt lat="37.3437551017" lon="-7.47666578029">
        <ele>17.6</ele>
        <time>2011-03-18T10:56:09Z</time>
      </trkpt>
      <trkpt lat="37.3437800798" lon="-7.47662269732">
        <ele>17.6</ele>
        <time>2011-03-18T10:56:11Z</time>
      </trkpt>
      <trkpt lat="37.3438147808" lon="-7.47656268292">
        <ele>17.6</ele>
        <time>2011-03-18T10:56:14Z</time>
      </trkpt>
      <trkpt lat="37.3438481408" lon="-7.47649738792">
        <ele>17.6</ele>
        <time>2011-03-18T10:56:17Z</time>
      </trkpt>
      <trkpt lat="37.3438774774" lon="-7.47643636769">
        <ele>17.6</ele>
        <time>2011-03-18T10:56:20Z</time>
      </trkpt>
      <trkpt lat="37.3439071494" lon="-7.47638222061">
        <ele>17.6</ele>
        <time>2011-03-18T10:56:23Z</time>
      </trkpt>
      <trkpt lat="37.3439454546" lon="-7.47632933082">
        <ele>17.6</ele>
        <time>2011-03-18T10:56:26Z</time>
      </trkpt>
      <trkpt lat="37.3439914713" lon="-7.476282476">
        <ele>17.6</ele>
        <time>2011-03-18T10:56:29Z</time>
      </trkpt>
      <trkpt lat="37.3440412598" lon="-7.47624559564">
        <ele>17.6</ele>
        <time>2011-03-18T10:56:32Z</time>
      </trkpt>
      <trkpt lat="37.3440944848" lon="-7.47621868974">
        <ele>17.6</ele>
        <time>2011-03-18T10:56:35Z</time>
      </trkpt>
      <trkpt lat="37.3441487157" lon="-7.47619748354">
        <ele>17.6</ele>
        <time>2011-03-18T10:56:38Z</time>
      </trkpt>
      <trkpt lat="37.3442057965" lon="-7.47617334366">
        <ele>17.6</ele>
        <time>2011-03-18T10:56:41Z</time>
      </trkpt>
      <trkpt lat="37.3442536571" lon="-7.47614979053">
        <ele>17.6</ele>
        <time>2011-03-18T10:56:43Z</time>
      </trkpt>
      <trkpt lat="37.344293052" lon="-7.4761253992">
        <ele>17.6</ele>
        <time>2011-03-18T10:56:45Z</time>
      </trkpt>
      <trkpt lat="37.3443311897" lon="-7.47609832566">
        <ele>17.6</ele>
        <time>2011-03-18T10:56:47Z</time>
      </trkpt>
      <trkpt lat="37.3443820678" lon="-7.47605046501">
        <ele>17.6</ele>
        <time>2011-03-18T10:56:50Z</time>
      </trkpt>
      <trkpt lat="37.3444331974" lon="-7.47600402928">
        <ele>17.6</ele>
        <time>2011-03-18T10:56:53Z</time>
      </trkpt>
      <trkpt lat="37.3444798846" lon="-7.47596186833">
        <ele>17.6</ele>
        <time>2011-03-18T10:56:56Z</time>
      </trkpt>
      <trkpt lat="37.3445305113" lon="-7.47591073874">
        <ele>17.6</ele>
        <time>2011-03-18T10:56:59Z</time>
      </trkpt>
      <trkpt lat="37.3445943813" lon="-7.47585826804">
        <ele>17.6</ele>
        <time>2011-03-18T10:57:02Z</time>
      </trkpt>
      <trkpt lat="37.3446107261" lon="-7.47584083369">
        <ele>17.6</ele>
        <time>2011-03-18T10:57:03Z</time>
      </trkpt>
      <trkpt lat="37.3446689803" lon="-7.47577830472">
        <ele>17.6</ele>
        <time>2011-03-18T10:57:07Z</time>
      </trkpt>
      <trkpt lat="37.3447201098" lon="-7.47572843241">
        <ele>17.6</ele>
        <time>2011-03-18T10:57:10Z</time>
      </trkpt>
      <trkpt lat="37.3447727482" lon="-7.47567395006">
        <ele>17.6</ele>
        <time>2011-03-18T10:57:13Z</time>
      </trkpt>
      <trkpt lat="37.3448219499" lon="-7.47562173083">
        <ele>17.6</ele>
        <time>2011-03-18T10:57:16Z</time>
      </trkpt>
      <trkpt lat="37.3448665416" lon="-7.47555878276">
        <ele>17.6</ele>
        <time>2011-03-18T10:57:19Z</time>
      </trkpt>
      <trkpt lat="37.3449065233" lon="-7.47549088937">
        <ele>17.6</ele>
        <time>2011-03-18T10:57:22Z</time>
      </trkpt>
      <trkpt lat="37.3449400509" lon="-7.47541411116">
        <ele>17.6</ele>
        <time>2011-03-18T10:57:25Z</time>
      </trkpt>
      <trkpt lat="37.3449693876" lon="-7.47534135627">
        <ele>17.2</ele>
        <time>2011-03-18T10:57:28Z</time>
      </trkpt>
      <trkpt lat="37.344990929" lon="-7.47528611955">
        <ele>16.8</ele>
        <time>2011-03-18T10:57:30Z</time>
      </trkpt>
      <trkpt lat="37.3450144822" lon="-7.4752033902">
        <ele>16.6</ele>
        <time>2011-03-18T10:57:33Z</time>
      </trkpt>
      <trkpt lat="37.345045579" lon="-7.47512845601">
        <ele>16.2</ele>
        <time>2011-03-18T10:57:36Z</time>
      </trkpt>
      <trkpt lat="37.3450705571" lon="-7.47507280019">
        <ele>16.2</ele>
        <time>2011-03-18T10:57:38Z</time>
      </trkpt>
      <trkpt lat="37.3450787713" lon="-7.47504673249">
        <ele>16</ele>
        <time>2011-03-18T10:57:39Z</time>
      </trkpt>
      <trkpt lat="37.3451259614" lon="-7.47498311386">
        <ele>16</ele>
        <time>2011-03-18T10:57:42Z</time>
      </trkpt>
      <trkpt lat="37.3451793541" lon="-7.47492318328">
        <ele>15.8</ele>
        <time>2011-03-18T10:57:45Z</time>
      </trkpt>
      <trkpt lat="37.3452164021" lon="-7.47488521327">
        <ele>15.8</ele>
        <time>2011-03-18T10:57:47Z</time>
      </trkpt>
      <trkpt lat="37.3452653524" lon="-7.47481824189">
        <ele>15.6</ele>
        <time>2011-03-18T10:57:50Z</time>
      </trkpt>
      <trkpt lat="37.3452948567" lon="-7.47477163853">
        <ele>15.6</ele>
        <time>2011-03-18T10:57:52Z</time>
      </trkpt>
      <trkpt lat="37.3453171526" lon="-7.47470961247">
        <ele>15.6</ele>
        <time>2011-03-18T10:57:54Z</time>
      </trkpt>
      <trkpt lat="37.3453348384" lon="-7.47465630358">
        <ele>15.6</ele>
        <time>2011-03-18T10:57:56Z</time>
      </trkpt>
      <trkpt lat="37.3453471598" lon="-7.47459469662">
        <ele>15.6</ele>
        <time>2011-03-18T10:57:59Z</time>
      </trkpt>
      <trkpt lat="37.3453570504" lon="-7.47451900806">
        <ele>15.6</ele>
        <time>2011-03-18T10:58:02Z</time>
      </trkpt>
      <trkpt lat="37.3453680307" lon="-7.47445823929">
        <ele>15.6</ele>
        <time>2011-03-18T10:58:04Z</time>
      </trkpt>
      <trkpt lat="37.3453760773" lon="-7.47439747051">
        <ele>15.6</ele>
        <time>2011-03-18T10:58:06Z</time>
      </trkpt>
      <trkpt lat="37.3453804359" lon="-7.47433955158">
        <ele>15.6</ele>
        <time>2011-03-18T10:58:08Z</time>
      </trkpt>
      <trkpt lat="37.3453793463" lon="-7.47425388856">
        <ele>15.6</ele>
        <time>2011-03-18T10:58:11Z</time>
      </trkpt>
      <trkpt lat="37.3453900751" lon="-7.47418490553">
        <ele>15.6</ele>
        <time>2011-03-18T10:58:13Z</time>
      </trkpt>
      <trkpt lat="37.3453982056" lon="-7.47409446483">
        <ele>15.6</ele>
        <time>2011-03-18T10:58:15Z</time>
      </trkpt>
      <trkpt lat="37.3454008878" lon="-7.47400930472">
        <ele>15.6</ele>
        <time>2011-03-18T10:58:17Z</time>
      </trkpt>
      <trkpt lat="37.3453923382" lon="-7.47391676855">
        <ele>15.6</ele>
        <time>2011-03-18T10:58:19Z</time>
      </trkpt>
      <trkpt lat="37.345381777" lon="-7.47382473528">
        <ele>15.6</ele>
        <time>2011-03-18T10:58:21Z</time>
      </trkpt>
      <trkpt lat="37.3453755744" lon="-7.47372616414">
        <ele>15.6</ele>
        <time>2011-03-18T10:58:23Z</time>
      </trkpt>
      <trkpt lat="37.345371132" lon="-7.47363228686">
        <ele>15.6</ele>
        <time>2011-03-18T10:58:25Z</time>
      </trkpt>
      <trkpt lat="37.3453764964" lon="-7.47353379954">
        <ele>15.6</ele>
        <time>2011-03-18T10:58:27Z</time>
      </trkpt>
      <trkpt lat="37.345387812" lon="-7.47343598276">
        <ele>15.6</ele>
        <time>2011-03-18T10:58:29Z</time>
      </trkpt>
      <trkpt lat="37.3454019774" lon="-7.47334554206">
        <ele>15.6</ele>
        <time>2011-03-18T10:58:31Z</time>
      </trkpt>
      <trkpt lat="37.3454153046" lon="-7.4732587894">
        <ele>15.6</ele>
        <time>2011-03-18T10:58:33Z</time>
      </trkpt>
      <trkpt lat="37.3454421267" lon="-7.47317916135">
        <ele>15.6</ele>
        <time>2011-03-18T10:58:35Z</time>
      </trkpt>
      <trkpt lat="37.3454711281" lon="-7.47309835983">
        <ele>15.6</ele>
        <time>2011-03-18T10:58:37Z</time>
      </trkpt>
      <trkpt lat="37.3455029793" lon="-7.4730121939">
        <ele>15.6</ele>
        <time>2011-03-18T10:58:39Z</time>
      </trkpt>
      <trkpt lat="37.3455328189" lon="-7.47291664024">
        <ele>15.6</ele>
        <time>2011-03-18T10:58:41Z</time>
      </trkpt>
      <trkpt lat="37.3455604791" lon="-7.47283382707">
        <ele>15.6</ele>
        <time>2011-03-18T10:58:43Z</time>
      </trkpt>
      <trkpt lat="37.3455876365" lon="-7.47274296727">
        <ele>15.6</ele>
        <time>2011-03-18T10:58:45Z</time>
      </trkpt>
      <trkpt lat="37.3456080045" lon="-7.47265562787">
        <ele>15.6</ele>
        <time>2011-03-18T10:58:47Z</time>
      </trkpt>
      <trkpt lat="37.3456306356" lon="-7.47256258878">
        <ele>15.6</ele>
        <time>2011-03-18T10:58:49Z</time>
      </trkpt>
      <trkpt lat="37.3456548593" lon="-7.47251757798">
        <ele>15.6</ele>
        <time>2011-03-18T10:58:50Z</time>
      </trkpt>
      <trkpt lat="37.3456757303" lon="-7.47247910506">
        <ele>15.6</ele>
        <time>2011-03-18T10:58:51Z</time>
      </trkpt>
      <trkpt lat="37.3457271113" lon="-7.47241758191">
        <ele>15.6</ele>
        <time>2011-03-18T10:58:53Z</time>
      </trkpt>
      <trkpt lat="37.3457678473" lon="-7.47236695524">
        <ele>15.6</ele>
        <time>2011-03-18T10:58:55Z</time>
      </trkpt>
      <trkpt lat="37.3458020455" lon="-7.47235027526">
        <ele>15.6</ele>
        <time>2011-03-18T10:58:56Z</time>
      </trkpt>
      <trkpt lat="37.345870358" lon="-7.47233585839">
        <ele>15.6</ele>
        <time>2011-03-18T10:58:59Z</time>
      </trkpt>
      <trkpt lat="37.3459302886" lon="-7.4723447432">
        <ele>15.6</ele>
        <time>2011-03-18T10:59:01Z</time>
      </trkpt>
      <trkpt lat="37.3459549314" lon="-7.47235790278">
        <ele>15.6</ele>
        <time>2011-03-18T10:59:02Z</time>
      </trkpt>
      <trkpt lat="37.3460229086" lon="-7.47240743981">
        <ele>15.6</ele>
        <time>2011-03-18T10:59:05Z</time>
      </trkpt>
      <trkpt lat="37.3460794026" lon="-7.47237977954">
        <ele>15.6</ele>
        <time>2011-03-18T10:59:07Z</time>
      </trkpt>
      <trkpt lat="37.346136148" lon="-7.47237223583">
        <ele>15.6</ele>
        <time>2011-03-18T10:59:09Z</time>
      </trkpt>
      <trkpt lat="37.3461908818" lon="-7.4723553044">
        <ele>15.6</ele>
        <time>2011-03-18T10:59:11Z</time>
      </trkpt>
      <trkpt lat="37.3462176201" lon="-7.47234482702">
        <ele>15.6</ele>
        <time>2011-03-18T10:59:12Z</time>
      </trkpt>
      <trkpt lat="37.3462733597" lon="-7.47232512956">
        <ele>15.6</ele>
        <time>2011-03-18T10:59:14Z</time>
      </trkpt>
      <trkpt lat="37.3463159398" lon="-7.47227123394">
        <ele>15.6</ele>
        <time>2011-03-18T10:59:16Z</time>
      </trkpt>
      <trkpt lat="37.346361705" lon="-7.47219051624">
        <ele>15.6</ele>
        <time>2011-03-18T10:59:18Z</time>
      </trkpt>
      <trkpt lat="37.3463912092" lon="-7.47210954709">
        <ele>15.6</ele>
        <time>2011-03-18T10:59:20Z</time>
      </trkpt>
      <trkpt lat="37.3464026086" lon="-7.47202706919">
        <ele>15.6</ele>
        <time>2011-03-18T10:59:22Z</time>
      </trkpt>
      <trkpt lat="37.3464106553" lon="-7.4719406518">
        <ele>15.6</ele>
        <time>2011-03-18T10:59:24Z</time>
      </trkpt>
      <trkpt lat="37.3464250721" lon="-7.47185666516">
        <ele>15.6</ele>
        <time>2011-03-18T10:59:26Z</time>
      </trkpt>
      <trkpt lat="37.3464305204" lon="-7.47178793358">
        <ele>15.6</ele>
        <time>2011-03-18T10:59:28Z</time>
      </trkpt>
      <trkpt lat="37.346444099" lon="-7.47171366995">
        <ele>15.6</ele>
        <time>2011-03-18T10:59:30Z</time>
      </trkpt>
      <trkpt lat="37.3464627907" lon="-7.47165030279">
        <ele>15.6</ele>
        <time>2011-03-18T10:59:32Z</time>
      </trkpt>
      <trkpt lat="37.3464837454" lon="-7.47159012074">
        <ele>15.8</ele>
        <time>2011-03-18T10:59:34Z</time>
      </trkpt>
      <trkpt lat="37.346505706" lon="-7.47153086071">
        <ele>16.2</ele>
        <time>2011-03-18T10:59:36Z</time>
      </trkpt>
      <trkpt lat="37.3465357132" lon="-7.47147671364">
        <ele>16.4</ele>
        <time>2011-03-18T10:59:38Z</time>
      </trkpt>
      <trkpt lat="37.3465520579" lon="-7.47142407531">
        <ele>16.6</ele>
        <time>2011-03-18T10:59:40Z</time>
      </trkpt>
      <trkpt lat="37.3465797182" lon="-7.47137160461">
        <ele>16.8</ele>
        <time>2011-03-18T10:59:42Z</time>
      </trkpt>
      <trkpt lat="37.3466158442" lon="-7.4713208103">
        <ele>17</ele>
        <time>2011-03-18T10:59:44Z</time>
      </trkpt>
      <trkpt lat="37.3466553229" lon="-7.47128317557">
        <ele>17.6</ele>
        <time>2011-03-18T10:59:46Z</time>
      </trkpt>
      <trkpt lat="37.346699747" lon="-7.47124436737">
        <ele>18</ele>
        <time>2011-03-18T10:59:48Z</time>
      </trkpt>
      <trkpt lat="37.3467399801" lon="-7.47120983394">
        <ele>18.2</ele>
        <time>2011-03-18T10:59:50Z</time>
      </trkpt>
      <trkpt lat="37.3468043531" lon="-7.47116649952">
        <ele>18.6</ele>
        <time>2011-03-18T10:59:53Z</time>
      </trkpt>
      <trkpt lat="37.3468088793" lon="-7.47116054837">
        <ele>19</ele>
        <time>2011-03-18T10:59:56Z</time>
      </trkpt>
      <trkpt lat="37.3468023414" lon="-7.47117940764">
        <ele>20.6</ele>
        <time>2011-03-18T11:00:08Z</time>
      </trkpt>
      <trkpt lat="37.346837294" lon="-7.4711527532">
        <ele>21</ele>
        <time>2011-03-18T11:00:12Z</time>
      </trkpt>
      <trkpt lat="37.3468433289" lon="-7.47115208265">
        <ele>21</ele>
        <time>2011-03-18T11:00:13Z</time>
      </trkpt>
      <trkpt lat="37.346865541" lon="-7.47113414538">
        <ele>21.2</ele>
        <time>2011-03-18T11:00:16Z</time>
      </trkpt>
      <trkpt lat="37.3468792035" lon="-7.47113204991">
        <ele>21.2</ele>
        <time>2011-03-18T11:00:17Z</time>
      </trkpt>
      <trkpt lat="37.346914156" lon="-7.471104222">
        <ele>21.4</ele>
        <time>2011-03-18T11:00:20Z</time>
      </trkpt>
      <trkpt lat="37.3469439956" lon="-7.47108200997">
        <ele>21.4</ele>
        <time>2011-03-18T11:00:22Z</time>
      </trkpt>
      <trkpt lat="37.3469710691" lon="-7.4710927388">
        <ele>23.2</ele>
        <time>2011-03-18T11:00:57Z</time>
      </trkpt>
      <trkpt lat="37.3469768526" lon="-7.47110179125">
        <ele>23.4</ele>
        <time>2011-03-18T11:01:07Z</time>
      </trkpt>
      <trkpt lat="37.347026222" lon="-7.47108200997">
        <ele>23.6</ele>
        <time>2011-03-18T11:01:11Z</time>
      </trkpt>
      <trkpt lat="37.3470370346" lon="-7.47107681319">
        <ele>23.6</ele>
        <time>2011-03-18T11:01:12Z</time>
      </trkpt>
      <trkpt lat="37.3470884157" lon="-7.47105015875">
        <ele>23.6</ele>
        <time>2011-03-18T11:01:16Z</time>
      </trkpt>
      <trkpt lat="37.3471594104" lon="-7.47103020982">
        <ele>23.6</ele>
        <time>2011-03-18T11:01:19Z</time>
      </trkpt>
      <trkpt lat="37.3472161558" lon="-7.47102157647">
        <ele>23.8</ele>
        <time>2011-03-18T11:01:21Z</time>
      </trkpt>
      <trkpt lat="37.3472849712" lon="-7.47102174411">
        <ele>23.8</ele>
        <time>2011-03-18T11:01:23Z</time>
      </trkpt>
      <trkpt lat="37.3473585643" lon="-7.47105049402">
        <ele>23.8</ele>
        <time>2011-03-18T11:01:25Z</time>
      </trkpt>
      <trkpt lat="37.3474315707" lon="-7.47108335107">
        <ele>23.8</ele>
        <time>2011-03-18T11:01:27Z</time>
      </trkpt>
      <trkpt lat="37.34747633" lon="-7.47109961196">
        <ele>23.8</ele>
        <time>2011-03-18T11:01:29Z</time>
      </trkpt>
      <trkpt lat="37.3475378532" lon="-7.47110296472">
        <ele>24</ele>
        <time>2011-03-18T11:01:33Z</time>
      </trkpt>
      <trkpt lat="37.3476064171" lon="-7.47111687867">
        <ele>24.4</ele>
        <time>2011-03-18T11:01:36Z</time>
      </trkpt>
      <trkpt lat="37.3476654257" lon="-7.47112350037">
        <ele>24.8</ele>
        <time>2011-03-18T11:01:38Z</time>
      </trkpt>
      <trkpt lat="37.3477085087" lon="-7.47113397775">
        <ele>25</ele>
        <time>2011-03-18T11:01:40Z</time>
      </trkpt>
      <trkpt lat="37.3477590515" lon="-7.47114621532">
        <ele>25</ele>
        <time>2011-03-18T11:01:42Z</time>
      </trkpt>
      <trkpt lat="37.3478109355" lon="-7.47115593832">
        <ele>25.2</ele>
        <time>2011-03-18T11:01:44Z</time>
      </trkpt>
      <trkpt lat="37.347861646" lon="-7.47115392667">
        <ele>25.4</ele>
        <time>2011-03-18T11:01:46Z</time>
      </trkpt>
      <trkpt lat="37.3479191458" lon="-7.47114453894">
        <ele>25.4</ele>
        <time>2011-03-18T11:01:48Z</time>
      </trkpt>
      <trkpt lat="37.3479706945" lon="-7.47112475766">
        <ele>25.8</ele>
        <time>2011-03-18T11:01:50Z</time>
      </trkpt>
      <trkpt lat="37.3480048926" lon="-7.47111176571">
        <ele>26.2</ele>
        <time>2011-03-18T11:01:51Z</time>
      </trkpt>
      <trkpt lat="37.3480667511" lon="-7.47107396334">
        <ele>26.6</ele>
        <time>2011-03-18T11:01:54Z</time>
      </trkpt>
      <trkpt lat="37.3481145279" lon="-7.47103775353">
        <ele>26.8</ele>
        <time>2011-03-18T11:01:56Z</time>
      </trkpt>
      <trkpt lat="37.3481586167" lon="-7.47100498031">
        <ele>27</ele>
        <time>2011-03-18T11:01:58Z</time>
      </trkpt>
      <trkpt lat="37.3482053039" lon="-7.47097128507">
        <ele>27.2</ele>
        <time>2011-03-18T11:02:00Z</time>
      </trkpt>
      <trkpt lat="37.3482717723" lon="-7.47098628867">
        <ele>27.4</ele>
        <time>2011-03-18T11:02:03Z</time>
      </trkpt>
      <trkpt lat="37.3483220637" lon="-7.47104781181">
        <ele>27.4</ele>
        <time>2011-03-18T11:02:06Z</time>
      </trkpt>
      <trkpt lat="37.3483589441" lon="-7.47109768412">
        <ele>27.6</ele>
        <time>2011-03-18T11:02:08Z</time>
      </trkpt>
      <trkpt lat="37.3483901248" lon="-7.47114269492">
        <ele>27.6</ele>
        <time>2011-03-18T11:02:10Z</time>
      </trkpt>
      <trkpt lat="37.3484400809" lon="-7.47121771293">
        <ele>27.6</ele>
        <time>2011-03-18T11:02:13Z</time>
      </trkpt>
      <trkpt lat="37.3484792244" lon="-7.47126473539">
        <ele>27.6</ele>
        <time>2011-03-18T11:02:15Z</time>
      </trkpt>
      <trkpt lat="37.3485191222" lon="-7.47130496851">
        <ele>27.8</ele>
        <time>2011-03-18T11:02:17Z</time>
      </trkpt>
      <trkpt lat="37.3485506381" lon="-7.47131125493">
        <ele>27.8</ele>
        <time>2011-03-18T11:02:18Z</time>
      </trkpt>
      <trkpt lat="37.3485986664" lon="-7.47132684527">
        <ele>27.8</ele>
        <time>2011-03-18T11:02:20Z</time>
      </trkpt>
      <trkpt lat="37.3486480358" lon="-7.47134017249">
        <ele>27.8</ele>
        <time>2011-03-18T11:02:22Z</time>
      </trkpt>
      <trkpt lat="37.3486967347" lon="-7.47136858713">
        <ele>27.8</ele>
        <time>2011-03-18T11:02:24Z</time>
      </trkpt>
      <trkpt lat="37.3487200363" lon="-7.47138685967">
        <ele>27.8</ele>
        <time>2011-03-18T11:02:25Z</time>
      </trkpt>
      <trkpt lat="37.3487487863" lon="-7.47142717661">
        <ele>27.8</ele>
        <time>2011-03-18T11:02:27Z</time>
      </trkpt>
      <trkpt lat="37.3487738481" lon="-7.47149129814">
        <ele>27.8</ele>
        <time>2011-03-18T11:02:29Z</time>
      </trkpt>
      <trkpt lat="37.3487974851" lon="-7.47155810189">
        <ele>27.8</ele>
        <time>2011-03-18T11:02:31Z</time>
      </trkpt>
      <trkpt lat="37.3488098065" lon="-7.47163295225">
        <ele>27.8</ele>
        <time>2011-03-18T11:02:34Z</time>
      </trkpt>
      <trkpt lat="37.3488161767" lon="-7.47169237992">
        <ele>27.8</ele>
        <time>2011-03-18T11:02:36Z</time>
      </trkpt>
      <trkpt lat="37.3488160929" lon="-7.47171727417">
        <ele>27.6</ele>
        <time>2011-03-18T11:02:37Z</time>
      </trkpt>
      <trkpt lat="37.3488145842" lon="-7.47181995244">
        <ele>27</ele>
        <time>2011-03-18T11:02:41Z</time>
      </trkpt>
      <trkpt lat="37.3488196133" lon="-7.47190678893">
        <ele>26.6</ele>
        <time>2011-03-18T11:02:44Z</time>
      </trkpt>
      <trkpt lat="37.3488232175" lon="-7.47193687995">
        <ele>26.4</ele>
        <time>2011-03-18T11:02:45Z</time>
      </trkpt>
      <trkpt lat="37.3488318509" lon="-7.47199572089">
        <ele>26.4</ele>
        <time>2011-03-18T11:02:47Z</time>
      </trkpt>
      <trkpt lat="37.3488564099" lon="-7.47208029426">
        <ele>26.2</ele>
        <time>2011-03-18T11:02:50Z</time>
      </trkpt>
      <trkpt lat="37.3488742633" lon="-7.47211994064">
        <ele>26</ele>
        <time>2011-03-18T11:02:51Z</time>
      </trkpt>
      <trkpt lat="37.348917011" lon="-7.47218079324">
        <ele>26</ele>
        <time>2011-03-18T11:02:54Z</time>
      </trkpt>
      <trkpt lat="37.348959172" lon="-7.47221666777">
        <ele>26</ele>
        <time>2011-03-18T11:02:56Z</time>
      </trkpt>
      <trkpt lat="37.3490051886" lon="-7.47223192283">
        <ele>25.8</ele>
        <time>2011-03-18T11:02:58Z</time>
      </trkpt>
      <trkpt lat="37.3490734172" lon="-7.47223946654">
        <ele>25.8</ele>
        <time>2011-03-18T11:03:01Z</time>
      </trkpt>
      <trkpt lat="37.3491254688" lon="-7.47224223256">
        <ele>25.8</ele>
        <time>2011-03-18T11:03:03Z</time>
      </trkpt>
      <trkpt lat="37.3491732457" lon="-7.47223343157">
        <ele>25.8</ele>
        <time>2011-03-18T11:03:05Z</time>
      </trkpt>
      <trkpt lat="37.3492182565" lon="-7.4722190147">
        <ele>25.8</ele>
        <time>2011-03-18T11:03:06Z</time>
      </trkpt>
      <trkpt lat="37.3492827133" lon="-7.47218557092">
        <ele>25.8</ele>
        <time>2011-03-18T11:03:10Z</time>
      </trkpt>
      <trkpt lat="37.3493390397" lon="-7.47214148213">
        <ele>25.8</ele>
        <time>2011-03-18T11:03:13Z</time>
      </trkpt>
      <trkpt lat="37.3493900016" lon="-7.47209102309">
        <ele>25.4</ele>
        <time>2011-03-18T11:03:16Z</time>
      </trkpt>
      <trkpt lat="37.3494500998" lon="-7.47204081551">
        <ele>25</ele>
        <time>2011-03-18T11:03:19Z</time>
      </trkpt>
      <trkpt lat="37.3495126288" lon="-7.47202120186">
        <ele>24.6</ele>
        <time>2011-03-18T11:03:22Z</time>
      </trkpt>
      <trkpt lat="37.3495363496" lon="-7.47201952548">
        <ele>24.6</ele>
        <time>2011-03-18T11:03:23Z</time>
      </trkpt>
      <trkpt lat="37.3495987109" lon="-7.47207761205">
        <ele>24.2</ele>
        <time>2011-03-18T11:03:27Z</time>
      </trkpt>
      <trkpt lat="37.3496417939" lon="-7.47211616879">
        <ele>24.2</ele>
        <time>2011-03-18T11:03:29Z</time>
      </trkpt>
      <trkpt lat="37.3496846254" lon="-7.47216863948">
        <ele>24</ele>
        <time>2011-03-18T11:03:31Z</time>
      </trkpt>
      <trkpt lat="37.3497379343" lon="-7.47222287037">
        <ele>24</ele>
        <time>2011-03-18T11:03:34Z</time>
      </trkpt>
      <trkpt lat="37.3497821069" lon="-7.4722675459">
        <ele>23.8</ele>
        <time>2011-03-18T11:03:36Z</time>
      </trkpt>
      <trkpt lat="37.3498231782" lon="-7.47230660556">
        <ele>23.8</ele>
        <time>2011-03-18T11:03:38Z</time>
      </trkpt>
      <trkpt lat="37.349864501" lon="-7.47234834742">
        <ele>23.8</ele>
        <time>2011-03-18T11:03:40Z</time>
      </trkpt>
      <trkpt lat="37.3498979448" lon="-7.47239184948">
        <ele>23.8</ele>
        <time>2011-03-18T11:03:42Z</time>
      </trkpt>
      <trkpt lat="37.349949242" lon="-7.47245496519">
        <ele>23.8</ele>
        <time>2011-03-18T11:03:45Z</time>
      </trkpt>
      <trkpt lat="37.3499826858" lon="-7.47250282584">
        <ele>23.8</ele>
        <time>2011-03-18T11:03:47Z</time>
      </trkpt>
      <trkpt lat="37.3500124415" lon="-7.47256082858">
        <ele>23.6</ele>
        <time>2011-03-18T11:03:49Z</time>
      </trkpt>
      <trkpt lat="37.3500626491" lon="-7.47260818632">
        <ele>23.6</ele>
        <time>2011-03-18T11:03:51Z</time>
      </trkpt>
      <trkpt lat="37.3501186402" lon="-7.47265579551">
        <ele>23.6</ele>
        <time>2011-03-18T11:03:53Z</time>
      </trkpt>
      <trkpt lat="37.3501800795" lon="-7.47270105777">
        <ele>23.2</ele>
        <time>2011-03-18T11:03:55Z</time>
      </trkpt>
      <trkpt lat="37.3502353162" lon="-7.47273978215">
        <ele>23</ele>
        <time>2011-03-18T11:03:57Z</time>
      </trkpt>
      <trkpt lat="37.3502921455" lon="-7.47278160783">
        <ele>22.8</ele>
        <time>2011-03-18T11:03:59Z</time>
      </trkpt>
      <trkpt lat="37.3503485557" lon="-7.47282594808">
        <ele>22.6</ele>
        <time>2011-03-18T11:04:01Z</time>
      </trkpt>
      <trkpt lat="37.350396584" lon="-7.4728692825">
        <ele>22.4</ele>
        <time>2011-03-18T11:04:03Z</time>
      </trkpt>
      <trkpt lat="37.350441511" lon="-7.47292778817">
        <ele>22.2</ele>
        <time>2011-03-18T11:04:05Z</time>
      </trkpt>
      <trkpt lat="37.3504877791" lon="-7.47300020778">
        <ele>22.2</ele>
        <time>2011-03-18T11:04:07Z</time>
      </trkpt>
      <trkpt lat="37.3505297724" lon="-7.47307883">
        <ele>22</ele>
        <time>2011-03-18T11:04:09Z</time>
      </trkpt>
      <trkpt lat="37.3505916308" lon="-7.47315854187">
        <ele>22</ele>
        <time>2011-03-18T11:04:11Z</time>
      </trkpt>
      <trkpt lat="37.350632283" lon="-7.47320640252">
        <ele>21.8</ele>
        <time>2011-03-18T11:04:13Z</time>
      </trkpt>
      <trkpt lat="37.3506931356" lon="-7.47324043304">
        <ele>21.8</ele>
        <time>2011-03-18T11:04:15Z</time>
      </trkpt>
      <trkpt lat="37.3507621186" lon="-7.47325560427">
        <ele>21.8</ele>
        <time>2011-03-18T11:04:17Z</time>
      </trkpt>
      <trkpt lat="37.3508333648" lon="-7.47326708748">
        <ele>21.8</ele>
        <time>2011-03-18T11:04:19Z</time>
      </trkpt>
      <trkpt lat="37.3509062035" lon="-7.47326817712">
        <ele>21.8</ele>
        <time>2011-03-18T11:04:21Z</time>
      </trkpt>
      <trkpt lat="37.350986083" lon="-7.47325769975">
        <ele>21.8</ele>
        <time>2011-03-18T11:04:23Z</time>
      </trkpt>
      <trkpt lat="37.3510666331" lon="-7.4732636509">
        <ele>21.8</ele>
        <time>2011-03-18T11:04:25Z</time>
      </trkpt>
      <trkpt lat="37.3511346941" lon="-7.47327169752">
        <ele>21.6</ele>
        <time>2011-03-18T11:04:27Z</time>
      </trkpt>
      <trkpt lat="37.3512020008" lon="-7.4732887966">
        <ele>21.6</ele>
        <time>2011-03-18T11:04:29Z</time>
      </trkpt>
      <trkpt lat="37.351269056" lon="-7.47333104137">
        <ele>21.6</ele>
        <time>2011-03-18T11:04:31Z</time>
      </trkpt>
      <trkpt lat="37.3513087862" lon="-7.47337957258">
        <ele>21.6</ele>
        <time>2011-03-18T11:04:33Z</time>
      </trkpt>
      <trkpt lat="37.3513448283" lon="-7.47345433912">
        <ele>21.6</ele>
        <time>2011-03-18T11:04:35Z</time>
      </trkpt>
      <trkpt lat="37.3513783559" lon="-7.4735248309">
        <ele>21.6</ele>
        <time>2011-03-18T11:04:37Z</time>
      </trkpt>
      <trkpt lat="37.3514108777" lon="-7.47359632851">
        <ele>21.6</ele>
        <time>2011-03-18T11:04:39Z</time>
      </trkpt>
      <trkpt lat="37.3514446568" lon="-7.4736607015">
        <ele>21.6</ele>
        <time>2011-03-18T11:04:41Z</time>
      </trkpt>
      <trkpt lat="37.3514877397" lon="-7.47371510003">
        <ele>21.6</ele>
        <time>2011-03-18T11:04:43Z</time>
      </trkpt>
      <trkpt lat="37.3515461616" lon="-7.47376287686">
        <ele>21.6</ele>
        <time>2011-03-18T11:04:45Z</time>
      </trkpt>
      <trkpt lat="37.3516069303" lon="-7.47378768729">
        <ele>21.6</ele>
        <time>2011-03-18T11:04:47Z</time>
      </trkpt>
      <trkpt lat="37.3516822836" lon="-7.47380243943">
        <ele>21.6</ele>
        <time>2011-03-18T11:04:49Z</time>
      </trkpt>
      <trkpt lat="37.3517679466" lon="-7.47380797148">
        <ele>21.6</ele>
        <time>2011-03-18T11:04:51Z</time>
      </trkpt>
      <trkpt lat="37.3518034021" lon="-7.47381300062">
        <ele>21.6</ele>
        <time>2011-03-18T11:04:52Z</time>
      </trkpt>
      <trkpt lat="37.3518796774" lon="-7.47385423957">
        <ele>21.6</ele>
        <time>2011-03-18T11:04:55Z</time>
      </trkpt>
      <trkpt lat="37.3519315613" lon="-7.47389170667">
        <ele>21.6</ele>
        <time>2011-03-18T11:04:57Z</time>
      </trkpt>
      <trkpt lat="37.3519883068" lon="-7.47393738802">
        <ele>21.6</ele>
        <time>2011-03-18T11:04:59Z</time>
      </trkpt>
      <trkpt lat="37.3520251033" lon="-7.47398809852">
        <ele>21.6</ele>
        <time>2011-03-18T11:05:01Z</time>
      </trkpt>
      <trkpt lat="37.3520608102" lon="-7.47404777764">
        <ele>21.6</ele>
        <time>2011-03-18T11:05:03Z</time>
      </trkpt>
      <trkpt lat="37.3520995346" lon="-7.47409471628">
        <ele>21.6</ele>
        <time>2011-03-18T11:05:05Z</time>
      </trkpt>
      <trkpt lat="37.3521346548" lon="-7.47414877954">
        <ele>21.6</ele>
        <time>2011-03-18T11:05:07Z</time>
      </trkpt>
      <trkpt lat="37.3521617283" lon="-7.47421642147">
        <ele>21.6</ele>
        <time>2011-03-18T11:05:09Z</time>
      </trkpt>
      <trkpt lat="37.352198441" lon="-7.47429764208">
        <ele>21.6</ele>
        <time>2011-03-18T11:05:11Z</time>
      </trkpt>
      <trkpt lat="37.3522310466" lon="-7.47434759821">
        <ele>21.6</ele>
        <time>2011-03-18T11:05:13Z</time>
      </trkpt>
      <trkpt lat="37.3522589583" lon="-7.47442395732">
        <ele>21.6</ele>
        <time>2011-03-18T11:05:15Z</time>
      </trkpt>
      <trkpt lat="37.3522875406" lon="-7.47449939441">
        <ele>21.6</ele>
        <time>2011-03-18T11:05:17Z</time>
      </trkpt>
      <trkpt lat="37.3523022928" lon="-7.47458354869">
        <ele>21.6</ele>
        <time>2011-03-18T11:05:19Z</time>
      </trkpt>
      <trkpt lat="37.3523143627" lon="-7.47466418257">
        <ele>21.6</ele>
        <time>2011-03-18T11:05:21Z</time>
      </trkpt>
      <trkpt lat="37.3523239181" lon="-7.47474246952">
        <ele>21.6</ele>
        <time>2011-03-18T11:05:23Z</time>
      </trkpt>
      <trkpt lat="37.35233691" lon="-7.47481966681">
        <ele>21.6</ele>
        <time>2011-03-18T11:05:25Z</time>
      </trkpt>
      <trkpt lat="37.3523555178" lon="-7.47490373727">
        <ele>21.6</ele>
        <time>2011-03-18T11:05:27Z</time>
      </trkpt>
      <trkpt lat="37.3523749638" lon="-7.4749903223">
        <ele>21.6</ele>
        <time>2011-03-18T11:05:29Z</time>
      </trkpt>
      <trkpt lat="37.3524260096" lon="-7.47506056262">
        <ele>21.6</ele>
        <time>2011-03-18T11:05:31Z</time>
      </trkpt>
      <trkpt lat="37.3524649854" lon="-7.4751054896">
        <ele>21.6</ele>
        <time>2011-03-18T11:05:33Z</time>
      </trkpt>
      <trkpt lat="37.3525103315" lon="-7.47515024895">
        <ele>21.6</ele>
        <time>2011-03-18T11:05:35Z</time>
      </trkpt>
      <trkpt lat="37.3525571025" lon="-7.47520020507">
        <ele>21.6</ele>
        <time>2011-03-18T11:05:37Z</time>
      </trkpt>
      <trkpt lat="37.3526122554" lon="-7.47523859418">
        <ele>21.6</ele>
        <time>2011-03-18T11:05:39Z</time>
      </trkpt>
      <trkpt lat="37.3526716831" lon="-7.4752647457">
        <ele>21.6</ele>
        <time>2011-03-18T11:05:41Z</time>
      </trkpt>
      <trkpt lat="37.3527467849" lon="-7.47527924639">
        <ele>21.6</ele>
        <time>2011-03-18T11:05:43Z</time>
      </trkpt>
      <trkpt lat="37.3528205456" lon="-7.47528125805">
        <ele>21.6</ele>
        <time>2011-03-18T11:05:45Z</time>
      </trkpt>
      <trkpt lat="37.3528872656" lon="-7.47527983312">
        <ele>21.6</ele>
        <time>2011-03-18T11:05:47Z</time>
      </trkpt>
      <trkpt lat="37.3529635409" lon="-7.47529726748">
        <ele>21.6</ele>
        <time>2011-03-18T11:05:49Z</time>
      </trkpt>
      <trkpt lat="37.3530510479" lon="-7.4753251792">
        <ele>21.6</ele>
        <time>2011-03-18T11:05:51Z</time>
      </trkpt>
      <trkpt lat="37.3531114814" lon="-7.47534278119">
        <ele>21.6</ele>
        <time>2011-03-18T11:05:53Z</time>
      </trkpt>
      <trkpt lat="37.3531842363" lon="-7.47537605734">
        <ele>21.6</ele>
        <time>2011-03-18T11:05:55Z</time>
      </trkpt>
      <trkpt lat="37.3532399759" lon="-7.47542727075">
        <ele>21.6</ele>
        <time>2011-03-18T11:05:57Z</time>
      </trkpt>
      <trkpt lat="37.3532949612" lon="-7.47550547387">
        <ele>21.6</ele>
        <time>2011-03-18T11:05:59Z</time>
      </trkpt>
      <trkpt lat="37.3533402234" lon="-7.47558317409">
        <ele>21.6</ele>
        <time>2011-03-18T11:06:01Z</time>
      </trkpt>
      <trkpt lat="37.353372829" lon="-7.4756507322">
        <ele>21.6</ele>
        <time>2011-03-18T11:06:03Z</time>
      </trkpt>
      <trkpt lat="37.3533925265" lon="-7.47572985734">
        <ele>21.6</ele>
        <time>2011-03-18T11:06:05Z</time>
      </trkpt>
      <trkpt lat="37.3534003217" lon="-7.47580772519">
        <ele>21.6</ele>
        <time>2011-03-18T11:06:07Z</time>
      </trkpt>
      <trkpt lat="37.3533963822" lon="-7.4758805639">
        <ele>21.6</ele>
        <time>2011-03-18T11:06:09Z</time>
      </trkpt>
      <trkpt lat="37.3533772714" lon="-7.47596320943">
        <ele>21.6</ele>
        <time>2011-03-18T11:06:11Z</time>
      </trkpt>
      <trkpt lat="37.3533713203" lon="-7.47602171509">
        <ele>21.6</ele>
        <time>2011-03-18T11:06:13Z</time>
      </trkpt>
      <trkpt lat="37.3533625193" lon="-7.47610427681">
        <ele>21.6</ele>
        <time>2011-03-18T11:06:15Z</time>
      </trkpt>
      <trkpt lat="37.3533531316" lon="-7.47617753461">
        <ele>21.6</ele>
        <time>2011-03-18T11:06:17Z</time>
      </trkpt>
      <trkpt lat="37.3533673808" lon="-7.47625297171">
        <ele>21.6</ele>
        <time>2011-03-18T11:06:19Z</time>
      </trkpt>
      <trkpt lat="37.3533925265" lon="-7.47629211519">
        <ele>21.6</ele>
        <time>2011-03-18T11:06:20Z</time>
      </trkpt>
      <trkpt lat="37.3534330949" lon="-7.47635464416">
        <ele>21.6</ele>
        <time>2011-03-18T11:06:22Z</time>
      </trkpt>
      <trkpt lat="37.3534848112" lon="-7.4764103838">
        <ele>21.6</ele>
        <time>2011-03-18T11:06:24Z</time>
      </trkpt>
      <trkpt lat="37.3535428978" lon="-7.4764567357">
        <ele>21.6</ele>
        <time>2011-03-18T11:06:26Z</time>
      </trkpt>
      <trkpt lat="37.353584472" lon="-7.47651809121">
        <ele>21.6</ele>
        <time>2011-03-18T11:06:28Z</time>
      </trkpt>
      <trkpt lat="37.3536167423" lon="-7.47659269012">
        <ele>21.6</ele>
        <time>2011-03-18T11:06:30Z</time>
      </trkpt>
      <trkpt lat="37.3536411337" lon="-7.47667282109">
        <ele>21.6</ele>
        <time>2011-03-18T11:06:32Z</time>
      </trkpt>
      <trkpt lat="37.3536542094" lon="-7.47675211386">
        <ele>21.6</ele>
        <time>2011-03-18T11:06:34Z</time>
      </trkpt>
      <trkpt lat="37.3536573945" lon="-7.47682755096">
        <ele>21.6</ele>
        <time>2011-03-18T11:06:36Z</time>
      </trkpt>
      <trkpt lat="37.3536366912" lon="-7.47690533499">
        <ele>21.6</ele>
        <time>2011-03-18T11:06:38Z</time>
      </trkpt>
      <trkpt lat="37.3536055944" lon="-7.47697741933">
        <ele>21.6</ele>
        <time>2011-03-18T11:06:40Z</time>
      </trkpt>
      <trkpt lat="37.3535585719" lon="-7.47704581564">
        <ele>21.6</ele>
        <time>2011-03-18T11:06:42Z</time>
      </trkpt>
      <trkpt lat="37.3535177521" lon="-7.47711647505">
        <ele>21.6</ele>
        <time>2011-03-18T11:06:44Z</time>
      </trkpt>
      <trkpt lat="37.3534739986" lon="-7.4771943429">
        <ele>21.6</ele>
        <time>2011-03-18T11:06:46Z</time>
      </trkpt>
      <trkpt lat="37.3534261379" lon="-7.4772816823">
        <ele>21.6</ele>
        <time>2011-03-18T11:06:48Z</time>
      </trkpt>
      <trkpt lat="37.3533749245" lon="-7.47736365728">
        <ele>21.6</ele>
        <time>2011-03-18T11:06:50Z</time>
      </trkpt>
      <trkpt lat="37.3533301652" lon="-7.47744571608">
        <ele>21.6</ele>
        <time>2011-03-18T11:06:52Z</time>
      </trkpt>
      <trkpt lat="37.3533003256" lon="-7.47750531139">
        <ele>21.6</ele>
        <time>2011-03-18T11:06:53Z</time>
      </trkpt>
      <trkpt lat="37.3532474358" lon="-7.47761184534">
        <ele>21.6</ele>
        <time>2011-03-18T11:06:56Z</time>
      </trkpt>
      <trkpt lat="37.3532115613" lon="-7.47768300767">
        <ele>21.6</ele>
        <time>2011-03-18T11:06:58Z</time>
      </trkpt>
      <trkpt lat="37.353176022" lon="-7.47775685221">
        <ele>21.4</ele>
        <time>2011-03-18T11:07:00Z</time>
      </trkpt>
      <trkpt lat="37.3531484456" lon="-7.47781317858">
        <ele>21</ele>
        <time>2011-03-18T11:07:02Z</time>
      </trkpt>
      <trkpt lat="37.35312045" lon="-7.47786321852">
        <ele>20.8</ele>
        <time>2011-03-18T11:07:04Z</time>
      </trkpt>
      <trkpt lat="37.3530942985" lon="-7.47792029926">
        <ele>20.6</ele>
        <time>2011-03-18T11:07:06Z</time>
      </trkpt>
      <trkpt lat="37.353070913" lon="-7.47798861175">
        <ele>20.4</ele>
        <time>2011-03-18T11:07:08Z</time>
      </trkpt>
      <trkpt lat="37.3530459349" lon="-7.47805415821">
        <ele>20.2</ele>
        <time>2011-03-18T11:07:10Z</time>
      </trkpt>
      <trkpt lat="37.353010228" lon="-7.47814744875">
        <ele>20</ele>
        <time>2011-03-18T11:07:13Z</time>
      </trkpt>
      <trkpt lat="37.3529715037" lon="-7.47822649007">
        <ele>20</ele>
        <time>2011-03-18T11:07:16Z</time>
      </trkpt>
      <trkpt lat="37.352939401" lon="-7.47830972234">
        <ele>19.8</ele>
        <time>2011-03-18T11:07:18Z</time>
      </trkpt>
      <trkpt lat="37.3528958151" lon="-7.47838759019">
        <ele>19.8</ele>
        <time>2011-03-18T11:07:20Z</time>
      </trkpt>
      <trkpt lat="37.3528579289" lon="-7.4784569085">
        <ele>19.8</ele>
        <time>2011-03-18T11:07:21Z</time>
      </trkpt>
      <trkpt lat="37.3528156003" lon="-7.478535866">
        <ele>19.8</ele>
        <time>2011-03-18T11:07:24Z</time>
      </trkpt>
      <trkpt lat="37.3527915443" lon="-7.47859822733">
        <ele>19.6</ele>
        <time>2011-03-18T11:07:26Z</time>
      </trkpt>
      <trkpt lat="37.3527695837" lon="-7.47864751291">
        <ele>19.6</ele>
        <time>2011-03-18T11:07:28Z</time>
      </trkpt>
      <trkpt lat="37.3527501377" lon="-7.47870979042">
        <ele>19.6</ele>
        <time>2011-03-18T11:07:30Z</time>
      </trkpt>
      <trkpt lat="37.3527074738" lon="-7.47881439654">
        <ele>19.4</ele>
        <time>2011-03-18T11:07:33Z</time>
      </trkpt>
      <trkpt lat="37.3526784724" lon="-7.47886359829">
        <ele>19</ele>
        <time>2011-03-18T11:07:35Z</time>
      </trkpt>
      <trkpt lat="37.3526549193" lon="-7.47892017611">
        <ele>18.8</ele>
        <time>2011-03-18T11:07:37Z</time>
      </trkpt>
      <trkpt lat="37.3526275105" lon="-7.47897097043">
        <ele>18.6</ele>
        <time>2011-03-18T11:07:39Z</time>
      </trkpt>
      <trkpt lat="37.3525832541" lon="-7.47902210002">
        <ele>18.2</ele>
        <time>2011-03-18T11:07:42Z</time>
      </trkpt>
      <trkpt lat="37.3525436915" lon="-7.47905713636">
        <ele>18</ele>
        <time>2011-03-18T11:07:44Z</time>
      </trkpt>
      <trkpt lat="37.3525071464" lon="-7.47909208888">
        <ele>18</ele>
        <time>2011-03-18T11:07:46Z</time>
      </trkpt>
      <trkpt lat="37.3524680029" lon="-7.47912687377">
        <ele>17.8</ele>
        <time>2011-03-18T11:07:48Z</time>
      </trkpt>
      <trkpt lat="37.3524136882" lon="-7.47917934446">
        <ele>17.8</ele>
        <time>2011-03-18T11:07:51Z</time>
      </trkpt>
      <trkpt lat="37.3523602117" lon="-7.47922343326">
        <ele>17.6</ele>
        <time>2011-03-18T11:07:54Z</time>
      </trkpt>
      <trkpt lat="37.3523037177" lon="-7.47926307964">
        <ele>17.6</ele>
        <time>2011-03-18T11:07:57Z</time>
      </trkpt>
      <trkpt lat="37.3522664182" lon="-7.47930616261">
        <ele>17.6</ele>
        <time>2011-03-18T11:07:59Z</time>
      </trkpt>
      <trkpt lat="37.3522402667" lon="-7.47932518952">
        <ele>17.6</ele>
        <time>2011-03-18T11:08:00Z</time>
      </trkpt>
      <trkpt lat="37.3521805876" lon="-7.47940314119">
        <ele>17.6</ele>
        <time>2011-03-18T11:08:05Z</time>
      </trkpt>
      <trkpt lat="37.3521432043" lon="-7.47943180729">
        <ele>17.6</ele>
        <time>2011-03-18T11:08:07Z</time>
      </trkpt>
      <trkpt lat="37.3521121075" lon="-7.47949685083">
        <ele>17.6</ele>
        <time>2011-03-18T11:08:09Z</time>
      </trkpt>
      <trkpt lat="37.3521211599" lon="-7.47957010864">
        <ele>17.2</ele>
        <time>2011-03-18T11:08:11Z</time>
      </trkpt>
      <trkpt lat="37.352127614" lon="-7.47958460933">
        <ele>17</ele>
        <time>2011-03-18T11:08:12Z</time>
      </trkpt>
      <trkpt lat="37.3521583755" lon="-7.47962769229">
        <ele>16.6</ele>
        <time>2011-03-18T11:08:14Z</time>
      </trkpt>
      <trkpt lat="37.3522023805" lon="-7.47967966007">
        <ele>16.4</ele>
        <time>2011-03-18T11:08:17Z</time>
      </trkpt>
      <trkpt lat="37.3522430327" lon="-7.47970732034">
        <ele>16</ele>
        <time>2011-03-18T11:08:20Z</time>
      </trkpt>
      <trkpt lat="37.3522696034" lon="-7.47973078966">
        <ele>16</ele>
        <time>2011-03-18T11:08:22Z</time>
      </trkpt>
      <trkpt lat="37.3523324676" lon="-7.47976029395">
        <ele>15.8</ele>
        <time>2011-03-18T11:08:26Z</time>
      </trkpt>
      <trkpt lat="37.3523570266" lon="-7.4797865293">
        <ele>15.6</ele>
        <time>2011-03-18T11:08:28Z</time>
      </trkpt>
      <trkpt lat="37.3524157837" lon="-7.47983028282">
        <ele>15.6</ele>
        <time>2011-03-18T11:08:31Z</time>
      </trkpt>
      <trkpt lat="37.3524535022" lon="-7.47987093503">
        <ele>15.6</ele>
        <time>2011-03-18T11:08:34Z</time>
      </trkpt>
      <trkpt lat="37.3524870298" lon="-7.47992633939">
        <ele>15.4</ele>
        <time>2011-03-18T11:08:37Z</time>
      </trkpt>
      <trkpt lat="37.3525131814" lon="-7.47998953892">
        <ele>15.4</ele>
        <time>2011-03-18T11:08:39Z</time>
      </trkpt>
      <trkpt lat="37.3525332979" lon="-7.48004879895">
        <ele>15.4</ele>
        <time>2011-03-18T11:08:41Z</time>
      </trkpt>
      <trkpt lat="37.352556432" lon="-7.48011442923">
        <ele>15.4</ele>
        <time>2011-03-18T11:08:43Z</time>
      </trkpt>
      <trkpt lat="37.3525747045" lon="-7.48017838312">
        <ele>15.4</ele>
        <time>2011-03-18T11:08:45Z</time>
      </trkpt>
      <trkpt lat="37.3525957431" lon="-7.48024024154">
        <ele>15.4</ele>
        <time>2011-03-18T11:08:47Z</time>
      </trkpt>
      <trkpt lat="37.3526251636" lon="-7.48030637474">
        <ele>15.6</ele>
        <time>2011-03-18T11:08:49Z</time>
      </trkpt>
      <trkpt lat="37.3526441066" lon="-7.48033336445">
        <ele>15.8</ele>
        <time>2011-03-18T11:08:50Z</time>
      </trkpt>
      <trkpt lat="37.352683753" lon="-7.48043587509">
        <ele>16.2</ele>
        <time>2011-03-18T11:08:53Z</time>
      </trkpt>
      <trkpt lat="37.3527014388" lon="-7.48049136327">
        <ele>16.4</ele>
        <time>2011-03-18T11:08:55Z</time>
      </trkpt>
      <trkpt lat="37.3527276742" lon="-7.48055137767">
        <ele>16.6</ele>
        <time>2011-03-18T11:08:57Z</time>
      </trkpt>
      <trkpt lat="37.3527586872" lon="-7.48061248172">
        <ele>16.8</ele>
        <time>2011-03-18T11:08:59Z</time>
      </trkpt>
      <trkpt lat="37.3527810669" lon="-7.48066595825">
        <ele>17</ele>
        <time>2011-03-18T11:09:01Z</time>
      </trkpt>
      <trkpt lat="37.3528128343" lon="-7.48072153024">
        <ele>17</ele>
        <time>2011-03-18T11:09:03Z</time>
      </trkpt>
      <trkpt lat="37.3528335376" lon="-7.4807791139">
        <ele>17</ele>
        <time>2011-03-18T11:09:05Z</time>
      </trkpt>
      <trkpt lat="37.3528605273" lon="-7.48084373834">
        <ele>17.2</ele>
        <time>2011-03-18T11:09:07Z</time>
      </trkpt>
      <trkpt lat="37.3528923785" lon="-7.48093979492">
        <ele>17.2</ele>
        <time>2011-03-18T11:09:09Z</time>
      </trkpt>
      <trkpt lat="37.3529428376" lon="-7.48105697388">
        <ele>17.2</ele>
        <time>2011-03-18T11:09:11Z</time>
      </trkpt>
      <trkpt lat="37.352975527" lon="-7.48114096052">
        <ele>17.2</ele>
        <time>2011-03-18T11:09:13Z</time>
      </trkpt>
      <trkpt lat="37.3530112339" lon="-7.48124472844">
        <ele>17.2</ele>
        <time>2011-03-18T11:09:15Z</time>
      </trkpt>
      <trkpt lat="37.3530416602" lon="-7.48133667788">
        <ele>17.4</ele>
        <time>2011-03-18T11:09:17Z</time>
      </trkpt>
      <trkpt lat="37.3530577534" lon="-7.48138940003">
        <ele>17.4</ele>
        <time>2011-03-18T11:09:18Z</time>
      </trkpt>
      <trkpt lat="37.3530932927" lon="-7.48150607608">
        <ele>17.4</ele>
        <time>2011-03-18T11:09:21Z</time>
      </trkpt>
      <trkpt lat="37.3531197795" lon="-7.48157925007">
        <ele>17.4</ele>
        <time>2011-03-18T11:09:23Z</time>
      </trkpt>
      <trkpt lat="37.3531338611" lon="-7.48160858672">
        <ele>17.4</ele>
        <time>2011-03-18T11:09:24Z</time>
      </trkpt>
      <trkpt lat="37.3531673048" lon="-7.48166977459">
        <ele>17.2</ele>
        <time>2011-03-18T11:09:26Z</time>
      </trkpt>
      <trkpt lat="37.3532076218" lon="-7.48174068546">
        <ele>16.8</ele>
        <time>2011-03-18T11:09:28Z</time>
      </trkpt>
      <trkpt lat="37.3532377128" lon="-7.48178645064">
        <ele>16.6</ele>
        <time>2011-03-18T11:09:30Z</time>
      </trkpt>
      <trkpt lat="37.3532706537" lon="-7.48185283529">
        <ele>16.4</ele>
        <time>2011-03-18T11:09:32Z</time>
      </trkpt>
      <trkpt lat="37.3533090428" lon="-7.48192718274">
        <ele>16.2</ele>
        <time>2011-03-18T11:09:34Z</time>
      </trkpt>
      <trkpt lat="37.3533360325" lon="-7.48197177445">
        <ele>16</ele>
        <time>2011-03-18T11:09:36Z</time>
      </trkpt>
      <trkpt lat="37.3533626869" lon="-7.48203271086">
        <ele>16</ele>
        <time>2011-03-18T11:09:38Z</time>
      </trkpt>
      <trkpt lat="37.3533996511" lon="-7.48208886959">
        <ele>15.8</ele>
        <time>2011-03-18T11:09:40Z</time>
      </trkpt>
      <trkpt lat="37.3534285687" lon="-7.48215701444">
        <ele>15.8</ele>
        <time>2011-03-18T11:09:42Z</time>
      </trkpt>
      <trkpt lat="37.3534506131" lon="-7.48220504272">
        <ele>15.6</ele>
        <time>2011-03-18T11:09:44Z</time>
      </trkpt>
      <trkpt lat="37.3534782733" lon="-7.48227997691">
        <ele>15.6</ele>
        <time>2011-03-18T11:09:46Z</time>
      </trkpt>
      <trkpt lat="37.3534944504" lon="-7.48237921861">
        <ele>15.6</ele>
        <time>2011-03-18T11:09:49Z</time>
      </trkpt>
      <trkpt lat="37.3535119686" lon="-7.48244258577">
        <ele>15.6</ele>
        <time>2011-03-18T11:09:51Z</time>
      </trkpt>
      <trkpt lat="37.3535361923" lon="-7.48251617885">
        <ele>15.4</ele>
        <time>2011-03-18T11:09:54Z</time>
      </trkpt>
      <trkpt lat="37.3535520341" lon="-7.4825808033">
        <ele>15.4</ele>
        <time>2011-03-18T11:09:56Z</time>
      </trkpt>
      <trkpt lat="37.35356226" lon="-7.48265573749">
        <ele>15.4</ele>
        <time>2011-03-18T11:09:59Z</time>
      </trkpt>
      <trkpt lat="37.3535777665" lon="-7.48271482988">
        <ele>15.4</ele>
        <time>2011-03-18T11:10:01Z</time>
      </trkpt>
      <trkpt lat="37.3535887468" lon="-7.48278624367">
        <ele>15.4</ele>
        <time>2011-03-18T11:10:04Z</time>
      </trkpt>
      <trkpt lat="37.3536009005" lon="-7.48287785784">
        <ele>15.8</ele>
        <time>2011-03-18T11:10:07Z</time>
      </trkpt>
      <trkpt lat="37.3536146469" lon="-7.48294549977">
        <ele>16.2</ele>
        <time>2011-03-18T11:10:10Z</time>
      </trkpt>
      <trkpt lat="37.3536146469" lon="-7.48302781003">
        <ele>16.6</ele>
        <time>2011-03-18T11:10:13Z</time>
      </trkpt>
      <trkpt lat="37.3536128028" lon="-7.4830854775">
        <ele>16.8</ele>
        <time>2011-03-18T11:10:15Z</time>
      </trkpt>
      <trkpt lat="37.3536091148" lon="-7.48314423462">
        <ele>16.8</ele>
        <time>2011-03-18T11:10:17Z</time>
      </trkpt>
      <trkpt lat="37.3536024931" lon="-7.48320751796">
        <ele>17</ele>
        <time>2011-03-18T11:10:19Z</time>
      </trkpt>
      <trkpt lat="37.3535838853" lon="-7.48325923429">
        <ele>17.2</ele>
        <time>2011-03-18T11:10:21Z</time>
      </trkpt>
      <trkpt lat="37.3535566441" lon="-7.48331363282">
        <ele>17.6</ele>
        <time>2011-03-18T11:10:23Z</time>
      </trkpt>
      <trkpt lat="37.3535295706" lon="-7.48338806409">
        <ele>18</ele>
        <time>2011-03-18T11:10:25Z</time>
      </trkpt>
      <trkpt lat="37.3535020779" lon="-7.48343558946">
        <ele>18.2</ele>
        <time>2011-03-18T11:10:27Z</time>
      </trkpt>
      <trkpt lat="37.3534528762" lon="-7.48348722197">
        <ele>18.6</ele>
        <time>2011-03-18T11:10:29Z</time>
      </trkpt>
      <trkpt lat="37.3534306641" lon="-7.48351974374">
        <ele>18.6</ele>
        <time>2011-03-18T11:10:30Z</time>
      </trkpt>
      <trkpt lat="37.3534056023" lon="-7.48355410953">
        <ele>18.6</ele>
        <time>2011-03-18T11:10:31Z</time>
      </trkpt>
      <trkpt lat="37.353375176" lon="-7.48359350446">
        <ele>18.8</ele>
        <time>2011-03-18T11:10:33Z</time>
      </trkpt>
      <trkpt lat="37.3533310034" lon="-7.48364035928">
        <ele>19</ele>
        <time>2011-03-18T11:10:35Z</time>
      </trkpt>
      <trkpt lat="37.3532735873" lon="-7.48368629209">
        <ele>19</ele>
        <time>2011-03-18T11:10:37Z</time>
      </trkpt>
      <trkpt lat="37.3532056101" lon="-7.48373348219">
        <ele>19.2</ele>
        <time>2011-03-18T11:10:39Z</time>
      </trkpt>
      <trkpt lat="37.3531393093" lon="-7.48378134284">
        <ele>19.2</ele>
        <time>2011-03-18T11:10:41Z</time>
      </trkpt>
      <trkpt lat="37.3530770318" lon="-7.48383993232">
        <ele>19.2</ele>
        <time>2011-03-18T11:10:43Z</time>
      </trkpt>
      <trkpt lat="37.3530522214" lon="-7.48389164864">
        <ele>19.2</ele>
        <time>2011-03-18T11:10:44Z</time>
      </trkpt>
      <trkpt lat="37.3530321886" lon="-7.48394805883">
        <ele>19.4</ele>
        <time>2011-03-18T11:10:46Z</time>
      </trkpt>
      <trkpt lat="37.3530051989" lon="-7.48404478595">
        <ele>19.4</ele>
        <time>2011-03-18T11:10:48Z</time>
      </trkpt>
      <trkpt lat="37.3529961464" lon="-7.48411418809">
        <ele>19.4</ele>
        <time>2011-03-18T11:10:50Z</time>
      </trkpt>
      <trkpt lat="37.3530031872" lon="-7.48416774843">
        <ele>19.4</ele>
        <time>2011-03-18T11:10:51Z</time>
      </trkpt>
      <trkpt lat="37.3530146704" lon="-7.48420571843">
        <ele>19.4</ele>
        <time>2011-03-18T11:10:52Z</time>
      </trkpt>
      <trkpt lat="37.3530688175" lon="-7.48431200093">
        <ele>19.4</ele>
        <time>2011-03-18T11:10:55Z</time>
      </trkpt>
      <trkpt lat="37.3530915325" lon="-7.48437553573">
        <ele>19.4</ele>
        <time>2011-03-18T11:10:57Z</time>
      </trkpt>
      <trkpt lat="37.3531178516" lon="-7.48442725205">
        <ele>19.4</ele>
        <time>2011-03-18T11:10:58Z</time>
      </trkpt>
      <trkpt lat="37.353135286" lon="-7.4844451055">
        <ele>19.4</ele>
        <time>2011-03-18T11:10:59Z</time>
      </trkpt>
      <trkpt lat="37.3531719149" lon="-7.48455172327">
        <ele>19.4</ele>
        <time>2011-03-18T11:11:02Z</time>
      </trkpt>
      <trkpt lat="37.3531932049" lon="-7.48463587754">
        <ele>19.4</ele>
        <time>2011-03-18T11:11:04Z</time>
      </trkpt>
      <trkpt lat="37.3532083762" lon="-7.48473059301">
        <ele>19.4</ele>
        <time>2011-03-18T11:11:06Z</time>
      </trkpt>
      <trkpt lat="37.3532247209" lon="-7.48480846086">
        <ele>19.4</ele>
        <time>2011-03-18T11:11:08Z</time>
      </trkpt>
      <trkpt lat="37.3532429934" lon="-7.48488398178">
        <ele>19.4</ele>
        <time>2011-03-18T11:11:10Z</time>
      </trkpt>
      <trkpt lat="37.3532620203" lon="-7.48496495094">
        <ele>19.4</ele>
        <time>2011-03-18T11:11:12Z</time>
      </trkpt>
      <trkpt lat="37.3532792032" lon="-7.48503024594">
        <ele>19.4</ele>
        <time>2011-03-18T11:11:14Z</time>
      </trkpt>
      <trkpt lat="37.3532859087" lon="-7.48507819041">
        <ele>19.4</ele>
        <time>2011-03-18T11:11:16Z</time>
      </trkpt>
      <trkpt lat="37.3532917761" lon="-7.48511004163">
        <ele>19.4</ele>
        <time>2011-03-18T11:11:33Z</time>
      </trkpt>
      <trkpt lat="37.3532817178" lon="-7.48511909408">
        <ele>19.4</ele>
        <time>2011-03-18T11:11:51Z</time>
      </trkpt>
      <trkpt lat="37.3532974758" lon="-7.48517198387">
        <ele>19.4</ele>
        <time>2011-03-18T11:12:02Z</time>
      </trkpt>
      <trkpt lat="37.3533113897" lon="-7.48522261054">
        <ele>19.4</ele>
        <time>2011-03-18T11:12:05Z</time>
      </trkpt>
      <trkpt lat="37.3533231244" lon="-7.48527767963">
        <ele>19.4</ele>
        <time>2011-03-18T11:12:08Z</time>
      </trkpt>
      <trkpt lat="37.3533320092" lon="-7.48532688138">
        <ele>19.4</ele>
        <time>2011-03-18T11:12:11Z</time>
      </trkpt>
      <trkpt lat="37.3533421513" lon="-7.48537541258">
        <ele>19.4</ele>
        <time>2011-03-18T11:12:14Z</time>
      </trkpt>
      <trkpt lat="37.3533505332" lon="-7.4854310684">
        <ele>19.4</ele>
        <time>2011-03-18T11:12:17Z</time>
      </trkpt>
      <trkpt lat="37.353359418" lon="-7.48549359737">
        <ele>19.4</ele>
        <time>2011-03-18T11:12:19Z</time>
      </trkpt>
      <trkpt lat="37.3533474319" lon="-7.48560239443">
        <ele>19.4</ele>
        <time>2011-03-18T11:12:22Z</time>
      </trkpt>
      <trkpt lat="37.3533336856" lon="-7.48567221566">
        <ele>19.4</ele>
        <time>2011-03-18T11:12:24Z</time>
      </trkpt>
      <trkpt lat="37.3533076179" lon="-7.48575117316">
        <ele>19</ele>
        <time>2011-03-18T11:12:26Z</time>
      </trkpt>
      <trkpt lat="37.3533016667" lon="-7.4857778276">
        <ele>18.8</ele>
        <time>2011-03-18T11:12:27Z</time>
      </trkpt>
      <trkpt lat="37.353359418" lon="-7.48591185418">
        <ele>18.4</ele>
        <time>2011-03-18T11:12:30Z</time>
      </trkpt>
      <trkpt lat="37.353421947" lon="-7.48594529796">
        <ele>18.2</ele>
        <time>2011-03-18T11:12:32Z</time>
      </trkpt>
      <trkpt lat="37.3534447457" lon="-7.48595418277">
        <ele>18.2</ele>
        <time>2011-03-18T11:12:33Z</time>
      </trkpt>
      <trkpt lat="37.3535151537" lon="-7.48597974757">
        <ele>18</ele>
        <time>2011-03-18T11:12:35Z</time>
      </trkpt>
      <trkpt lat="37.3535689655" lon="-7.48601117969">
        <ele>18</ele>
        <time>2011-03-18T11:12:37Z</time>
      </trkpt>
      <trkpt lat="37.3536485097" lon="-7.48605979471">
        <ele>17.8</ele>
        <time>2011-03-18T11:12:40Z</time>
      </trkpt>
      <trkpt lat="37.3537027406" lon="-7.48609390905">
        <ele>17.4</ele>
        <time>2011-03-18T11:12:42Z</time>
      </trkpt>
      <trkpt lat="37.3537624197" lon="-7.48613196287">
        <ele>17</ele>
        <time>2011-03-18T11:12:44Z</time>
      </trkpt>
      <trkpt lat="37.3538230209" lon="-7.48617219599">
        <ele>16.8</ele>
        <time>2011-03-18T11:12:46Z</time>
      </trkpt>
      <trkpt lat="37.3538762459" lon="-7.48621796117">
        <ele>16.4</ele>
        <time>2011-03-18T11:12:48Z</time>
      </trkpt>
      <trkpt lat="37.3539205862" lon="-7.48628233416">
        <ele>16.2</ele>
        <time>2011-03-18T11:12:50Z</time>
      </trkpt>
      <trkpt lat="37.3539585562" lon="-7.48634762916">
        <ele>16</ele>
        <time>2011-03-18T11:12:52Z</time>
      </trkpt>
      <trkpt lat="37.353988731" lon="-7.48641879149">
        <ele>16</ele>
        <time>2011-03-18T11:12:54Z</time>
      </trkpt>
      <trkpt lat="37.3540080932" lon="-7.48648031464">
        <ele>15.8</ele>
        <time>2011-03-18T11:12:56Z</time>
      </trkpt>
      <trkpt lat="37.3540312273" lon="-7.48655684138">
        <ele>15.8</ele>
        <time>2011-03-18T11:12:58Z</time>
      </trkpt>
      <trkpt lat="37.3540510086" lon="-7.48661626906">
        <ele>15.6</ele>
        <time>2011-03-18T11:13:00Z</time>
      </trkpt>
      <trkpt lat="37.3540714604" lon="-7.48667217633">
        <ele>15.6</ele>
        <time>2011-03-18T11:13:02Z</time>
      </trkpt>
      <trkpt lat="37.3540843685" lon="-7.48671978552">
        <ele>15.6</ele>
        <time>2011-03-18T11:13:04Z</time>
      </trkpt>
      <trkpt lat="37.35410591" lon="-7.48679078021">
        <ele>15.6</ele>
        <time>2011-03-18T11:13:06Z</time>
      </trkpt>
      <trkpt lat="37.3541287926" lon="-7.48685984707">
        <ele>15.4</ele>
        <time>2011-03-18T11:13:09Z</time>
      </trkpt>
      <trkpt lat="37.354166595" lon="-7.48691466469">
        <ele>15.4</ele>
        <time>2011-03-18T11:13:11Z</time>
      </trkpt>
      <trkpt lat="37.3542059899" lon="-7.48694852757">
        <ele>15.4</ele>
        <time>2011-03-18T11:13:13Z</time>
      </trkpt>
      <trkpt lat="37.3542763979" lon="-7.48697417619">
        <ele>15.4</ele>
        <time>2011-03-18T11:13:16Z</time>
      </trkpt>
      <trkpt lat="37.3543266054" lon="-7.48697937296">
        <ele>15.4</ele>
        <time>2011-03-18T11:13:18Z</time>
      </trkpt>
      <trkpt lat="37.3543783218" lon="-7.48697962442">
        <ele>15.4</ele>
        <time>2011-03-18T11:13:20Z</time>
      </trkpt>
      <trkpt lat="37.3544275235" lon="-7.48697987588">
        <ele>15.4</ele>
        <time>2011-03-18T11:13:22Z</time>
      </trkpt>
      <trkpt lat="37.3544992726" lon="-7.48698716813">
        <ele>15.4</ele>
        <time>2011-03-18T11:13:25Z</time>
      </trkpt>
      <trkpt lat="37.3545731171" lon="-7.48699881897">
        <ele>15.4</ele>
        <time>2011-03-18T11:13:28Z</time>
      </trkpt>
      <trkpt lat="37.3546232409" lon="-7.48701206237">
        <ele>15.4</ele>
        <time>2011-03-18T11:13:30Z</time>
      </trkpt>
      <trkpt lat="37.3546832553" lon="-7.4870346935">
        <ele>15.4</ele>
        <time>2011-03-18T11:13:33Z</time>
      </trkpt>
      <trkpt lat="37.3547337143" lon="-7.48705858192">
        <ele>15.4</ele>
        <time>2011-03-18T11:13:35Z</time>
      </trkpt>
      <trkpt lat="37.3547969977" lon="-7.48708800239">
        <ele>15.4</ele>
        <time>2011-03-18T11:13:38Z</time>
      </trkpt>
      <trkpt lat="37.3548363088" lon="-7.48710820277">
        <ele>15.4</ele>
        <time>2011-03-18T11:13:40Z</time>
      </trkpt>
      <trkpt lat="37.3549030287" lon="-7.48713586304">
        <ele>15.4</ele>
        <time>2011-03-18T11:13:43Z</time>
      </trkpt>
      <trkpt lat="37.354973269" lon="-7.48716193075">
        <ele>15.4</ele>
        <time>2011-03-18T11:13:46Z</time>
      </trkpt>
      <trkpt lat="37.3550231413" lon="-7.48717953274">
        <ele>15.4</ele>
        <time>2011-03-18T11:13:48Z</time>
      </trkpt>
      <trkpt lat="37.3550699123" lon="-7.48719386578">
        <ele>15.4</ele>
        <time>2011-03-18T11:13:50Z</time>
      </trkpt>
      <trkpt lat="37.3551414938" lon="-7.48720777974">
        <ele>15.4</ele>
        <time>2011-03-18T11:13:53Z</time>
      </trkpt>
      <trkpt lat="37.3551873427" lon="-7.48721096486">
        <ele>15.4</ele>
        <time>2011-03-18T11:13:55Z</time>
      </trkpt>
      <trkpt lat="37.3552633666" lon="-7.48720861793">
        <ele>15.4</ele>
        <time>2011-03-18T11:13:58Z</time>
      </trkpt>
      <trkpt lat="37.3553162564" lon="-7.4872093723">
        <ele>15.4</ele>
        <time>2011-03-18T11:14:00Z</time>
      </trkpt>
      <trkpt lat="37.3553709064" lon="-7.48720819883">
        <ele>15.4</ele>
        <time>2011-03-18T11:14:02Z</time>
      </trkpt>
      <trkpt lat="37.3554220359" lon="-7.48720258296">
        <ele>15.4</ele>
        <time>2011-03-18T11:14:04Z</time>
      </trkpt>
      <trkpt lat="37.355471573" lon="-7.48719353051">
        <ele>15.4</ele>
        <time>2011-03-18T11:14:06Z</time>
      </trkpt>
      <trkpt lat="37.35555908" lon="-7.48719663181">
        <ele>15.4</ele>
        <time>2011-03-18T11:14:10Z</time>
      </trkpt>
      <trkpt lat="37.3556263028" lon="-7.48718498097">
        <ele>15.4</ele>
        <time>2011-03-18T11:14:13Z</time>
      </trkpt>
      <trkpt lat="37.3556983034" lon="-7.48717643143">
        <ele>15.4</ele>
        <time>2011-03-18T11:14:16Z</time>
      </trkpt>
      <trkpt lat="37.3557490139" lon="-7.48717249194">
        <ele>15.4</ele>
        <time>2011-03-18T11:14:18Z</time>
      </trkpt>
      <trkpt lat="37.3558089445" lon="-7.4871688039">
        <ele>15.4</ele>
        <time>2011-03-18T11:14:20Z</time>
      </trkpt>
      <trkpt lat="37.3558664443" lon="-7.48716385858">
        <ele>15.4</ele>
        <time>2011-03-18T11:14:22Z</time>
      </trkpt>
      <trkpt lat="37.3559167357" lon="-7.48714960935">
        <ele>15.4</ele>
        <time>2011-03-18T11:14:24Z</time>
      </trkpt>
      <trkpt lat="37.3559639258" lon="-7.48713938343">
        <ele>15.4</ele>
        <time>2011-03-18T11:14:26Z</time>
      </trkpt>
      <trkpt lat="37.3560132952" lon="-7.487132175">
        <ele>15.4</ele>
        <time>2011-03-18T11:14:28Z</time>
      </trkpt>
      <trkpt lat="37.356062916" lon="-7.4871255533">
        <ele>15.4</ele>
        <time>2011-03-18T11:14:30Z</time>
      </trkpt>
      <trkpt lat="37.3561264508" lon="-7.48712739732">
        <ele>15.4</ele>
        <time>2011-03-18T11:14:33Z</time>
      </trkpt>
      <trkpt lat="37.3561802626" lon="-7.48712546948">
        <ele>15.4</ele>
        <time>2011-03-18T11:14:35Z</time>
      </trkpt>
      <trkpt lat="37.3562270336" lon="-7.48713167209">
        <ele>15.4</ele>
        <time>2011-03-18T11:14:37Z</time>
      </trkpt>
      <trkpt lat="37.3562978607" lon="-7.48714139509">
        <ele>15.4</ele>
        <time>2011-03-18T11:14:40Z</time>
      </trkpt>
      <trkpt lat="37.3563466433" lon="-7.4871520401">
        <ele>15.4</ele>
        <time>2011-03-18T11:14:42Z</time>
      </trkpt>
      <trkpt lat="37.3564050652" lon="-7.48716587024">
        <ele>15.4</ele>
        <time>2011-03-18T11:14:45Z</time>
      </trkpt>
      <trkpt lat="37.356470444" lon="-7.48717794017">
        <ele>15.4</ele>
        <time>2011-03-18T11:14:47Z</time>
      </trkpt>
      <trkpt lat="37.3565226632" lon="-7.48718104148">
        <ele>15.4</ele>
        <time>2011-03-18T11:14:49Z</time>
      </trkpt>
      <trkpt lat="37.3565782352" lon="-7.48717743726">
        <ele>15.4</ele>
        <time>2011-03-18T11:14:51Z</time>
      </trkpt>
      <trkpt lat="37.3566298677" lon="-7.48716729516">
        <ele>15.4</ele>
        <time>2011-03-18T11:14:53Z</time>
      </trkpt>
      <trkpt lat="37.3566823384" lon="-7.48715463849">
        <ele>15.4</ele>
        <time>2011-03-18T11:14:55Z</time>
      </trkpt>
      <trkpt lat="37.3567613797" lon="-7.48713016334">
        <ele>15.4</ele>
        <time>2011-03-18T11:14:58Z</time>
      </trkpt>
      <trkpt lat="37.3569089012" lon="-7.48705631881">
        <ele>15.4</ele>
        <time>2011-03-18T11:15:04Z</time>
      </trkpt>
      <trkpt lat="37.3569586059" lon="-7.48702748507">
        <ele>15.4</ele>
        <time>2011-03-18T11:15:06Z</time>
      </trkpt>
      <trkpt lat="37.3570096516" lon="-7.48700451866">
        <ele>15.4</ele>
        <time>2011-03-18T11:15:08Z</time>
      </trkpt>
      <trkpt lat="37.3570626252" lon="-7.48698599466">
        <ele>15.4</ele>
        <time>2011-03-18T11:15:10Z</time>
      </trkpt>
      <trkpt lat="37.3571176943" lon="-7.48697618784">
        <ele>15.4</ele>
        <time>2011-03-18T11:15:12Z</time>
      </trkpt>
      <trkpt lat="37.3571717576" lon="-7.48698297718">
        <ele>15.4</ele>
        <time>2011-03-18T11:15:14Z</time>
      </trkpt>
      <trkpt lat="37.3572212108" lon="-7.48699965716">
        <ele>15.4</ele>
        <time>2011-03-18T11:15:16Z</time>
      </trkpt>
      <trkpt lat="37.3572652996" lon="-7.48702949673">
        <ele>15.4</ele>
        <time>2011-03-18T11:15:18Z</time>
      </trkpt>
      <trkpt lat="37.3573055327" lon="-7.4870633596">
        <ele>15.4</ele>
        <time>2011-03-18T11:15:20Z</time>
      </trkpt>
      <trkpt lat="37.3573448438" lon="-7.48709965323">
        <ele>15.4</ele>
        <time>2011-03-18T11:15:22Z</time>
      </trkpt>
      <trkpt lat="37.3573820594" lon="-7.48713988635">
        <ele>15.4</ele>
        <time>2011-03-18T11:15:24Z</time>
      </trkpt>
      <trkpt lat="37.3574175987" lon="-7.48717810781">
        <ele>15.4</ele>
        <time>2011-03-18T11:15:26Z</time>
      </trkpt>
      <trkpt lat="37.357449869" lon="-7.48721741892">
        <ele>15.4</ele>
        <time>2011-03-18T11:15:28Z</time>
      </trkpt>
      <trkpt lat="37.3574864141" lon="-7.48725111416">
        <ele>15.4</ele>
        <time>2011-03-18T11:15:30Z</time>
      </trkpt>
      <trkpt lat="37.3575218695" lon="-7.48729830426">
        <ele>15.4</ele>
        <time>2011-03-18T11:15:32Z</time>
      </trkpt>
      <trkpt lat="37.3575530502" lon="-7.48735647464">
        <ele>15.4</ele>
        <time>2011-03-18T11:15:34Z</time>
      </trkpt>
      <trkpt lat="37.3575794532" lon="-7.48741464503">
        <ele>15.4</ele>
        <time>2011-03-18T11:15:36Z</time>
      </trkpt>
      <trkpt lat="37.3576101309" lon="-7.48746862447">
        <ele>15.4</ele>
        <time>2011-03-18T11:15:38Z</time>
      </trkpt>
      <trkpt lat="37.3576438262" lon="-7.48752352591">
        <ele>15.4</ele>
        <time>2011-03-18T11:15:40Z</time>
      </trkpt>
      <trkpt lat="37.3576765994" lon="-7.48758069047">
        <ele>15.4</ele>
        <time>2011-03-18T11:15:42Z</time>
      </trkpt>
      <trkpt lat="37.3577135636" lon="-7.48763911231">
        <ele>15.4</ele>
        <time>2011-03-18T11:15:44Z</time>
      </trkpt>
      <trkpt lat="37.3577517012" lon="-7.4876951034">
        <ele>15.4</ele>
        <time>2011-03-18T11:15:46Z</time>
      </trkpt>
      <trkpt lat="37.3577967959" lon="-7.48774162295">
        <ele>15.4</ele>
        <time>2011-03-18T11:15:48Z</time>
      </trkpt>
      <trkpt lat="37.3578428125" lon="-7.48779250108">
        <ele>15.4</ele>
        <time>2011-03-18T11:15:50Z</time>
      </trkpt>
      <trkpt lat="37.3578795252" lon="-7.48785452714">
        <ele>15.4</ele>
        <time>2011-03-18T11:15:52Z</time>
      </trkpt>
      <trkpt lat="37.3579064311" lon="-7.48791789431">
        <ele>15.4</ele>
        <time>2011-03-18T11:15:54Z</time>
      </trkpt>
      <trkpt lat="37.3579229434" lon="-7.48798260257">
        <ele>15.4</ele>
        <time>2011-03-18T11:15:56Z</time>
      </trkpt>
      <trkpt lat="37.3579337561" lon="-7.48804915486">
        <ele>15.4</ele>
        <time>2011-03-18T11:15:58Z</time>
      </trkpt>
      <trkpt lat="37.3579329179" lon="-7.48812190975">
        <ele>15.4</ele>
        <time>2011-03-18T11:16:00Z</time>
      </trkpt>
      <trkpt lat="37.3579200936" lon="-7.48820120253">
        <ele>15.4</ele>
        <time>2011-03-18T11:16:02Z</time>
      </trkpt>
      <trkpt lat="37.3579050062" lon="-7.48828284223">
        <ele>15.4</ele>
        <time>2011-03-18T11:16:04Z</time>
      </trkpt>
      <trkpt lat="37.3578850573" lon="-7.48836062626">
        <ele>15.4</ele>
        <time>2011-03-18T11:16:06Z</time>
      </trkpt>
      <trkpt lat="37.357856475" lon="-7.48843455462">
        <ele>15.4</ele>
        <time>2011-03-18T11:16:08Z</time>
      </trkpt>
      <trkpt lat="37.3578208519" lon="-7.48850881826">
        <ele>15.4</ele>
        <time>2011-03-18T11:16:10Z</time>
      </trkpt>
      <trkpt lat="37.3577797806" lon="-7.48857939385">
        <ele>15.4</ele>
        <time>2011-03-18T11:16:12Z</time>
      </trkpt>
      <trkpt lat="37.3577351051" lon="-7.48865248402">
        <ele>15.4</ele>
        <time>2011-03-18T11:16:14Z</time>
      </trkpt>
      <trkpt lat="37.3576951234" lon="-7.48872540655">
        <ele>15.4</ele>
        <time>2011-03-18T11:16:16Z</time>
      </trkpt>
      <trkpt lat="37.3576622664" lon="-7.48878969572">
        <ele>15.4</ele>
        <time>2011-03-18T11:16:18Z</time>
      </trkpt>
      <trkpt lat="37.3576328459" lon="-7.48885239234">
        <ele>15.4</ele>
        <time>2011-03-18T11:16:20Z</time>
      </trkpt>
      <trkpt lat="37.3576109691" lon="-7.48891911226">
        <ele>15.4</ele>
        <time>2011-03-18T11:16:22Z</time>
      </trkpt>
      <trkpt lat="37.3575966361" lon="-7.48899572283">
        <ele>15.4</ele>
        <time>2011-03-18T11:16:24Z</time>
      </trkpt>
      <trkpt lat="37.3575880027" lon="-7.48907820072">
        <ele>15.4</ele>
        <time>2011-03-18T11:16:26Z</time>
      </trkpt>
      <trkpt lat="37.3575915231" lon="-7.48915849933">
        <ele>15.4</ele>
        <time>2011-03-18T11:16:28Z</time>
      </trkpt>
      <trkpt lat="37.3575983125" lon="-7.48924064194">
        <ele>15.4</ele>
        <time>2011-03-18T11:16:30Z</time>
      </trkpt>
      <trkpt lat="37.3576066944" lon="-7.48931951562">
        <ele>15.4</ele>
        <time>2011-03-18T11:16:32Z</time>
      </trkpt>
      <trkpt lat="37.3576085384" lon="-7.48939051032">
        <ele>15.4</ele>
        <time>2011-03-18T11:16:34Z</time>
      </trkpt>
      <trkpt lat="37.3576088737" lon="-7.48945681115">
        <ele>15.4</ele>
        <time>2011-03-18T11:16:36Z</time>
      </trkpt>
      <trkpt lat="37.3576097957" lon="-7.48948430378">
        <ele>15.4</ele>
        <time>2011-03-18T11:16:37Z</time>
      </trkpt>
      <trkpt lat="37.3576293255" lon="-7.48953241588">
        <ele>15.4</ele>
        <time>2011-03-18T11:16:41Z</time>
      </trkpt>
      <trkpt lat="37.3576271462" lon="-7.48953895377">
        <ele>15.4</ele>
        <time>2011-03-18T11:16:45Z</time>
      </trkpt>
      <trkpt lat="37.3576250507" lon="-7.48957985744">
        <ele>15.4</ele>
        <time>2011-03-18T11:16:49Z</time>
      </trkpt>
      <trkpt lat="37.3576255536" lon="-7.48958002508">
        <ele>15.4</ele>
        <time>2011-03-18T11:16:50Z</time>
      </trkpt>
      <trkpt lat="37.357638797" lon="-7.48957885161">
        <ele>15.4</ele>
        <time>2011-03-18T11:17:12Z</time>
      </trkpt>
      <trkpt lat="37.3576619311" lon="-7.48957516357">
        <ele>14.2</ele>
        <time>2011-03-18T11:17:31Z</time>
      </trkpt>
      <trkpt lat="37.3577000687" lon="-7.48961179248">
        <ele>14</ele>
        <time>2011-03-18T11:17:35Z</time>
      </trkpt>
      <trkpt lat="37.3577305788" lon="-7.48964213495">
        <ele>13.8</ele>
        <time>2011-03-18T11:17:38Z</time>
      </trkpt>
      <trkpt lat="37.3577506116" lon="-7.48966258679">
        <ele>13.6</ele>
        <time>2011-03-18T11:17:40Z</time>
      </trkpt>
      <trkpt lat="37.3578226121" lon="-7.4896101161">
        <ele>13.6</ele>
        <time>2011-03-18T11:17:44Z</time>
      </trkpt>
      <trkpt lat="37.3578452432" lon="-7.48958295874">
        <ele>13.6</ele>
        <time>2011-03-18T11:17:45Z</time>
      </trkpt>
      <trkpt lat="37.3578954508" lon="-7.48952252524">
        <ele>13.4</ele>
        <time>2011-03-18T11:17:47Z</time>
      </trkpt>
      <trkpt lat="37.3579332532" lon="-7.4894672047">
        <ele>13.4</ele>
        <time>2011-03-18T11:17:49Z</time>
      </trkpt>
      <trkpt lat="37.3579698821" lon="-7.48940576538">
        <ele>13.4</ele>
        <time>2011-03-18T11:17:51Z</time>
      </trkpt>
      <trkpt lat="37.3580042479" lon="-7.48934952283">
        <ele>13.4</ele>
        <time>2011-03-18T11:17:53Z</time>
      </trkpt>
      <trkpt lat="37.3580401224" lon="-7.4892964654">
        <ele>13.4</ele>
        <time>2011-03-18T11:17:55Z</time>
      </trkpt>
      <trkpt lat="37.3580553775" lon="-7.48926654202">
        <ele>13.4</ele>
        <time>2011-03-18T11:17:56Z</time>
      </trkpt>
      <trkpt lat="37.3580986281" lon="-7.48921675353">
        <ele>12.8</ele>
        <time>2011-03-18T11:17:59Z</time>
      </trkpt>
      <trkpt lat="37.358153781" lon="-7.48917216182">
        <ele>12.6</ele>
        <time>2011-03-18T11:18:01Z</time>
      </trkpt>
      <trkpt lat="37.3582050782" lon="-7.48914307663">
        <ele>12.2</ele>
        <time>2011-03-18T11:18:03Z</time>
      </trkpt>
      <trkpt lat="37.3582594767" lon="-7.48911231506">
        <ele>12</ele>
        <time>2011-03-18T11:18:05Z</time>
      </trkpt>
      <trkpt lat="37.3583082594" lon="-7.48908054765">
        <ele>12</ele>
        <time>2011-03-18T11:18:07Z</time>
      </trkpt>
      <trkpt lat="37.3583591375" lon="-7.48904601423">
        <ele>11.8</ele>
        <time>2011-03-18T11:18:09Z</time>
      </trkpt>
      <trkpt lat="37.3584142904" lon="-7.48900611638">
        <ele>11.8</ele>
        <time>2011-03-18T11:18:11Z</time>
      </trkpt>
      <trkpt lat="37.3584697786" lon="-7.48896680527">
        <ele>11.6</ele>
        <time>2011-03-18T11:18:13Z</time>
      </trkpt>
      <trkpt lat="37.3585152923" lon="-7.48891986663">
        <ele>11.6</ele>
        <time>2011-03-18T11:18:15Z</time>
      </trkpt>
      <trkpt lat="37.3585450481" lon="-7.48886672539">
        <ele>11.6</ele>
        <time>2011-03-18T11:18:17Z</time>
      </trkpt>
      <trkpt lat="37.35857472" lon="-7.48880838736">
        <ele>11.4</ele>
        <time>2011-03-18T11:18:19Z</time>
      </trkpt>
      <trkpt lat="37.3586118518" lon="-7.48875700632">
        <ele>11.4</ele>
        <time>2011-03-18T11:18:21Z</time>
      </trkpt>
      <trkpt lat="37.3586434516" lon="-7.48869992558">
        <ele>11.4</ele>
        <time>2011-03-18T11:18:23Z</time>
      </trkpt>
      <trkpt lat="37.3586652445" lon="-7.48863345711">
        <ele>11.4</ele>
        <time>2011-03-18T11:18:25Z</time>
      </trkpt>
      <trkpt lat="37.3586809187" lon="-7.48857352652">
        <ele>11.4</ele>
        <time>2011-03-18T11:18:27Z</time>
      </trkpt>
      <trkpt lat="37.3587018734" lon="-7.48851326066">
        <ele>11.4</ele>
        <time>2011-03-18T11:18:29Z</time>
      </trkpt>
      <trkpt lat="37.3587221576" lon="-7.48844167924">
        <ele>11.4</ele>
        <time>2011-03-18T11:18:31Z</time>
      </trkpt>
      <trkpt lat="37.3587373289" lon="-7.48841401897">
        <ele>11.4</ele>
        <time>2011-03-18T11:18:32Z</time>
      </trkpt>
      <trkpt lat="37.3587711079" lon="-7.48833346891">
        <ele>11.4</ele>
        <time>2011-03-18T11:18:35Z</time>
      </trkpt>
      <trkpt lat="37.3587923979" lon="-7.4882738736">
        <ele>11.4</ele>
        <time>2011-03-18T11:18:37Z</time>
      </trkpt>
      <trkpt lat="37.3588083235" lon="-7.4882099197">
        <ele>11.4</ele>
        <time>2011-03-18T11:18:39Z</time>
      </trkpt>
      <trkpt lat="37.3588312061" lon="-7.48814454088">
        <ele>11.4</ele>
        <time>2011-03-18T11:18:41Z</time>
      </trkpt>
      <trkpt lat="37.3588426055" lon="-7.4881141984">
        <ele>11.2</ele>
        <time>2011-03-18T11:18:42Z</time>
      </trkpt>
      <trkpt lat="37.3588561842" lon="-7.48804672411">
        <ele>11.2</ele>
        <time>2011-03-18T11:18:44Z</time>
      </trkpt>
      <trkpt lat="37.3588664101" lon="-7.4879818482">
        <ele>11.2</ele>
        <time>2011-03-18T11:18:46Z</time>
      </trkpt>
      <trkpt lat="37.3588754626" lon="-7.48791236225">
        <ele>11.2</ele>
        <time>2011-03-18T11:18:48Z</time>
      </trkpt>
      <trkpt lat="37.3588992672" lon="-7.48781840115">
        <ele>11.2</ele>
        <time>2011-03-18T11:18:51Z</time>
      </trkpt>
      <trkpt lat="37.3589082358" lon="-7.48774983721">
        <ele>11.2</ele>
        <time>2011-03-18T11:18:53Z</time>
      </trkpt>
      <trkpt lat="37.3589170368" lon="-7.48767272373">
        <ele>11.2</ele>
        <time>2011-03-18T11:18:55Z</time>
      </trkpt>
      <trkpt lat="37.358918797" lon="-7.48763475372">
        <ele>11.2</ele>
        <time>2011-03-18T11:18:56Z</time>
      </trkpt>
      <trkpt lat="37.3589174559" lon="-7.48753567967">
        <ele>11.2</ele>
        <time>2011-03-18T11:18:59Z</time>
      </trkpt>
      <trkpt lat="37.3589146899" lon="-7.48746476879">
        <ele>11.2</ele>
        <time>2011-03-18T11:19:01Z</time>
      </trkpt>
      <trkpt lat="37.3589111695" lon="-7.48738631421">
        <ele>11.2</ele>
        <time>2011-03-18T11:19:03Z</time>
      </trkpt>
      <trkpt lat="37.3589093254" lon="-7.48730769199">
        <ele>11.2</ele>
        <time>2011-03-18T11:19:05Z</time>
      </trkpt>
      <trkpt lat="37.3589102475" lon="-7.48723284162">
        <ele>11.2</ele>
        <time>2011-03-18T11:19:07Z</time>
      </trkpt>
      <trkpt lat="37.3589203057" lon="-7.48716888772">
        <ele>11.2</ele>
        <time>2011-03-18T11:19:09Z</time>
      </trkpt>
      <trkpt lat="37.3589418472" lon="-7.48711457301">
        <ele>11.2</ele>
        <time>2011-03-18T11:19:11Z</time>
      </trkpt>
      <trkpt lat="37.3589568508" lon="-7.48709898268">
        <ele>11.2</ele>
        <time>2011-03-18T11:19:12Z</time>
      </trkpt>
      <trkpt lat="37.3589995147" lon="-7.48708724802">
        <ele>11.2</ele>
        <time>2011-03-18T11:19:14Z</time>
      </trkpt>
      <trkpt lat="37.3590612055" lon="-7.48710694548">
        <ele>11.2</ele>
        <time>2011-03-18T11:19:17Z</time>
      </trkpt>
      <trkpt lat="37.3591001813" lon="-7.4871423171">
        <ele>11.2</ele>
        <time>2011-03-18T11:19:19Z</time>
      </trkpt>
      <trkpt lat="37.3591385704" lon="-7.48717928128">
        <ele>11.2</ele>
        <time>2011-03-18T11:19:21Z</time>
      </trkpt>
      <trkpt lat="37.3591871854" lon="-7.48724315136">
        <ele>11.2</ele>
        <time>2011-03-18T11:19:24Z</time>
      </trkpt>
      <trkpt lat="37.3592285082" lon="-7.48728958708">
        <ele>11.2</ele>
        <time>2011-03-18T11:19:26Z</time>
      </trkpt>
      <trkpt lat="37.359264718" lon="-7.48733493316">
        <ele>11.6</ele>
        <time>2011-03-18T11:19:28Z</time>
      </trkpt>
      <trkpt lat="37.3593047835" lon="-7.48738237472">
        <ele>12</ele>
        <time>2011-03-18T11:19:30Z</time>
      </trkpt>
      <trkpt lat="37.3593450166" lon="-7.4874242004">
        <ele>12.2</ele>
        <time>2011-03-18T11:19:32Z</time>
      </trkpt>
      <trkpt lat="37.3593847468" lon="-7.48746711572">
        <ele>12.4</ele>
        <time>2011-03-18T11:19:34Z</time>
      </trkpt>
      <trkpt lat="37.3594249799" lon="-7.48750374463">
        <ele>12.6</ele>
        <time>2011-03-18T11:19:36Z</time>
      </trkpt>
      <trkpt lat="37.3594607706" lon="-7.48754163082">
        <ele>12.8</ele>
        <time>2011-03-18T11:19:38Z</time>
      </trkpt>
      <trkpt lat="37.3594965614" lon="-7.48758295358">
        <ele>12.8</ele>
        <time>2011-03-18T11:19:40Z</time>
      </trkpt>
      <trkpt lat="37.3595554023" lon="-7.48763391553">
        <ele>13</ele>
        <time>2011-03-18T11:19:43Z</time>
      </trkpt>
      <trkpt lat="37.35959815" lon="-7.48767180172">
        <ele>13</ele>
        <time>2011-03-18T11:19:45Z</time>
      </trkpt>
      <trkpt lat="37.3596414844" lon="-7.48771169957">
        <ele>13</ele>
        <time>2011-03-18T11:19:47Z</time>
      </trkpt>
      <trkpt lat="37.3596858247" lon="-7.48775084304">
        <ele>13.2</ele>
        <time>2011-03-18T11:19:49Z</time>
      </trkpt>
      <trkpt lat="37.3597310031" lon="-7.48779224963">
        <ele>13.2</ele>
        <time>2011-03-18T11:19:51Z</time>
      </trkpt>
      <trkpt lat="37.3597715715" lon="-7.48782862707">
        <ele>13.2</ele>
        <time>2011-03-18T11:19:53Z</time>
      </trkpt>
      <trkpt lat="37.359837118" lon="-7.48788545635">
        <ele>13.2</ele>
        <time>2011-03-18T11:19:56Z</time>
      </trkpt>
      <trkpt lat="37.3598813744" lon="-7.48792242053">
        <ele>13.2</ele>
        <time>2011-03-18T11:19:58Z</time>
      </trkpt>
      <trkpt lat="37.3599259661" lon="-7.48796047436">
        <ele>13.2</ele>
        <time>2011-03-18T11:20:00Z</time>
      </trkpt>
      <trkpt lat="37.3599709769" lon="-7.48799785763">
        <ele>13.2</ele>
        <time>2011-03-18T11:20:02Z</time>
      </trkpt>
      <trkpt lat="37.3600221903" lon="-7.48804110824">
        <ele>13.2</ele>
        <time>2011-03-18T11:20:04Z</time>
      </trkpt>
      <trkpt lat="37.3600887426" lon="-7.48807522257">
        <ele>13.2</ele>
        <time>2011-03-18T11:20:06Z</time>
      </trkpt>
      <trkpt lat="37.3601179116" lon="-7.48809089672">
        <ele>13.2</ele>
        <time>2011-03-18T11:20:07Z</time>
      </trkpt>
      <trkpt lat="37.3601668619" lon="-7.4881366619">
        <ele>13.2</ele>
        <time>2011-03-18T11:20:09Z</time>
      </trkpt>
      <trkpt lat="37.3602194164" lon="-7.48818024778">
        <ele>13.2</ele>
        <time>2011-03-18T11:20:11Z</time>
      </trkpt>
      <trkpt lat="37.3602671932" lon="-7.48822307929">
        <ele>13.2</ele>
        <time>2011-03-18T11:20:13Z</time>
      </trkpt>
      <trkpt lat="37.3603135451" lon="-7.48826876064">
        <ele>13.2</ele>
        <time>2011-03-18T11:20:15Z</time>
      </trkpt>
      <trkpt lat="37.3603591427" lon="-7.48831075396">
        <ele>13.2</ele>
        <time>2011-03-18T11:20:17Z</time>
      </trkpt>
      <trkpt lat="37.3604070872" lon="-7.4883506518">
        <ele>13.2</ele>
        <time>2011-03-18T11:20:19Z</time>
      </trkpt>
      <trkpt lat="37.3604633297" lon="-7.48837697097">
        <ele>13.2</ele>
        <time>2011-03-18T11:20:21Z</time>
      </trkpt>
      <trkpt lat="37.3605099331" lon="-7.48840127848">
        <ele>13.2</ele>
        <time>2011-03-18T11:20:23Z</time>
      </trkpt>
      <trkpt lat="37.3605633258" lon="-7.48843027985">
        <ele>13.2</ele>
        <time>2011-03-18T11:20:25Z</time>
      </trkpt>
      <trkpt lat="37.3606287884" lon="-7.48845492264">
        <ele>13.2</ele>
        <time>2011-03-18T11:20:27Z</time>
      </trkpt>
      <trkpt lat="37.3606910659" lon="-7.48847780523">
        <ele>13.2</ele>
        <time>2011-03-18T11:20:29Z</time>
      </trkpt>
      <trkpt lat="37.3607571991" lon="-7.48850169364">
        <ele>13.2</ele>
        <time>2011-03-18T11:20:31Z</time>
      </trkpt>
      <trkpt lat="37.3608223265" lon="-7.48852113965">
        <ele>13.2</ele>
        <time>2011-03-18T11:20:33Z</time>
      </trkpt>
      <trkpt lat="37.3608846878" lon="-7.48853279049">
        <ele>13.2</ele>
        <time>2011-03-18T11:20:35Z</time>
      </trkpt>
      <trkpt lat="37.3609479712" lon="-7.48853538888">
        <ele>13.2</ele>
        <time>2011-03-18T11:20:37Z</time>
      </trkpt>
      <trkpt lat="37.3610112545" lon="-7.48853262285">
        <ele>13.2</ele>
        <time>2011-03-18T11:20:39Z</time>
      </trkpt>
      <trkpt lat="37.3610755437" lon="-7.48852516296">
        <ele>13.2</ele>
        <time>2011-03-18T11:20:41Z</time>
      </trkpt>
      <trkpt lat="37.3611405034" lon="-7.48851728398">
        <ele>13.2</ele>
        <time>2011-03-18T11:20:43Z</time>
      </trkpt>
      <trkpt lat="37.3612034515" lon="-7.48850982408">
        <ele>13.2</ele>
        <time>2011-03-18T11:20:45Z</time>
      </trkpt>
      <trkpt lat="37.3612653099" lon="-7.48850127455">
        <ele>13.6</ele>
        <time>2011-03-18T11:20:47Z</time>
      </trkpt>
      <trkpt lat="37.361323145" lon="-7.48849431757">
        <ele>14</ele>
        <time>2011-03-18T11:20:49Z</time>
      </trkpt>
      <trkpt lat="37.3613827403" lon="-7.48848702532">
        <ele>14.2</ele>
        <time>2011-03-18T11:20:51Z</time>
      </trkpt>
      <trkpt lat="37.3614350434" lon="-7.48848015216">
        <ele>14.4</ele>
        <time>2011-03-18T11:20:53Z</time>
      </trkpt>
      <trkpt lat="37.3614825687" lon="-7.48847353046">
        <ele>14.6</ele>
        <time>2011-03-18T11:20:55Z</time>
      </trkpt>
      <trkpt lat="37.3615298427" lon="-7.48846607057">
        <ele>14.8</ele>
        <time>2011-03-18T11:20:58Z</time>
      </trkpt>
      <trkpt lat="37.3615606881" lon="-7.48846783077">
        <ele>15</ele>
        <time>2011-03-18T11:21:01Z</time>
      </trkpt>
      <trkpt lat="37.361569992" lon="-7.48846581911">
        <ele>15</ele>
        <time>2011-03-18T11:21:02Z</time>
      </trkpt>
      <trkpt lat="37.361584325" lon="-7.48845450354">
        <ele>15</ele>
        <time>2011-03-18T11:21:05Z</time>
      </trkpt>
      <trkpt lat="37.3616127396" lon="-7.48843069895">
        <ele>15.2</ele>
        <time>2011-03-18T11:21:10Z</time>
      </trkpt>
      <trkpt lat="37.3616057827" lon="-7.48841536007">
        <ele>15.2</ele>
        <time>2011-03-18T11:21:19Z</time>
      </trkpt>
      <trkpt lat="37.3616227979" lon="-7.4883965008">
        <ele>16.4</ele>
        <time>2011-03-18T11:21:53Z</time>
      </trkpt>
      <trkpt lat="37.3616365442" lon="-7.48841997012">
        <ele>16.8</ele>
        <time>2011-03-18T11:21:59Z</time>
      </trkpt>
      <trkpt lat="37.3616631149" lon="-7.48842592127">
        <ele>17</ele>
        <time>2011-03-18T11:22:02Z</time>
      </trkpt>
      <trkpt lat="37.3616974807" lon="-7.48844528345">
        <ele>17</ele>
        <time>2011-03-18T11:22:06Z</time>
      </trkpt>
      <trkpt lat="37.3617170943" lon="-7.48846741167">
        <ele>17.2</ele>
        <time>2011-03-18T11:22:09Z</time>
      </trkpt>
      <trkpt lat="37.3617594229" lon="-7.48849373084">
        <ele>17.2</ele>
        <time>2011-03-18T11:22:14Z</time>
      </trkpt>
      <trkpt lat="37.3617711576" lon="-7.48849549104">
        <ele>17.2</ele>
        <time>2011-03-18T11:22:15Z</time>
      </trkpt>
      <trkpt lat="37.3618065292" lon="-7.48849557485">
        <ele>17.2</ele>
        <time>2011-03-18T11:22:18Z</time>
      </trkpt>
      <trkpt lat="37.3618413979" lon="-7.48848878551">
        <ele>17.2</ele>
        <time>2011-03-18T11:22:21Z</time>
      </trkpt>
      <trkpt lat="37.3618717404" lon="-7.48847914633">
        <ele>17.2</ele>
        <time>2011-03-18T11:22:24Z</time>
      </trkpt>
      <trkpt lat="37.3619017476" lon="-7.48846187962">
        <ele>17.2</ele>
        <time>2011-03-18T11:22:27Z</time>
      </trkpt>
      <trkpt lat="37.3619322577" lon="-7.48843279442">
        <ele>17.4</ele>
        <time>2011-03-18T11:22:30Z</time>
      </trkpt>
      <trkpt lat="37.361959415" lon="-7.48840018883">
        <ele>17.4</ele>
        <time>2011-03-18T11:22:33Z</time>
      </trkpt>
      <trkpt lat="37.3619834711" lon="-7.48836464958">
        <ele>17.4</ele>
        <time>2011-03-18T11:22:36Z</time>
      </trkpt>
      <trkpt lat="37.3620062699" lon="-7.48832357827">
        <ele>17.4</ele>
        <time>2011-03-18T11:22:39Z</time>
      </trkpt>
      <trkpt lat="37.3620285657" lon="-7.48828217168">
        <ele>17.4</ele>
        <time>2011-03-18T11:22:42Z</time>
      </trkpt>
      <trkpt lat="37.3620470897" lon="-7.48823883726">
        <ele>17.8</ele>
        <time>2011-03-18T11:22:45Z</time>
      </trkpt>
      <trkpt lat="37.362067793" lon="-7.4881970954">
        <ele>18.2</ele>
        <time>2011-03-18T11:22:48Z</time>
      </trkpt>
      <trkpt lat="37.362089083" lon="-7.488156527">
        <ele>18.4</ele>
        <time>2011-03-18T11:22:51Z</time>
      </trkpt>
      <trkpt lat="37.3621062659" lon="-7.48811729971">
        <ele>18.8</ele>
        <time>2011-03-18T11:22:54Z</time>
      </trkpt>
      <trkpt lat="37.3621206828" lon="-7.48809005853">
        <ele>19</ele>
        <time>2011-03-18T11:22:56Z</time>
      </trkpt>
      <trkpt lat="37.3621444036" lon="-7.48803138523">
        <ele>19</ele>
        <time>2011-03-18T11:23:00Z</time>
      </trkpt>
      <trkpt lat="37.3621531207" lon="-7.48801721982">
        <ele>20</ele>
        <time>2011-03-18T11:23:05Z</time>
      </trkpt>
      <trkpt lat="37.3621881571" lon="-7.48796541968">
        <ele>24.6</ele>
        <time>2011-03-18T11:23:45Z</time>
      </trkpt>
      <trkpt lat="37.3622055914" lon="-7.48793130535">
        <ele>24.8</ele>
        <time>2011-03-18T11:23:48Z</time>
      </trkpt>
      <trkpt lat="37.3622287255" lon="-7.4879002085">
        <ele>25</ele>
        <time>2011-03-18T11:23:51Z</time>
      </trkpt>
      <trkpt lat="37.362254877" lon="-7.48787296732">
        <ele>25.4</ele>
        <time>2011-03-18T11:23:54Z</time>
      </trkpt>
      <trkpt lat="37.3622968703" lon="-7.48784078083">
        <ele>26.2</ele>
        <time>2011-03-18T11:23:58Z</time>
      </trkpt>
      <trkpt lat="37.3623521909" lon="-7.48783030345">
        <ele>26.6</ele>
        <time>2011-03-18T11:24:01Z</time>
      </trkpt>
      <trkpt lat="37.3624078467" lon="-7.48782938144">
        <ele>26.8</ele>
        <time>2011-03-18T11:24:03Z</time>
      </trkpt>
      <trkpt lat="37.3624772488" lon="-7.48783927208">
        <ele>26.8</ele>
        <time>2011-03-18T11:24:05Z</time>
      </trkpt>
      <trkpt lat="37.3625410351" lon="-7.48785955628">
        <ele>27</ele>
        <time>2011-03-18T11:24:07Z</time>
      </trkpt>
      <trkpt lat="37.3626055757" lon="-7.48788336088">
        <ele>27.2</ele>
        <time>2011-03-18T11:24:09Z</time>
      </trkpt>
      <trkpt lat="37.3626743911" lon="-7.48790959623">
        <ele>27.2</ele>
        <time>2011-03-18T11:24:11Z</time>
      </trkpt>
      <trkpt lat="37.3627393508" lon="-7.48793356846">
        <ele>27.2</ele>
        <time>2011-03-18T11:24:13Z</time>
      </trkpt>
      <trkpt lat="37.3628012931" lon="-7.48795829506">
        <ele>27.4</ele>
        <time>2011-03-18T11:24:15Z</time>
      </trkpt>
      <trkpt lat="37.3628632353" lon="-7.48798645825">
        <ele>27.4</ele>
        <time>2011-03-18T11:24:17Z</time>
      </trkpt>
      <trkpt lat="37.3629062345" lon="-7.48802736192">
        <ele>27.6</ele>
        <time>2011-03-18T11:24:19Z</time>
      </trkpt>
      <trkpt lat="37.3629526702" lon="-7.48807279182">
        <ele>28</ele>
        <time>2011-03-18T11:24:21Z</time>
      </trkpt>
      <trkpt lat="37.3630047218" lon="-7.4881309622">
        <ele>28.4</ele>
        <time>2011-03-18T11:24:23Z</time>
      </trkpt>
      <trkpt lat="37.3630595394" lon="-7.48819198244">
        <ele>28.6</ele>
        <time>2011-03-18T11:24:25Z</time>
      </trkpt>
      <trkpt lat="37.3631094117" lon="-7.48825518196">
        <ele>28.8</ele>
        <time>2011-03-18T11:24:27Z</time>
      </trkpt>
      <trkpt lat="37.3631478008" lon="-7.48830782029">
        <ele>29</ele>
        <time>2011-03-18T11:24:29Z</time>
      </trkpt>
      <trkpt lat="37.3631845135" lon="-7.48835710587">
        <ele>29</ele>
        <time>2011-03-18T11:24:31Z</time>
      </trkpt>
      <trkpt lat="37.3632182926" lon="-7.48840052411">
        <ele>29.2</ele>
        <time>2011-03-18T11:24:33Z</time>
      </trkpt>
      <trkpt lat="37.3632540833" lon="-7.48844578637">
        <ele>29.2</ele>
        <time>2011-03-18T11:24:35Z</time>
      </trkpt>
      <trkpt lat="37.3632912989" lon="-7.48848912079">
        <ele>29.4</ele>
        <time>2011-03-18T11:24:37Z</time>
      </trkpt>
      <trkpt lat="37.3633350525" lon="-7.48852968919">
        <ele>29.4</ele>
        <time>2011-03-18T11:24:39Z</time>
      </trkpt>
      <trkpt lat="37.3633972462" lon="-7.48856128895">
        <ele>29.4</ele>
        <time>2011-03-18T11:24:41Z</time>
      </trkpt>
      <trkpt lat="37.3634568415" lon="-7.48859137997">
        <ele>29.4</ele>
        <time>2011-03-18T11:24:43Z</time>
      </trkpt>
      <trkpt lat="37.3635126649" lon="-7.48861216708">
        <ele>29.6</ele>
        <time>2011-03-18T11:24:45Z</time>
      </trkpt>
      <trkpt lat="37.3635668958" lon="-7.48862633249">
        <ele>29.6</ele>
        <time>2011-03-18T11:24:47Z</time>
      </trkpt>
      <trkpt lat="37.3636193665" lon="-7.48864334775">
        <ele>30</ele>
        <time>2011-03-18T11:24:49Z</time>
      </trkpt>
      <trkpt lat="37.3636762796" lon="-7.48866438632">
        <ele>30.2</ele>
        <time>2011-03-18T11:24:51Z</time>
      </trkpt>
      <trkpt lat="37.3637290856" lon="-7.48868735273">
        <ele>30.6</ele>
        <time>2011-03-18T11:24:53Z</time>
      </trkpt>
      <trkpt lat="37.3637792093" lon="-7.48871124114">
        <ele>30.8</ele>
        <time>2011-03-18T11:24:55Z</time>
      </trkpt>
      <trkpt lat="37.3638280758" lon="-7.48873412373">
        <ele>31</ele>
        <time>2011-03-18T11:24:57Z</time>
      </trkpt>
      <trkpt lat="37.3639009983" lon="-7.48877410539">
        <ele>31.2</ele>
        <time>2011-03-18T11:25:00Z</time>
      </trkpt>
      <trkpt lat="37.3639331848" lon="-7.48879061773">
        <ele>31.2</ele>
        <time>2011-03-18T11:25:01Z</time>
      </trkpt>
      <trkpt lat="37.3640030061" lon="-7.48883378452">
        <ele>31.4</ele>
        <time>2011-03-18T11:25:04Z</time>
      </trkpt>
      <trkpt lat="37.3640448318" lon="-7.48885700238">
        <ele>31.6</ele>
        <time>2011-03-18T11:25:06Z</time>
      </trkpt>
      <trkpt lat="37.36408825" lon="-7.48887468819">
        <ele>32.2</ele>
        <time>2011-03-18T11:25:09Z</time>
      </trkpt>
      <trkpt lat="37.3641190954" lon="-7.48889740314">
        <ele>32.6</ele>
        <time>2011-03-18T11:25:12Z</time>
      </trkpt>
      <trkpt lat="37.3641552214" lon="-7.48892087246">
        <ele>33</ele>
        <time>2011-03-18T11:25:15Z</time>
      </trkpt>
      <trkpt lat="37.3641931076" lon="-7.48893906118">
        <ele>33.2</ele>
        <time>2011-03-18T11:25:18Z</time>
      </trkpt>
      <trkpt lat="37.3642307423" lon="-7.48895976448">
        <ele>33.4</ele>
        <time>2011-03-18T11:25:21Z</time>
      </trkpt>
      <trkpt lat="37.3642699696" lon="-7.48898532927">
        <ele>34</ele>
        <time>2011-03-18T11:25:24Z</time>
      </trkpt>
      <trkpt lat="37.3643014017" lon="-7.48901827014">
        <ele>34.4</ele>
        <time>2011-03-18T11:25:27Z</time>
      </trkpt>
      <trkpt lat="37.3643284752" lon="-7.48906126929">
        <ele>34.8</ele>
        <time>2011-03-18T11:25:30Z</time>
      </trkpt>
      <trkpt lat="37.3643377792" lon="-7.4890781169">
        <ele>35</ele>
        <time>2011-03-18T11:25:31Z</time>
      </trkpt>
      <trkpt lat="37.3643564708" lon="-7.48910745355">
        <ele>35</ele>
        <time>2011-03-18T11:25:33Z</time>
      </trkpt>
      <trkpt lat="37.3643781799" lon="-7.48914835723">
        <ele>35.2</ele>
        <time>2011-03-18T11:25:36Z</time>
      </trkpt>
      <trkpt lat="37.3644015654" lon="-7.48918942854">
        <ele>35.4</ele>
        <time>2011-03-18T11:25:39Z</time>
      </trkpt>
      <trkpt lat="37.3644241127" lon="-7.48923678627">
        <ele>35.8</ele>
        <time>2011-03-18T11:25:42Z</time>
      </trkpt>
      <trkpt lat="37.3644459057" lon="-7.4892779414">
        <ele>36.4</ele>
        <time>2011-03-18T11:25:45Z</time>
      </trkpt>
      <trkpt lat="37.3644635915" lon="-7.48932010236">
        <ele>36.8</ele>
        <time>2011-03-18T11:25:48Z</time>
      </trkpt>
      <trkpt lat="37.364484211" lon="-7.48936569989">
        <ele>37</ele>
        <time>2011-03-18T11:25:51Z</time>
      </trkpt>
      <trkpt lat="37.3644972867" lon="-7.48939444981">
        <ele>37.2</ele>
        <time>2011-03-18T11:25:53Z</time>
      </trkpt>
      <trkpt lat="37.3645004718" lon="-7.48941716476">
        <ele>37.4</ele>
        <time>2011-03-18T11:25:55Z</time>
      </trkpt>
      <trkpt lat="37.3645344185" lon="-7.48947801735">
        <ele>37.6</ele>
        <time>2011-03-18T11:25:59Z</time>
      </trkpt>
      <trkpt lat="37.3645567982" lon="-7.48952319579">
        <ele>37.6</ele>
        <time>2011-03-18T11:26:02Z</time>
      </trkpt>
      <trkpt lat="37.3645800161" lon="-7.48956736841">
        <ele>37.8</ele>
        <time>2011-03-18T11:26:05Z</time>
      </trkpt>
      <trkpt lat="37.3646080954" lon="-7.48961330122">
        <ele>37.8</ele>
        <time>2011-03-18T11:26:08Z</time>
      </trkpt>
      <trkpt lat="37.3646266194" lon="-7.4896533667">
        <ele>38</ele>
        <time>2011-03-18T11:26:11Z</time>
      </trkpt>
      <trkpt lat="37.3646494182" lon="-7.48969695258">
        <ele>38.6</ele>
        <time>2011-03-18T11:26:14Z</time>
      </trkpt>
      <trkpt lat="37.3646718817" lon="-7.48973768862">
        <ele>39</ele>
        <time>2011-03-18T11:26:17Z</time>
      </trkpt>
      <trkpt lat="37.364697195" lon="-7.48977691591">
        <ele>39.2</ele>
        <time>2011-03-18T11:26:20Z</time>
      </trkpt>
      <trkpt lat="37.3647258611" lon="-7.48981781958">
        <ele>39.4</ele>
        <time>2011-03-18T11:26:23Z</time>
      </trkpt>
      <trkpt lat="37.3647532699" lon="-7.48985252064">
        <ele>39.6</ele>
        <time>2011-03-18T11:26:26Z</time>
      </trkpt>
      <trkpt lat="37.3647850373" lon="-7.48988437187">
        <ele>39.6</ele>
        <time>2011-03-18T11:26:29Z</time>
      </trkpt>
      <trkpt lat="37.3648164695" lon="-7.48991412761">
        <ele>40.4</ele>
        <time>2011-03-18T11:26:32Z</time>
      </trkpt>
      <trkpt lat="37.3648475663" lon="-7.48994371572">
        <ele>40.8</ele>
        <time>2011-03-18T11:26:35Z</time>
      </trkpt>
      <trkpt lat="37.3648781603" lon="-7.48997070544">
        <ele>41.2</ele>
        <time>2011-03-18T11:26:38Z</time>
      </trkpt>
      <trkpt lat="37.3649096762" lon="-7.49000046118">
        <ele>41.4</ele>
        <time>2011-03-18T11:26:41Z</time>
      </trkpt>
      <trkpt lat="37.3649459698" lon="-7.49003155803">
        <ele>42.2</ele>
        <time>2011-03-18T11:26:44Z</time>
      </trkpt>
      <trkpt lat="37.3649825149" lon="-7.49006131377">
        <ele>42.8</ele>
        <time>2011-03-18T11:26:47Z</time>
      </trkpt>
      <trkpt lat="37.3650197305" lon="-7.49009534429">
        <ele>43</ele>
        <time>2011-03-18T11:26:50Z</time>
      </trkpt>
      <trkpt lat="37.3650525038" lon="-7.49013255992">
        <ele>43.6</ele>
        <time>2011-03-18T11:26:53Z</time>
      </trkpt>
      <trkpt lat="37.3650779009" lon="-7.49016960792">
        <ele>44.4</ele>
        <time>2011-03-18T11:26:56Z</time>
      </trkpt>
      <trkpt lat="37.3651013702" lon="-7.49021864204">
        <ele>44.8</ele>
        <time>2011-03-18T11:26:59Z</time>
      </trkpt>
      <trkpt lat="37.3651235823" lon="-7.49026591595">
        <ele>45.2</ele>
        <time>2011-03-18T11:27:02Z</time>
      </trkpt>
      <trkpt lat="37.3651418548" lon="-7.4903159559">
        <ele>46.2</ele>
        <time>2011-03-18T11:27:05Z</time>
      </trkpt>
      <trkpt lat="37.3651585348" lon="-7.49036641493">
        <ele>46.8</ele>
        <time>2011-03-18T11:27:08Z</time>
      </trkpt>
      <trkpt lat="37.3651729517" lon="-7.49041561669">
        <ele>47.2</ele>
        <time>2011-03-18T11:27:11Z</time>
      </trkpt>
      <trkpt lat="37.3651887096" lon="-7.49047261361">
        <ele>48.2</ele>
        <time>2011-03-18T11:27:14Z</time>
      </trkpt>
      <trkpt lat="37.3652040485" lon="-7.49052617395">
        <ele>48.8</ele>
        <time>2011-03-18T11:27:17Z</time>
      </trkpt>
      <trkpt lat="37.3652207285" lon="-7.49058333851">
        <ele>49.4</ele>
        <time>2011-03-18T11:27:20Z</time>
      </trkpt>
      <trkpt lat="37.3652364027" lon="-7.49063471955">
        <ele>50.4</ele>
        <time>2011-03-18T11:27:23Z</time>
      </trkpt>
      <trkpt lat="37.3652549267" lon="-7.49068065237">
        <ele>51</ele>
        <time>2011-03-18T11:27:25Z</time>
      </trkpt>
      <trkpt lat="37.3652805753" lon="-7.49074318134">
        <ele>51.8</ele>
        <time>2011-03-18T11:27:29Z</time>
      </trkpt>
      <trkpt lat="37.3653029549" lon="-7.49079355656">
        <ele>52.6</ele>
        <time>2011-03-18T11:27:32Z</time>
      </trkpt>
      <trkpt lat="37.3653219819" lon="-7.49084736836">
        <ele>53</ele>
        <time>2011-03-18T11:27:35Z</time>
      </trkpt>
      <trkpt lat="37.3653428528" lon="-7.49090000669">
        <ele>54.2</ele>
        <time>2011-03-18T11:27:38Z</time>
      </trkpt>
      <trkpt lat="37.3653651486" lon="-7.4909543214">
        <ele>54.8</ele>
        <time>2011-03-18T11:27:41Z</time>
      </trkpt>
      <trkpt lat="37.3653884503" lon="-7.49100804938">
        <ele>55.6</ele>
        <time>2011-03-18T11:27:44Z</time>
      </trkpt>
      <trkpt lat="37.3654085669" lon="-7.49106588449">
        <ele>56.4</ele>
        <time>2011-03-18T11:27:47Z</time>
      </trkpt>
      <trkpt lat="37.3654224808" lon="-7.49112623417">
        <ele>57.2</ele>
        <time>2011-03-18T11:27:50Z</time>
      </trkpt>
      <trkpt lat="37.3654328744" lon="-7.49118708676">
        <ele>58</ele>
        <time>2011-03-18T11:27:53Z</time>
      </trkpt>
      <trkpt lat="37.3654406696" lon="-7.4912459277">
        <ele>58.8</ele>
        <time>2011-03-18T11:27:56Z</time>
      </trkpt>
      <trkpt lat="37.3654435194" lon="-7.49130753467">
        <ele>59.4</ele>
        <time>2011-03-18T11:27:59Z</time>
      </trkpt>
      <trkpt lat="37.3654455311" lon="-7.49135757461">
        <ele>60.2</ele>
        <time>2011-03-18T11:28:02Z</time>
      </trkpt>
      <trkpt lat="37.3654419268" lon="-7.49142001976">
        <ele>61</ele>
        <time>2011-03-18T11:28:05Z</time>
      </trkpt>
      <trkpt lat="37.3654383226" lon="-7.49147307719">
        <ele>61.6</ele>
        <time>2011-03-18T11:28:08Z</time>
      </trkpt>
      <trkpt lat="37.3654355566" lon="-7.49153082848">
        <ele>62.4</ele>
        <time>2011-03-18T11:28:11Z</time>
      </trkpt>
      <trkpt lat="37.3654360595" lon="-7.49158816068">
        <ele>63</ele>
        <time>2011-03-18T11:28:14Z</time>
      </trkpt>
      <trkpt lat="37.3654320362" lon="-7.4916482589">
        <ele>63.6</ele>
        <time>2011-03-18T11:28:17Z</time>
      </trkpt>
      <trkpt lat="37.3654326229" lon="-7.49171062024">
        <ele>64</ele>
        <time>2011-03-18T11:28:20Z</time>
      </trkpt>
      <trkpt lat="37.3654343831" lon="-7.49177599906">
        <ele>64.8</ele>
        <time>2011-03-18T11:28:23Z</time>
      </trkpt>
      <trkpt lat="37.365440921" lon="-7.49183827657">
        <ele>65.4</ele>
        <time>2011-03-18T11:28:26Z</time>
      </trkpt>
      <trkpt lat="37.3654479618" lon="-7.49189686606">
        <ele>65.8</ele>
        <time>2011-03-18T11:28:29Z</time>
      </trkpt>
      <trkpt lat="37.3654553379" lon="-7.491956629">
        <ele>66.2</ele>
        <time>2011-03-18T11:28:32Z</time>
      </trkpt>
      <trkpt lat="37.3654674916" lon="-7.49201605667">
        <ele>66.6</ele>
        <time>2011-03-18T11:28:35Z</time>
      </trkpt>
      <trkpt lat="37.3654791425" lon="-7.49207112576">
        <ele>67.4</ele>
        <time>2011-03-18T11:28:38Z</time>
      </trkpt>
      <trkpt lat="37.3654936432" lon="-7.49212653012">
        <ele>67.8</ele>
        <time>2011-03-18T11:28:41Z</time>
      </trkpt>
      <trkpt lat="37.3655075571" lon="-7.49218486814">
        <ele>68.2</ele>
        <time>2011-03-18T11:28:44Z</time>
      </trkpt>
      <trkpt lat="37.3655270031" lon="-7.49224287089">
        <ele>68.6</ele>
        <time>2011-03-18T11:28:47Z</time>
      </trkpt>
      <trkpt lat="37.3655435155" lon="-7.49230011926">
        <ele>69.4</ele>
        <time>2011-03-18T11:28:50Z</time>
      </trkpt>
      <trkpt lat="37.3655622909" lon="-7.49235669709">
        <ele>69.8</ele>
        <time>2011-03-18T11:28:53Z</time>
      </trkpt>
      <trkpt lat="37.3655780489" lon="-7.49240774286">
        <ele>70.2</ele>
        <time>2011-03-18T11:28:56Z</time>
      </trkpt>
      <trkpt lat="37.3655907056" lon="-7.4924599621">
        <ele>70.6</ele>
        <time>2011-03-18T11:28:59Z</time>
      </trkpt>
      <trkpt lat="37.3656047872" lon="-7.492515115">
        <ele>71.4</ele>
        <time>2011-03-18T11:29:02Z</time>
      </trkpt>
      <trkpt lat="37.3656141749" lon="-7.49257211192">
        <ele>71.8</ele>
        <time>2011-03-18T11:29:05Z</time>
      </trkpt>
      <trkpt lat="37.3656227244" lon="-7.49263296451">
        <ele>72.2</ele>
        <time>2011-03-18T11:29:08Z</time>
      </trkpt>
      <trkpt lat="37.3656316092" lon="-7.49269767278">
        <ele>72.6</ele>
        <time>2011-03-18T11:29:11Z</time>
      </trkpt>
      <trkpt lat="37.3656418352" lon="-7.4927546697">
        <ele>73</ele>
        <time>2011-03-18T11:29:14Z</time>
      </trkpt>
      <trkpt lat="37.3656436792" lon="-7.49277487008">
        <ele>73.4</ele>
        <time>2011-03-18T11:29:15Z</time>
      </trkpt>
      <trkpt lat="37.3656512229" lon="-7.49283379484">
        <ele>73.8</ele>
        <time>2011-03-18T11:29:18Z</time>
      </trkpt>
      <trkpt lat="37.3656628737" lon="-7.49289330633">
        <ele>74.2</ele>
        <time>2011-03-18T11:29:21Z</time>
      </trkpt>
      <trkpt lat="37.3656736026" lon="-7.49294837541">
        <ele>74.6</ele>
        <time>2011-03-18T11:29:24Z</time>
      </trkpt>
      <trkpt lat="37.3656732673" lon="-7.49298324411">
        <ele>74.6</ele>
        <time>2011-03-18T11:29:26Z</time>
      </trkpt>
      <trkpt lat="37.3656883547" lon="-7.49305633428">
        <ele>75.2</ele>
        <time>2011-03-18T11:29:30Z</time>
      </trkpt>
      <trkpt lat="37.3656907855" lon="-7.49307510974">
        <ele>75.4</ele>
        <time>2011-03-18T11:29:31Z</time>
      </trkpt>
      <trkpt lat="37.3657060405" lon="-7.49314677498">
        <ele>76.2</ele>
        <time>2011-03-18T11:29:35Z</time>
      </trkpt>
      <trkpt lat="37.3657148415" lon="-7.49320159261">
        <ele>76.4</ele>
        <time>2011-03-18T11:29:38Z</time>
      </trkpt>
      <trkpt lat="37.3657227205" lon="-7.49325917626">
        <ele>76.8</ele>
        <time>2011-03-18T11:29:41Z</time>
      </trkpt>
      <trkpt lat="37.3657254865" lon="-7.49331617318">
        <ele>77.2</ele>
        <time>2011-03-18T11:29:44Z</time>
      </trkpt>
      <trkpt lat="37.3657298451" lon="-7.49337610377">
        <ele>77.8</ele>
        <time>2011-03-18T11:29:47Z</time>
      </trkpt>
      <trkpt lat="37.3657315215" lon="-7.49339647178">
        <ele>78</ele>
        <time>2011-03-18T11:29:48Z</time>
      </trkpt>
      <trkpt lat="37.3657461898" lon="-7.49347073542">
        <ele>78.4</ele>
        <time>2011-03-18T11:29:52Z</time>
      </trkpt>
      <trkpt lat="37.3657536497" lon="-7.49352513395">
        <ele>78.6</ele>
        <time>2011-03-18T11:29:54Z</time>
      </trkpt>
      <trkpt lat="37.3657631213" lon="-7.49364759351">
        <ele>79</ele>
        <time>2011-03-18T11:29:58Z</time>
      </trkpt>
      <trkpt lat="37.3657758617" lon="-7.49370551244">
        <ele>79</ele>
        <time>2011-03-18T11:30:00Z</time>
      </trkpt>
      <trkpt lat="37.3657890213" lon="-7.49376611357">
        <ele>79.2</ele>
        <time>2011-03-18T11:30:02Z</time>
      </trkpt>
      <trkpt lat="37.3657976547" lon="-7.49385110604">
        <ele>79.2</ele>
        <time>2011-03-18T11:30:05Z</time>
      </trkpt>
      <trkpt lat="37.3658001693" lon="-7.49391514376">
        <ele>79.2</ele>
        <time>2011-03-18T11:30:07Z</time>
      </trkpt>
      <trkpt lat="37.36580721" lon="-7.49398303715">
        <ele>79.4</ele>
        <time>2011-03-18T11:30:09Z</time>
      </trkpt>
      <trkpt lat="37.3658000016" lon="-7.49405931244">
        <ele>80</ele>
        <time>2011-03-18T11:30:12Z</time>
      </trkpt>
      <trkpt lat="37.3657879317" lon="-7.49415042369">
        <ele>80.4</ele>
        <time>2011-03-18T11:30:15Z</time>
      </trkpt>
      <trkpt lat="37.36578592" lon="-7.49424572589">
        <ele>80.8</ele>
        <time>2011-03-18T11:30:18Z</time>
      </trkpt>
      <trkpt lat="37.3657839084" lon="-7.49430817105">
        <ele>80.8</ele>
        <time>2011-03-18T11:30:20Z</time>
      </trkpt>
      <trkpt lat="37.3657796336" lon="-7.49437111912">
        <ele>81</ele>
        <time>2011-03-18T11:30:22Z</time>
      </trkpt>
      <trkpt lat="37.3657738501" lon="-7.49443507301">
        <ele>81</ele>
        <time>2011-03-18T11:30:24Z</time>
      </trkpt>
      <trkpt lat="37.3657703297" lon="-7.49450137384">
        <ele>81.2</ele>
        <time>2011-03-18T11:30:26Z</time>
      </trkpt>
      <trkpt lat="37.3657648815" lon="-7.49456423809">
        <ele>81.2</ele>
        <time>2011-03-18T11:30:28Z</time>
      </trkpt>
      <trkpt lat="37.36576002" lon="-7.49462819199">
        <ele>81.2</ele>
        <time>2011-03-18T11:30:30Z</time>
      </trkpt>
      <trkpt lat="37.3657583436" lon="-7.49469222971">
        <ele>81.4</ele>
        <time>2011-03-18T11:30:32Z</time>
      </trkpt>
      <trkpt lat="37.3657575054" lon="-7.49475492632">
        <ele>81.4</ele>
        <time>2011-03-18T11:30:34Z</time>
      </trkpt>
      <trkpt lat="37.365757673" lon="-7.49481603037">
        <ele>81.4</ele>
        <time>2011-03-18T11:30:36Z</time>
      </trkpt>
      <trkpt lat="37.3657581759" lon="-7.49487855934">
        <ele>81.4</ele>
        <time>2011-03-18T11:30:38Z</time>
      </trkpt>
      <trkpt lat="37.3657523924" lon="-7.49494435726">
        <ele>81.4</ele>
        <time>2011-03-18T11:30:40Z</time>
      </trkpt>
      <trkpt lat="37.3657532306" lon="-7.49500906553">
        <ele>81.4</ele>
        <time>2011-03-18T11:30:42Z</time>
      </trkpt>
      <trkpt lat="37.365752141" lon="-7.4950715945">
        <ele>81.4</ele>
        <time>2011-03-18T11:30:44Z</time>
      </trkpt>
      <trkpt lat="37.3657506322" lon="-7.49513496166">
        <ele>81.4</ele>
        <time>2011-03-18T11:30:46Z</time>
      </trkpt>
      <trkpt lat="37.3657518895" lon="-7.49519388642">
        <ele>81.4</ele>
        <time>2011-03-18T11:30:48Z</time>
      </trkpt>
      <trkpt lat="37.3657458545" lon="-7.49528365657">
        <ele>81.4</ele>
        <time>2011-03-18T11:30:51Z</time>
      </trkpt>
      <trkpt lat="37.3657344552" lon="-7.49537015778">
        <ele>81.4</ele>
        <time>2011-03-18T11:30:54Z</time>
      </trkpt>
      <trkpt lat="37.3657253189" lon="-7.49543436313">
        <ele>81.4</ele>
        <time>2011-03-18T11:30:56Z</time>
      </trkpt>
      <trkpt lat="37.3657085551" lon="-7.4955211158">
        <ele>81.2</ele>
        <time>2011-03-18T11:30:59Z</time>
      </trkpt>
      <trkpt lat="37.3656947249" lon="-7.49558054347">
        <ele>81</ele>
        <time>2011-03-18T11:31:01Z</time>
      </trkpt>
      <trkpt lat="37.3656720938" lon="-7.495663189">
        <ele>80.4</ele>
        <time>2011-03-18T11:31:04Z</time>
      </trkpt>
      <trkpt lat="37.3656526478" lon="-7.49571649789">
        <ele>80.2</ele>
        <time>2011-03-18T11:31:06Z</time>
      </trkpt>
      <trkpt lat="37.3656335371" lon="-7.49577173461">
        <ele>80.2</ele>
        <time>2011-03-18T11:31:08Z</time>
      </trkpt>
      <trkpt lat="37.3656154322" lon="-7.49582437294">
        <ele>80</ele>
        <time>2011-03-18T11:31:10Z</time>
      </trkpt>
      <trkpt lat="37.3655859279" lon="-7.49590467154">
        <ele>79.8</ele>
        <time>2011-03-18T11:31:13Z</time>
      </trkpt>
      <trkpt lat="37.3655656437" lon="-7.49596124937">
        <ele>79.8</ele>
        <time>2011-03-18T11:31:15Z</time>
      </trkpt>
      <trkpt lat="37.3655369776" lon="-7.49604372726">
        <ele>79</ele>
        <time>2011-03-18T11:31:18Z</time>
      </trkpt>
      <trkpt lat="37.3655186212" lon="-7.49609837725">
        <ele>78.8</ele>
        <time>2011-03-18T11:31:20Z</time>
      </trkpt>
      <trkpt lat="37.3654947328" lon="-7.4961775862">
        <ele>78.4</ele>
        <time>2011-03-18T11:31:23Z</time>
      </trkpt>
      <trkpt lat="37.3654753706" lon="-7.49623156564">
        <ele>78.2</ele>
        <time>2011-03-18T11:31:25Z</time>
      </trkpt>
      <trkpt lat="37.3654430165" lon="-7.49630691892">
        <ele>77.8</ele>
        <time>2011-03-18T11:31:28Z</time>
      </trkpt>
      <trkpt lat="37.3654037054" lon="-7.49637824889">
        <ele>77.2</ele>
        <time>2011-03-18T11:31:31Z</time>
      </trkpt>
      <trkpt lat="37.3653718542" lon="-7.49641697327">
        <ele>76.8</ele>
        <time>2011-03-18T11:31:33Z</time>
      </trkpt>
      <trkpt lat="37.3653379075" lon="-7.49645729021">
        <ele>76.4</ele>
        <time>2011-03-18T11:31:35Z</time>
      </trkpt>
      <trkpt lat="37.3653017815" lon="-7.49649199127">
        <ele>76.2</ele>
        <time>2011-03-18T11:31:37Z</time>
      </trkpt>
      <trkpt lat="37.3652500652" lon="-7.49653926519">
        <ele>76</ele>
        <time>2011-03-18T11:31:40Z</time>
      </trkpt>
      <trkpt lat="37.3651988517" lon="-7.4965873773">
        <ele>75.4</ele>
        <time>2011-03-18T11:31:43Z</time>
      </trkpt>
      <trkpt lat="37.3651464649" lon="-7.49662702368">
        <ele>74.6</ele>
        <time>2011-03-18T11:31:46Z</time>
      </trkpt>
      <trkpt lat="37.3650955029" lon="-7.49666340113">
        <ele>74.2</ele>
        <time>2011-03-18T11:31:49Z</time>
      </trkpt>
      <trkpt lat="37.3650503245" lon="-7.49669751546">
        <ele>73.6</ele>
        <time>2011-03-18T11:31:52Z</time>
      </trkpt>
      <trkpt lat="37.3650125221" lon="-7.49673087542">
        <ele>73.2</ele>
        <time>2011-03-18T11:31:54Z</time>
      </trkpt>
      <trkpt lat="37.3649718699" lon="-7.49676809106">
        <ele>72.8</ele>
        <time>2011-03-18T11:31:56Z</time>
      </trkpt>
      <trkpt lat="37.3649205727" lon="-7.49681142548">
        <ele>72.2</ele>
        <time>2011-03-18T11:31:59Z</time>
      </trkpt>
      <trkpt lat="37.3648664256" lon="-7.49684109741">
        <ele>71.8</ele>
        <time>2011-03-18T11:32:02Z</time>
      </trkpt>
      <trkpt lat="37.3648130329" lon="-7.49686062724">
        <ele>71</ele>
        <time>2011-03-18T11:32:05Z</time>
      </trkpt>
      <trkpt lat="37.364758802" lon="-7.4968803247">
        <ele>70.4</ele>
        <time>2011-03-18T11:32:08Z</time>
      </trkpt>
      <trkpt lat="37.3646975303" lon="-7.49690656005">
        <ele>70</ele>
        <time>2011-03-18T11:32:11Z</time>
      </trkpt>
      <trkpt lat="37.3646557046" lon="-7.49692860444">
        <ele>69.6</ele>
        <time>2011-03-18T11:32:13Z</time>
      </trkpt>
      <trkpt lat="37.364597199" lon="-7.49695643235">
        <ele>68.8</ele>
        <time>2011-03-18T11:32:16Z</time>
      </trkpt>
      <trkpt lat="37.3645415431" lon="-7.49697654891">
        <ele>68.4</ele>
        <time>2011-03-18T11:32:19Z</time>
      </trkpt>
      <trkpt lat="37.3644867255" lon="-7.49700035351">
        <ele>67.6</ele>
        <time>2011-03-18T11:32:22Z</time>
      </trkpt>
      <trkpt lat="37.3644284713" lon="-7.49702298464">
        <ele>67</ele>
        <time>2011-03-18T11:32:25Z</time>
      </trkpt>
      <trkpt lat="37.3643723126" lon="-7.49704184391">
        <ele>66.4</ele>
        <time>2011-03-18T11:32:28Z</time>
      </trkpt>
      <trkpt lat="37.364314226" lon="-7.49705709897">
        <ele>65.6</ele>
        <time>2011-03-18T11:32:31Z</time>
      </trkpt>
      <trkpt lat="37.3642609171" lon="-7.49707822136">
        <ele>64.8</ele>
        <time>2011-03-18T11:32:34Z</time>
      </trkpt>
      <trkpt lat="37.3642114639" lon="-7.49710345088">
        <ele>64.2</ele>
        <time>2011-03-18T11:32:37Z</time>
      </trkpt>
      <trkpt lat="37.3641681295" lon="-7.49712541146">
        <ele>63.6</ele>
        <time>2011-03-18T11:32:40Z</time>
      </trkpt>
      <trkpt lat="37.3641101268" lon="-7.49714108561">
        <ele>62.8</ele>
        <time>2011-03-18T11:32:43Z</time>
      </trkpt>
      <trkpt lat="37.36405028" lon="-7.49715072479">
        <ele>62.2</ele>
        <time>2011-03-18T11:32:46Z</time>
      </trkpt>
      <trkpt lat="37.3639978093" lon="-7.49713915777">
        <ele>61.4</ele>
        <time>2011-03-18T11:32:49Z</time>
      </trkpt>
      <trkpt lat="37.3639514574" lon="-7.49712901567">
        <ele>60.6</ele>
        <time>2011-03-18T11:32:52Z</time>
      </trkpt>
      <trkpt lat="37.363903932" lon="-7.49711669428">
        <ele>60</ele>
        <time>2011-03-18T11:32:55Z</time>
      </trkpt>
      <trkpt lat="37.363852551" lon="-7.49709724827">
        <ele>59.2</ele>
        <time>2011-03-18T11:32:58Z</time>
      </trkpt>
      <trkpt lat="37.3637993259" lon="-7.4970766288">
        <ele>58.4</ele>
        <time>2011-03-18T11:33:01Z</time>
      </trkpt>
      <trkpt lat="37.3637457656" lon="-7.49705542259">
        <ele>57.8</ele>
        <time>2011-03-18T11:33:04Z</time>
      </trkpt>
      <trkpt lat="37.3636887686" lon="-7.49704427466">
        <ele>57</ele>
        <time>2011-03-18T11:33:07Z</time>
      </trkpt>
      <trkpt lat="37.3636345377" lon="-7.49704251447">
        <ele>56.2</ele>
        <time>2011-03-18T11:33:10Z</time>
      </trkpt>
      <trkpt lat="37.3635887726" lon="-7.49706321776">
        <ele>55.6</ele>
        <time>2011-03-18T11:33:13Z</time>
      </trkpt>
      <trkpt lat="37.363551976" lon="-7.49708417251">
        <ele>54.8</ele>
        <time>2011-03-18T11:33:16Z</time>
      </trkpt>
      <trkpt lat="37.3635102342" lon="-7.49707570679">
        <ele>54</ele>
        <time>2011-03-18T11:33:19Z</time>
      </trkpt>
      <trkpt lat="37.3634764551" lon="-7.4970678278">
        <ele>53.6</ele>
        <time>2011-03-18T11:33:21Z</time>
      </trkpt>
      <trkpt lat="37.3634455259" lon="-7.49709724827">
        <ele>52.4</ele>
        <time>2011-03-18T11:33:26Z</time>
      </trkpt>
      <trkpt lat="37.3634432628" lon="-7.4971048758">
        <ele>52.2</ele>
        <time>2011-03-18T11:33:27Z</time>
      </trkpt>
      <trkpt lat="37.363408897" lon="-7.4971834142">
        <ele>46.8</ele>
        <time>2011-03-18T11:33:53Z</time>
      </trkpt>
      <trkpt lat="37.3634104896" lon="-7.49719347248">
        <ele>46.6</ele>
        <time>2011-03-18T11:33:54Z</time>
      </trkpt>
      <trkpt lat="37.3634299356" lon="-7.49719841781">
        <ele>45.8</ele>
        <time>2011-03-18T11:33:57Z</time>
      </trkpt>
      <trkpt lat="37.3634537402" lon="-7.49722364732">
        <ele>44.8</ele>
        <time>2011-03-18T11:34:02Z</time>
      </trkpt>
      <trkpt lat="37.3634757846" lon="-7.4972575102">
        <ele>44.4</ele>
        <time>2011-03-18T11:34:05Z</time>
      </trkpt>
      <trkpt lat="37.3635109047" lon="-7.49729212745">
        <ele>44.2</ele>
        <time>2011-03-18T11:34:08Z</time>
      </trkpt>
      <trkpt lat="37.3635605256" lon="-7.49733697061">
        <ele>44</ele>
        <time>2011-03-18T11:34:11Z</time>
      </trkpt>
      <trkpt lat="37.3635997529" lon="-7.49737577881">
        <ele>44</ele>
        <time>2011-03-18T11:34:13Z</time>
      </trkpt>
      <trkpt lat="37.3636378905" lon="-7.49743235663">
        <ele>43.8</ele>
        <time>2011-03-18T11:34:15Z</time>
      </trkpt>
      <trkpt lat="37.3636708314" lon="-7.49749865746">
        <ele>43.4</ele>
        <time>2011-03-18T11:34:17Z</time>
      </trkpt>
      <trkpt lat="37.363699246" lon="-7.49755272072">
        <ele>43</ele>
        <time>2011-03-18T11:34:19Z</time>
      </trkpt>
      <trkpt lat="37.3637083823" lon="-7.49758473958">
        <ele>42.8</ele>
        <time>2011-03-18T11:34:20Z</time>
      </trkpt>
      <trkpt lat="37.3637105616" lon="-7.4976210332">
        <ele>42.8</ele>
        <time>2011-03-18T11:34:21Z</time>
      </trkpt>
      <trkpt lat="37.3637076279" lon="-7.49766084723">
        <ele>42.6</ele>
        <time>2011-03-18T11:34:22Z</time>
      </trkpt>
      <trkpt lat="37.3636943007" lon="-7.49774324131">
        <ele>42.4</ele>
        <time>2011-03-18T11:34:24Z</time>
      </trkpt>
      <trkpt lat="37.3636831528" lon="-7.49781901368">
        <ele>42.2</ele>
        <time>2011-03-18T11:34:26Z</time>
      </trkpt>
      <trkpt lat="37.3636689035" lon="-7.49788623652">
        <ele>42</ele>
        <time>2011-03-18T11:34:28Z</time>
      </trkpt>
      <trkpt lat="37.3636518883" lon="-7.49794675384">
        <ele>42</ele>
        <time>2011-03-18T11:34:30Z</time>
      </trkpt>
      <trkpt lat="37.3636095597" lon="-7.4980066006">
        <ele>41.8</ele>
        <time>2011-03-18T11:34:33Z</time>
      </trkpt>
      <trkpt lat="37.3635725117" lon="-7.49804146931">
        <ele>41.8</ele>
        <time>2011-03-18T11:34:35Z</time>
      </trkpt>
      <trkpt lat="37.3635113238" lon="-7.49806753702">
        <ele>41.6</ele>
        <time>2011-03-18T11:34:38Z</time>
      </trkpt>
      <trkpt lat="37.3634710069" lon="-7.49807969077">
        <ele>41.6</ele>
        <time>2011-03-18T11:34:40Z</time>
      </trkpt>
      <trkpt lat="37.363408897" lon="-7.49808966523">
        <ele>41.6</ele>
        <time>2011-03-18T11:34:43Z</time>
      </trkpt>
      <trkpt lat="37.3633674904" lon="-7.49809695749">
        <ele>41.6</ele>
        <time>2011-03-18T11:34:45Z</time>
      </trkpt>
      <trkpt lat="37.3632897064" lon="-7.49809419146">
        <ele>41.6</ele>
        <time>2011-03-18T11:34:49Z</time>
      </trkpt>
      <trkpt lat="37.3632417619" lon="-7.49809754422">
        <ele>41.6</ele>
        <time>2011-03-18T11:34:51Z</time>
      </trkpt>
      <trkpt lat="37.3631821666" lon="-7.49809318563">
        <ele>41.6</ele>
        <time>2011-03-18T11:34:54Z</time>
      </trkpt>
      <trkpt lat="37.3631388322" lon="-7.49809343709">
        <ele>41.6</ele>
        <time>2011-03-18T11:34:56Z</time>
      </trkpt>
      <trkpt lat="37.3630543426" lon="-7.49809008433">
        <ele>41.6</ele>
        <time>2011-03-18T11:35:00Z</time>
      </trkpt>
      <trkpt lat="37.3629980163" lon="-7.49810341155">
        <ele>41.8</ele>
        <time>2011-03-18T11:35:03Z</time>
      </trkpt>
      <trkpt lat="37.3629159575" lon="-7.49814657833">
        <ele>42.6</ele>
        <time>2011-03-18T11:35:08Z</time>
      </trkpt>
      <trkpt lat="37.3628710305" lon="-7.49817985448">
        <ele>42.8</ele>
        <time>2011-03-18T11:35:11Z</time>
      </trkpt>
      <trkpt lat="37.362825852" lon="-7.49821715393">
        <ele>43</ele>
        <time>2011-03-18T11:35:14Z</time>
      </trkpt>
      <trkpt lat="37.3627873791" lon="-7.49825788997">
        <ele>43.2</ele>
        <time>2011-03-18T11:35:17Z</time>
      </trkpt>
      <trkpt lat="37.3627624849" lon="-7.49828789717">
        <ele>43.6</ele>
        <time>2011-03-18T11:35:19Z</time>
      </trkpt>
      <trkpt lat="37.3627262751" lon="-7.49834564846">
        <ele>44.4</ele>
        <time>2011-03-18T11:35:23Z</time>
      </trkpt>
      <trkpt lat="37.3626990339" lon="-7.49838403756">
        <ele>44.6</ele>
        <time>2011-03-18T11:35:26Z</time>
      </trkpt>
      <trkpt lat="37.3626782468" lon="-7.4984261147">
        <ele>45</ele>
        <time>2011-03-18T11:35:29Z</time>
      </trkpt>
      <trkpt lat="37.3626625726" lon="-7.49847028731">
        <ele>45.2</ele>
        <time>2011-03-18T11:35:32Z</time>
      </trkpt>
      <trkpt lat="37.3626537716" lon="-7.49851756123">
        <ele>45.2</ele>
        <time>2011-03-18T11:35:35Z</time>
      </trkpt>
      <trkpt lat="37.3626525982" lon="-7.49853206191">
        <ele>45.2</ele>
        <time>2011-03-18T11:35:36Z</time>
      </trkpt>
      <trkpt lat="37.3626541069" lon="-7.4986017155">
        <ele>46</ele>
        <time>2011-03-18T11:35:40Z</time>
      </trkpt>
      <trkpt lat="37.3626453897" lon="-7.49865544348">
        <ele>46.4</ele>
        <time>2011-03-18T11:35:43Z</time>
      </trkpt>
      <trkpt lat="37.3626417855" lon="-7.49870430996">
        <ele>46.8</ele>
        <time>2011-03-18T11:35:46Z</time>
      </trkpt>
      <trkpt lat="37.3626422046" lon="-7.49875837321">
        <ele>47</ele>
        <time>2011-03-18T11:35:49Z</time>
      </trkpt>
      <trkpt lat="37.3626371755" lon="-7.4988099219">
        <ele>47.2</ele>
        <time>2011-03-18T11:35:52Z</time>
      </trkpt>
      <trkpt lat="37.3626329845" lon="-7.49886918193">
        <ele>47.4</ele>
        <time>2011-03-18T11:35:55Z</time>
      </trkpt>
      <trkpt lat="37.3626287936" lon="-7.49892735232">
        <ele>47.6</ele>
        <time>2011-03-18T11:35:58Z</time>
      </trkpt>
      <trkpt lat="37.3626153825" lon="-7.49900102922">
        <ele>48.2</ele>
        <time>2011-03-18T11:36:01Z</time>
      </trkpt>
      <trkpt lat="37.362605911" lon="-7.49905584685">
        <ele>48.6</ele>
        <time>2011-03-18T11:36:04Z</time>
      </trkpt>
      <trkpt lat="37.3626045699" lon="-7.49909532559">
        <ele>48.8</ele>
        <time>2011-03-18T11:36:06Z</time>
      </trkpt>
      <trkpt lat="37.3626121974" lon="-7.49915986622">
        <ele>49.2</ele>
        <time>2011-03-18T11:36:10Z</time>
      </trkpt>
      <trkpt lat="37.3626219204" lon="-7.4992056314">
        <ele>49.2</ele>
        <time>2011-03-18T11:36:13Z</time>
      </trkpt>
      <trkpt lat="37.3626243512" lon="-7.49922155701">
        <ele>49.6</ele>
        <time>2011-03-18T11:36:14Z</time>
      </trkpt>
      <trkpt lat="37.3626268657" lon="-7.49929171351">
        <ele>50.2</ele>
        <time>2011-03-18T11:36:18Z</time>
      </trkpt>
      <trkpt lat="37.3626280392" lon="-7.49930772294">
        <ele>50.4</ele>
        <time>2011-03-18T11:36:19Z</time>
      </trkpt>
      <trkpt lat="37.3626292127" lon="-7.49935617032">
        <ele>50.8</ele>
        <time>2011-03-18T11:36:22Z</time>
      </trkpt>
      <trkpt lat="37.3626306376" lon="-7.49941123941">
        <ele>51</ele>
        <time>2011-03-18T11:36:25Z</time>
      </trkpt>
      <trkpt lat="37.3626292965" lon="-7.49946446447">
        <ele>51.6</ele>
        <time>2011-03-18T11:36:28Z</time>
      </trkpt>
      <trkpt lat="37.3626246864" lon="-7.499518863">
        <ele>52.2</ele>
        <time>2011-03-18T11:36:31Z</time>
      </trkpt>
      <trkpt lat="37.3626168913" lon="-7.49956999259">
        <ele>52.6</ele>
        <time>2011-03-18T11:36:34Z</time>
      </trkpt>
      <trkpt lat="37.3626098505" lon="-7.49962187655">
        <ele>53</ele>
        <time>2011-03-18T11:36:37Z</time>
      </trkpt>
      <trkpt lat="37.3626007142" lon="-7.49967166504">
        <ele>53.6</ele>
        <time>2011-03-18T11:36:40Z</time>
      </trkpt>
      <trkpt lat="37.3625889795" lon="-7.49972145352">
        <ele>54.2</ele>
        <time>2011-03-18T11:36:43Z</time>
      </trkpt>
      <trkpt lat="37.3625787536" lon="-7.49977434331">
        <ele>54.6</ele>
        <time>2011-03-18T11:36:46Z</time>
      </trkpt>
      <trkpt lat="37.3625749818" lon="-7.49982874184">
        <ele>55.2</ele>
        <time>2011-03-18T11:36:49Z</time>
      </trkpt>
      <trkpt lat="37.3625671866" lon="-7.49988397857">
        <ele>56</ele>
        <time>2011-03-18T11:36:52Z</time>
      </trkpt>
      <trkpt lat="37.3625662646" lon="-7.49993234213">
        <ele>56.4</ele>
        <time>2011-03-18T11:36:55Z</time>
      </trkpt>
      <trkpt lat="37.3625650911" lon="-7.49996301988">
        <ele>56.8</ele>
        <time>2011-03-18T11:36:57Z</time>
      </trkpt>
      <trkpt lat="37.3625641691" lon="-7.50003342784">
        <ele>57.8</ele>
        <time>2011-03-18T11:37:01Z</time>
      </trkpt>
      <trkpt lat="37.3625623251" lon="-7.50009084386">
        <ele>58.4</ele>
        <time>2011-03-18T11:37:04Z</time>
      </trkpt>
      <trkpt lat="37.3625633309" lon="-7.5001422249">
        <ele>59.2</ele>
        <time>2011-03-18T11:37:07Z</time>
      </trkpt>
      <trkpt lat="37.3625648397" lon="-7.50015789906">
        <ele>59.4</ele>
        <time>2011-03-18T11:37:08Z</time>
      </trkpt>
      <trkpt lat="37.3625686115" lon="-7.50020785518">
        <ele>60.2</ele>
        <time>2011-03-18T11:37:11Z</time>
      </trkpt>
      <trkpt lat="37.3625691983" lon="-7.50024255625">
        <ele>60.6</ele>
        <time>2011-03-18T11:37:13Z</time>
      </trkpt>
      <trkpt lat="37.362566097" lon="-7.5003089409">
        <ele>61.2</ele>
        <time>2011-03-18T11:37:17Z</time>
      </trkpt>
      <trkpt lat="37.362567019" lon="-7.50035671773">
        <ele>62</ele>
        <time>2011-03-18T11:37:20Z</time>
      </trkpt>
      <trkpt lat="37.3625640015" lon="-7.50040491365">
        <ele>62.6</ele>
        <time>2011-03-18T11:37:23Z</time>
      </trkpt>
      <trkpt lat="37.3625629957" lon="-7.50045419922">
        <ele>63.2</ele>
        <time>2011-03-18T11:37:26Z</time>
      </trkpt>
      <trkpt lat="37.3625638338" lon="-7.50050356861">
        <ele>63.6</ele>
        <time>2011-03-18T11:37:29Z</time>
      </trkpt>
      <trkpt lat="37.3625651749" lon="-7.50055754805">
        <ele>64.4</ele>
        <time>2011-03-18T11:37:32Z</time>
      </trkpt>
      <trkpt lat="37.3625614869" lon="-7.50060331322">
        <ele>65</ele>
        <time>2011-03-18T11:37:35Z</time>
      </trkpt>
      <trkpt lat="37.3625614869" lon="-7.5006504195">
        <ele>65.4</ele>
        <time>2011-03-18T11:37:38Z</time>
      </trkpt>
      <trkpt lat="37.3625609002" lon="-7.5006971905">
        <ele>65.8</ele>
        <time>2011-03-18T11:37:41Z</time>
      </trkpt>
      <trkpt lat="37.3625603973" lon="-7.50074119548">
        <ele>66.6</ele>
        <time>2011-03-18T11:37:44Z</time>
      </trkpt>
      <trkpt lat="37.3625596429" lon="-7.50079106778">
        <ele>67</ele>
        <time>2011-03-18T11:37:47Z</time>
      </trkpt>
      <trkpt lat="37.3625575474" lon="-7.5008401019">
        <ele>67.4</ele>
        <time>2011-03-18T11:37:50Z</time>
      </trkpt>
      <trkpt lat="37.362553105" lon="-7.50089114767">
        <ele>67.8</ele>
        <time>2011-03-18T11:37:53Z</time>
      </trkpt>
      <trkpt lat="37.3625469862" lon="-7.50092551346">
        <ele>68.6</ele>
        <time>2011-03-18T11:37:55Z</time>
      </trkpt>
      <trkpt lat="37.3625377661" lon="-7.5009958376">
        <ele>69</ele>
        <time>2011-03-18T11:37:59Z</time>
      </trkpt>
      <trkpt lat="37.3625282108" lon="-7.50105115814">
        <ele>69.4</ele>
        <time>2011-03-18T11:38:02Z</time>
      </trkpt>
      <trkpt lat="37.3625185716" lon="-7.5011034612">
        <ele>70</ele>
        <time>2011-03-18T11:38:05Z</time>
      </trkpt>
      <trkpt lat="37.3625108602" lon="-7.50113539624">
        <ele>70.4</ele>
        <time>2011-03-18T11:38:07Z</time>
      </trkpt>
      <trkpt lat="37.3624976168" lon="-7.5012067262">
        <ele>71.2</ele>
        <time>2011-03-18T11:38:11Z</time>
      </trkpt>
      <trkpt lat="37.3624852116" lon="-7.50125659851">
        <ele>71.6</ele>
        <time>2011-03-18T11:38:14Z</time>
      </trkpt>
      <trkpt lat="37.3624749857" lon="-7.50130806338">
        <ele>72.2</ele>
        <time>2011-03-18T11:38:17Z</time>
      </trkpt>
      <trkpt lat="37.3624588925" lon="-7.50136187517">
        <ele>73</ele>
        <time>2011-03-18T11:38:20Z</time>
      </trkpt>
      <trkpt lat="37.3624456491" lon="-7.50141300476">
        <ele>73.4</ele>
        <time>2011-03-18T11:38:23Z</time>
      </trkpt>
      <trkpt lat="37.3624311484" lon="-7.50146438581">
        <ele>73.8</ele>
        <time>2011-03-18T11:38:26Z</time>
      </trkpt>
      <trkpt lat="37.3624148875" lon="-7.50149380628">
        <ele>74.2</ele>
        <time>2011-03-18T11:38:28Z</time>
      </trkpt>
      <trkpt lat="37.3623761631" lon="-7.501549043">
        <ele>75</ele>
        <time>2011-03-18T11:38:32Z</time>
      </trkpt>
      <trkpt lat="37.3623433061" lon="-7.50158759974">
        <ele>75.6</ele>
        <time>2011-03-18T11:38:35Z</time>
      </trkpt>
      <trkpt lat="37.3623114548" lon="-7.50162339045">
        <ele>76</ele>
        <time>2011-03-18T11:38:38Z</time>
      </trkpt>
      <trkpt lat="37.3622799389" lon="-7.50166546759">
        <ele>76.4</ele>
        <time>2011-03-18T11:38:41Z</time>
      </trkpt>
      <trkpt lat="37.3622609958" lon="-7.50171617809">
        <ele>77</ele>
        <time>2011-03-18T11:38:44Z</time>
      </trkpt>
      <trkpt lat="37.3622513566" lon="-7.50177166626">
        <ele>77.6</ele>
        <time>2011-03-18T11:38:47Z</time>
      </trkpt>
      <trkpt lat="37.3622418851" lon="-7.50182497515">
        <ele>78</ele>
        <time>2011-03-18T11:38:50Z</time>
      </trkpt>
      <trkpt lat="37.3622427233" lon="-7.5018860792">
        <ele>78.4</ele>
        <time>2011-03-18T11:38:53Z</time>
      </trkpt>
      <trkpt lat="37.3622367721" lon="-7.50194374667">
        <ele>79</ele>
        <time>2011-03-18T11:38:56Z</time>
      </trkpt>
      <trkpt lat="37.3622329164" lon="-7.50200015686">
        <ele>79.6</ele>
        <time>2011-03-18T11:38:59Z</time>
      </trkpt>
      <trkpt lat="37.3622243669" lon="-7.50205480685">
        <ele>80</ele>
        <time>2011-03-18T11:39:02Z</time>
      </trkpt>
      <trkpt lat="37.3622183319" lon="-7.50210660699">
        <ele>80.2</ele>
        <time>2011-03-18T11:39:05Z</time>
      </trkpt>
      <trkpt lat="37.3622084413" lon="-7.50215731748">
        <ele>80.4</ele>
        <time>2011-03-18T11:39:08Z</time>
      </trkpt>
      <trkpt lat="37.3621929348" lon="-7.50221087782">
        <ele>80.4</ele>
        <time>2011-03-18T11:39:11Z</time>
      </trkpt>
      <trkpt lat="37.3621791046" lon="-7.50226183978">
        <ele>81.2</ele>
        <time>2011-03-18T11:39:14Z</time>
      </trkpt>
      <trkpt lat="37.3621609159" lon="-7.50231330464">
        <ele>81.6</ele>
        <time>2011-03-18T11:39:17Z</time>
      </trkpt>
      <trkpt lat="37.3621458285" lon="-7.50236326077">
        <ele>82</ele>
        <time>2011-03-18T11:39:20Z</time>
      </trkpt>
      <trkpt lat="37.3621278074" lon="-7.50241841367">
        <ele>82.4</ele>
        <time>2011-03-18T11:39:23Z</time>
      </trkpt>
      <trkpt lat="37.3621069365" lon="-7.50246862125">
        <ele>82.8</ele>
        <time>2011-03-18T11:39:26Z</time>
      </trkpt>
      <trkpt lat="37.362086317" lon="-7.50251631426">
        <ele>83.4</ele>
        <time>2011-03-18T11:39:29Z</time>
      </trkpt>
      <trkpt lat="37.3620676254" lon="-7.50256844968">
        <ele>83.8</ele>
        <time>2011-03-18T11:39:32Z</time>
      </trkpt>
      <trkpt lat="37.3620433179" lon="-7.50262209384">
        <ele>84.2</ele>
        <time>2011-03-18T11:39:35Z</time>
      </trkpt>
      <trkpt lat="37.3620220278" lon="-7.50267640855">
        <ele>84.4</ele>
        <time>2011-03-18T11:39:38Z</time>
      </trkpt>
      <trkpt lat="37.3619993967" lon="-7.50273147763">
        <ele>84.8</ele>
        <time>2011-03-18T11:39:41Z</time>
      </trkpt>
      <trkpt lat="37.3619801183" lon="-7.50278562471">
        <ele>85.4</ele>
        <time>2011-03-18T11:39:44Z</time>
      </trkpt>
      <trkpt lat="37.3619713173" lon="-7.50284111289">
        <ele>85.8</ele>
        <time>2011-03-18T11:39:47Z</time>
      </trkpt>
      <trkpt lat="37.3619677969" lon="-7.50289173956">
        <ele>86.2</ele>
        <time>2011-03-18T11:39:50Z</time>
      </trkpt>
      <trkpt lat="37.3619552241" lon="-7.50294479699">
        <ele>86.4</ele>
        <time>2011-03-18T11:39:53Z</time>
      </trkpt>
      <trkpt lat="37.3619481833" lon="-7.50300279974">
        <ele>86.8</ele>
        <time>2011-03-18T11:39:56Z</time>
      </trkpt>
      <trkpt lat="37.3619403043" lon="-7.50305443224">
        <ele>87.4</ele>
        <time>2011-03-18T11:39:59Z</time>
      </trkpt>
      <trkpt lat="37.3619258874" lon="-7.50310212525">
        <ele>87.8</ele>
        <time>2011-03-18T11:40:02Z</time>
      </trkpt>
      <trkpt lat="37.3619075311" lon="-7.50314898007">
        <ele>88.2</ele>
        <time>2011-03-18T11:40:05Z</time>
      </trkpt>
      <trkpt lat="37.3618943715" lon="-7.50319558344">
        <ele>88.8</ele>
        <time>2011-03-18T11:40:08Z</time>
      </trkpt>
      <trkpt lat="37.3618650348" lon="-7.50323615183">
        <ele>89.6</ele>
        <time>2011-03-18T11:40:11Z</time>
      </trkpt>
      <trkpt lat="37.3618395539" lon="-7.50327403802">
        <ele>90</ele>
        <time>2011-03-18T11:40:14Z</time>
      </trkpt>
      <trkpt lat="37.3618103849" lon="-7.50330915818">
        <ele>90.8</ele>
        <time>2011-03-18T11:40:17Z</time>
      </trkpt>
      <trkpt lat="37.3617791204" lon="-7.50333044821">
        <ele>91.6</ele>
        <time>2011-03-18T11:40:20Z</time>
      </trkpt>
      <trkpt lat="37.3617462633" lon="-7.50335894667">
        <ele>92.2</ele>
        <time>2011-03-18T11:40:23Z</time>
      </trkpt>
      <trkpt lat="37.3617261468" lon="-7.50338040433">
        <ele>92.8</ele>
        <time>2011-03-18T11:40:25Z</time>
      </trkpt>
      <trkpt lat="37.3616809683" lon="-7.50342005072">
        <ele>93.8</ele>
        <time>2011-03-18T11:40:29Z</time>
      </trkpt>
      <trkpt lat="37.3616409028" lon="-7.50344561551">
        <ele>94.4</ele>
        <time>2011-03-18T11:40:32Z</time>
      </trkpt>
      <trkpt lat="37.3616186908" lon="-7.50346430715">
        <ele>95</ele>
        <time>2011-03-18T11:40:34Z</time>
      </trkpt>
      <trkpt lat="37.3615683156" lon="-7.50348417225">
        <ele>96</ele>
        <time>2011-03-18T11:40:38Z</time>
      </trkpt>
      <trkpt lat="37.3615276634" lon="-7.50350269625">
        <ele>96.4</ele>
        <time>2011-03-18T11:40:41Z</time>
      </trkpt>
      <trkpt lat="37.3614878493" lon="-7.50352499211">
        <ele>97.4</ele>
        <time>2011-03-18T11:40:44Z</time>
      </trkpt>
      <trkpt lat="37.3614496279" lon="-7.50355566986">
        <ele>98</ele>
        <time>2011-03-18T11:40:47Z</time>
      </trkpt>
      <trkpt lat="37.3614128313" lon="-7.50357913918">
        <ele>98.6</ele>
        <time>2011-03-18T11:40:50Z</time>
      </trkpt>
      <trkpt lat="37.3613999232" lon="-7.50359137675">
        <ele>98.6</ele>
        <time>2011-03-18T11:40:51Z</time>
      </trkpt>
      <trkpt lat="37.3613496318" lon="-7.50363119078">
        <ele>99.4</ele>
        <time>2011-03-18T11:40:55Z</time>
      </trkpt>
      <trkpt lat="37.3613349635" lon="-7.50363915358">
        <ele>99.6</ele>
        <time>2011-03-18T11:40:56Z</time>
      </trkpt>
      <trkpt lat="37.3612937245" lon="-7.5036581805">
        <ele>100.2</ele>
        <time>2011-03-18T11:40:59Z</time>
      </trkpt>
      <trkpt lat="37.3612396613" lon="-7.50368986408">
        <ele>100.8</ele>
        <time>2011-03-18T11:41:03Z</time>
      </trkpt>
      <trkpt lat="37.3612265017" lon="-7.50369874889">
        <ele>101</ele>
        <time>2011-03-18T11:41:04Z</time>
      </trkpt>
      <trkpt lat="37.3611894537" lon="-7.50372381077">
        <ele>101.2</ele>
        <time>2011-03-18T11:41:07Z</time>
      </trkpt>
      <trkpt lat="37.3611474604" lon="-7.50376739665">
        <ele>101.8</ele>
        <time>2011-03-18T11:41:10Z</time>
      </trkpt>
      <trkpt lat="37.361112927" lon="-7.50380469611">
        <ele>102.4</ele>
        <time>2011-03-18T11:41:13Z</time>
      </trkpt>
      <trkpt lat="37.3610788126" lon="-7.50384283375">
        <ele>103</ele>
        <time>2011-03-18T11:41:16Z</time>
      </trkpt>
      <trkpt lat="37.3610419323" lon="-7.50387510407">
        <ele>103.2</ele>
        <time>2011-03-18T11:41:19Z</time>
      </trkpt>
      <trkpt lat="37.3610051357" lon="-7.50390167469">
        <ele>103.8</ele>
        <time>2011-03-18T11:41:22Z</time>
      </trkpt>
      <trkpt lat="37.3609628071" lon="-7.50392355145">
        <ele>104.6</ele>
        <time>2011-03-18T11:41:25Z</time>
      </trkpt>
      <trkpt lat="37.3609170419" lon="-7.50393235245">
        <ele>105</ele>
        <time>2011-03-18T11:41:28Z</time>
      </trkpt>
      <trkpt lat="37.3608695166" lon="-7.50392832913">
        <ele>105.4</ele>
        <time>2011-03-18T11:41:31Z</time>
      </trkpt>
      <trkpt lat="37.3608243381" lon="-7.50391726503">
        <ele>105.6</ele>
        <time>2011-03-18T11:41:34Z</time>
      </trkpt>
      <trkpt lat="37.3607737115" lon="-7.50389664555">
        <ele>105.8</ele>
        <time>2011-03-18T11:41:37Z</time>
      </trkpt>
      <trkpt lat="37.3607349871" lon="-7.50387870829">
        <ele>105.8</ele>
        <time>2011-03-18T11:41:39Z</time>
      </trkpt>
      <trkpt lat="37.3606767329" lon="-7.50384224702">
        <ele>106</ele>
        <time>2011-03-18T11:41:42Z</time>
      </trkpt>
      <trkpt lat="37.3606201551" lon="-7.50379807441">
        <ele>106</ele>
        <time>2011-03-18T11:41:45Z</time>
      </trkpt>
      <trkpt lat="37.3605608112" lon="-7.50375515908">
        <ele>106.2</ele>
        <time>2011-03-18T11:41:48Z</time>
      </trkpt>
      <trkpt lat="37.3605178121" lon="-7.50372749881">
        <ele>106.2</ele>
        <time>2011-03-18T11:41:50Z</time>
      </trkpt>
      <trkpt lat="37.3604743938" lon="-7.5036979107">
        <ele>106.2</ele>
        <time>2011-03-18T11:41:52Z</time>
      </trkpt>
      <trkpt lat="37.3604329872" lon="-7.50367251355">
        <ele>106.2</ele>
        <time>2011-03-18T11:41:54Z</time>
      </trkpt>
      <trkpt lat="37.3603852942" lon="-7.50365005005">
        <ele>106.2</ele>
        <time>2011-03-18T11:41:56Z</time>
      </trkpt>
      <trkpt lat="37.3603202507" lon="-7.50362163541">
        <ele>106.2</ele>
        <time>2011-03-18T11:41:59Z</time>
      </trkpt>
      <trkpt lat="37.3602761619" lon="-7.50359498097">
        <ele>106.2</ele>
        <time>2011-03-18T11:42:01Z</time>
      </trkpt>
      <trkpt lat="37.3602331627" lon="-7.50357519969">
        <ele>106.2</ele>
        <time>2011-03-18T11:42:03Z</time>
      </trkpt>
      <trkpt lat="37.3601667781" lon="-7.50355784915">
        <ele>106.2</ele>
        <time>2011-03-18T11:42:06Z</time>
      </trkpt>
      <trkpt lat="37.3601034947" lon="-7.50354670123">
        <ele>106.2</ele>
        <time>2011-03-18T11:42:09Z</time>
      </trkpt>
      <trkpt lat="37.3600547121" lon="-7.50355282001">
        <ele>106.2</ele>
        <time>2011-03-18T11:42:11Z</time>
      </trkpt>
      <trkpt lat="37.3599893333" lon="-7.50356254302">
        <ele>106.2</ele>
        <time>2011-03-18T11:42:14Z</time>
      </trkpt>
      <trkpt lat="37.3599420593" lon="-7.50357159547">
        <ele>106.2</ele>
        <time>2011-03-18T11:42:16Z</time>
      </trkpt>
      <trkpt lat="37.3598953722" lon="-7.50358634761">
        <ele>106.2</ele>
        <time>2011-03-18T11:42:18Z</time>
      </trkpt>
      <trkpt lat="37.3598377047" lon="-7.50363705811">
        <ele>106.2</ele>
        <time>2011-03-18T11:42:21Z</time>
      </trkpt>
      <trkpt lat="37.3598017463" lon="-7.50371710525">
        <ele>106.2</ele>
        <time>2011-03-18T11:42:24Z</time>
      </trkpt>
      <trkpt lat="37.3597849825" lon="-7.50377318017">
        <ele>106.2</ele>
        <time>2011-03-18T11:42:26Z</time>
      </trkpt>
      <trkpt lat="37.3597647822" lon="-7.50385138329">
        <ele>106.2</ele>
        <time>2011-03-18T11:42:29Z</time>
      </trkpt>
      <trkpt lat="37.3597485213" lon="-7.5039295026">
        <ele>106.2</ele>
        <time>2011-03-18T11:42:32Z</time>
      </trkpt>
      <trkpt lat="37.3597274827" lon="-7.50399706071">
        <ele>106.2</ele>
        <time>2011-03-18T11:42:35Z</time>
      </trkpt>
      <trkpt lat="37.3597222021" lon="-7.50406419973">
        <ele>106.2</ele>
        <time>2011-03-18T11:42:38Z</time>
      </trkpt>
      <trkpt lat="37.3597184302" lon="-7.50408716614">
        <ele>106.2</ele>
        <time>2011-03-18T11:42:39Z</time>
      </trkpt>
      <trkpt lat="37.359691692" lon="-7.50415422134">
        <ele>106.8</ele>
        <time>2011-03-18T11:42:42Z</time>
      </trkpt>
      <trkpt lat="37.3596626906" lon="-7.50420970952">
        <ele>107.2</ele>
        <time>2011-03-18T11:42:45Z</time>
      </trkpt>
      <trkpt lat="37.3596289116" lon="-7.5042515352">
        <ele>107.4</ele>
        <time>2011-03-18T11:42:48Z</time>
      </trkpt>
      <trkpt lat="37.3595837331" lon="-7.50428489516">
        <ele>107.8</ele>
        <time>2011-03-18T11:42:51Z</time>
      </trkpt>
      <trkpt lat="37.3595358725" lon="-7.5043133098">
        <ele>107.8</ele>
        <time>2011-03-18T11:42:54Z</time>
      </trkpt>
      <trkpt lat="37.3595076255" lon="-7.50432663702">
        <ele>108</ele>
        <time>2011-03-18T11:42:56Z</time>
      </trkpt>
      <trkpt lat="37.3594459347" lon="-7.50436217628">
        <ele>108.6</ele>
        <time>2011-03-18T11:43:00Z</time>
      </trkpt>
      <trkpt lat="37.3594026841" lon="-7.50438262811">
        <ele>109</ele>
        <time>2011-03-18T11:43:03Z</time>
      </trkpt>
      <trkpt lat="37.359351303" lon="-7.50439318931">
        <ele>109.4</ele>
        <time>2011-03-18T11:43:06Z</time>
      </trkpt>
      <trkpt lat="37.3592925459" lon="-7.50439553624">
        <ele>109.8</ele>
        <time>2011-03-18T11:43:09Z</time>
      </trkpt>
      <trkpt lat="37.3592281729" lon="-7.5043975479">
        <ele>110.6</ele>
        <time>2011-03-18T11:43:12Z</time>
      </trkpt>
      <trkpt lat="37.3591679909" lon="-7.50440106829">
        <ele>111</ele>
        <time>2011-03-18T11:43:15Z</time>
      </trkpt>
      <trkpt lat="37.3591098205" lon="-7.50440517543">
        <ele>111.6</ele>
        <time>2011-03-18T11:43:18Z</time>
      </trkpt>
      <trkpt lat="37.3590617084" lon="-7.50441338969">
        <ele>112.4</ele>
        <time>2011-03-18T11:43:21Z</time>
      </trkpt>
      <trkpt lat="37.3590093215" lon="-7.50442001139">
        <ele>113</ele>
        <time>2011-03-18T11:43:24Z</time>
      </trkpt>
      <trkpt lat="37.3589576052" lon="-7.50442504053">
        <ele>113.4</ele>
        <time>2011-03-18T11:43:27Z</time>
      </trkpt>
      <trkpt lat="37.3589115886" lon="-7.50443467971">
        <ele>114.2</ele>
        <time>2011-03-18T11:43:30Z</time>
      </trkpt>
      <trkpt lat="37.358863225" lon="-7.50444398362">
        <ele>115</ele>
        <time>2011-03-18T11:43:33Z</time>
      </trkpt>
      <trkpt lat="37.3588315414" lon="-7.50444674965">
        <ele>115.2</ele>
        <time>2011-03-18T11:43:35Z</time>
      </trkpt>
      <trkpt lat="37.3588145262" lon="-7.50444817457">
        <ele>115.4</ele>
        <time>2011-03-18T11:43:36Z</time>
      </trkpt>
      <trkpt lat="37.3587612173" lon="-7.50445295226">
        <ele>115.8</ele>
        <time>2011-03-18T11:43:39Z</time>
      </trkpt>
      <trkpt lat="37.3587075731" lon="-7.50445664029">
        <ele>116.4</ele>
        <time>2011-03-18T11:43:42Z</time>
      </trkpt>
      <trkpt lat="37.358654348" lon="-7.50446225616">
        <ele>117.2</ele>
        <time>2011-03-18T11:43:45Z</time>
      </trkpt>
      <trkpt lat="37.3586035537" lon="-7.50446736912">
        <ele>117.6</ele>
        <time>2011-03-18T11:43:48Z</time>
      </trkpt>
      <trkpt lat="37.3585523403" lon="-7.50446569274">
        <ele>118</ele>
        <time>2011-03-18T11:43:51Z</time>
      </trkpt>
      <trkpt lat="37.3584953434" lon="-7.50446871023">
        <ele>118.2</ele>
        <time>2011-03-18T11:43:54Z</time>
      </trkpt>
      <trkpt lat="37.3584323953" lon="-7.50447709213">
        <ele>118.6</ele>
        <time>2011-03-18T11:43:57Z</time>
      </trkpt>
      <trkpt lat="37.3584118597" lon="-7.50448547403">
        <ele>118.8</ele>
        <time>2011-03-18T11:43:58Z</time>
      </trkpt>
      <trkpt lat="37.358373722" lon="-7.50454389587">
        <ele>119.4</ele>
        <time>2011-03-18T11:44:01Z</time>
      </trkpt>
      <trkpt lat="37.3583759851" lon="-7.50460231771">
        <ele>119.8</ele>
        <time>2011-03-18T11:44:03Z</time>
      </trkpt>
      <trkpt lat="37.3583938386" lon="-7.5046842927">
        <ele>120</ele>
        <time>2011-03-18T11:44:06Z</time>
      </trkpt>
      <trkpt lat="37.3584075849" lon="-7.50476819551">
        <ele>120.4</ele>
        <time>2011-03-18T11:44:09Z</time>
      </trkpt>
      <trkpt lat="37.3584144581" lon="-7.50479350885">
        <ele>120.4</ele>
        <time>2011-03-18T11:44:10Z</time>
      </trkpt>
      <trkpt lat="37.3584392685" lon="-7.50485779803">
        <ele>120.6</ele>
        <time>2011-03-18T11:44:13Z</time>
      </trkpt>
      <trkpt lat="37.3584567028" lon="-7.50492217102">
        <ele>121.2</ele>
        <time>2011-03-18T11:44:16Z</time>
      </trkpt>
      <trkpt lat="37.3584665935" lon="-7.50498319125">
        <ele>121.8</ele>
        <time>2011-03-18T11:44:19Z</time>
      </trkpt>
      <trkpt lat="37.3584777414" lon="-7.50504454676">
        <ele>122.2</ele>
        <time>2011-03-18T11:44:22Z</time>
      </trkpt>
      <trkpt lat="37.358483944" lon="-7.50511730165">
        <ele>122.4</ele>
        <time>2011-03-18T11:44:25Z</time>
      </trkpt>
      <trkpt lat="37.358480256" lon="-7.50519584005">
        <ele>122.6</ele>
        <time>2011-03-18T11:44:28Z</time>
      </trkpt>
      <trkpt lat="37.358454775" lon="-7.5052608836">
        <ele>123</ele>
        <time>2011-03-18T11:44:31Z</time>
      </trkpt>
      <trkpt lat="37.3584118597" lon="-7.50529960797">
        <ele>123.6</ele>
        <time>2011-03-18T11:44:34Z</time>
      </trkpt>
      <trkpt lat="37.3583623226" lon="-7.50534344531">
        <ele>124</ele>
        <time>2011-03-18T11:44:37Z</time>
      </trkpt>
      <trkpt lat="37.358325107" lon="-7.50538108004">
        <ele>124.4</ele>
        <time>2011-03-18T11:44:39Z</time>
      </trkpt>
      <trkpt lat="37.3582750671" lon="-7.50543740641">
        <ele>124.6</ele>
        <time>2011-03-18T11:44:42Z</time>
      </trkpt>
      <trkpt lat="37.3582402822" lon="-7.50550312051">
        <ele>125.4</ele>
        <time>2011-03-18T11:44:45Z</time>
      </trkpt>
      <trkpt lat="37.3582059164" lon="-7.50557294173">
        <ele>126</ele>
        <time>2011-03-18T11:44:48Z</time>
      </trkpt>
      <trkpt lat="37.358183872" lon="-7.50564904939">
        <ele>126.4</ele>
        <time>2011-03-18T11:44:51Z</time>
      </trkpt>
      <trkpt lat="37.3581674435" lon="-7.50571870297">
        <ele>126.6</ele>
        <time>2011-03-18T11:44:54Z</time>
      </trkpt>
      <trkpt lat="37.3581531942" lon="-7.50578508762">
        <ele>127.4</ele>
        <time>2011-03-18T11:44:57Z</time>
      </trkpt>
      <trkpt lat="37.3581348379" lon="-7.50585138845">
        <ele>128</ele>
        <time>2011-03-18T11:45:00Z</time>
      </trkpt>
      <trkpt lat="37.3581118715" lon="-7.50591475562">
        <ele>128.4</ele>
        <time>2011-03-18T11:45:03Z</time>
      </trkpt>
      <trkpt lat="37.3580870611" lon="-7.50597720077">
        <ele>128.8</ele>
        <time>2011-03-18T11:45:06Z</time>
      </trkpt>
      <trkpt lat="37.3580557127" lon="-7.50603771809">
        <ele>129.6</ele>
        <time>2011-03-18T11:45:09Z</time>
      </trkpt>
      <trkpt lat="37.3580273819" lon="-7.50610125289">
        <ele>130.2</ele>
        <time>2011-03-18T11:45:12Z</time>
      </trkpt>
      <trkpt lat="37.3579993864" lon="-7.50616151875">
        <ele>130.6</ele>
        <time>2011-03-18T11:45:15Z</time>
      </trkpt>
      <trkpt lat="37.3579767552" lon="-7.50622253898">
        <ele>130.8</ele>
        <time>2011-03-18T11:45:18Z</time>
      </trkpt>
      <trkpt lat="37.3579501846" lon="-7.50627911681">
        <ele>131.6</ele>
        <time>2011-03-18T11:45:21Z</time>
      </trkpt>
      <trkpt lat="37.3579200936" lon="-7.50633485644">
        <ele>132.2</ele>
        <time>2011-03-18T11:45:24Z</time>
      </trkpt>
      <trkpt lat="37.3578858955" lon="-7.50638179508">
        <ele>132.8</ele>
        <time>2011-03-18T11:45:27Z</time>
      </trkpt>
      <trkpt lat="37.3578420581" lon="-7.5064321703">
        <ele>133</ele>
        <time>2011-03-18T11:45:30Z</time>
      </trkpt>
      <trkpt lat="37.3577963768" lon="-7.50647986331">
        <ele>133.2</ele>
        <time>2011-03-18T11:45:33Z</time>
      </trkpt>
      <trkpt lat="37.3577509469" lon="-7.50652227573">
        <ele>134</ele>
        <time>2011-03-18T11:45:36Z</time>
      </trkpt>
      <trkpt lat="37.3577029186" lon="-7.50655907227">
        <ele>134.6</ele>
        <time>2011-03-18T11:45:39Z</time>
      </trkpt>
      <trkpt lat="37.3576501126" lon="-7.50659243223">
        <ele>135</ele>
        <time>2011-03-18T11:45:42Z</time>
      </trkpt>
      <trkpt lat="37.3575942053" lon="-7.50662386436">
        <ele>135.2</ele>
        <time>2011-03-18T11:45:45Z</time>
      </trkpt>
      <trkpt lat="37.3575393877" lon="-7.50665512884">
        <ele>135.4</ele>
        <time>2011-03-18T11:45:48Z</time>
      </trkpt>
      <trkpt lat="37.3574823908" lon="-7.5066875668">
        <ele>135.6</ele>
        <time>2011-03-18T11:45:51Z</time>
      </trkpt>
      <trkpt lat="37.3574277408" lon="-7.50671857983">
        <ele>136</ele>
        <time>2011-03-18T11:45:54Z</time>
      </trkpt>
      <trkpt lat="37.3573734261" lon="-7.50675076632">
        <ele>136.6</ele>
        <time>2011-03-18T11:45:57Z</time>
      </trkpt>
      <trkpt lat="37.3573219612" lon="-7.50678228227">
        <ele>137</ele>
        <time>2011-03-18T11:46:00Z</time>
      </trkpt>
      <trkpt lat="37.3572673951" lon="-7.50680558395">
        <ele>137.2</ele>
        <time>2011-03-18T11:46:03Z</time>
      </trkpt>
      <trkpt lat="37.3572124936" lon="-7.50682544905">
        <ele>137.4</ele>
        <time>2011-03-18T11:46:06Z</time>
      </trkpt>
      <trkpt lat="37.3571547423" lon="-7.50683575879">
        <ele>137.6</ele>
        <time>2011-03-18T11:46:09Z</time>
      </trkpt>
      <trkpt lat="37.3571126652" lon="-7.50684137466">
        <ele>138</ele>
        <time>2011-03-18T11:46:11Z</time>
      </trkpt>
      <trkpt lat="37.3570539919" lon="-7.50683559115">
        <ele>138.6</ele>
        <time>2011-03-18T11:46:14Z</time>
      </trkpt>
      <trkpt lat="37.3570112442" lon="-7.50682025227">
        <ele>138.8</ele>
        <time>2011-03-18T11:46:16Z</time>
      </trkpt>
      <trkpt lat="37.356951146" lon="-7.50680365611">
        <ele>139.2</ele>
        <time>2011-03-18T11:46:19Z</time>
      </trkpt>
      <trkpt lat="37.356893227" lon="-7.5067863894">
        <ele>139.4</ele>
        <time>2011-03-18T11:46:22Z</time>
      </trkpt>
      <trkpt lat="37.356840002" lon="-7.50676895504">
        <ele>139.8</ele>
        <time>2011-03-18T11:46:25Z</time>
      </trkpt>
      <trkpt lat="37.3567843462" lon="-7.50674632391">
        <ele>140.4</ele>
        <time>2011-03-18T11:46:28Z</time>
      </trkpt>
      <trkpt lat="37.3567252538" lon="-7.5067277161">
        <ele>141</ele>
        <time>2011-03-18T11:46:31Z</time>
      </trkpt>
      <trkpt lat="37.3566695979" lon="-7.50670139693">
        <ele>141.2</ele>
        <time>2011-03-18T11:46:34Z</time>
      </trkpt>
      <trkpt lat="37.3566130201" lon="-7.5066787658">
        <ele>141.6</ele>
        <time>2011-03-18T11:46:37Z</time>
      </trkpt>
      <trkpt lat="37.3565564423" lon="-7.50665412301">
        <ele>142.2</ele>
        <time>2011-03-18T11:46:40Z</time>
      </trkpt>
      <trkpt lat="37.3565044745" lon="-7.50662872586">
        <ele>142.8</ele>
        <time>2011-03-18T11:46:43Z</time>
      </trkpt>
      <trkpt lat="37.3564477291" lon="-7.50660081413">
        <ele>143.2</ele>
        <time>2011-03-18T11:46:46Z</time>
      </trkpt>
      <trkpt lat="37.3563960965" lon="-7.50657097457">
        <ele>143.4</ele>
        <time>2011-03-18T11:46:49Z</time>
      </trkpt>
      <trkpt lat="37.3563456375" lon="-7.50654096736">
        <ele>144</ele>
        <time>2011-03-18T11:46:52Z</time>
      </trkpt>
      <trkpt lat="37.3562926639" lon="-7.50651791714">
        <ele>144.6</ele>
        <time>2011-03-18T11:46:55Z</time>
      </trkpt>
      <trkpt lat="37.3562405285" lon="-7.50649143034">
        <ele>145</ele>
        <time>2011-03-18T11:46:58Z</time>
      </trkpt>
      <trkpt lat="37.3561899018" lon="-7.50646670373">
        <ele>145.4</ele>
        <time>2011-03-18T11:47:01Z</time>
      </trkpt>
      <trkpt lat="37.3561344974" lon="-7.50643795381">
        <ele>145.6</ele>
        <time>2011-03-18T11:47:04Z</time>
      </trkpt>
      <trkpt lat="37.3560796798" lon="-7.5064154065">
        <ele>146</ele>
        <time>2011-03-18T11:47:07Z</time>
      </trkpt>
      <trkpt lat="37.3560277959" lon="-7.50639185336">
        <ele>146.8</ele>
        <time>2011-03-18T11:47:10Z</time>
      </trkpt>
      <trkpt lat="37.355981444" lon="-7.50635908013">
        <ele>147.2</ele>
        <time>2011-03-18T11:47:13Z</time>
      </trkpt>
      <trkpt lat="37.355925369" lon="-7.50632924057">
        <ele>147.6</ele>
        <time>2011-03-18T11:47:16Z</time>
      </trkpt>
      <trkpt lat="37.3558728145" lon="-7.50631398551">
        <ele>147.8</ele>
        <time>2011-03-18T11:47:19Z</time>
      </trkpt>
      <trkpt lat="37.3558190865" lon="-7.50628909127">
        <ele>148.4</ele>
        <time>2011-03-18T11:47:22Z</time>
      </trkpt>
      <trkpt lat="37.3557595751" lon="-7.50626763361">
        <ele>149</ele>
        <time>2011-03-18T11:47:25Z</time>
      </trkpt>
      <trkpt lat="37.3557040031" lon="-7.50625103744">
        <ele>149.4</ele>
        <time>2011-03-18T11:47:28Z</time>
      </trkpt>
      <trkpt lat="37.3556517838" lon="-7.50623427364">
        <ele>149.6</ele>
        <time>2011-03-18T11:47:31Z</time>
      </trkpt>
      <trkpt lat="37.3556092876" lon="-7.5062181804">
        <ele>150.4</ele>
        <time>2011-03-18T11:47:34Z</time>
      </trkpt>
      <trkpt lat="37.355582717" lon="-7.50621801276">
        <ele>150.8</ele>
        <time>2011-03-18T11:47:36Z</time>
      </trkpt>
      <trkpt lat="37.3555477644" lon="-7.50620644574">
        <ele>151.6</ele>
        <time>2011-03-18T11:47:42Z</time>
      </trkpt>
      <trkpt lat="37.355541478" lon="-7.50621725839">
        <ele>153</ele>
        <time>2011-03-18T11:47:48Z</time>
      </trkpt>
      <trkpt lat="37.3555143207" lon="-7.50625321674">
        <ele>166.8</ele>
        <time>2011-03-18T11:50:53Z</time>
      </trkpt>
      <trkpt lat="37.3554988142" lon="-7.506251708">
        <ele>166.8</ele>
        <time>2011-03-18T11:51:04Z</time>
      </trkpt>
      <trkpt lat="37.3555015802" lon="-7.50626520285">
        <ele>167.4</ele>
        <time>2011-03-18T11:51:16Z</time>
      </trkpt>
      <trkpt lat="37.3555159132" lon="-7.50626511904">
        <ele>168.2</ele>
        <time>2011-03-18T11:51:24Z</time>
      </trkpt>
      <trkpt lat="37.3555118899" lon="-7.5062530491">
        <ele>168.6</ele>
        <time>2011-03-18T11:51:38Z</time>
      </trkpt>
      <trkpt lat="37.355513231" lon="-7.50623511183">
        <ele>168.8</ele>
        <time>2011-03-18T11:51:45Z</time>
      </trkpt>
      <trkpt lat="37.3555239599" lon="-7.50623167525">
        <ele>168.8</ele>
        <time>2011-03-18T11:51:51Z</time>
      </trkpt>
      <trkpt lat="37.3555108003" lon="-7.50623385455">
        <ele>168.8</ele>
        <time>2011-03-18T11:51:56Z</time>
      </trkpt>
      <trkpt lat="37.3555143207" lon="-7.50626369411">
        <ele>168.8</ele>
        <time>2011-03-18T11:52:00Z</time>
      </trkpt>
      <trkpt lat="37.3555108003" lon="-7.50629537769">
        <ele>168.8</ele>
        <time>2011-03-18T11:52:04Z</time>
      </trkpt>
      <trkpt lat="37.3555123928" lon="-7.50631918229">
        <ele>168.8</ele>
        <time>2011-03-18T11:52:09Z</time>
      </trkpt>
      <trkpt lat="37.35549982" lon="-7.50633628137">
        <ele>168.8</ele>
        <time>2011-03-18T11:52:28Z</time>
      </trkpt>
      <trkpt lat="37.3554777756" lon="-7.50636746203">
        <ele>168.8</ele>
        <time>2011-03-18T11:52:31Z</time>
      </trkpt>
      <trkpt lat="37.3554575752" lon="-7.50640157637">
        <ele>168.8</ele>
        <time>2011-03-18T11:52:34Z</time>
      </trkpt>
      <trkpt lat="37.3554380454" lon="-7.50643736708">
        <ele>168.8</ele>
        <time>2011-03-18T11:52:37Z</time>
      </trkpt>
      <trkpt lat="37.3554157495" lon="-7.50646972121">
        <ele>168.8</ele>
        <time>2011-03-18T11:52:40Z</time>
      </trkpt>
      <trkpt lat="37.3553906876" lon="-7.50650257826">
        <ele>168.8</ele>
        <time>2011-03-18T11:52:43Z</time>
      </trkpt>
      <trkpt lat="37.3553665478" lon="-7.50653183109">
        <ele>168.8</ele>
        <time>2011-03-18T11:52:46Z</time>
      </trkpt>
      <trkpt lat="37.3553559028" lon="-7.50657558461">
        <ele>168.8</ele>
        <time>2011-03-18T11:52:49Z</time>
      </trkpt>
      <trkpt lat="37.3553453416" lon="-7.5066002274">
        <ele>168.8</ele>
        <time>2011-03-18T11:52:55Z</time>
      </trkpt>
      <trkpt lat="37.3553165078" lon="-7.50658430179">
        <ele>168.8</ele>
        <time>2011-03-18T11:53:00Z</time>
      </trkpt>
      <trkpt lat="37.3553049408" lon="-7.50657726099">
        <ele>168.8</ele>
        <time>2011-03-18T11:53:01Z</time>
      </trkpt>
      <trkpt lat="37.3552626122" lon="-7.50655840172">
        <ele>168.8</ele>
        <time>2011-03-18T11:53:04Z</time>
      </trkpt>
      <trkpt lat="37.3552205351" lon="-7.50654649942">
        <ele>168.8</ele>
        <time>2011-03-18T11:53:07Z</time>
      </trkpt>
      <trkpt lat="37.3551777874" lon="-7.50653283692">
        <ele>168.8</ele>
        <time>2011-03-18T11:53:10Z</time>
      </trkpt>
      <trkpt lat="37.3551633705" lon="-7.50653241783">
        <ele>168.8</ele>
        <time>2011-03-18T11:53:11Z</time>
      </trkpt>
      <trkpt lat="37.3551228859" lon="-7.50653635732">
        <ele>168.8</ele>
        <time>2011-03-18T11:53:14Z</time>
      </trkpt>
      <trkpt lat="37.355083491" lon="-7.50654147028">
        <ele>168.8</ele>
        <time>2011-03-18T11:53:17Z</time>
      </trkpt>
      <trkpt lat="37.3550479518" lon="-7.50654960072">
        <ele>168.8</ele>
        <time>2011-03-18T11:53:20Z</time>
      </trkpt>
      <trkpt lat="37.3550068804" lon="-7.50655370785">
        <ele>168.8</ele>
        <time>2011-03-18T11:53:23Z</time>
      </trkpt>
      <trkpt lat="37.3549913739" lon="-7.50655840172">
        <ele>168.8</ele>
        <time>2011-03-18T11:53:24Z</time>
      </trkpt>
      <trkpt lat="37.3549479557" lon="-7.50657307004">
        <ele>168.8</ele>
        <time>2011-03-18T11:53:27Z</time>
      </trkpt>
      <trkpt lat="37.3549037831" lon="-7.50657566843">
        <ele>168.8</ele>
        <time>2011-03-18T11:53:30Z</time>
      </trkpt>
      <trkpt lat="37.3548708422" lon="-7.50658622962">
        <ele>168.8</ele>
        <time>2011-03-18T11:53:33Z</time>
      </trkpt>
      <trkpt lat="37.3548498875" lon="-7.50659653936">
        <ele>168.8</ele>
        <time>2011-03-18T11:53:37Z</time>
      </trkpt>
      <trkpt lat="37.3548356382" lon="-7.50657022019">
        <ele>167</ele>
        <time>2011-03-18T11:54:09Z</time>
      </trkpt>
      <trkpt lat="37.3547984226" lon="-7.50653342365">
        <ele>167</ele>
        <time>2011-03-18T11:54:12Z</time>
      </trkpt>
      <trkpt lat="37.354715358" lon="-7.5065058472">
        <ele>166.8</ele>
        <time>2011-03-18T11:54:15Z</time>
      </trkpt>
      <trkpt lat="37.3546623005" lon="-7.50648614974">
        <ele>166.8</ele>
        <time>2011-03-18T11:54:17Z</time>
      </trkpt>
      <trkpt lat="37.3546025376" lon="-7.50645681309">
        <ele>166.8</ele>
        <time>2011-03-18T11:54:19Z</time>
      </trkpt>
      <trkpt lat="37.3545312914" lon="-7.50642697352">
        <ele>166.8</ele>
        <time>2011-03-18T11:54:21Z</time>
      </trkpt>
      <trkpt lat="37.3544654935" lon="-7.50639260773">
        <ele>166.8</ele>
        <time>2011-03-18T11:54:23Z</time>
      </trkpt>
      <trkpt lat="37.354407407" lon="-7.50635564356">
        <ele>166.8</ele>
        <time>2011-03-18T11:54:25Z</time>
      </trkpt>
      <trkpt lat="37.3543473087" lon="-7.50631004602">
        <ele>166.8</ele>
        <time>2011-03-18T11:54:27Z</time>
      </trkpt>
      <trkpt lat="37.3542820137" lon="-7.50626746597">
        <ele>166.4</ele>
        <time>2011-03-18T11:54:29Z</time>
      </trkpt>
      <trkpt lat="37.3542282857" lon="-7.50622564029">
        <ele>166.2</ele>
        <time>2011-03-18T11:54:31Z</time>
      </trkpt>
      <trkpt lat="37.3541814309" lon="-7.50618188677">
        <ele>165.8</ele>
        <time>2011-03-18T11:54:33Z</time>
      </trkpt>
      <trkpt lat="37.354140192" lon="-7.50613930672">
        <ele>165.6</ele>
        <time>2011-03-18T11:54:35Z</time>
      </trkpt>
      <trkpt lat="37.3541042336" lon="-7.5060955532">
        <ele>165.4</ele>
        <time>2011-03-18T11:54:37Z</time>
      </trkpt>
      <trkpt lat="37.3540845362" lon="-7.50607543664">
        <ele>165.4</ele>
        <time>2011-03-18T11:54:38Z</time>
      </trkpt>
      <trkpt lat="37.3540252761" lon="-7.50601978082">
        <ele>164.8</ele>
        <time>2011-03-18T11:54:41Z</time>
      </trkpt>
      <trkpt lat="37.3539924191" lon="-7.50598181082">
        <ele>164.4</ele>
        <time>2011-03-18T11:54:43Z</time>
      </trkpt>
      <trkpt lat="37.3539741465" lon="-7.50596311918">
        <ele>164.2</ele>
        <time>2011-03-18T11:54:44Z</time>
      </trkpt>
      <trkpt lat="37.3539163114" lon="-7.50591165431">
        <ele>163.8</ele>
        <time>2011-03-18T11:54:47Z</time>
      </trkpt>
      <trkpt lat="37.3538788443" lon="-7.5058776238">
        <ele>163.6</ele>
        <time>2011-03-18T11:54:49Z</time>
      </trkpt>
      <trkpt lat="37.3538469093" lon="-7.50582934405">
        <ele>163</ele>
        <time>2011-03-18T11:54:51Z</time>
      </trkpt>
      <trkpt lat="37.3538221827" lon="-7.5057748617">
        <ele>162.6</ele>
        <time>2011-03-18T11:54:53Z</time>
      </trkpt>
      <trkpt lat="37.3538096098" lon="-7.50568886341">
        <ele>162</ele>
        <time>2011-03-18T11:54:56Z</time>
      </trkpt>
      <trkpt lat="37.3538072629" lon="-7.50563530307">
        <ele>161.8</ele>
        <time>2011-03-18T11:54:58Z</time>
      </trkpt>
      <trkpt lat="37.3538133817" lon="-7.50557327701">
        <ele>161.2</ele>
        <time>2011-03-18T11:55:00Z</time>
      </trkpt>
      <trkpt lat="37.3538210092" lon="-7.50550806583">
        <ele>160.6</ele>
        <time>2011-03-18T11:55:02Z</time>
      </trkpt>
      <trkpt lat="37.3538303131" lon="-7.50544360902">
        <ele>160.2</ele>
        <time>2011-03-18T11:55:04Z</time>
      </trkpt>
      <trkpt lat="37.3538454006" lon="-7.50538082859">
        <ele>159.8</ele>
        <time>2011-03-18T11:55:06Z</time>
      </trkpt>
      <trkpt lat="37.3538486695" lon="-7.50535006701">
        <ele>159.8</ele>
        <time>2011-03-18T11:55:07Z</time>
      </trkpt>
      <trkpt lat="37.3538511841" lon="-7.50529013643">
        <ele>159.2</ele>
        <time>2011-03-18T11:55:09Z</time>
      </trkpt>
      <trkpt lat="37.3538521899" lon="-7.50526105123">
        <ele>159</ele>
        <time>2011-03-18T11:55:10Z</time>
      </trkpt>
      <trkpt lat="37.3538421316" lon="-7.505171784">
        <ele>158.2</ele>
        <time>2011-03-18T11:55:13Z</time>
      </trkpt>
      <trkpt lat="37.353828972" lon="-7.50511202105">
        <ele>158</ele>
        <time>2011-03-18T11:55:15Z</time>
      </trkpt>
      <trkpt lat="37.3538125435" lon="-7.50505125228">
        <ele>157.6</ele>
        <time>2011-03-18T11:55:17Z</time>
      </trkpt>
      <trkpt lat="37.3537946062" lon="-7.50499417154">
        <ele>157.4</ele>
        <time>2011-03-18T11:55:19Z</time>
      </trkpt>
      <trkpt lat="37.3537718913" lon="-7.50494396396">
        <ele>156.8</ele>
        <time>2011-03-18T11:55:21Z</time>
      </trkpt>
      <trkpt lat="37.3537477514" lon="-7.50488981688">
        <ele>156.4</ele>
        <time>2011-03-18T11:55:23Z</time>
      </trkpt>
      <trkpt lat="37.3537167384" lon="-7.50483516689">
        <ele>156</ele>
        <time>2011-03-18T11:55:25Z</time>
      </trkpt>
      <trkpt lat="37.3536835461" lon="-7.50478839589">
        <ele>155.6</ele>
        <time>2011-03-18T11:55:27Z</time>
      </trkpt>
      <trkpt lat="37.3536485097" lon="-7.50474221162">
        <ele>155.4</ele>
        <time>2011-03-18T11:55:29Z</time>
      </trkpt>
      <trkpt lat="37.3536069355" lon="-7.50470449307">
        <ele>154.8</ele>
        <time>2011-03-18T11:55:31Z</time>
      </trkpt>
      <trkpt lat="37.3535531237" lon="-7.50466057192">
        <ele>154</ele>
        <time>2011-03-18T11:55:34Z</time>
      </trkpt>
      <trkpt lat="37.3534949533" lon="-7.50462645759">
        <ele>153.6</ele>
        <time>2011-03-18T11:55:37Z</time>
      </trkpt>
      <trkpt lat="37.3534447457" lon="-7.50459116979">
        <ele>153.2</ele>
        <time>2011-03-18T11:55:40Z</time>
      </trkpt>
      <trkpt lat="37.3534136489" lon="-7.50454565607">
        <ele>152.4</ele>
        <time>2011-03-18T11:55:43Z</time>
      </trkpt>
      <trkpt lat="37.3534076139" lon="-7.50452579097">
        <ele>152</ele>
        <time>2011-03-18T11:55:44Z</time>
      </trkpt>
      <trkpt lat="37.3533998188" lon="-7.50444641437">
        <ele>151.4</ele>
        <time>2011-03-18T11:55:48Z</time>
      </trkpt>
      <trkpt lat="37.3533940352" lon="-7.50442478907">
        <ele>151</ele>
        <time>2011-03-18T11:55:49Z</time>
      </trkpt>
      <trkpt lat="37.3533910178" lon="-7.5043604999">
        <ele>150.2</ele>
        <time>2011-03-18T11:55:52Z</time>
      </trkpt>
      <trkpt lat="37.3533890061" lon="-7.50429495344">
        <ele>149.4</ele>
        <time>2011-03-18T11:55:55Z</time>
      </trkpt>
      <trkpt lat="37.3533936161" lon="-7.50423594486">
        <ele>148.4</ele>
        <time>2011-03-18T11:55:58Z</time>
      </trkpt>
      <trkpt lat="37.3533723261" lon="-7.50413972065">
        <ele>146.8</ele>
        <time>2011-03-18T11:56:03Z</time>
      </trkpt>
      <trkpt lat="37.3533285726" lon="-7.50411558078">
        <ele>145.8</ele>
        <time>2011-03-18T11:56:06Z</time>
      </trkpt>
      <trkpt lat="37.3532818854" lon="-7.5040957995">
        <ele>145</ele>
        <time>2011-03-18T11:56:08Z</time>
      </trkpt>
      <trkpt lat="37.3532580808" lon="-7.50408054444">
        <ele>144.6</ele>
        <time>2011-03-18T11:56:09Z</time>
      </trkpt>
      <trkpt lat="37.3531852421" lon="-7.504035366">
        <ele>143.6</ele>
        <time>2011-03-18T11:56:12Z</time>
      </trkpt>
      <trkpt lat="37.3531353698" lon="-7.50401080703">
        <ele>143.2</ele>
        <time>2011-03-18T11:56:14Z</time>
      </trkpt>
      <trkpt lat="37.3530871739" lon="-7.50399362414">
        <ele>142.4</ele>
        <time>2011-03-18T11:56:16Z</time>
      </trkpt>
      <trkpt lat="37.3530251478" lon="-7.50397652506">
        <ele>141.6</ele>
        <time>2011-03-18T11:56:19Z</time>
      </trkpt>
      <trkpt lat="37.3529756946" lon="-7.5039766927">
        <ele>140.8</ele>
        <time>2011-03-18T11:56:22Z</time>
      </trkpt>
      <trkpt lat="37.3529612777" lon="-7.50398281148">
        <ele>140.6</ele>
        <time>2011-03-18T11:56:23Z</time>
      </trkpt>
      <trkpt lat="37.3529285883" lon="-7.50402296078">
        <ele>139.8</ele>
        <time>2011-03-18T11:56:27Z</time>
      </trkpt>
      <trkpt lat="37.3529156802" lon="-7.50405590165">
        <ele>139.4</ele>
        <time>2011-03-18T11:56:29Z</time>
      </trkpt>
      <trkpt lat="37.3529101482" lon="-7.50407450947">
        <ele>139</ele>
        <time>2011-03-18T11:56:30Z</time>
      </trkpt>
      <trkpt lat="37.3529052028" lon="-7.50409546422">
        <ele>138.8</ele>
        <time>2011-03-18T11:56:31Z</time>
      </trkpt>
      <trkpt lat="37.3529008442" lon="-7.50414466597">
        <ele>138.4</ele>
        <time>2011-03-18T11:56:34Z</time>
      </trkpt>
      <trkpt lat="37.3529041132" lon="-7.50419386773">
        <ele>138</ele>
        <time>2011-03-18T11:56:37Z</time>
      </trkpt>
      <trkpt lat="37.3529151773" lon="-7.50423946526">
        <ele>137.8</ele>
        <time>2011-03-18T11:56:40Z</time>
      </trkpt>
      <trkpt lat="37.3529337851" lon="-7.50428581717">
        <ele>137.4</ele>
        <time>2011-03-18T11:56:43Z</time>
      </trkpt>
      <trkpt lat="37.3529497945" lon="-7.50430786157">
        <ele>136.4</ele>
        <time>2011-03-18T11:56:47Z</time>
      </trkpt>
      <trkpt lat="37.3529321926" lon="-7.50428129094">
        <ele>136</ele>
        <time>2011-03-18T11:56:50Z</time>
      </trkpt>
      <trkpt lat="37.3529185301" lon="-7.50424399149">
        <ele>135.8</ele>
        <time>2011-03-18T11:56:53Z</time>
      </trkpt>
      <trkpt lat="37.3529071307" lon="-7.50420141144">
        <ele>135.6</ele>
        <time>2011-03-18T11:56:56Z</time>
      </trkpt>
      <trkpt lat="37.3529080527" lon="-7.50418649165">
        <ele>135.4</ele>
        <time>2011-03-18T11:56:57Z</time>
      </trkpt>
      <trkpt lat="37.3529119084" lon="-7.50413125493">
        <ele>135.2</ele>
        <time>2011-03-18T11:57:00Z</time>
      </trkpt>
      <trkpt lat="37.3529131656" lon="-7.50411499405">
        <ele>135</ele>
        <time>2011-03-18T11:57:01Z</time>
      </trkpt>
      <trkpt lat="37.3529141715" lon="-7.50409999045">
        <ele>134.8</ele>
        <time>2011-03-18T11:57:02Z</time>
      </trkpt>
      <trkpt lat="37.3529377246" lon="-7.50405288417">
        <ele>134.2</ele>
        <time>2011-03-18T11:57:05Z</time>
      </trkpt>
      <trkpt lat="37.3529482858" lon="-7.50403788057">
        <ele>134.2</ele>
        <time>2011-03-18T11:57:06Z</time>
      </trkpt>
      <trkpt lat="37.3530134132" lon="-7.50400418533">
        <ele>133.8</ele>
        <time>2011-03-18T11:57:10Z</time>
      </trkpt>
      <trkpt lat="37.3530481142" lon="-7.50401147758">
        <ele>133.6</ele>
        <time>2011-03-18T11:57:12Z</time>
      </trkpt>
      <trkpt lat="37.3530621958" lon="-7.5040269841">
        <ele>131</ele>
        <time>2011-03-18T11:57:39Z</time>
      </trkpt>
      <trkpt lat="37.3531358727" lon="-7.50404458609">
        <ele>130.6</ele>
        <time>2011-03-18T11:57:42Z</time>
      </trkpt>
      <trkpt lat="37.3531983179" lon="-7.50407073762">
        <ele>130.2</ele>
        <time>2011-03-18T11:57:44Z</time>
      </trkpt>
      <trkpt lat="37.3532567397" lon="-7.50410292411">
        <ele>130</ele>
        <time>2011-03-18T11:57:46Z</time>
      </trkpt>
      <trkpt lat="37.3533160836" lon="-7.50412832127">
        <ele>129.8</ele>
        <time>2011-03-18T11:57:48Z</time>
      </trkpt>
      <trkpt lat="37.3533391338" lon="-7.50412823745">
        <ele>129.6</ele>
        <time>2011-03-18T11:57:49Z</time>
      </trkpt>
      <trkpt lat="37.353425635" lon="-7.50406981561">
        <ele>129.4</ele>
        <time>2011-03-18T11:57:53Z</time>
      </trkpt>
      <trkpt lat="37.3534596655" lon="-7.50401315396">
        <ele>129.2</ele>
        <time>2011-03-18T11:57:55Z</time>
      </trkpt>
      <trkpt lat="37.3534620125" lon="-7.50394500912">
        <ele>129.2</ele>
        <time>2011-03-18T11:57:57Z</time>
      </trkpt>
      <trkpt lat="37.3534364477" lon="-7.50388088758">
        <ele>129</ele>
        <time>2011-03-18T11:57:59Z</time>
      </trkpt>
      <trkpt lat="37.3534060214" lon="-7.50381718514">
        <ele>129</ele>
        <time>2011-03-18T11:58:01Z</time>
      </trkpt>
      <trkpt lat="37.3533888385" lon="-7.5037521416">
        <ele>129</ele>
        <time>2011-03-18T11:58:03Z</time>
      </trkpt>
      <trkpt lat="37.3533776905" lon="-7.50369195955">
        <ele>129</ele>
        <time>2011-03-18T11:58:05Z</time>
      </trkpt>
      <trkpt lat="37.3533675484" lon="-7.5036114095">
        <ele>129</ele>
        <time>2011-03-18T11:58:08Z</time>
      </trkpt>
      <trkpt lat="37.353351539" lon="-7.50355491549">
        <ele>128.8</ele>
        <time>2011-03-18T11:58:10Z</time>
      </trkpt>
      <trkpt lat="37.3533216994" lon="-7.50349020722">
        <ele>128.8</ele>
        <time>2011-03-18T11:58:13Z</time>
      </trkpt>
      <trkpt lat="37.3532973919" lon="-7.50346137348">
        <ele>128.8</ele>
        <time>2011-03-18T11:58:15Z</time>
      </trkpt>
      <trkpt lat="37.353232516" lon="-7.50342943845">
        <ele>128.8</ele>
        <time>2011-03-18T11:58:19Z</time>
      </trkpt>
      <trkpt lat="37.3531803806" lon="-7.50338920533">
        <ele>128.2</ele>
        <time>2011-03-18T11:58:22Z</time>
      </trkpt>
      <trkpt lat="37.3531645388" lon="-7.50338191307">
        <ele>128.2</ele>
        <time>2011-03-18T11:58:23Z</time>
      </trkpt>
      <trkpt lat="37.3531021775" lon="-7.50331251094">
        <ele>127.6</ele>
        <time>2011-03-18T11:58:27Z</time>
      </trkpt>
      <trkpt lat="37.3530583401" lon="-7.50325568166">
        <ele>127.4</ele>
        <time>2011-03-18T11:58:30Z</time>
      </trkpt>
      <trkpt lat="37.353010731" lon="-7.50320295951">
        <ele>127.2</ele>
        <time>2011-03-18T11:58:33Z</time>
      </trkpt>
      <trkpt lat="37.3529680671" lon="-7.5031548474">
        <ele>127</ele>
        <time>2011-03-18T11:58:36Z</time>
      </trkpt>
      <trkpt lat="37.3529336175" lon="-7.50309491682">
        <ele>127</ele>
        <time>2011-03-18T11:58:39Z</time>
      </trkpt>
      <trkpt lat="37.3529277501" lon="-7.50302434122">
        <ele>126.6</ele>
        <time>2011-03-18T11:58:42Z</time>
      </trkpt>
      <trkpt lat="37.352923643" lon="-7.5029624828">
        <ele>126.2</ele>
        <time>2011-03-18T11:58:44Z</time>
      </trkpt>
      <trkpt lat="37.3529067116" lon="-7.50290582115">
        <ele>125.8</ele>
        <time>2011-03-18T11:58:46Z</time>
      </trkpt>
      <trkpt lat="37.352879638" lon="-7.50285469156">
        <ele>125.6</ele>
        <time>2011-03-18T11:58:48Z</time>
      </trkpt>
      <trkpt lat="37.3528482059" lon="-7.50280247233">
        <ele>125.4</ele>
        <time>2011-03-18T11:58:50Z</time>
      </trkpt>
      <trkpt lat="37.3527907899" lon="-7.50273684205">
        <ele>125.2</ele>
        <time>2011-03-18T11:58:53Z</time>
      </trkpt>
      <trkpt lat="37.3527461982" lon="-7.50270784068">
        <ele>124.8</ele>
        <time>2011-03-18T11:58:55Z</time>
      </trkpt>
      <trkpt lat="37.3527014388" lon="-7.50266777519">
        <ele>124.4</ele>
        <time>2011-03-18T11:58:57Z</time>
      </trkpt>
      <trkpt lat="37.3526363953" lon="-7.50262024982">
        <ele>124</ele>
        <time>2011-03-18T11:59:00Z</time>
      </trkpt>
      <trkpt lat="37.3525895405" lon="-7.50259912743">
        <ele>123.6</ele>
        <time>2011-03-18T11:59:02Z</time>
      </trkpt>
      <trkpt lat="37.35254344" lon="-7.50257188626">
        <ele>123.4</ele>
        <time>2011-03-18T11:59:04Z</time>
      </trkpt>
      <trkpt lat="37.3524979263" lon="-7.50253995122">
        <ele>123.2</ele>
        <time>2011-03-18T11:59:06Z</time>
      </trkpt>
      <trkpt lat="37.3524502333" lon="-7.50250784854">
        <ele>123.2</ele>
        <time>2011-03-18T11:59:08Z</time>
      </trkpt>
      <trkpt lat="37.3524035461" lon="-7.50248337339">
        <ele>123</ele>
        <time>2011-03-18T11:59:10Z</time>
      </trkpt>
      <trkpt lat="37.3523402628" lon="-7.50244565484">
        <ele>122.8</ele>
        <time>2011-03-18T11:59:13Z</time>
      </trkpt>
      <trkpt lat="37.3522990238" lon="-7.50242185025">
        <ele>122.8</ele>
        <time>2011-03-18T11:59:15Z</time>
      </trkpt>
      <trkpt lat="37.3522199825" lon="-7.5023739896">
        <ele>122.8</ele>
        <time>2011-03-18T11:59:19Z</time>
      </trkpt>
      <trkpt lat="37.3521774025" lon="-7.50233258301">
        <ele>122.6</ele>
        <time>2011-03-18T11:59:21Z</time>
      </trkpt>
      <trkpt lat="37.3521236745" lon="-7.50227114369">
        <ele>122.6</ele>
        <time>2011-03-18T11:59:24Z</time>
      </trkpt>
      <trkpt lat="37.3520898116" lon="-7.5022275578">
        <ele>122.6</ele>
        <time>2011-03-18T11:59:26Z</time>
      </trkpt>
      <trkpt lat="37.3520630733" lon="-7.50216913596">
        <ele>122.6</ele>
        <time>2011-03-18T11:59:28Z</time>
      </trkpt>
      <trkpt lat="37.3520547753" lon="-7.50208908882">
        <ele>122.6</ele>
        <time>2011-03-18T11:59:31Z</time>
      </trkpt>
      <trkpt lat="37.3520546076" lon="-7.50202748185">
        <ele>122.6</ele>
        <time>2011-03-18T11:59:33Z</time>
      </trkpt>
      <trkpt lat="37.3520524283" lon="-7.5019937028">
        <ele>122.6</ele>
        <time>2011-03-18T11:59:34Z</time>
      </trkpt>
      <trkpt lat="37.35201647" lon="-7.50190535757">
        <ele>122.6</ele>
        <time>2011-03-18T11:59:37Z</time>
      </trkpt>
      <trkpt lat="37.3519796734" lon="-7.50185573672">
        <ele>122.6</ele>
        <time>2011-03-18T11:59:39Z</time>
      </trkpt>
      <trkpt lat="37.3519309746" lon="-7.50181676089">
        <ele>122.6</ele>
        <time>2011-03-18T11:59:41Z</time>
      </trkpt>
      <trkpt lat="37.3518729718" lon="-7.50179756634">
        <ele>122.6</ele>
        <time>2011-03-18T11:59:43Z</time>
      </trkpt>
      <trkpt lat="37.3518106943" lon="-7.50179798543">
        <ele>122.2</ele>
        <time>2011-03-18T11:59:45Z</time>
      </trkpt>
      <trkpt lat="37.351754368" lon="-7.50180728934">
        <ele>121.8</ele>
        <time>2011-03-18T11:59:47Z</time>
      </trkpt>
      <trkpt lat="37.3517022325" lon="-7.50184140367">
        <ele>121.6</ele>
        <time>2011-03-18T11:59:49Z</time>
      </trkpt>
      <trkpt lat="37.3516656036" lon="-7.50190066371">
        <ele>121.4</ele>
        <time>2011-03-18T11:59:51Z</time>
      </trkpt>
      <trkpt lat="37.3516519411" lon="-7.50191969062">
        <ele>121.2</ele>
        <time>2011-03-18T11:59:52Z</time>
      </trkpt>
      <trkpt lat="37.3516433916" lon="-7.50192430066">
        <ele>121.2</ele>
        <time>2011-03-18T11:59:53Z</time>
      </trkpt>
      <trkpt lat="37.3516337524" lon="-7.50190938088">
        <ele>120.8</ele>
        <time>2011-03-18T11:59:58Z</time>
      </trkpt>
      <trkpt lat="37.3516428049" lon="-7.50199537918">
        <ele>120.8</ele>
        <time>2011-03-18T12:00:02Z</time>
      </trkpt>
      <trkpt lat="37.3516466605" lon="-7.50202186598">
        <ele>120.6</ele>
        <time>2011-03-18T12:00:03Z</time>
      </trkpt>
      <trkpt lat="37.3516749076" lon="-7.50209395032">
        <ele>120</ele>
        <time>2011-03-18T12:00:06Z</time>
      </trkpt>
      <trkpt lat="37.3516887377" lon="-7.50215111488">
        <ele>119.6</ele>
        <time>2011-03-18T12:00:08Z</time>
      </trkpt>
      <trkpt lat="37.3517170685" lon="-7.50221967882">
        <ele>119.4</ele>
        <time>2011-03-18T12:00:11Z</time>
      </trkpt>
      <trkpt lat="37.3517211756" lon="-7.50223485006">
        <ele>119.2</ele>
        <time>2011-03-18T12:00:12Z</time>
      </trkpt>
      <trkpt lat="37.3517330779" lon="-7.50227114369">
        <ele>119</ele>
        <time>2011-03-18T12:00:15Z</time>
      </trkpt>
      <trkpt lat="37.3517294737" lon="-7.50230173762">
        <ele>118.6</ele>
        <time>2011-03-18T12:00:32Z</time>
      </trkpt>
      <trkpt lat="37.3517436391" lon="-7.50235865072">
        <ele>118.2</ele>
        <time>2011-03-18T12:00:36Z</time>
      </trkpt>
      <trkpt lat="37.3517488359" lon="-7.50237281613">
        <ele>118</ele>
        <time>2011-03-18T12:00:37Z</time>
      </trkpt>
      <trkpt lat="37.3517605706" lon="-7.50241480945">
        <ele>117.6</ele>
        <time>2011-03-18T12:00:40Z</time>
      </trkpt>
      <trkpt lat="37.3517662703" lon="-7.50245864679">
        <ele>117.4</ele>
        <time>2011-03-18T12:00:43Z</time>
      </trkpt>
      <trkpt lat="37.3517759094" lon="-7.50249946664">
        <ele>117</ele>
        <time>2011-03-18T12:00:46Z</time>
      </trkpt>
      <trkpt lat="37.3517845428" lon="-7.50254866839">
        <ele>116.8</ele>
        <time>2011-03-18T12:00:49Z</time>
      </trkpt>
      <trkpt lat="37.3518049946" lon="-7.50259636141">
        <ele>116.8</ele>
        <time>2011-03-18T12:00:52Z</time>
      </trkpt>
      <trkpt lat="37.3518157235" lon="-7.5026470719">
        <ele>116.6</ele>
        <time>2011-03-18T12:00:55Z</time>
      </trkpt>
      <trkpt lat="37.3518186571" lon="-7.50266492535">
        <ele>116.6</ele>
        <time>2011-03-18T12:00:56Z</time>
      </trkpt>
      <trkpt lat="37.3518344989" lon="-7.50273835079">
        <ele>116.6</ele>
        <time>2011-03-18T12:01:00Z</time>
      </trkpt>
      <trkpt lat="37.3518388575" lon="-7.50276215539">
        <ele>116.6</ele>
        <time>2011-03-18T12:01:01Z</time>
      </trkpt>
      <trkpt lat="37.3518365944" lon="-7.50286206764">
        <ele>116.6</ele>
        <time>2011-03-18T12:01:04Z</time>
      </trkpt>
      <trkpt lat="37.3517797651" lon="-7.50295317889">
        <ele>116.4</ele>
        <time>2011-03-18T12:01:08Z</time>
      </trkpt>
      <trkpt lat="37.3517238578" lon="-7.5029355769">
        <ele>116.4</ele>
        <time>2011-03-18T12:01:11Z</time>
      </trkpt>
      <trkpt lat="37.3517090219" lon="-7.50287774179">
        <ele>116.4</ele>
        <time>2011-03-18T12:01:13Z</time>
      </trkpt>
      <trkpt lat="37.3516972872" lon="-7.50281227915">
        <ele>116.4</ele>
        <time>2011-03-18T12:01:15Z</time>
      </trkpt>
      <trkpt lat="37.3516827027" lon="-7.5027396919">
        <ele>116.4</ele>
        <time>2011-03-18T12:01:17Z</time>
      </trkpt>
      <trkpt lat="37.3516542881" lon="-7.50266132113">
        <ele>116.4</ele>
        <time>2011-03-18T12:01:19Z</time>
      </trkpt>
      <trkpt lat="37.351625622" lon="-7.50258764423">
        <ele>116.4</ele>
        <time>2011-03-18T12:01:21Z</time>
      </trkpt>
      <trkpt lat="37.3515962853" lon="-7.50251229095">
        <ele>116.4</ele>
        <time>2011-03-18T12:01:23Z</time>
      </trkpt>
      <trkpt lat="37.3515804435" lon="-7.50247742224">
        <ele>116.4</ele>
        <time>2011-03-18T12:01:24Z</time>
      </trkpt>
      <trkpt lat="37.3515442337" lon="-7.50240307479">
        <ele>116.4</ele>
        <time>2011-03-18T12:01:26Z</time>
      </trkpt>
      <trkpt lat="37.3515063475" lon="-7.50232956553">
        <ele>116.4</ele>
        <time>2011-03-18T12:01:28Z</time>
      </trkpt>
      <trkpt lat="37.3514692157" lon="-7.50225898993">
        <ele>116.4</ele>
        <time>2011-03-18T12:01:30Z</time>
      </trkpt>
      <trkpt lat="37.3514391247" lon="-7.50218816288">
        <ele>116.4</ele>
        <time>2011-03-18T12:01:32Z</time>
      </trkpt>
      <trkpt lat="37.3514083631" lon="-7.50211909602">
        <ele>116.4</ele>
        <time>2011-03-18T12:01:34Z</time>
      </trkpt>
      <trkpt lat="37.3513679624" lon="-7.50205036444">
        <ele>116.4</ele>
        <time>2011-03-18T12:01:36Z</time>
      </trkpt>
      <trkpt lat="37.3513196826" lon="-7.50198951185">
        <ele>116.4</ele>
        <time>2011-03-18T12:01:38Z</time>
      </trkpt>
      <trkpt lat="37.3512693074" lon="-7.50193662206">
        <ele>116.4</ele>
        <time>2011-03-18T12:01:40Z</time>
      </trkpt>
      <trkpt lat="37.3512141545" lon="-7.50189152743">
        <ele>116</ele>
        <time>2011-03-18T12:01:42Z</time>
      </trkpt>
      <trkpt lat="37.3511599236" lon="-7.50184249332">
        <ele>115.6</ele>
        <time>2011-03-18T12:01:44Z</time>
      </trkpt>
      <trkpt lat="37.3511054413" lon="-7.50179639287">
        <ele>115.4</ele>
        <time>2011-03-18T12:01:46Z</time>
      </trkpt>
      <trkpt lat="37.351051378" lon="-7.50175791995">
        <ele>115.2</ele>
        <time>2011-03-18T12:01:48Z</time>
      </trkpt>
      <trkpt lat="37.3509973986" lon="-7.50171408261">
        <ele>115</ele>
        <time>2011-03-18T12:01:50Z</time>
      </trkpt>
      <trkpt lat="37.3509489512" lon="-7.50166094137">
        <ele>114.8</ele>
        <time>2011-03-18T12:01:52Z</time>
      </trkpt>
      <trkpt lat="37.3508984083" lon="-7.50161023087">
        <ele>114.8</ele>
        <time>2011-03-18T12:01:54Z</time>
      </trkpt>
      <trkpt lat="37.3508478655" lon="-7.50156035857">
        <ele>114.6</ele>
        <time>2011-03-18T12:01:56Z</time>
      </trkpt>
      <trkpt lat="37.3507983285" lon="-7.5015172756">
        <ele>114.6</ele>
        <time>2011-03-18T12:01:58Z</time>
      </trkpt>
      <trkpt lat="37.3507500487" lon="-7.50147486319">
        <ele>114.6</ele>
        <time>2011-03-18T12:02:00Z</time>
      </trkpt>
      <trkpt lat="37.3507055408" lon="-7.50143689318">
        <ele>114.4</ele>
        <time>2011-03-18T12:02:02Z</time>
      </trkpt>
      <trkpt lat="37.3506565067" lon="-7.50140881381">
        <ele>114.4</ele>
        <time>2011-03-18T12:02:04Z</time>
      </trkpt>
      <trkpt lat="37.3506301037" lon="-7.50139825262">
        <ele>114.4</ele>
        <time>2011-03-18T12:02:05Z</time>
      </trkpt>
      <trkpt lat="37.3505338795" lon="-7.50140034809">
        <ele>114.4</ele>
        <time>2011-03-18T12:02:08Z</time>
      </trkpt>
      <trkpt lat="37.3504791457" lon="-7.50139087655">
        <ele>114</ele>
        <time>2011-03-18T12:02:10Z</time>
      </trkpt>
      <trkpt lat="37.3504283514" lon="-7.50134569811">
        <ele>113.6</ele>
        <time>2011-03-18T12:02:12Z</time>
      </trkpt>
      <trkpt lat="37.350406307" lon="-7.50131686437">
        <ele>113.6</ele>
        <time>2011-03-18T12:02:13Z</time>
      </trkpt>
      <trkpt lat="37.3503451191" lon="-7.50123572758">
        <ele>113.2</ele>
        <time>2011-03-18T12:02:16Z</time>
      </trkpt>
      <trkpt lat="37.350305808" lon="-7.50117789247">
        <ele>113</ele>
        <time>2011-03-18T12:02:18Z</time>
      </trkpt>
      <trkpt lat="37.3502625574" lon="-7.50112223665">
        <ele>112.8</ele>
        <time>2011-03-18T12:02:20Z</time>
      </trkpt>
      <trkpt lat="37.3502203126" lon="-7.50106574265">
        <ele>112.8</ele>
        <time>2011-03-18T12:02:22Z</time>
      </trkpt>
      <trkpt lat="37.3501766429" lon="-7.50102768882">
        <ele>112.6</ele>
        <time>2011-03-18T12:02:24Z</time>
      </trkpt>
      <trkpt lat="37.3501281117" lon="-7.5009940774">
        <ele>112.4</ele>
        <time>2011-03-18T12:02:26Z</time>
      </trkpt>
      <trkpt lat="37.3500788262" lon="-7.50095074298">
        <ele>112</ele>
        <time>2011-03-18T12:02:28Z</time>
      </trkpt>
      <trkpt lat="37.3500293729" lon="-7.50091486845">
        <ele>111.6</ele>
        <time>2011-03-18T12:02:30Z</time>
      </trkpt>
      <trkpt lat="37.349984446" lon="-7.50088888456">
        <ele>111.4</ele>
        <time>2011-03-18T12:02:32Z</time>
      </trkpt>
      <trkpt lat="37.3499380941" lon="-7.50085074691">
        <ele>111.2</ele>
        <time>2011-03-18T12:02:34Z</time>
      </trkpt>
      <trkpt lat="37.3498966875" lon="-7.50081998534">
        <ele>111</ele>
        <time>2011-03-18T12:02:36Z</time>
      </trkpt>
      <trkpt lat="37.3498639142" lon="-7.50077296288">
        <ele>110.8</ele>
        <time>2011-03-18T12:02:38Z</time>
      </trkpt>
      <trkpt lat="37.3498334879" lon="-7.5007209951">
        <ele>110.8</ele>
        <time>2011-03-18T12:02:40Z</time>
      </trkpt>
      <trkpt lat="37.3498165565" lon="-7.50069199373">
        <ele>110.6</ele>
        <time>2011-03-18T12:02:41Z</time>
      </trkpt>
      <trkpt lat="37.3497821907" lon="-7.50058101737">
        <ele>110.6</ele>
        <time>2011-03-18T12:02:44Z</time>
      </trkpt>
      <trkpt lat="37.3497647564" lon="-7.50051823694">
        <ele>110.6</ele>
        <time>2011-03-18T12:02:46Z</time>
      </trkpt>
      <trkpt lat="37.3497691988" lon="-7.50045386395">
        <ele>110</ele>
        <time>2011-03-18T12:02:48Z</time>
      </trkpt>
      <trkpt lat="37.3497707913" lon="-7.50036266887">
        <ele>109.6</ele>
        <time>2011-03-18T12:02:51Z</time>
      </trkpt>
      <trkpt lat="37.3497614874" lon="-7.50027784405">
        <ele>109.2</ele>
        <time>2011-03-18T12:02:54Z</time>
      </trkpt>
      <trkpt lat="37.3497508424" lon="-7.50021917075">
        <ele>109</ele>
        <time>2011-03-18T12:02:56Z</time>
      </trkpt>
      <trkpt lat="37.349723266" lon="-7.50014901424">
        <ele>108.8</ele>
        <time>2011-03-18T12:02:58Z</time>
      </trkpt>
      <trkpt lat="37.3497018921" lon="-7.50006938619">
        <ele>108.6</ele>
        <time>2011-03-18T12:03:00Z</time>
      </trkpt>
      <trkpt lat="37.3496729746" lon="-7.49998933905">
        <ele>108.6</ele>
        <time>2011-03-18T12:03:02Z</time>
      </trkpt>
      <trkpt lat="37.3496408719" lon="-7.49990325694">
        <ele>108.4</ele>
        <time>2011-03-18T12:03:04Z</time>
      </trkpt>
      <trkpt lat="37.3496075957" lon="-7.49983762666">
        <ele>108.4</ele>
        <time>2011-03-18T12:03:06Z</time>
      </trkpt>
      <trkpt lat="37.3495798516" lon="-7.49975992645">
        <ele>108.4</ele>
        <time>2011-03-18T12:03:08Z</time>
      </trkpt>
      <trkpt lat="37.3495542869" lon="-7.49968708773">
        <ele>108.4</ele>
        <time>2011-03-18T12:03:10Z</time>
      </trkpt>
      <trkpt lat="37.349531991" lon="-7.49961994872">
        <ele>108.2</ele>
        <time>2011-03-18T12:03:12Z</time>
      </trkpt>
      <trkpt lat="37.3495040793" lon="-7.49955507281">
        <ele>108.2</ele>
        <time>2011-03-18T12:03:14Z</time>
      </trkpt>
      <trkpt lat="37.3494862258" lon="-7.49948793379">
        <ele>108</ele>
        <time>2011-03-18T12:03:16Z</time>
      </trkpt>
      <trkpt lat="37.3494692944" lon="-7.4994129996">
        <ele>107.6</ele>
        <time>2011-03-18T12:03:18Z</time>
      </trkpt>
      <trkpt lat="37.3494574759" lon="-7.49934384893">
        <ele>107.4</ele>
        <time>2011-03-18T12:03:20Z</time>
      </trkpt>
      <trkpt lat="37.3494455736" lon="-7.49927260278">
        <ele>107</ele>
        <time>2011-03-18T12:03:22Z</time>
      </trkpt>
      <trkpt lat="37.3494370241" lon="-7.4991990097">
        <ele>106.8</ele>
        <time>2011-03-18T12:03:24Z</time>
      </trkpt>
      <trkpt lat="37.3494348448" lon="-7.49916430863">
        <ele>106.8</ele>
        <time>2011-03-18T12:03:25Z</time>
      </trkpt>
      <trkpt lat="37.3494019039" lon="-7.4990481355">
        <ele>106.6</ele>
        <time>2011-03-18T12:03:28Z</time>
      </trkpt>
      <trkpt lat="37.3493951146" lon="-7.4989687589">
        <ele>106.6</ele>
        <time>2011-03-18T12:03:30Z</time>
      </trkpt>
      <trkpt lat="37.3493813683" lon="-7.49887303761">
        <ele>106.4</ele>
        <time>2011-03-18T12:03:32Z</time>
      </trkpt>
      <trkpt lat="37.3493645206" lon="-7.49878494384">
        <ele>106.4</ele>
        <time>2011-03-18T12:03:34Z</time>
      </trkpt>
      <trkpt lat="37.3493506067" lon="-7.49869835881">
        <ele>106.2</ele>
        <time>2011-03-18T12:03:36Z</time>
      </trkpt>
      <trkpt lat="37.3493405484" lon="-7.49860783429">
        <ele>105.8</ele>
        <time>2011-03-18T12:03:38Z</time>
      </trkpt>
      <trkpt lat="37.3493138101" lon="-7.49851747741">
        <ele>105.6</ele>
        <time>2011-03-18T12:03:40Z</time>
      </trkpt>
      <trkpt lat="37.3492796958" lon="-7.49843919046">
        <ele>105.2</ele>
        <time>2011-03-18T12:03:42Z</time>
      </trkpt>
      <trkpt lat="37.3492371158" lon="-7.49836501065">
        <ele>105</ele>
        <time>2011-03-18T12:03:44Z</time>
      </trkpt>
      <trkpt lat="37.3491918535" lon="-7.49830331986">
        <ele>104.8</ele>
        <time>2011-03-18T12:03:46Z</time>
      </trkpt>
      <trkpt lat="37.3491475971" lon="-7.49825151972">
        <ele>104.6</ele>
        <time>2011-03-18T12:03:48Z</time>
      </trkpt>
      <trkpt lat="37.3491090403" lon="-7.49820181505">
        <ele>104.6</ele>
        <time>2011-03-18T12:03:50Z</time>
      </trkpt>
      <trkpt lat="37.3490697292" lon="-7.49814682979">
        <ele>104.4</ele>
        <time>2011-03-18T12:03:52Z</time>
      </trkpt>
      <trkpt lat="37.3490270653" lon="-7.49809896914">
        <ele>104.4</ele>
        <time>2011-03-18T12:03:54Z</time>
      </trkpt>
      <trkpt lat="37.3489898497" lon="-7.49804641463">
        <ele>103.8</ele>
        <time>2011-03-18T12:03:56Z</time>
      </trkpt>
      <trkpt lat="37.3489755167" lon="-7.49791817156">
        <ele>103.2</ele>
        <time>2011-03-18T12:04:00Z</time>
      </trkpt>
      <trkpt lat="37.3489933701" lon="-7.49785371475">
        <ele>103</ele>
        <time>2011-03-18T12:04:02Z</time>
      </trkpt>
      <trkpt lat="37.3490095472" lon="-7.49779143723">
        <ele>102.8</ele>
        <time>2011-03-18T12:04:04Z</time>
      </trkpt>
      <trkpt lat="37.3490242993" lon="-7.49773444031">
        <ele>102.6</ele>
        <time>2011-03-18T12:04:06Z</time>
      </trkpt>
      <trkpt lat="37.3490346091" lon="-7.49770854024">
        <ele>102.6</ele>
        <time>2011-03-18T12:04:07Z</time>
      </trkpt>
      <trkpt lat="37.3490574078" lon="-7.49760485614">
        <ele>102.4</ele>
        <time>2011-03-18T12:04:11Z</time>
      </trkpt>
      <trkpt lat="37.3490820506" lon="-7.49753436436">
        <ele>102.2</ele>
        <time>2011-03-18T12:04:14Z</time>
      </trkpt>
      <trkpt lat="37.3490968866" lon="-7.49748625225">
        <ele>102.2</ele>
        <time>2011-03-18T12:04:16Z</time>
      </trkpt>
      <trkpt lat="37.3491125607" lon="-7.49741182098">
        <ele>102</ele>
        <time>2011-03-18T12:04:19Z</time>
      </trkpt>
      <trkpt lat="37.3491180928" lon="-7.49733143856">
        <ele>102</ele>
        <time>2011-03-18T12:04:22Z</time>
      </trkpt>
      <trkpt lat="37.3491064419" lon="-7.49727435782">
        <ele>102</ele>
        <time>2011-03-18T12:04:24Z</time>
      </trkpt>
      <trkpt lat="37.3490858225" lon="-7.49722012693">
        <ele>102</ele>
        <time>2011-03-18T12:04:26Z</time>
      </trkpt>
      <trkpt lat="37.3490557314" lon="-7.4971723501">
        <ele>102</ele>
        <time>2011-03-18T12:04:28Z</time>
      </trkpt>
      <trkpt lat="37.3490049371" lon="-7.49711568845">
        <ele>102</ele>
        <time>2011-03-18T12:04:31Z</time>
      </trkpt>
      <trkpt lat="37.3489629438" lon="-7.49707729935">
        <ele>102</ele>
        <time>2011-03-18T12:04:34Z</time>
      </trkpt>
      <trkpt lat="37.3489273207" lon="-7.49705290802">
        <ele>102</ele>
        <time>2011-03-18T12:04:37Z</time>
      </trkpt>
      <trkpt lat="37.3488982355" lon="-7.4970197157">
        <ele>102</ele>
        <time>2011-03-18T12:04:40Z</time>
      </trkpt>
      <trkpt lat="37.3488678931" lon="-7.49698945704">
        <ele>102</ele>
        <time>2011-03-18T12:04:43Z</time>
      </trkpt>
      <trkpt lat="37.3488338625" lon="-7.49692332385">
        <ele>102</ele>
        <time>2011-03-18T12:05:11Z</time>
      </trkpt>
      <trkpt lat="37.3488110638" lon="-7.49685920231">
        <ele>102</ele>
        <time>2011-03-18T12:05:14Z</time>
      </trkpt>
      <trkpt lat="37.348795222" lon="-7.49678795616">
        <ele>102</ele>
        <time>2011-03-18T12:05:17Z</time>
      </trkpt>
      <trkpt lat="37.3487779553" lon="-7.49671293816">
        <ele>102</ele>
        <time>2011-03-18T12:05:20Z</time>
      </trkpt>
      <trkpt lat="37.3487584254" lon="-7.49662476057">
        <ele>102</ele>
        <time>2011-03-18T12:05:23Z</time>
      </trkpt>
      <trkpt lat="37.3487454335" lon="-7.49656516526">
        <ele>102</ele>
        <time>2011-03-18T12:05:25Z</time>
      </trkpt>
      <trkpt lat="37.348732693" lon="-7.49650934181">
        <ele>102</ele>
        <time>2011-03-18T12:05:27Z</time>
      </trkpt>
      <trkpt lat="37.348715091" lon="-7.49642510371">
        <ele>102</ele>
        <time>2011-03-18T12:05:30Z</time>
      </trkpt>
      <trkpt lat="37.3486891071" lon="-7.49636123363">
        <ele>102</ele>
        <time>2011-03-18T12:05:32Z</time>
      </trkpt>
      <trkpt lat="37.3486542384" lon="-7.49630339852">
        <ele>102</ele>
        <time>2011-03-18T12:05:34Z</time>
      </trkpt>
      <trkpt lat="37.3486165199" lon="-7.4962419592">
        <ele>102</ele>
        <time>2011-03-18T12:05:36Z</time>
      </trkpt>
      <trkpt lat="37.348579891" lon="-7.4961832859">
        <ele>102</ele>
        <time>2011-03-18T12:05:38Z</time>
      </trkpt>
      <trkpt lat="37.3485406637" lon="-7.49612519933">
        <ele>102</ele>
        <time>2011-03-18T12:05:40Z</time>
      </trkpt>
      <trkpt lat="37.3485029451" lon="-7.49605914996">
        <ele>102</ele>
        <time>2011-03-18T12:05:42Z</time>
      </trkpt>
      <trkpt lat="37.3484751172" lon="-7.49600609253">
        <ele>102</ele>
        <time>2011-03-18T12:05:44Z</time>
      </trkpt>
      <trkpt lat="37.3484457806" lon="-7.49595328656">
        <ele>102</ele>
        <time>2011-03-18T12:05:46Z</time>
      </trkpt>
      <trkpt lat="37.3484182879" lon="-7.49590265988">
        <ele>102</ele>
        <time>2011-03-18T12:05:48Z</time>
      </trkpt>
      <trkpt lat="37.3483870235" lon="-7.49585387723">
        <ele>102</ele>
        <time>2011-03-18T12:05:50Z</time>
      </trkpt>
      <trkpt lat="37.3483546693" lon="-7.49580199327">
        <ele>102</ele>
        <time>2011-03-18T12:05:52Z</time>
      </trkpt>
      <trkpt lat="37.3482696769" lon="-7.49572035356">
        <ele>102</ele>
        <time>2011-03-18T12:05:56Z</time>
      </trkpt>
      <trkpt lat="37.3482219" lon="-7.49569034636">
        <ele>102</ele>
        <time>2011-03-18T12:05:58Z</time>
      </trkpt>
      <trkpt lat="37.3481685073" lon="-7.49567785733">
        <ele>102</ele>
        <time>2011-03-18T12:06:00Z</time>
      </trkpt>
      <trkpt lat="37.3481145279" lon="-7.49567291201">
        <ele>102.4</ele>
        <time>2011-03-18T12:06:02Z</time>
      </trkpt>
      <trkpt lat="37.3480607161" lon="-7.49569034636">
        <ele>102.6</ele>
        <time>2011-03-18T12:06:04Z</time>
      </trkpt>
      <trkpt lat="37.3480128554" lon="-7.49571205548">
        <ele>103</ele>
        <time>2011-03-18T12:06:06Z</time>
      </trkpt>
      <trkpt lat="37.3479670903" lon="-7.49573443515">
        <ele>103.2</ele>
        <time>2011-03-18T12:06:08Z</time>
      </trkpt>
      <trkpt lat="37.3479201516" lon="-7.4957620116">
        <ele>103.4</ele>
        <time>2011-03-18T12:06:10Z</time>
      </trkpt>
      <trkpt lat="37.3478707822" lon="-7.49578506183">
        <ele>103.4</ele>
        <time>2011-03-18T12:06:12Z</time>
      </trkpt>
      <trkpt lat="37.3478050681" lon="-7.49581171627">
        <ele>103.6</ele>
        <time>2011-03-18T12:06:15Z</time>
      </trkpt>
      <trkpt lat="37.3477376777" lon="-7.49579369518">
        <ele>104.4</ele>
        <time>2011-03-18T12:06:18Z</time>
      </trkpt>
      <trkpt lat="37.3476743105" lon="-7.49574868438">
        <ele>104.8</ele>
        <time>2011-03-18T12:06:21Z</time>
      </trkpt>
      <trkpt lat="37.3476286291" lon="-7.49571951537">
        <ele>105.2</ele>
        <time>2011-03-18T12:06:23Z</time>
      </trkpt>
      <trkpt lat="37.3475694529" lon="-7.49567098417">
        <ele>105.4</ele>
        <time>2011-03-18T12:06:26Z</time>
      </trkpt>
      <trkpt lat="37.3475443072" lon="-7.49565338218">
        <ele>105.4</ele>
        <time>2011-03-18T12:06:27Z</time>
      </trkpt>
      <trkpt lat="37.3474923395" lon="-7.49557249684">
        <ele>106</ele>
        <time>2011-03-18T12:06:31Z</time>
      </trkpt>
      <trkpt lat="37.3474767491" lon="-7.49555238028">
        <ele>106.2</ele>
        <time>2011-03-18T12:06:32Z</time>
      </trkpt>
      <trkpt lat="37.34745043" lon="-7.49550812385">
        <ele>106.6</ele>
        <time>2011-03-18T12:06:34Z</time>
      </trkpt>
      <trkpt lat="37.3474308163" lon="-7.49545925737">
        <ele>106.8</ele>
        <time>2011-03-18T12:06:36Z</time>
      </trkpt>
      <trkpt lat="37.3474105321" lon="-7.49538591575">
        <ele>107.2</ele>
        <time>2011-03-18T12:06:39Z</time>
      </trkpt>
      <trkpt lat="37.347393433" lon="-7.49533051139">
        <ele>107.4</ele>
        <time>2011-03-18T12:06:41Z</time>
      </trkpt>
      <trkpt lat="37.3473797705" lon="-7.49527778924">
        <ele>107.6</ele>
        <time>2011-03-18T12:06:43Z</time>
      </trkpt>
      <trkpt lat="37.3473711372" lon="-7.49519505989">
        <ele>107.8</ele>
        <time>2011-03-18T12:06:46Z</time>
      </trkpt>
      <trkpt lat="37.3473638449" lon="-7.49513395584">
        <ele>107.8</ele>
        <time>2011-03-18T12:06:48Z</time>
      </trkpt>
      <trkpt lat="37.3473469135" lon="-7.49507553399">
        <ele>108</ele>
        <time>2011-03-18T12:06:50Z</time>
      </trkpt>
      <trkpt lat="37.3473359332" lon="-7.49505030447">
        <ele>108</ele>
        <time>2011-03-18T12:06:51Z</time>
      </trkpt>
      <trkpt lat="37.3473239471" lon="-7.4949224805">
        <ele>108</ele>
        <time>2011-03-18T12:06:56Z</time>
      </trkpt>
      <trkpt lat="37.3473097817" lon="-7.49486783051">
        <ele>108.4</ele>
        <time>2011-03-18T12:06:58Z</time>
      </trkpt>
      <trkpt lat="37.3472958677" lon="-7.49480781611">
        <ele>108.8</ele>
        <time>2011-03-18T12:07:00Z</time>
      </trkpt>
      <trkpt lat="37.3472828758" lon="-7.494749981">
        <ele>109</ele>
        <time>2011-03-18T12:07:02Z</time>
      </trkpt>
      <trkpt lat="37.3472744939" lon="-7.4946679222">
        <ele>109.4</ele>
        <time>2011-03-18T12:07:05Z</time>
      </trkpt>
      <trkpt lat="37.3472668663" lon="-7.49461050618">
        <ele>109.6</ele>
        <time>2011-03-18T12:07:07Z</time>
      </trkpt>
      <trkpt lat="37.3472580653" lon="-7.49455250343">
        <ele>109.6</ele>
        <time>2011-03-18T12:07:09Z</time>
      </trkpt>
      <trkpt lat="37.34723644" lon="-7.49450070329">
        <ele>109.8</ele>
        <time>2011-03-18T12:07:11Z</time>
      </trkpt>
      <trkpt lat="37.3471953687" lon="-7.49444270054">
        <ele>110</ele>
        <time>2011-03-18T12:07:14Z</time>
      </trkpt>
      <trkpt lat="37.3471516152" lon="-7.49441772248">
        <ele>110</ele>
        <time>2011-03-18T12:07:16Z</time>
      </trkpt>
      <trkpt lat="37.3471082808" lon="-7.49439701919">
        <ele>110.4</ele>
        <time>2011-03-18T12:07:18Z</time>
      </trkpt>
      <trkpt lat="37.3470612583" lon="-7.49438654181">
        <ele>110.8</ele>
        <time>2011-03-18T12:07:20Z</time>
      </trkpt>
      <trkpt lat="37.3469957119" lon="-7.49436893982">
        <ele>111.2</ele>
        <time>2011-03-18T12:07:23Z</time>
      </trkpt>
      <trkpt lat="37.3469328476" lon="-7.49434169865">
        <ele>111.4</ele>
        <time>2011-03-18T12:07:26Z</time>
      </trkpt>
      <trkpt lat="37.3468867472" lon="-7.49432258792">
        <ele>112</ele>
        <time>2011-03-18T12:07:28Z</time>
      </trkpt>
      <trkpt lat="37.34682338" lon="-7.49428713248">
        <ele>112.6</ele>
        <time>2011-03-18T12:07:31Z</time>
      </trkpt>
      <trkpt lat="37.3467839013" lon="-7.49425578417">
        <ele>113</ele>
        <time>2011-03-18T12:07:33Z</time>
      </trkpt>
      <trkpt lat="37.3467447578" lon="-7.49422577697">
        <ele>113.2</ele>
        <time>2011-03-18T12:07:35Z</time>
      </trkpt>
      <trkpt lat="37.3467063687" lon="-7.49419132736">
        <ele>113.8</ele>
        <time>2011-03-18T12:07:37Z</time>
      </trkpt>
      <trkpt lat="37.3466714162" lon="-7.49414925022">
        <ele>114.4</ele>
        <time>2011-03-18T12:07:39Z</time>
      </trkpt>
      <trkpt lat="37.346639984" lon="-7.49410616726">
        <ele>114.8</ele>
        <time>2011-03-18T12:07:41Z</time>
      </trkpt>
      <trkpt lat="37.3466076299" lon="-7.49406459303">
        <ele>115</ele>
        <time>2011-03-18T12:07:43Z</time>
      </trkpt>
      <trkpt lat="37.3465739347" lon="-7.49402896996">
        <ele>115.6</ele>
        <time>2011-03-18T12:07:45Z</time>
      </trkpt>
      <trkpt lat="37.3465272475" lon="-7.49397331414">
        <ele>116.4</ele>
        <time>2011-03-18T12:07:48Z</time>
      </trkpt>
      <trkpt lat="37.3464955639" lon="-7.49392964444">
        <ele>116.8</ele>
        <time>2011-03-18T12:07:50Z</time>
      </trkpt>
      <trkpt lat="37.3464627069" lon="-7.4938827058">
        <ele>117.2</ele>
        <time>2011-03-18T12:07:52Z</time>
      </trkpt>
      <trkpt lat="37.3464207135" lon="-7.49381539915">
        <ele>118</ele>
        <time>2011-03-18T12:07:55Z</time>
      </trkpt>
      <trkpt lat="37.3463825759" lon="-7.49374214134">
        <ele>118.6</ele>
        <time>2011-03-18T12:07:58Z</time>
      </trkpt>
      <trkpt lat="37.3463511438" lon="-7.49366988936">
        <ele>119.2</ele>
        <time>2011-03-18T12:08:01Z</time>
      </trkpt>
      <trkpt lat="37.3463197116" lon="-7.49359830794">
        <ele>120</ele>
        <time>2011-03-18T12:08:04Z</time>
      </trkpt>
      <trkpt lat="37.3462848429" lon="-7.49352655887">
        <ele>120.8</ele>
        <time>2011-03-18T12:08:07Z</time>
      </trkpt>
      <trkpt lat="37.346249136" lon="-7.49345833021">
        <ele>121.2</ele>
        <time>2011-03-18T12:08:10Z</time>
      </trkpt>
      <trkpt lat="37.3462137644" lon="-7.49339001772">
        <ele>122</ele>
        <time>2011-03-18T12:08:13Z</time>
      </trkpt>
      <trkpt lat="37.3461892055" lon="-7.49334425255">
        <ele>122.6</ele>
        <time>2011-03-18T12:08:15Z</time>
      </trkpt>
      <trkpt lat="37.3461503134" lon="-7.49328868055">
        <ele>123.2</ele>
        <time>2011-03-18T12:08:18Z</time>
      </trkpt>
      <trkpt lat="37.3461138522" lon="-7.49323679659">
        <ele>123.6</ele>
        <time>2011-03-18T12:08:21Z</time>
      </trkpt>
      <trkpt lat="37.3460729485" lon="-7.49318005113">
        <ele>124.6</ele>
        <time>2011-03-18T12:08:24Z</time>
      </trkpt>
      <trkpt lat="37.3460349785" lon="-7.49312439531">
        <ele>125.2</ele>
        <time>2011-03-18T12:08:27Z</time>
      </trkpt>
      <trkpt lat="37.3459923146" lon="-7.49306086051">
        <ele>125.6</ele>
        <time>2011-03-18T12:08:30Z</time>
      </trkpt>
      <trkpt lat="37.3459479744" lon="-7.49300419886">
        <ele>126.2</ele>
        <time>2011-03-18T12:08:33Z</time>
      </trkpt>
      <trkpt lat="37.3459111778" lon="-7.49293697603">
        <ele>127</ele>
        <time>2011-03-18T12:08:36Z</time>
      </trkpt>
      <trkpt lat="37.3458721182" lon="-7.49287805127">
        <ele>127.6</ele>
        <time>2011-03-18T12:08:39Z</time>
      </trkpt>
      <trkpt lat="37.3458341482" lon="-7.49281233717">
        <ele>128</ele>
        <time>2011-03-18T12:08:42Z</time>
      </trkpt>
      <trkpt lat="37.3458073261" lon="-7.49274218067">
        <ele>128.2</ele>
        <time>2011-03-18T12:08:45Z</time>
      </trkpt>
      <trkpt lat="37.3457851141" lon="-7.49266498337">
        <ele>128.8</ele>
        <time>2011-03-18T12:08:48Z</time>
      </trkpt>
      <trkpt lat="37.3457633211" lon="-7.49258493623">
        <ele>129.4</ele>
        <time>2011-03-18T12:08:51Z</time>
      </trkpt>
      <trkpt lat="37.3457391812" lon="-7.49250924767">
        <ele>129.8</ele>
        <time>2011-03-18T12:08:54Z</time>
      </trkpt>
      <trkpt lat="37.3457287877" lon="-7.49245417859">
        <ele>130.2</ele>
        <time>2011-03-18T12:08:56Z</time>
      </trkpt>
      <trkpt lat="37.3456881355" lon="-7.49233230576">
        <ele>130.6</ele>
        <time>2011-03-18T12:09:01Z</time>
      </trkpt>
      <trkpt lat="37.3456717908" lon="-7.49229006098">
        <ele>130.6</ele>
        <time>2011-03-18T12:09:04Z</time>
      </trkpt>
      <trkpt lat="37.3456151291" lon="-7.49224840294">
        <ele>132.4</ele>
        <time>2011-03-18T12:10:04Z</time>
      </trkpt>
      <trkpt lat="37.3455879718" lon="-7.49218629306">
        <ele>132.6</ele>
        <time>2011-03-18T12:10:06Z</time>
      </trkpt>
      <trkpt lat="37.3455559529" lon="-7.49211169415">
        <ele>132.6</ele>
        <time>2011-03-18T12:10:08Z</time>
      </trkpt>
      <trkpt lat="37.3455233473" lon="-7.49202477385">
        <ele>132.8</ele>
        <time>2011-03-18T12:10:10Z</time>
      </trkpt>
      <trkpt lat="37.3454868022" lon="-7.49194355324">
        <ele>132.8</ele>
        <time>2011-03-18T12:10:12Z</time>
      </trkpt>
      <trkpt lat="37.3454500057" lon="-7.49187037925">
        <ele>132.8</ele>
        <time>2011-03-18T12:10:14Z</time>
      </trkpt>
      <trkpt lat="37.3454185736" lon="-7.49179745672">
        <ele>133</ele>
        <time>2011-03-18T12:10:16Z</time>
      </trkpt>
      <trkpt lat="37.3453869738" lon="-7.49172126525">
        <ele>133</ele>
        <time>2011-03-18T12:10:18Z</time>
      </trkpt>
      <trkpt lat="37.3453506802" lon="-7.49165421005">
        <ele>133</ele>
        <time>2011-03-18T12:10:20Z</time>
      </trkpt>
      <trkpt lat="37.3453145542" lon="-7.49159360891">
        <ele>133</ele>
        <time>2011-03-18T12:10:22Z</time>
      </trkpt>
      <trkpt lat="37.3452750754" lon="-7.49153376215">
        <ele>133</ele>
        <time>2011-03-18T12:10:24Z</time>
      </trkpt>
      <trkpt lat="37.3452346747" lon="-7.49147525649">
        <ele>133</ele>
        <time>2011-03-18T12:10:26Z</time>
      </trkpt>
      <trkpt lat="37.3451997222" lon="-7.49141540972">
        <ele>133</ele>
        <time>2011-03-18T12:10:28Z</time>
      </trkpt>
      <trkpt lat="37.3451674518" lon="-7.49135187492">
        <ele>133.2</ele>
        <time>2011-03-18T12:10:30Z</time>
      </trkpt>
      <trkpt lat="37.3451376961" lon="-7.49129186051">
        <ele>133.6</ele>
        <time>2011-03-18T12:10:32Z</time>
      </trkpt>
      <trkpt lat="37.3451116284" lon="-7.49123184611">
        <ele>134</ele>
        <time>2011-03-18T12:10:34Z</time>
      </trkpt>
      <trkpt lat="37.3450921824" lon="-7.49117476537">
        <ele>134.2</ele>
        <time>2011-03-18T12:10:36Z</time>
      </trkpt>
      <trkpt lat="37.3450708924" lon="-7.49111273931">
        <ele>134.4</ele>
        <time>2011-03-18T12:10:38Z</time>
      </trkpt>
      <trkpt lat="37.3450469201" lon="-7.49104560029">
        <ele>134.4</ele>
        <time>2011-03-18T12:10:40Z</time>
      </trkpt>
      <trkpt lat="37.3450211877" lon="-7.49097779072">
        <ele>134.6</ele>
        <time>2011-03-18T12:10:42Z</time>
      </trkpt>
      <trkpt lat="37.3449896717" lon="-7.49091031643">
        <ele>134.8</ele>
        <time>2011-03-18T12:10:44Z</time>
      </trkpt>
      <trkpt lat="37.344958072" lon="-7.49084820655">
        <ele>134.8</ele>
        <time>2011-03-18T12:10:46Z</time>
      </trkpt>
      <trkpt lat="37.344925634" lon="-7.49078743777">
        <ele>134.8</ele>
        <time>2011-03-18T12:10:48Z</time>
      </trkpt>
      <trkpt lat="37.3448972194" lon="-7.49073588909">
        <ele>135</ele>
        <time>2011-03-18T12:10:50Z</time>
      </trkpt>
      <trkpt lat="37.344875175" lon="-7.49068174201">
        <ele>135</ele>
        <time>2011-03-18T12:10:52Z</time>
      </trkpt>
      <trkpt lat="37.3448296613" lon="-7.49051854642">
        <ele>135</ele>
        <time>2011-03-18T12:10:58Z</time>
      </trkpt>
      <trkpt lat="37.344803845" lon="-7.49049884895">
        <ele>135.2</ele>
        <time>2011-03-18T12:11:37Z</time>
      </trkpt>
      <trkpt lat="37.34477652" lon="-7.49050178262">
        <ele>135.2</ele>
        <time>2011-03-18T12:11:42Z</time>
      </trkpt>
      <trkpt lat="37.3447811301" lon="-7.49050471628">
        <ele>135.2</ele>
        <time>2011-03-18T12:12:00Z</time>
      </trkpt>
      <trkpt lat="37.3447847343" lon="-7.4905114218">
        <ele>135.2</ele>
        <time>2011-03-18T12:12:25Z</time>
      </trkpt>
      <trkpt lat="37.3448053538" lon="-7.49052893998">
        <ele>135.2</ele>
        <time>2011-03-18T12:12:37Z</time>
      </trkpt>
      <trkpt lat="37.344802001" lon="-7.49049314926">
        <ele>135.2</ele>
        <time>2011-03-18T12:13:00Z</time>
      </trkpt>
      <trkpt lat="37.3448078683" lon="-7.49051737295">
        <ele>135.2</ele>
        <time>2011-03-18T12:13:22Z</time>
      </trkpt>
      <trkpt lat="37.344802923" lon="-7.4904650699">
        <ele>135.2</ele>
        <time>2011-03-18T12:13:26Z</time>
      </trkpt>
      <trkpt lat="37.3447975586" lon="-7.49042190311">
        <ele>135.2</ele>
        <time>2011-03-18T12:13:29Z</time>
      </trkpt>
      <trkpt lat="37.3447943735" lon="-7.49040681569">
        <ele>135.2</ele>
        <time>2011-03-18T12:13:30Z</time>
      </trkpt>
      <trkpt lat="37.3447925295" lon="-7.4903375812">
        <ele>135.2</ele>
        <time>2011-03-18T12:13:34Z</time>
      </trkpt>
      <trkpt lat="37.3447821359" lon="-7.49026289847">
        <ele>135.2</ele>
        <time>2011-03-18T12:13:36Z</time>
      </trkpt>
      <trkpt lat="37.3447627737" lon="-7.49016784772">
        <ele>135.2</ele>
        <time>2011-03-18T12:13:38Z</time>
      </trkpt>
      <trkpt lat="37.3447393044" lon="-7.49007589828">
        <ele>135.2</ele>
        <time>2011-03-18T12:13:40Z</time>
      </trkpt>
      <trkpt lat="37.3447253904" lon="-7.48997866824">
        <ele>135.2</ele>
        <time>2011-03-18T12:13:42Z</time>
      </trkpt>
      <trkpt lat="37.3447168409" lon="-7.48988236021">
        <ele>135.2</ele>
        <time>2011-03-18T12:13:44Z</time>
      </trkpt>
      <trkpt lat="37.3447115603" lon="-7.48978588454">
        <ele>135.2</ele>
        <time>2011-03-18T12:13:46Z</time>
      </trkpt>
      <trkpt lat="37.344712147" lon="-7.48969100143">
        <ele>135.2</ele>
        <time>2011-03-18T12:13:48Z</time>
      </trkpt>
      <trkpt lat="37.3447044357" lon="-7.48960156656">
        <ele>135.2</ele>
        <time>2011-03-18T12:13:50Z</time>
      </trkpt>
      <trkpt lat="37.344695048" lon="-7.48952705147">
        <ele>135.2</ele>
        <time>2011-03-18T12:13:52Z</time>
      </trkpt>
      <trkpt lat="37.3446716625" lon="-7.48945211728">
        <ele>135.2</ele>
        <time>2011-03-18T12:13:54Z</time>
      </trkpt>
      <trkpt lat="37.3446486961" lon="-7.4893750038">
        <ele>135</ele>
        <time>2011-03-18T12:13:56Z</time>
      </trkpt>
      <trkpt lat="37.3446235504" lon="-7.4892960463">
        <ele>134.6</ele>
        <time>2011-03-18T12:13:58Z</time>
      </trkpt>
      <trkpt lat="37.3445988238" lon="-7.48921683735">
        <ele>134.4</ele>
        <time>2011-03-18T12:14:00Z</time>
      </trkpt>
      <trkpt lat="37.3445808027" lon="-7.48914299281">
        <ele>134</ele>
        <time>2011-03-18T12:14:02Z</time>
      </trkpt>
      <trkpt lat="37.3445710797" lon="-7.48906931591">
        <ele>134</ele>
        <time>2011-03-18T12:14:04Z</time>
      </trkpt>
      <trkpt lat="37.3445569981" lon="-7.48899915941">
        <ele>133.8</ele>
        <time>2011-03-18T12:14:06Z</time>
      </trkpt>
      <trkpt lat="37.3445311818" lon="-7.48893210421">
        <ele>133.6</ele>
        <time>2011-03-18T12:14:08Z</time>
      </trkpt>
      <trkpt lat="37.3444918707" lon="-7.48886697684">
        <ele>133.6</ele>
        <time>2011-03-18T12:14:10Z</time>
      </trkpt>
      <trkpt lat="37.3444559124" lon="-7.48879950255">
        <ele>133.4</ele>
        <time>2011-03-18T12:14:12Z</time>
      </trkpt>
      <trkpt lat="37.3444172718" lon="-7.48873730885">
        <ele>133.4</ele>
        <time>2011-03-18T12:14:14Z</time>
      </trkpt>
      <trkpt lat="37.3443724286" lon="-7.48867913846">
        <ele>133.4</ele>
        <time>2011-03-18T12:14:16Z</time>
      </trkpt>
      <trkpt lat="37.3443352968" lon="-7.488603869">
        <ele>133.2</ele>
        <time>2011-03-18T12:14:18Z</time>
      </trkpt>
      <trkpt lat="37.344306044" lon="-7.48853178466">
        <ele>133</ele>
        <time>2011-03-18T12:14:20Z</time>
      </trkpt>
      <trkpt lat="37.3442874362" lon="-7.48845542555">
        <ele>132.6</ele>
        <time>2011-03-18T12:14:22Z</time>
      </trkpt>
      <trkpt lat="37.3442721811" lon="-7.48837462404">
        <ele>132.4</ele>
        <time>2011-03-18T12:14:24Z</time>
      </trkpt>
      <trkpt lat="37.3442548306" lon="-7.48829709146">
        <ele>132.2</ele>
        <time>2011-03-18T12:14:26Z</time>
      </trkpt>
      <trkpt lat="37.3442354684" lon="-7.48822131909">
        <ele>132</ele>
        <time>2011-03-18T12:14:28Z</time>
      </trkpt>
      <trkpt lat="37.3442125858" lon="-7.48815225223">
        <ele>131.8</ele>
        <time>2011-03-18T12:14:30Z</time>
      </trkpt>
      <trkpt lat="37.3441882783" lon="-7.48809014235">
        <ele>131.6</ele>
        <time>2011-03-18T12:14:32Z</time>
      </trkpt>
      <trkpt lat="37.3441576005" lon="-7.48803691729">
        <ele>131.6</ele>
        <time>2011-03-18T12:14:34Z</time>
      </trkpt>
      <trkpt lat="37.344124492" lon="-7.48798821845">
        <ele>131.2</ele>
        <time>2011-03-18T12:14:36Z</time>
      </trkpt>
      <trkpt lat="37.3440876955" lon="-7.48794982935">
        <ele>130.8</ele>
        <time>2011-03-18T12:14:38Z</time>
      </trkpt>
      <trkpt lat="37.3440543355" lon="-7.48790649492">
        <ele>130.4</ele>
        <time>2011-03-18T12:14:40Z</time>
      </trkpt>
      <trkpt lat="37.3440177904" lon="-7.48786634562">
        <ele>130.2</ele>
        <time>2011-03-18T12:14:42Z</time>
      </trkpt>
      <trkpt lat="37.3439688401" lon="-7.48782451994">
        <ele>130</ele>
        <time>2011-03-18T12:14:44Z</time>
      </trkpt>
      <trkpt lat="37.3439169562" lon="-7.48776995377">
        <ele>129.6</ele>
        <time>2011-03-18T12:14:46Z</time>
      </trkpt>
      <trkpt lat="37.343873035" lon="-7.48770097073">
        <ele>129</ele>
        <time>2011-03-18T12:14:48Z</time>
      </trkpt>
      <trkpt lat="37.3438334725" lon="-7.48762695856">
        <ele>128.6</ele>
        <time>2011-03-18T12:14:50Z</time>
      </trkpt>
      <trkpt lat="37.3437964245" lon="-7.48755386839">
        <ele>128.2</ele>
        <time>2011-03-18T12:14:52Z</time>
      </trkpt>
      <trkpt lat="37.3437650762" lon="-7.48747189341">
        <ele>128</ele>
        <time>2011-03-18T12:14:54Z</time>
      </trkpt>
      <trkpt lat="37.3437400143" lon="-7.48739042134">
        <ele>127.4</ele>
        <time>2011-03-18T12:14:56Z</time>
      </trkpt>
      <trkpt lat="37.3437131922" lon="-7.48731364314">
        <ele>126.8</ele>
        <time>2011-03-18T12:14:58Z</time>
      </trkpt>
      <trkpt lat="37.3436814248" lon="-7.48723703257">
        <ele>126.4</ele>
        <time>2011-03-18T12:15:00Z</time>
      </trkpt>
      <trkpt lat="37.3436501603" lon="-7.48716318803">
        <ele>126</ele>
        <time>2011-03-18T12:15:02Z</time>
      </trkpt>
      <trkpt lat="37.3436237573" lon="-7.48709236098">
        <ele>125.8</ele>
        <time>2011-03-18T12:15:04Z</time>
      </trkpt>
      <trkpt lat="37.3435972705" lon="-7.48701868407">
        <ele>125.2</ele>
        <time>2011-03-18T12:15:06Z</time>
      </trkpt>
      <trkpt lat="37.3435890563" lon="-7.48693922366">
        <ele>124.8</ele>
        <time>2011-03-18T12:15:08Z</time>
      </trkpt>
      <trkpt lat="37.3435979411" lon="-7.48686068526">
        <ele>124.4</ele>
        <time>2011-03-18T12:15:10Z</time>
      </trkpt>
      <trkpt lat="37.343613699" lon="-7.48679388152">
        <ele>124</ele>
        <time>2011-03-18T12:15:12Z</time>
      </trkpt>
      <trkpt lat="37.3436395991" lon="-7.486731604">
        <ele>123.8</ele>
        <time>2011-03-18T12:15:14Z</time>
      </trkpt>
      <trkpt lat="37.3436688519" lon="-7.48668206697">
        <ele>123.6</ele>
        <time>2011-03-18T12:15:16Z</time>
      </trkpt>
      <trkpt lat="37.3437031339" lon="-7.4866027742">
        <ele>123</ele>
        <time>2011-03-18T12:15:19Z</time>
      </trkpt>
      <trkpt lat="37.3437150362" lon="-7.48654292743">
        <ele>122.6</ele>
        <time>2011-03-18T12:15:21Z</time>
      </trkpt>
      <trkpt lat="37.3437100909" lon="-7.48648341594">
        <ele>122.2</ele>
        <time>2011-03-18T12:15:23Z</time>
      </trkpt>
      <trkpt lat="37.3436873759" lon="-7.4864294365">
        <ele>121.8</ele>
        <time>2011-03-18T12:15:25Z</time>
      </trkpt>
      <trkpt lat="37.3436546027" lon="-7.48638375515">
        <ele>121.6</ele>
        <time>2011-03-18T12:15:27Z</time>
      </trkpt>
      <trkpt lat="37.3436096757" lon="-7.48634905408">
        <ele>121.4</ele>
        <time>2011-03-18T12:15:29Z</time>
      </trkpt>
      <trkpt lat="37.3435585461" lon="-7.48632868607">
        <ele>121.2</ele>
        <time>2011-03-18T12:15:31Z</time>
      </trkpt>
      <trkpt lat="37.3434898146" lon="-7.48631309573">
        <ele>121</ele>
        <time>2011-03-18T12:15:34Z</time>
      </trkpt>
      <trkpt lat="37.343440529" lon="-7.48630706076">
        <ele>121</ele>
        <time>2011-03-18T12:15:36Z</time>
      </trkpt>
      <trkpt lat="37.3433714621" lon="-7.48629012933">
        <ele>120.8</ele>
        <time>2011-03-18T12:15:39Z</time>
      </trkpt>
      <trkpt lat="37.3433216737" lon="-7.4862688393">
        <ele>120.8</ele>
        <time>2011-03-18T12:15:41Z</time>
      </trkpt>
      <trkpt lat="37.3432591447" lon="-7.48623162366">
        <ele>120.8</ele>
        <time>2011-03-18T12:15:44Z</time>
      </trkpt>
      <trkpt lat="37.3432273773" lon="-7.48619541386">
        <ele>120.8</ele>
        <time>2011-03-18T12:15:46Z</time>
      </trkpt>
      <trkpt lat="37.3431967833" lon="-7.48614763703">
        <ele>120.6</ele>
        <time>2011-03-18T12:15:48Z</time>
      </trkpt>
      <trkpt lat="37.3431736493" lon="-7.48609348995">
        <ele>120.6</ele>
        <time>2011-03-18T12:15:50Z</time>
      </trkpt>
      <trkpt lat="37.3431434745" lon="-7.48603825323">
        <ele>120.2</ele>
        <time>2011-03-18T12:15:52Z</time>
      </trkpt>
      <trkpt lat="37.3431204242" lon="-7.48598259742">
        <ele>120</ele>
        <time>2011-03-18T12:15:54Z</time>
      </trkpt>
      <trkpt lat="37.3431013135" lon="-7.4859269416">
        <ele>119.6</ele>
        <time>2011-03-18T12:15:56Z</time>
      </trkpt>
      <trkpt lat="37.3430899979" lon="-7.48586818448">
        <ele>119.4</ele>
        <time>2011-03-18T12:15:58Z</time>
      </trkpt>
      <trkpt lat="37.3430775089" lon="-7.4858082539">
        <ele>119.2</ele>
        <time>2011-03-18T12:16:00Z</time>
      </trkpt>
      <trkpt lat="37.3430653551" lon="-7.48572368052">
        <ele>119</ele>
        <time>2011-03-18T12:16:03Z</time>
      </trkpt>
      <trkpt lat="37.3430617509" lon="-7.48566307939">
        <ele>119</ele>
        <time>2011-03-18T12:16:05Z</time>
      </trkpt>
      <trkpt lat="37.3430555483" lon="-7.48560700448">
        <ele>118.8</ele>
        <time>2011-03-18T12:16:07Z</time>
      </trkpt>
      <trkpt lat="37.3430440651" lon="-7.48554983992">
        <ele>118.8</ele>
        <time>2011-03-18T12:16:09Z</time>
      </trkpt>
      <trkpt lat="37.3430312408" lon="-7.48549091516">
        <ele>118.8</ele>
        <time>2011-03-18T12:16:11Z</time>
      </trkpt>
      <trkpt lat="37.3430233618" lon="-7.48543836065">
        <ele>118.6</ele>
        <time>2011-03-18T12:16:13Z</time>
      </trkpt>
      <trkpt lat="37.3430097832" lon="-7.48538186664">
        <ele>118.2</ele>
        <time>2011-03-18T12:16:15Z</time>
      </trkpt>
      <trkpt lat="37.3429988867" lon="-7.4853014004">
        <ele>117.6</ele>
        <time>2011-03-18T12:16:18Z</time>
      </trkpt>
      <trkpt lat="37.3429984676" lon="-7.48528061329">
        <ele>117.6</ele>
        <time>2011-03-18T12:16:19Z</time>
      </trkpt>
      <trkpt lat="37.3429795245" lon="-7.48522520893">
        <ele>117.2</ele>
        <time>2011-03-18T12:16:22Z</time>
      </trkpt>
      <trkpt lat="37.3429475056" lon="-7.48518614928">
        <ele>116.4</ele>
        <time>2011-03-18T12:16:26Z</time>
      </trkpt>
      <trkpt lat="37.3429373635" lon="-7.48516301523">
        <ele>116</ele>
        <time>2011-03-18T12:16:28Z</time>
      </trkpt>
      <trkpt lat="37.3429285625" lon="-7.48513543878">
        <ele>115.6</ele>
        <time>2011-03-18T12:16:30Z</time>
      </trkpt>
      <trkpt lat="37.3429190072" lon="-7.4850971335">
        <ele>114.4</ele>
        <time>2011-03-18T12:16:34Z</time>
      </trkpt>
      <trkpt lat="37.3429123017" lon="-7.48508187844">
        <ele>114</ele>
        <time>2011-03-18T12:16:36Z</time>
      </trkpt>
      <trkpt lat="37.3429080269" lon="-7.48506972469">
        <ele>113.6</ele>
        <time>2011-03-18T12:16:38Z</time>
      </trkpt>
      <trkpt lat="37.3428991421" lon="-7.48503234141">
        <ele>112.6</ele>
        <time>2011-03-18T12:16:41Z</time>
      </trkpt>
      <trkpt lat="37.3428941129" lon="-7.48501976856">
        <ele>112.2</ele>
        <time>2011-03-18T12:16:42Z</time>
      </trkpt>
      <trkpt lat="37.3428838032" lon="-7.48499562869">
        <ele>111.8</ele>
        <time>2011-03-18T12:16:44Z</time>
      </trkpt>
      <trkpt lat="37.3428646925" lon="-7.48495556321">
        <ele>110.4</ele>
        <time>2011-03-18T12:16:48Z</time>
      </trkpt>
      <trkpt lat="37.3428594119" lon="-7.48493972142">
        <ele>109.8</ele>
        <time>2011-03-18T12:16:50Z</time>
      </trkpt>
      <trkpt lat="37.3428445759" lon="-7.48492178415">
        <ele>108.8</ele>
        <time>2011-03-18T12:16:53Z</time>
      </trkpt>
      <trkpt lat="37.3428358587" lon="-7.48487895264">
        <ele>106.8</ele>
        <time>2011-03-18T12:16:59Z</time>
      </trkpt>
      <trkpt lat="37.3428131438" lon="-7.48486361377">
        <ele>105.4</ele>
        <time>2011-03-18T12:17:03Z</time>
      </trkpt>
      <trkpt lat="37.3427968829" lon="-7.48483746224">
        <ele>104</ele>
        <time>2011-03-18T12:17:07Z</time>
      </trkpt>
      <trkpt lat="37.3427770178" lon="-7.48481969261">
        <ele>102.4</ele>
        <time>2011-03-18T12:17:11Z</time>
      </trkpt>
      <trkpt lat="37.342772743" lon="-7.48479278671">
        <ele>100.6</ele>
        <time>2011-03-18T12:17:16Z</time>
      </trkpt>
      <trkpt lat="37.3427646964" lon="-7.48477141287">
        <ele>98.8</ele>
        <time>2011-03-18T12:17:21Z</time>
      </trkpt>
      <trkpt lat="37.3427497766" lon="-7.48474542898">
        <ele>97.2</ele>
        <time>2011-03-18T12:17:26Z</time>
      </trkpt>
      <trkpt lat="37.3427350245" lon="-7.48472950337">
        <ele>94.8</ele>
        <time>2011-03-18T12:17:33Z</time>
      </trkpt>
      <trkpt lat="37.3427161652" lon="-7.48469865797">
        <ele>93.4</ele>
        <time>2011-03-18T12:17:37Z</time>
      </trkpt>
      <trkpt lat="37.3427082862" lon="-7.48468843206">
        <ele>93</ele>
        <time>2011-03-18T12:17:38Z</time>
      </trkpt>
      <trkpt lat="37.3426856551" lon="-7.48465054587">
        <ele>91.2</ele>
        <time>2011-03-18T12:17:44Z</time>
      </trkpt>
      <trkpt lat="37.3426646165" lon="-7.48462305324">
        <ele>90.2</ele>
        <time>2011-03-18T12:17:48Z</time>
      </trkpt>
      <trkpt lat="37.342655145" lon="-7.48459053146">
        <ele>88.2</ele>
        <time>2011-03-18T12:17:54Z</time>
      </trkpt>
      <trkpt lat="37.3426529657" lon="-7.48458826835">
        <ele>87.4</ele>
        <time>2011-03-18T12:17:57Z</time>
      </trkpt>
      <trkpt lat="37.3426123973" lon="-7.48456111099">
        <ele>85.6</ele>
        <time>2011-03-18T12:18:03Z</time>
      </trkpt>
      <trkpt lat="37.3426056918" lon="-7.48455289673">
        <ele>85.2</ele>
        <time>2011-03-18T12:18:04Z</time>
      </trkpt>
      <trkpt lat="37.3425899338" lon="-7.48452221898">
        <ele>83.6</ele>
        <time>2011-03-18T12:18:10Z</time>
      </trkpt>
      <trkpt lat="37.3425730023" lon="-7.48448860756">
        <ele>82.2</ele>
        <time>2011-03-18T12:18:14Z</time>
      </trkpt>
      <trkpt lat="37.3425611839" lon="-7.48445709161">
        <ele>81.4</ele>
        <time>2011-03-18T12:18:18Z</time>
      </trkpt>
      <trkpt lat="37.342553724" lon="-7.48443345466">
        <ele>80</ele>
        <time>2011-03-18T12:18:23Z</time>
      </trkpt>
      <trkpt lat="37.3425506227" lon="-7.48440126816">
        <ele>79.2</ele>
        <time>2011-03-18T12:18:26Z</time>
      </trkpt>
      <trkpt lat="37.3425184362" lon="-7.48436606418">
        <ele>78.4</ele>
        <time>2011-03-18T12:18:30Z</time>
      </trkpt>
      <trkpt lat="37.3425110601" lon="-7.4843648069">
        <ele>78.2</ele>
        <time>2011-03-18T12:18:31Z</time>
      </trkpt>
      <trkpt lat="37.3424709946" lon="-7.48433379387">
        <ele>75.2</ele>
        <time>2011-03-18T12:18:48Z</time>
      </trkpt>
      <trkpt lat="37.3424357906" lon="-7.48428878306">
        <ele>74.8</ele>
        <time>2011-03-18T12:18:50Z</time>
      </trkpt>
      <trkpt lat="37.3424078789" lon="-7.48423606091">
        <ele>74.6</ele>
        <time>2011-03-18T12:18:52Z</time>
      </trkpt>
      <trkpt lat="37.3423844096" lon="-7.4841737834">
        <ele>74.4</ele>
        <time>2011-03-18T12:18:54Z</time>
      </trkpt>
      <trkpt lat="37.3423623652" lon="-7.48411980396">
        <ele>74.2</ele>
        <time>2011-03-18T12:18:56Z</time>
      </trkpt>
      <trkpt lat="37.3423404046" lon="-7.48407160803">
        <ele>74</ele>
        <time>2011-03-18T12:18:58Z</time>
      </trkpt>
      <trkpt lat="37.3423181088" lon="-7.48402760306">
        <ele>73.6</ele>
        <time>2011-03-18T12:19:01Z</time>
      </trkpt>
      <trkpt lat="37.3423048654" lon="-7.48399692531">
        <ele>73</ele>
        <time>2011-03-18T12:19:04Z</time>
      </trkpt>
      <trkpt lat="37.3422750258" lon="-7.48398032914">
        <ele>72.2</ele>
        <time>2011-03-18T12:19:10Z</time>
      </trkpt>
      <trkpt lat="37.3422520594" lon="-7.48398535828">
        <ele>71.4</ele>
        <time>2011-03-18T12:19:16Z</time>
      </trkpt>
      <trkpt lat="37.3422312723" lon="-7.48397362362">
        <ele>70.6</ele>
        <time>2011-03-18T12:19:21Z</time>
      </trkpt>
      <trkpt lat="37.342211491" lon="-7.48396457117">
        <ele>69.8</ele>
        <time>2011-03-18T12:19:28Z</time>
      </trkpt>
      <trkpt lat="37.3421782987" lon="-7.48398569356">
        <ele>68</ele>
        <time>2011-03-18T12:19:41Z</time>
      </trkpt>
      <trkpt lat="37.3421488782" lon="-7.48398837577">
        <ele>67.4</ele>
        <time>2011-03-18T12:19:45Z</time>
      </trkpt>
      <trkpt lat="37.342117949" lon="-7.48400505575">
        <ele>66.6</ele>
        <time>2011-03-18T12:19:49Z</time>
      </trkpt>
      <trkpt lat="37.3420726029" lon="-7.48402399884">
        <ele>66.2</ele>
        <time>2011-03-18T12:19:52Z</time>
      </trkpt>
      <trkpt lat="37.3420224792" lon="-7.4840423552">
        <ele>65.4</ele>
        <time>2011-03-18T12:19:55Z</time>
      </trkpt>
      <trkpt lat="37.3419691703" lon="-7.48405585006">
        <ele>64.8</ele>
        <time>2011-03-18T12:19:58Z</time>
      </trkpt>
      <trkpt lat="37.3419146879" lon="-7.48407076984">
        <ele>63.8</ele>
        <time>2011-03-18T12:20:01Z</time>
      </trkpt>
      <trkpt lat="37.3418603732" lon="-7.4840745417">
        <ele>62.8</ele>
        <time>2011-03-18T12:20:04Z</time>
      </trkpt>
      <trkpt lat="37.3418053041" lon="-7.48409105404">
        <ele>61.6</ele>
        <time>2011-03-18T12:20:07Z</time>
      </trkpt>
      <trkpt lat="37.3417530011" lon="-7.48410656056">
        <ele>60.4</ele>
        <time>2011-03-18T12:20:10Z</time>
      </trkpt>
      <trkpt lat="37.3417091637" lon="-7.48412910787">
        <ele>59.4</ele>
        <time>2011-03-18T12:20:13Z</time>
      </trkpt>
      <trkpt lat="37.3416594591" lon="-7.48414092635">
        <ele>57.8</ele>
        <time>2011-03-18T12:20:16Z</time>
      </trkpt>
      <trkpt lat="37.341602546" lon="-7.48416020472">
        <ele>56.6</ele>
        <time>2011-03-18T12:20:19Z</time>
      </trkpt>
      <trkpt lat="37.3415523384" lon="-7.48417545978">
        <ele>55.2</ele>
        <time>2011-03-18T12:20:22Z</time>
      </trkpt>
      <trkpt lat="37.3414958444" lon="-7.48416464712">
        <ele>53.6</ele>
        <time>2011-03-18T12:20:25Z</time>
      </trkpt>
      <trkpt lat="37.3414499116" lon="-7.48416313838">
        <ele>52</ele>
        <time>2011-03-18T12:20:28Z</time>
      </trkpt>
      <trkpt lat="37.3414017156" lon="-7.48417981836">
        <ele>50.4</ele>
        <time>2011-03-18T12:20:31Z</time>
      </trkpt>
      <trkpt lat="37.3413734686" lon="-7.48419440287">
        <ele>49.4</ele>
        <time>2011-03-18T12:20:33Z</time>
      </trkpt>
      <trkpt lat="37.3413083413" lon="-7.48417906399">
        <ele>47.2</ele>
        <time>2011-03-18T12:20:37Z</time>
      </trkpt>
      <trkpt lat="37.3412717124" lon="-7.48414453056">
        <ele>46.2</ele>
        <time>2011-03-18T12:20:39Z</time>
      </trkpt>
      <trkpt lat="37.3412230135" lon="-7.48411720557">
        <ele>44.6</ele>
        <time>2011-03-18T12:20:42Z</time>
      </trkpt>
      <trkpt lat="37.341210776" lon="-7.48411418809">
        <ele>44</ele>
        <time>2011-03-18T12:20:43Z</time>
      </trkpt>
      <trkpt lat="37.3411932578" lon="-7.48410873985">
        <ele>38.8</ele>
        <time>2011-03-18T12:20:54Z</time>
      </trkpt>
      <trkpt lat="37.3411595625" lon="-7.48412148034">
        <ele>36.2</ele>
        <time>2011-03-18T12:21:00Z</time>
      </trkpt>
      <trkpt lat="37.3411487499" lon="-7.48412340818">
        <ele>35.8</ele>
        <time>2011-03-18T12:21:01Z</time>
      </trkpt>
      <trkpt lat="37.3411013922" lon="-7.48417504068">
        <ele>34.4</ele>
        <time>2011-03-18T12:21:05Z</time>
      </trkpt>
      <trkpt lat="37.3411075109" lon="-7.48419700126">
        <ele>34.2</ele>
        <time>2011-03-18T12:21:06Z</time>
      </trkpt>
      <trkpt lat="37.3411546172" lon="-7.48429389602">
        <ele>32.6</ele>
        <time>2011-03-18T12:21:10Z</time>
      </trkpt>
      <trkpt lat="37.3411822775" lon="-7.48433630844">
        <ele>32</ele>
        <time>2011-03-18T12:21:12Z</time>
      </trkpt>
      <trkpt lat="37.3412572117" lon="-7.48440428565">
        <ele>31.2</ele>
        <time>2011-03-18T12:21:16Z</time>
      </trkpt>
      <trkpt lat="37.3412803457" lon="-7.48442188764">
        <ele>30.8</ele>
        <time>2011-03-18T12:21:17Z</time>
      </trkpt>
      <trkpt lat="37.3413497479" lon="-7.4844848357">
        <ele>29.8</ele>
        <time>2011-03-18T12:21:21Z</time>
      </trkpt>
      <trkpt lat="37.3413689424" lon="-7.48450017458">
        <ele>29.4</ele>
        <time>2011-03-18T12:21:22Z</time>
      </trkpt>
      <trkpt lat="37.3414029729" lon="-7.48454384428">
        <ele>29.2</ele>
        <time>2011-03-18T12:21:24Z</time>
      </trkpt>
      <trkpt lat="37.3414157972" lon="-7.48460503215">
        <ele>28.8</ele>
        <time>2011-03-18T12:21:26Z</time>
      </trkpt>
      <trkpt lat="37.3414054875" lon="-7.48467300936">
        <ele>28.6</ele>
        <time>2011-03-18T12:21:28Z</time>
      </trkpt>
      <trkpt lat="37.3413694453" lon="-7.48474107039">
        <ele>28.2</ele>
        <time>2011-03-18T12:21:31Z</time>
      </trkpt>
      <trkpt lat="37.3413372588" lon="-7.48480217444">
        <ele>28</ele>
        <time>2011-03-18T12:21:34Z</time>
      </trkpt>
      <trkpt lat="37.3413336546" lon="-7.48483008617">
        <ele>28</ele>
        <time>2011-03-18T12:21:35Z</time>
      </trkpt>
      <trkpt lat="37.34133114" lon="-7.48489211223">
        <ele>28</ele>
        <time>2011-03-18T12:21:37Z</time>
      </trkpt>
      <trkpt lat="37.3413588003" lon="-7.48494877387">
        <ele>27.8</ele>
        <time>2011-03-18T12:21:39Z</time>
      </trkpt>
      <trkpt lat="37.341372379" lon="-7.48496956098">
        <ele>27.8</ele>
        <time>2011-03-18T12:21:40Z</time>
      </trkpt>
      <trkpt lat="37.3414017156" lon="-7.48506402499">
        <ele>27.6</ele>
        <time>2011-03-18T12:21:44Z</time>
      </trkpt>
      <trkpt lat="37.3414230057" lon="-7.48511113127">
        <ele>27.6</ele>
        <time>2011-03-18T12:21:46Z</time>
      </trkpt>
      <trkpt lat="37.3414427031" lon="-7.4851725706">
        <ele>27.6</ele>
        <time>2011-03-18T12:21:48Z</time>
      </trkpt>
      <trkpt lat="37.3414555274" lon="-7.4852493488">
        <ele>27.6</ele>
        <time>2011-03-18T12:21:50Z</time>
      </trkpt>
      <trkpt lat="37.3414646637" lon="-7.48531581727">
        <ele>27.6</ele>
        <time>2011-03-18T12:21:52Z</time>
      </trkpt>
      <trkpt lat="37.3414749734" lon="-7.48544028848">
        <ele>27.6</ele>
        <time>2011-03-18T12:21:56Z</time>
      </trkpt>
      <trkpt lat="37.3414775718" lon="-7.48549921324">
        <ele>27.6</ele>
        <time>2011-03-18T12:21:58Z</time>
      </trkpt>
      <trkpt lat="37.3414774042" lon="-7.48556266423">
        <ele>27.6</ele>
        <time>2011-03-18T12:22:00Z</time>
      </trkpt>
      <trkpt lat="37.3414757278" lon="-7.48562326536">
        <ele>27.6</ele>
        <time>2011-03-18T12:22:02Z</time>
      </trkpt>
      <trkpt lat="37.3414702796" lon="-7.48568101665">
        <ele>27.2</ele>
        <time>2011-03-18T12:22:04Z</time>
      </trkpt>
      <trkpt lat="37.3414665915" lon="-7.48574312653">
        <ele>26.8</ele>
        <time>2011-03-18T12:22:06Z</time>
      </trkpt>
      <trkpt lat="37.3414634064" lon="-7.48577732468">
        <ele>26.6</ele>
        <time>2011-03-18T12:22:07Z</time>
      </trkpt>
      <trkpt lat="37.3414609757" lon="-7.48580842153">
        <ele>26.6</ele>
        <time>2011-03-18T12:22:08Z</time>
      </trkpt>
      <trkpt lat="37.341454354" lon="-7.48586793302">
        <ele>26.4</ele>
        <time>2011-03-18T12:22:10Z</time>
      </trkpt>
      <trkpt lat="37.3414451339" lon="-7.485940185">
        <ele>26.2</ele>
        <time>2011-03-18T12:22:12Z</time>
      </trkpt>
      <trkpt lat="37.3414374225" lon="-7.48600732402">
        <ele>25.6</ele>
        <time>2011-03-18T12:22:14Z</time>
      </trkpt>
      <trkpt lat="37.341432561" lon="-7.48607370867">
        <ele>25.2</ele>
        <time>2011-03-18T12:22:16Z</time>
      </trkpt>
      <trkpt lat="37.3414274481" lon="-7.48614202115">
        <ele>24.8</ele>
        <time>2011-03-18T12:22:18Z</time>
      </trkpt>
      <trkpt lat="37.3414199882" lon="-7.48620220319">
        <ele>24.6</ele>
        <time>2011-03-18T12:22:20Z</time>
      </trkpt>
      <trkpt lat="37.3414119416" lon="-7.48626238524">
        <ele>24.2</ele>
        <time>2011-03-18T12:22:22Z</time>
      </trkpt>
      <trkpt lat="37.341401548" lon="-7.48632768024">
        <ele>24.2</ele>
        <time>2011-03-18T12:22:24Z</time>
      </trkpt>
      <trkpt lat="37.3413914059" lon="-7.48638853283">
        <ele>23.6</ele>
        <time>2011-03-18T12:22:26Z</time>
      </trkpt>
      <trkpt lat="37.3413834431" lon="-7.4864501398">
        <ele>23.2</ele>
        <time>2011-03-18T12:22:28Z</time>
      </trkpt>
      <trkpt lat="37.3413684395" lon="-7.48651283641">
        <ele>22.8</ele>
        <time>2011-03-18T12:22:30Z</time>
      </trkpt>
      <trkpt lat="37.3413525977" lon="-7.48657461101">
        <ele>22.4</ele>
        <time>2011-03-18T12:22:32Z</time>
      </trkpt>
      <trkpt lat="37.3413382647" lon="-7.48663294904">
        <ele>22.2</ele>
        <time>2011-03-18T12:22:34Z</time>
      </trkpt>
      <trkpt lat="37.3413106882" lon="-7.48671266091">
        <ele>22</ele>
        <time>2011-03-18T12:22:37Z</time>
      </trkpt>
      <trkpt lat="37.3412935053" lon="-7.48677024456">
        <ele>21.8</ele>
        <time>2011-03-18T12:22:39Z</time>
      </trkpt>
      <trkpt lat="37.3412787532" lon="-7.48682539746">
        <ele>21.8</ele>
        <time>2011-03-18T12:22:41Z</time>
      </trkpt>
      <trkpt lat="37.3412585528" lon="-7.48688700443">
        <ele>21.4</ele>
        <time>2011-03-18T12:22:43Z</time>
      </trkpt>
      <trkpt lat="37.341239945" lon="-7.48694685119">
        <ele>21</ele>
        <time>2011-03-18T12:22:45Z</time>
      </trkpt>
      <trkpt lat="37.3412170624" lon="-7.4870333524">
        <ele>20.6</ele>
        <time>2011-03-18T12:22:48Z</time>
      </trkpt>
      <trkpt lat="37.3412078423" lon="-7.48709604901">
        <ele>20.4</ele>
        <time>2011-03-18T12:22:50Z</time>
      </trkpt>
      <trkpt lat="37.3411991251" lon="-7.48715924854">
        <ele>20.2</ele>
        <time>2011-03-18T12:22:52Z</time>
      </trkpt>
      <trkpt lat="37.3411903241" lon="-7.48722496263">
        <ele>20</ele>
        <time>2011-03-18T12:22:54Z</time>
      </trkpt>
      <trkpt lat="37.341183451" lon="-7.48728279774">
        <ele>19.8</ele>
        <time>2011-03-18T12:22:56Z</time>
      </trkpt>
      <trkpt lat="37.3411673577" lon="-7.48734725455">
        <ele>19.8</ele>
        <time>2011-03-18T12:22:58Z</time>
      </trkpt>
      <trkpt lat="37.3411419606" lon="-7.48740961589">
        <ele>19.2</ele>
        <time>2011-03-18T12:23:00Z</time>
      </trkpt>
      <trkpt lat="37.3411152223" lon="-7.48745898528">
        <ele>18.8</ele>
        <time>2011-03-18T12:23:02Z</time>
      </trkpt>
      <trkpt lat="37.3411003863" lon="-7.48747692255">
        <ele>18.6</ele>
        <time>2011-03-18T12:23:03Z</time>
      </trkpt>
      <trkpt lat="37.341057471" lon="-7.48750659447">
        <ele>18.2</ele>
        <time>2011-03-18T12:23:06Z</time>
      </trkpt>
      <trkpt lat="37.3410188304" lon="-7.48755018035">
        <ele>18</ele>
        <time>2011-03-18T12:23:09Z</time>
      </trkpt>
      <trkpt lat="37.3409831236" lon="-7.48758798272">
        <ele>17.8</ele>
        <time>2011-03-18T12:23:11Z</time>
      </trkpt>
      <trkpt lat="37.3409423875" lon="-7.48763249061">
        <ele>17.8</ele>
        <time>2011-03-18T12:23:13Z</time>
      </trkpt>
      <trkpt lat="37.340903244" lon="-7.48767029298">
        <ele>17.6</ele>
        <time>2011-03-18T12:23:15Z</time>
      </trkpt>
      <trkpt lat="37.3408616698" lon="-7.48770591606">
        <ele>17.4</ele>
        <time>2011-03-18T12:23:17Z</time>
      </trkpt>
      <trkpt lat="37.3408192574" lon="-7.48774816083">
        <ele>17</ele>
        <time>2011-03-18T12:23:19Z</time>
      </trkpt>
      <trkpt lat="37.3407786052" lon="-7.48778034733">
        <ele>16.6</ele>
        <time>2011-03-18T12:23:21Z</time>
      </trkpt>
      <trkpt lat="37.3407341811" lon="-7.48781085744">
        <ele>16.4</ele>
        <time>2011-03-18T12:23:23Z</time>
      </trkpt>
      <trkpt lat="37.3406936965" lon="-7.48784388213">
        <ele>16</ele>
        <time>2011-03-18T12:23:25Z</time>
      </trkpt>
      <trkpt lat="37.3406500268" lon="-7.48787187768">
        <ele>16</ele>
        <time>2011-03-18T12:23:27Z</time>
      </trkpt>
      <trkpt lat="37.3406089555" lon="-7.48790582437">
        <ele>15.8</ele>
        <time>2011-03-18T12:23:29Z</time>
      </trkpt>
      <trkpt lat="37.3405702312" lon="-7.48794412965">
        <ele>15.6</ele>
        <time>2011-03-18T12:23:31Z</time>
      </trkpt>
      <trkpt lat="37.3405340213" lon="-7.48798972719">
        <ele>15.6</ele>
        <time>2011-03-18T12:23:33Z</time>
      </trkpt>
      <trkpt lat="37.3404963028" lon="-7.48803314543">
        <ele>15</ele>
        <time>2011-03-18T12:23:35Z</time>
      </trkpt>
      <trkpt lat="37.3404616856" lon="-7.48807589312">
        <ele>14.8</ele>
        <time>2011-03-18T12:23:37Z</time>
      </trkpt>
      <trkpt lat="37.3404241346" lon="-7.48811646152">
        <ele>14.4</ele>
        <time>2011-03-18T12:23:39Z</time>
      </trkpt>
      <trkpt lat="37.3403909423" lon="-7.48815426389">
        <ele>14.2</ele>
        <time>2011-03-18T12:23:41Z</time>
      </trkpt>
      <trkpt lat="37.3403557383" lon="-7.4881984365">
        <ele>14</ele>
        <time>2011-03-18T12:23:43Z</time>
      </trkpt>
      <trkpt lat="37.3403083806" lon="-7.48825618779">
        <ele>13.8</ele>
        <time>2011-03-18T12:23:46Z</time>
      </trkpt>
      <trkpt lat="37.3402682313" lon="-7.48830061186">
        <ele>13.6</ele>
        <time>2011-03-18T12:23:48Z</time>
      </trkpt>
      <trkpt lat="37.3402301775" lon="-7.48833891714">
        <ele>13.6</ele>
        <time>2011-03-18T12:23:50Z</time>
      </trkpt>
      <trkpt lat="37.3401933809" lon="-7.48837076836">
        <ele>13.4</ele>
        <time>2011-03-18T12:23:52Z</time>
      </trkpt>
      <trkpt lat="37.3401533155" lon="-7.48840831927">
        <ele>13.4</ele>
        <time>2011-03-18T12:23:54Z</time>
      </trkpt>
      <trkpt lat="37.3400931334" lon="-7.48846565147">
        <ele>13.4</ele>
        <time>2011-03-18T12:23:57Z</time>
      </trkpt>
      <trkpt lat="37.3400555825" lon="-7.48850269947">
        <ele>13.2</ele>
        <time>2011-03-18T12:23:59Z</time>
      </trkpt>
      <trkpt lat="37.3400171934" lon="-7.48854083711">
        <ele>13.2</ele>
        <time>2011-03-18T12:24:01Z</time>
      </trkpt>
      <trkpt lat="37.3399744457" lon="-7.48857394562">
        <ele>13.2</ele>
        <time>2011-03-18T12:24:03Z</time>
      </trkpt>
      <trkpt lat="37.339931698" lon="-7.48860546156">
        <ele>13.2</ele>
        <time>2011-03-18T12:24:05Z</time>
      </trkpt>
      <trkpt lat="37.3398892856" lon="-7.48863396002">
        <ele>13.2</ele>
        <time>2011-03-18T12:24:07Z</time>
      </trkpt>
      <trkpt lat="37.3398437719" lon="-7.48865877045">
        <ele>13.2</ele>
        <time>2011-03-18T12:24:09Z</time>
      </trkpt>
      <trkpt lat="37.3398008566" lon="-7.48868064721">
        <ele>13.2</ele>
        <time>2011-03-18T12:24:11Z</time>
      </trkpt>
      <trkpt lat="37.3397554267" lon="-7.4887000094">
        <ele>13.2</ele>
        <time>2011-03-18T12:24:13Z</time>
      </trkpt>
      <trkpt lat="37.3397064764" lon="-7.48871979068">
        <ele>13.2</ele>
        <time>2011-03-18T12:24:15Z</time>
      </trkpt>
      <trkpt lat="37.3396574422" lon="-7.48873856614">
        <ele>13.2</ele>
        <time>2011-03-18T12:24:17Z</time>
      </trkpt>
      <trkpt lat="37.339604301" lon="-7.48875331828">
        <ele>13.2</ele>
        <time>2011-03-18T12:24:19Z</time>
      </trkpt>
      <trkpt lat="37.3395571109" lon="-7.48877092027">
        <ele>13.2</ele>
        <time>2011-03-18T12:24:21Z</time>
      </trkpt>
      <trkpt lat="37.3395079092" lon="-7.48879246175">
        <ele>13.2</ele>
        <time>2011-03-18T12:24:23Z</time>
      </trkpt>
      <trkpt lat="37.3394601323" lon="-7.48881509288">
        <ele>13.2</ele>
        <time>2011-03-18T12:24:25Z</time>
      </trkpt>
      <trkpt lat="37.3394152892" lon="-7.48884065768">
        <ele>13.2</ele>
        <time>2011-03-18T12:24:27Z</time>
      </trkpt>
      <trkpt lat="37.3393688534" lon="-7.48886739594">
        <ele>13.2</ele>
        <time>2011-03-18T12:24:29Z</time>
      </trkpt>
      <trkpt lat="37.3393242617" lon="-7.48889648113">
        <ele>13.2</ele>
        <time>2011-03-18T12:24:31Z</time>
      </trkpt>
      <trkpt lat="37.3392807597" lon="-7.48892372231">
        <ele>13.2</ele>
        <time>2011-03-18T12:24:33Z</time>
      </trkpt>
      <trkpt lat="37.3392390178" lon="-7.48895322659">
        <ele>13.2</ele>
        <time>2011-03-18T12:24:35Z</time>
      </trkpt>
      <trkpt lat="37.3391965216" lon="-7.48897946194">
        <ele>13.2</ele>
        <time>2011-03-18T12:24:37Z</time>
      </trkpt>
      <trkpt lat="37.3391547797" lon="-7.48899614192">
        <ele>13.2</ele>
        <time>2011-03-18T12:24:39Z</time>
      </trkpt>
      <trkpt lat="37.3390987048" lon="-7.4890181025">
        <ele>13.2</ele>
        <time>2011-03-18T12:24:42Z</time>
      </trkpt>
      <trkpt lat="37.3390428813" lon="-7.48905406085">
        <ele>13.2</ele>
        <time>2011-03-18T12:24:45Z</time>
      </trkpt>
      <trkpt lat="37.339002732" lon="-7.48908591207">
        <ele>13.2</ele>
        <time>2011-03-18T12:24:47Z</time>
      </trkpt>
      <trkpt lat="37.3389451484" lon="-7.48912497173">
        <ele>13.2</ele>
        <time>2011-03-18T12:24:50Z</time>
      </trkpt>
      <trkpt lat="37.3388929291" lon="-7.48915112325">
        <ele>13.2</ele>
        <time>2011-03-18T12:24:53Z</time>
      </trkpt>
      <trkpt lat="37.3388284723" lon="-7.48917434112">
        <ele>13.2</ele>
        <time>2011-03-18T12:24:56Z</time>
      </trkpt>
      <trkpt lat="37.3387714754" lon="-7.48918146573">
        <ele>13.2</ele>
        <time>2011-03-18T12:24:59Z</time>
      </trkpt>
      <trkpt lat="37.3387128859" lon="-7.4891945415">
        <ele>13.6</ele>
        <time>2011-03-18T12:25:02Z</time>
      </trkpt>
      <trkpt lat="37.3386508599" lon="-7.48920644379">
        <ele>14</ele>
        <time>2011-03-18T12:25:05Z</time>
      </trkpt>
      <trkpt lat="37.3385885824" lon="-7.48921826227">
        <ele>14.2</ele>
        <time>2011-03-18T12:25:08Z</time>
      </trkpt>
      <trkpt lat="37.3385385424" lon="-7.48922337523">
        <ele>14.6</ele>
        <time>2011-03-18T12:25:11Z</time>
      </trkpt>
      <trkpt lat="37.3384798691" lon="-7.48921097002">
        <ele>14.8</ele>
        <time>2011-03-18T12:25:14Z</time>
      </trkpt>
      <trkpt lat="37.3384119757" lon="-7.48919135637">
        <ele>14.8</ele>
        <time>2011-03-18T12:25:17Z</time>
      </trkpt>
      <trkpt lat="37.3383408972" lon="-7.48918138191">
        <ele>15</ele>
        <time>2011-03-18T12:25:20Z</time>
      </trkpt>
      <trkpt lat="37.3382696511" lon="-7.48917224564">
        <ele>15</ele>
        <time>2011-03-18T12:25:23Z</time>
      </trkpt>
      <trkpt lat="37.3381982373" lon="-7.4891592537">
        <ele>15</ele>
        <time>2011-03-18T12:25:26Z</time>
      </trkpt>
      <trkpt lat="37.3381445931" lon="-7.48915347019">
        <ele>15</ele>
        <time>2011-03-18T12:25:28Z</time>
      </trkpt>
      <trkpt lat="37.3380920386" lon="-7.48914592648">
        <ele>15</ele>
        <time>2011-03-18T12:25:30Z</time>
      </trkpt>
      <trkpt lat="37.3380376401" lon="-7.4891358682">
        <ele>15.2</ele>
        <time>2011-03-18T12:25:32Z</time>
      </trkpt>
      <trkpt lat="37.3379840797" lon="-7.48912430117">
        <ele>15.2</ele>
        <time>2011-03-18T12:25:34Z</time>
      </trkpt>
      <trkpt lat="37.3379326149" lon="-7.48910292733">
        <ele>15.2</ele>
        <time>2011-03-18T12:25:36Z</time>
      </trkpt>
      <trkpt lat="37.3378790545" lon="-7.48908348132">
        <ele>15.2</ele>
        <time>2011-03-18T12:25:38Z</time>
      </trkpt>
      <trkpt lat="37.3378244045" lon="-7.48906445441">
        <ele>15.2</ele>
        <time>2011-03-18T12:25:40Z</time>
      </trkpt>
      <trkpt lat="37.3377654798" lon="-7.48904802588">
        <ele>15.2</ele>
        <time>2011-03-18T12:25:42Z</time>
      </trkpt>
      <trkpt lat="37.3377129253" lon="-7.48902816078">
        <ele>15.6</ele>
        <time>2011-03-18T12:25:44Z</time>
      </trkpt>
      <trkpt lat="37.3376622986" lon="-7.48901055879">
        <ele>15.8</ele>
        <time>2011-03-18T12:25:46Z</time>
      </trkpt>
      <trkpt lat="37.3376033738" lon="-7.48899790212">
        <ele>16.2</ele>
        <time>2011-03-18T12:25:48Z</time>
      </trkpt>
      <trkpt lat="37.33754864" lon="-7.48898952022">
        <ele>16.4</ele>
        <time>2011-03-18T12:25:50Z</time>
      </trkpt>
      <trkpt lat="37.3374957502" lon="-7.48898415581">
        <ele>16.4</ele>
        <time>2011-03-18T12:25:52Z</time>
      </trkpt>
      <trkpt lat="37.3374438663" lon="-7.48899622574">
        <ele>16.6</ele>
        <time>2011-03-18T12:25:54Z</time>
      </trkpt>
      <trkpt lat="37.3374042199" lon="-7.4890264844">
        <ele>16.8</ele>
        <time>2011-03-18T12:25:56Z</time>
      </trkpt>
      <trkpt lat="37.3373747156" lon="-7.48906328094">
        <ele>16.8</ele>
        <time>2011-03-18T12:25:58Z</time>
      </trkpt>
      <trkpt lat="37.3373205685" lon="-7.48913947241">
        <ele>17</ele>
        <time>2011-03-18T12:26:01Z</time>
      </trkpt>
      <trkpt lat="37.3373009549" lon="-7.48915313491">
        <ele>17</ele>
        <time>2011-03-18T12:26:02Z</time>
      </trkpt>
      <trkpt lat="37.3372195666" lon="-7.48917543076">
        <ele>17</ele>
        <time>2011-03-18T12:26:06Z</time>
      </trkpt>
      <trkpt lat="37.3372022161" lon="-7.48918934472">
        <ele>17</ele>
        <time>2011-03-18T12:26:07Z</time>
      </trkpt>
      <trkpt lat="37.337183273" lon="-7.48919630169">
        <ele>17</ele>
        <time>2011-03-18T12:26:08Z</time>
      </trkpt>
      <trkpt lat="37.3371420341" lon="-7.4891972237">
        <ele>17</ele>
        <time>2011-03-18T12:26:11Z</time>
      </trkpt>
      <trkpt lat="37.3371244321" lon="-7.48919227838">
        <ele>17</ele>
        <time>2011-03-18T12:26:12Z</time>
      </trkpt>
      <trkpt lat="37.3370756494" lon="-7.48917853207">
        <ele>17.2</ele>
        <time>2011-03-18T12:26:15Z</time>
      </trkpt>
      <trkpt lat="37.337015635" lon="-7.48915179381">
        <ele>17.2</ele>
        <time>2011-03-18T12:26:18Z</time>
      </trkpt>
      <trkpt lat="37.336965176" lon="-7.48911935585">
        <ele>17.2</ele>
        <time>2011-03-18T12:26:21Z</time>
      </trkpt>
      <trkpt lat="37.3369113642" lon="-7.48907845218">
        <ele>17.2</ele>
        <time>2011-03-18T12:26:24Z</time>
      </trkpt>
      <trkpt lat="37.3368588935" lon="-7.48902816078">
        <ele>17.2</ele>
        <time>2011-03-18T12:26:27Z</time>
      </trkpt>
      <trkpt lat="37.3368053331" lon="-7.48897426516">
        <ele>17.2</ele>
        <time>2011-03-18T12:26:30Z</time>
      </trkpt>
      <trkpt lat="37.3367853004" lon="-7.48895465152">
        <ele>17.2</ele>
        <time>2011-03-18T12:26:31Z</time>
      </trkpt>
      <trkpt lat="37.3366993859" lon="-7.48891458604">
        <ele>16.4</ele>
        <time>2011-03-18T12:26:35Z</time>
      </trkpt>
      <trkpt lat="37.336650268" lon="-7.48889514003">
        <ele>16.2</ele>
        <time>2011-03-18T12:26:37Z</time>
      </trkpt>
      <trkpt lat="37.3365818717" lon="-7.48886513283">
        <ele>16</ele>
        <time>2011-03-18T12:26:40Z</time>
      </trkpt>
      <trkpt lat="37.3365331728" lon="-7.48884937485">
        <ele>15.8</ele>
        <time>2011-03-18T12:26:42Z</time>
      </trkpt>
      <trkpt lat="37.336465028" lon="-7.48882473207">
        <ele>15.6</ele>
        <time>2011-03-18T12:26:45Z</time>
      </trkpt>
      <trkpt lat="37.3363935304" lon="-7.48879623361">
        <ele>15.4</ele>
        <time>2011-03-18T12:26:48Z</time>
      </trkpt>
      <trkpt lat="37.3363470947" lon="-7.48877477594">
        <ele>15.4</ele>
        <time>2011-03-18T12:26:50Z</time>
      </trkpt>
      <trkpt lat="37.3362830569" lon="-7.48875155808">
        <ele>15.4</ele>
        <time>2011-03-18T12:26:53Z</time>
      </trkpt>
      <trkpt lat="37.3362171752" lon="-7.48871979068">
        <ele>15.2</ele>
        <time>2011-03-18T12:26:56Z</time>
      </trkpt>
      <trkpt lat="37.336173757" lon="-7.48870034467">
        <ele>15.2</ele>
        <time>2011-03-18T12:26:58Z</time>
      </trkpt>
      <trkpt lat="37.3361152513" lon="-7.48866312904">
        <ele>15.2</ele>
        <time>2011-03-18T12:27:01Z</time>
      </trkpt>
      <trkpt lat="37.3360497887" lon="-7.48862054898">
        <ele>15.2</ele>
        <time>2011-03-18T12:27:04Z</time>
      </trkpt>
      <trkpt lat="37.3359945519" lon="-7.48856824593">
        <ele>15.2</ele>
        <time>2011-03-18T12:27:07Z</time>
      </trkpt>
      <trkpt lat="37.3359452664" lon="-7.48850638751">
        <ele>15.2</ele>
        <time>2011-03-18T12:27:10Z</time>
      </trkpt>
      <trkpt lat="37.3359186958" lon="-7.48845274335">
        <ele>15.2</ele>
        <time>2011-03-18T12:27:12Z</time>
      </trkpt>
      <trkpt lat="37.3358979925" lon="-7.48839951828">
        <ele>15.2</ele>
        <time>2011-03-18T12:27:14Z</time>
      </trkpt>
      <trkpt lat="37.3358726791" lon="-7.48834126408">
        <ele>15.2</ele>
        <time>2011-03-18T12:27:16Z</time>
      </trkpt>
      <trkpt lat="37.3358338709" lon="-7.48829616945">
        <ele>15.2</ele>
        <time>2011-03-18T12:27:18Z</time>
      </trkpt>
      <trkpt lat="37.335790285" lon="-7.4882650726">
        <ele>15.2</ele>
        <time>2011-03-18T12:27:20Z</time>
      </trkpt>
      <trkpt lat="37.3357454419" lon="-7.48823766379">
        <ele>15.2</ele>
        <time>2011-03-18T12:27:22Z</time>
      </trkpt>
      <trkpt lat="37.3356957372" lon="-7.48820598021">
        <ele>15.2</ele>
        <time>2011-03-18T12:27:24Z</time>
      </trkpt>
      <trkpt lat="37.3356501397" lon="-7.48818234325">
        <ele>15.2</ele>
        <time>2011-03-18T12:27:26Z</time>
      </trkpt>
      <trkpt lat="37.3356052965" lon="-7.48815753283">
        <ele>15.2</ele>
        <time>2011-03-18T12:27:28Z</time>
      </trkpt>
      <trkpt lat="37.3355420132" lon="-7.48812249649">
        <ele>15.2</ele>
        <time>2011-03-18T12:27:31Z</time>
      </trkpt>
      <trkpt lat="37.3354941525" lon="-7.48809911098">
        <ele>15.2</ele>
        <time>2011-03-18T12:27:33Z</time>
      </trkpt>
      <trkpt lat="37.3354456213" lon="-7.48807430056">
        <ele>15.2</ele>
        <time>2011-03-18T12:27:35Z</time>
      </trkpt>
      <trkpt lat="37.3353825056" lon="-7.4880458021">
        <ele>15.2</ele>
        <time>2011-03-18T12:27:38Z</time>
      </trkpt>
      <trkpt lat="37.3353371595" lon="-7.48802526645">
        <ele>15.2</ele>
        <time>2011-03-18T12:27:40Z</time>
      </trkpt>
      <trkpt lat="37.3352902209" lon="-7.48799970165">
        <ele>15.2</ele>
        <time>2011-03-18T12:27:42Z</time>
      </trkpt>
      <trkpt lat="37.3352440366" lon="-7.48797195756">
        <ele>15.2</ele>
        <time>2011-03-18T12:27:44Z</time>
      </trkpt>
      <trkpt lat="37.3351946672" lon="-7.48795150573">
        <ele>15.2</ele>
        <time>2011-03-18T12:27:46Z</time>
      </trkpt>
      <trkpt lat="37.3351404363" lon="-7.48794404583">
        <ele>15.2</ele>
        <time>2011-03-18T12:27:48Z</time>
      </trkpt>
      <trkpt lat="37.3350784941" lon="-7.48793641831">
        <ele>15.2</ele>
        <time>2011-03-18T12:27:51Z</time>
      </trkpt>
      <trkpt lat="37.3350660051" lon="-7.48793247881">
        <ele>15.2</ele>
        <time>2011-03-18T12:27:52Z</time>
      </trkpt>
      <trkpt lat="37.3349997042" lon="-7.4878980292">
        <ele>15.2</ele>
        <time>2011-03-18T12:27:56Z</time>
      </trkpt>
      <trkpt lat="37.3349391031" lon="-7.48789115605">
        <ele>15.2</ele>
        <time>2011-03-18T12:27:59Z</time>
      </trkpt>
      <trkpt lat="37.3348816033" lon="-7.48788671364">
        <ele>15.2</ele>
        <time>2011-03-18T12:28:02Z</time>
      </trkpt>
      <trkpt lat="37.3348333235" lon="-7.48788101395">
        <ele>15.2</ele>
        <time>2011-03-18T12:28:05Z</time>
      </trkpt>
      <trkpt lat="37.3347909949" lon="-7.48785905337">
        <ele>15.6</ele>
        <time>2011-03-18T12:28:08Z</time>
      </trkpt>
      <trkpt lat="37.3347484987" lon="-7.48783466204">
        <ele>16</ele>
        <time>2011-03-18T12:28:11Z</time>
      </trkpt>
      <trkpt lat="37.3347335789" lon="-7.48784145138">
        <ele>16.2</ele>
        <time>2011-03-18T12:28:12Z</time>
      </trkpt>
      <trkpt lat="37.3347148035" lon="-7.48790565673">
        <ele>16.4</ele>
        <time>2011-03-18T12:28:15Z</time>
      </trkpt>
      <trkpt lat="37.3347166475" lon="-7.48792644384">
        <ele>16.6</ele>
        <time>2011-03-18T12:28:16Z</time>
      </trkpt>
      <trkpt lat="37.3347201679" lon="-7.48795024844">
        <ele>16.8</ele>
        <time>2011-03-18T12:28:17Z</time>
      </trkpt>
      <trkpt lat="37.3347255323" lon="-7.48804102442">
        <ele>17.6</ele>
        <time>2011-03-18T12:28:21Z</time>
      </trkpt>
      <trkpt lat="37.3347235206" lon="-7.48807983261">
        <ele>18</ele>
        <time>2011-03-18T12:28:23Z</time>
      </trkpt>
      <trkpt lat="37.3347516" lon="-7.48815292278">
        <ele>18.4</ele>
        <time>2011-03-18T12:28:27Z</time>
      </trkpt>
      <trkpt lat="37.3347793441" lon="-7.48821712814">
        <ele>18.6</ele>
        <time>2011-03-18T12:28:30Z</time>
      </trkpt>
      <trkpt lat="37.3347810205" lon="-7.48824202238">
        <ele>19</ele>
        <time>2011-03-18T12:28:31Z</time>
      </trkpt>
      <trkpt lat="37.3347857143" lon="-7.48832341063">
        <ele>19.6</ele>
        <time>2011-03-18T12:28:34Z</time>
      </trkpt>
      <trkpt lat="37.3347925875" lon="-7.48837571368">
        <ele>20</ele>
        <time>2011-03-18T12:28:36Z</time>
      </trkpt>
      <trkpt lat="37.3347945153" lon="-7.48840161376">
        <ele>20.2</ele>
        <time>2011-03-18T12:28:37Z</time>
      </trkpt>
      <trkpt lat="37.3348028972" lon="-7.48848786351">
        <ele>20.4</ele>
        <time>2011-03-18T12:28:40Z</time>
      </trkpt>
      <trkpt lat="37.334814129" lon="-7.48857151487">
        <ele>21.2</ele>
        <time>2011-03-18T12:28:43Z</time>
      </trkpt>
      <trkpt lat="37.3348299708" lon="-7.48863303801">
        <ele>21.8</ele>
        <time>2011-03-18T12:28:46Z</time>
      </trkpt>
      <trkpt lat="37.3348443876" lon="-7.48867360641">
        <ele>22</ele>
        <time>2011-03-18T12:28:48Z</time>
      </trkpt>
      <trkpt lat="37.3348253607" lon="-7.48873479428">
        <ele>23.2</ele>
        <time>2011-03-18T12:28:52Z</time>
      </trkpt>
      <trkpt lat="37.3348065853" lon="-7.48876463384">
        <ele>23.8</ele>
        <time>2011-03-18T12:28:55Z</time>
      </trkpt>
      <trkpt lat="37.3348211698" lon="-7.4888222175">
        <ele>24.4</ele>
        <time>2011-03-18T12:28:58Z</time>
      </trkpt>
      <trkpt lat="37.3348360895" lon="-7.48886395936">
        <ele>25</ele>
        <time>2011-03-18T12:29:00Z</time>
      </trkpt>
      <trkpt lat="37.3348634984" lon="-7.48894417414">
        <ele>26</ele>
        <time>2011-03-18T12:29:04Z</time>
      </trkpt>
      <trkpt lat="37.3348736405" lon="-7.48896479362">
        <ele>26.2</ele>
        <time>2011-03-18T12:29:05Z</time>
      </trkpt>
      <trkpt lat="37.3349038153" lon="-7.48904316438">
        <ele>27.4</ele>
        <time>2011-03-18T12:29:09Z</time>
      </trkpt>
      <trkpt lat="37.3349228422" lon="-7.48910158622">
        <ele>28</ele>
        <time>2011-03-18T12:29:12Z</time>
      </trkpt>
      <trkpt lat="37.3349466468" lon="-7.48916294173">
        <ele>28.8</ele>
        <time>2011-03-18T12:29:15Z</time>
      </trkpt>
      <trkpt lat="37.3349608122" lon="-7.4892325115">
        <ele>29.6</ele>
        <time>2011-03-18T12:29:18Z</time>
      </trkpt>
      <trkpt lat="37.334973888" lon="-7.4893030871">
        <ele>30.2</ele>
        <time>2011-03-18T12:29:21Z</time>
      </trkpt>
      <trkpt lat="37.3349805097" lon="-7.48934801408">
        <ele>31</ele>
        <time>2011-03-18T12:29:23Z</time>
      </trkpt>
      <trkpt lat="37.3349638297" lon="-7.4893838048">
        <ele>31.4</ele>
        <time>2011-03-18T12:29:25Z</time>
      </trkpt>
      <trkpt lat="37.3349090121" lon="-7.48939377926">
        <ele>32.6</ele>
        <time>2011-03-18T12:29:29Z</time>
      </trkpt>
      <trkpt lat="37.3348790049" lon="-7.48938246369">
        <ele>33.2</ele>
        <time>2011-03-18T12:29:31Z</time>
      </trkpt>
      <trkpt lat="37.334816895" lon="-7.48933192084">
        <ele>34.4</ele>
        <time>2011-03-18T12:29:35Z</time>
      </trkpt>
      <trkpt lat="37.3347853791" lon="-7.48928816732">
        <ele>35.2</ele>
        <time>2011-03-18T12:29:37Z</time>
      </trkpt>
      <trkpt lat="37.3347404521" lon="-7.48923661863">
        <ele>36</ele>
        <time>2011-03-18T12:29:40Z</time>
      </trkpt>
      <trkpt lat="37.3346966147" lon="-7.48918875798">
        <ele>37.2</ele>
        <time>2011-03-18T12:29:43Z</time>
      </trkpt>
      <trkpt lat="37.3346613269" lon="-7.48913829895">
        <ele>38</ele>
        <time>2011-03-18T12:29:46Z</time>
      </trkpt>
      <trkpt lat="37.3346119575" lon="-7.48908230785">
        <ele>39.2</ele>
        <time>2011-03-18T12:29:49Z</time>
      </trkpt>
      <trkpt lat="37.3345647674" lon="-7.48903075917">
        <ele>40</ele>
        <time>2011-03-18T12:29:52Z</time>
      </trkpt>
      <trkpt lat="37.3345160686" lon="-7.48898474254">
        <ele>41.2</ele>
        <time>2011-03-18T12:29:55Z</time>
      </trkpt>
      <trkpt lat="37.3344687947" lon="-7.48893847445">
        <ele>42</ele>
        <time>2011-03-18T12:29:58Z</time>
      </trkpt>
      <trkpt lat="37.3344237001" lon="-7.48888466265">
        <ele>42.8</ele>
        <time>2011-03-18T12:30:01Z</time>
      </trkpt>
      <trkpt lat="37.3343790245" lon="-7.48883437125">
        <ele>43.8</ele>
        <time>2011-03-18T12:30:04Z</time>
      </trkpt>
      <trkpt lat="37.3343446588" lon="-7.48879866436">
        <ele>44.4</ele>
        <time>2011-03-18T12:30:06Z</time>
      </trkpt>
      <trkpt lat="37.334289422" lon="-7.48873010042">
        <ele>45.6</ele>
        <time>2011-03-18T12:30:10Z</time>
      </trkpt>
      <trkpt lat="37.3342444112" lon="-7.48867360641">
        <ele>46.4</ele>
        <time>2011-03-18T12:30:13Z</time>
      </trkpt>
      <trkpt lat="37.3342101293" lon="-7.48863630696">
        <ele>46.8</ele>
        <time>2011-03-18T12:30:15Z</time>
      </trkpt>
      <trkpt lat="37.3341567366" lon="-7.48858676993">
        <ele>47.8</ele>
        <time>2011-03-18T12:30:18Z</time>
      </trkpt>
      <trkpt lat="37.3340989014" lon="-7.48856162423">
        <ele>48.6</ele>
        <time>2011-03-18T12:30:21Z</time>
      </trkpt>
      <trkpt lat="37.3340817185" lon="-7.48855994785">
        <ele>48.8</ele>
        <time>2011-03-18T12:30:22Z</time>
      </trkpt>
      <trkpt lat="37.3340156692" lon="-7.48857897476">
        <ele>49.6</ele>
        <time>2011-03-18T12:30:25Z</time>
      </trkpt>
      <trkpt lat="37.3339959717" lon="-7.48858827867">
        <ele>49.8</ele>
        <time>2011-03-18T12:30:26Z</time>
      </trkpt>
      <trkpt lat="37.3339512962" lon="-7.48861334055">
        <ele>50.4</ele>
        <time>2011-03-18T12:30:28Z</time>
      </trkpt>
      <trkpt lat="37.3339071236" lon="-7.48864385067">
        <ele>50.8</ele>
        <time>2011-03-18T12:30:30Z</time>
      </trkpt>
      <trkpt lat="37.3338432535" lon="-7.48868249122">
        <ele>51.4</ele>
        <time>2011-03-18T12:30:33Z</time>
      </trkpt>
      <trkpt lat="37.3337793834" lon="-7.48871585119">
        <ele>52.4</ele>
        <time>2011-03-18T12:30:36Z</time>
      </trkpt>
      <trkpt lat="37.3337158486" lon="-7.48873999106">
        <ele>53</ele>
        <time>2011-03-18T12:30:39Z</time>
      </trkpt>
      <trkpt lat="37.3336513918" lon="-7.48875415647">
        <ele>53.6</ele>
        <time>2011-03-18T12:30:42Z</time>
      </trkpt>
      <trkpt lat="37.3335829955" lon="-7.48876144872">
        <ele>54</ele>
        <time>2011-03-18T12:30:45Z</time>
      </trkpt>
      <trkpt lat="37.3335206342" lon="-7.48874669658">
        <ele>54.8</ele>
        <time>2011-03-18T12:30:48Z</time>
      </trkpt>
      <trkpt lat="37.3334632181" lon="-7.48872842404">
        <ele>55.4</ele>
        <time>2011-03-18T12:30:51Z</time>
      </trkpt>
      <trkpt lat="37.3334446941" lon="-7.48871786284">
        <ele>55.8</ele>
        <time>2011-03-18T12:30:53Z</time>
      </trkpt>
      <trkpt lat="37.3334295229" lon="-7.48868500579">
        <ele>58.2</ele>
        <time>2011-03-18T12:31:09Z</time>
      </trkpt>
      <trkpt lat="37.3334021141" lon="-7.48864670051">
        <ele>58.4</ele>
        <time>2011-03-18T12:31:12Z</time>
      </trkpt>
      <trkpt lat="37.3333760464" lon="-7.48861040688">
        <ele>58.6</ele>
        <time>2011-03-18T12:31:15Z</time>
      </trkpt>
      <trkpt lat="37.3333489728" lon="-7.48857931003">
        <ele>58.8</ele>
        <time>2011-03-18T12:31:18Z</time>
      </trkpt>
      <trkpt lat="37.3333408424" lon="-7.48856757538">
        <ele>58.8</ele>
        <time>2011-03-18T12:31:19Z</time>
      </trkpt>
      <trkpt lat="37.3333115058" lon="-7.4885368138">
        <ele>58.8</ele>
        <time>2011-03-18T12:31:22Z</time>
      </trkpt>
      <trkpt lat="37.3332829235" lon="-7.48850621987">
        <ele>59</ele>
        <time>2011-03-18T12:31:25Z</time>
      </trkpt>
      <trkpt lat="37.3332550118" lon="-7.48847478774">
        <ele>59</ele>
        <time>2011-03-18T12:31:28Z</time>
      </trkpt>
      <trkpt lat="37.3332311233" lon="-7.48843723683">
        <ele>59</ele>
        <time>2011-03-18T12:31:31Z</time>
      </trkpt>
      <trkpt lat="37.3332176285" lon="-7.48841494098">
        <ele>58.8</ele>
        <time>2011-03-18T12:31:33Z</time>
      </trkpt>
      <trkpt lat="37.3331796585" lon="-7.48837437258">
        <ele>58.2</ele>
        <time>2011-03-18T12:31:37Z</time>
      </trkpt>
      <trkpt lat="37.3331475558" lon="-7.48834461684">
        <ele>58</ele>
        <time>2011-03-18T12:31:40Z</time>
      </trkpt>
      <trkpt lat="37.3331408503" lon="-7.48833397182">
        <ele>57.8</ele>
        <time>2011-03-18T12:31:41Z</time>
      </trkpt>
      <trkpt lat="37.3331156208" lon="-7.48830002513">
        <ele>57.6</ele>
        <time>2011-03-18T12:31:44Z</time>
      </trkpt>
      <trkpt lat="37.3331012877" lon="-7.48829792965">
        <ele>57.6</ele>
        <time>2011-03-18T12:31:45Z</time>
      </trkpt>
      <trkpt lat="37.3330603002" lon="-7.48826616225">
        <ele>57.4</ele>
        <time>2011-03-18T12:31:48Z</time>
      </trkpt>
      <trkpt lat="37.3330484817" lon="-7.48825191302">
        <ele>57.4</ele>
        <time>2011-03-18T12:31:49Z</time>
      </trkpt>
      <trkpt lat="37.3330054826" lon="-7.48821201518">
        <ele>57.4</ele>
        <time>2011-03-18T12:31:53Z</time>
      </trkpt>
      <trkpt lat="37.3329704462" lon="-7.48817723029">
        <ele>57.2</ele>
        <time>2011-03-18T12:31:56Z</time>
      </trkpt>
      <trkpt lat="37.3329416963" lon="-7.48814018229">
        <ele>57.2</ele>
        <time>2011-03-18T12:31:59Z</time>
      </trkpt>
      <trkpt lat="37.3329120244" lon="-7.48810858253">
        <ele>57.2</ele>
        <time>2011-03-18T12:32:02Z</time>
      </trkpt>
      <trkpt lat="37.3328745573" lon="-7.48807119926">
        <ele>56.6</ele>
        <time>2011-03-18T12:32:05Z</time>
      </trkpt>
      <trkpt lat="37.3328415326" lon="-7.48803415126">
        <ele>56.2</ele>
        <time>2011-03-18T12:32:08Z</time>
      </trkpt>
      <trkpt lat="37.3328134533" lon="-7.48799886346">
        <ele>56</ele>
        <time>2011-03-18T12:32:11Z</time>
      </trkpt>
      <trkpt lat="37.3327855415" lon="-7.48796365948">
        <ele>55.6</ele>
        <time>2011-03-18T12:32:14Z</time>
      </trkpt>
      <trkpt lat="37.3327611502" lon="-7.48792334254">
        <ele>55.6</ele>
        <time>2011-03-18T12:32:17Z</time>
      </trkpt>
      <trkpt lat="37.3327411175" lon="-7.48787883465">
        <ele>55.4</ele>
        <time>2011-03-18T12:32:20Z</time>
      </trkpt>
      <trkpt lat="37.33272142" lon="-7.48783424294">
        <ele>55.4</ele>
        <time>2011-03-18T12:32:23Z</time>
      </trkpt>
      <trkpt lat="37.3327020578" lon="-7.48779392601">
        <ele>55.2</ele>
        <time>2011-03-18T12:32:26Z</time>
      </trkpt>
      <trkpt lat="37.3326812707" lon="-7.48774799319">
        <ele>55.2</ele>
        <time>2011-03-18T12:32:29Z</time>
      </trkpt>
      <trkpt lat="37.3326623276" lon="-7.48770105455">
        <ele>55.2</ele>
        <time>2011-03-18T12:32:32Z</time>
      </trkpt>
      <trkpt lat="37.332643636" lon="-7.4876522719">
        <ele>54.6</ele>
        <time>2011-03-18T12:32:35Z</time>
      </trkpt>
      <trkpt lat="37.3326268722" lon="-7.48760667436">
        <ele>54.2</ele>
        <time>2011-03-18T12:32:38Z</time>
      </trkpt>
      <trkpt lat="37.3326101922" lon="-7.48756903963">
        <ele>53.8</ele>
        <time>2011-03-18T12:32:41Z</time>
      </trkpt>
      <trkpt lat="37.3326029837" lon="-7.48755529331">
        <ele>53.8</ele>
        <time>2011-03-18T12:32:42Z</time>
      </trkpt>
      <trkpt lat="37.3325872258" lon="-7.48751765858">
        <ele>53.4</ele>
        <time>2011-03-18T12:32:52Z</time>
      </trkpt>
      <trkpt lat="37.3325712163" lon="-7.48749762584">
        <ele>53.2</ele>
        <time>2011-03-18T12:32:59Z</time>
      </trkpt>
      <trkpt lat="37.3325221822" lon="-7.48743224702">
        <ele>53</ele>
        <time>2011-03-18T12:33:33Z</time>
      </trkpt>
      <trkpt lat="37.3325212602" lon="-7.48739796505">
        <ele>53</ele>
        <time>2011-03-18T12:33:37Z</time>
      </trkpt>
      <trkpt lat="37.3325186618" lon="-7.48739008606">
        <ele>53</ele>
        <time>2011-03-18T12:33:47Z</time>
      </trkpt>
      <trkpt lat="37.3325250321" lon="-7.48739218154">
        <ele>53</ele>
        <time>2011-03-18T12:33:56Z</time>
      </trkpt>
      <trkpt lat="37.3325054184" lon="-7.48738991843">
        <ele>55</ele>
        <time>2011-03-18T12:34:42Z</time>
      </trkpt>
      <trkpt lat="37.3325008084" lon="-7.48737457955">
        <ele>55</ele>
        <time>2011-03-18T12:35:10Z</time>
      </trkpt>
      <trkpt lat="37.3324724776" lon="-7.48732479106">
        <ele>55</ele>
        <time>2011-03-18T12:35:15Z</time>
      </trkpt>
      <trkpt lat="37.3324425542" lon="-7.48733769919">
        <ele>55</ele>
        <time>2011-03-18T12:35:18Z</time>
      </trkpt>
      <trkpt lat="37.3324402911" lon="-7.48734239305">
        <ele>55</ele>
        <time>2011-03-18T12:35:19Z</time>
      </trkpt>
      <trkpt lat="37.3324568034" lon="-7.48731548715">
        <ele>55</ele>
        <time>2011-03-18T12:35:25Z</time>
      </trkpt>
      <trkpt lat="37.3324580607" lon="-7.48730358486">
        <ele>55</ele>
        <time>2011-03-18T12:35:26Z</time>
      </trkpt>
      <trkpt lat="37.332431071" lon="-7.48725723295">
        <ele>55</ele>
        <time>2011-03-18T12:35:31Z</time>
      </trkpt>
      <trkpt lat="37.3324238625" lon="-7.48724767758">
        <ele>55</ele>
        <time>2011-03-18T12:35:32Z</time>
      </trkpt>
      <trkpt lat="37.3323895806" lon="-7.48721364707">
        <ele>55</ele>
        <time>2011-03-18T12:35:37Z</time>
      </trkpt>
      <trkpt lat="37.3323604954" lon="-7.48717978419">
        <ele>55</ele>
        <time>2011-03-18T12:35:41Z</time>
      </trkpt>
      <trkpt lat="37.332343061" lon="-7.48715136955">
        <ele>55</ele>
        <time>2011-03-18T12:35:45Z</time>
      </trkpt>
      <trkpt lat="37.3323249561" lon="-7.48718179585">
        <ele>53</ele>
        <time>2011-03-18T12:37:53Z</time>
      </trkpt>
      <trkpt lat="37.3325956077" lon="-7.48700661414">
        <ele>57</ele>
        <time>2011-03-18T12:42:13Z</time>
      </trkpt>
      <trkpt lat="37.3326355055" lon="-7.48703846536">
        <ele>57</ele>
        <time>2011-03-18T12:42:15Z</time>
      </trkpt>
      <trkpt lat="37.3326742299" lon="-7.48707417225">
        <ele>57</ele>
        <time>2011-03-18T12:42:17Z</time>
      </trkpt>
      <trkpt lat="37.3327189054" lon="-7.48712404456">
        <ele>57</ele>
        <time>2011-03-18T12:42:19Z</time>
      </trkpt>
      <trkpt lat="37.3327483259" lon="-7.48717953274">
        <ele>57</ele>
        <time>2011-03-18T12:42:21Z</time>
      </trkpt>
      <trkpt lat="37.3327662632" lon="-7.48724164261">
        <ele>57</ele>
        <time>2011-03-18T12:42:23Z</time>
      </trkpt>
      <trkpt lat="37.3327828593" lon="-7.48730626706">
        <ele>57</ele>
        <time>2011-03-18T12:42:25Z</time>
      </trkpt>
      <trkpt lat="37.3327933367" lon="-7.48737759703">
        <ele>57</ele>
        <time>2011-03-18T12:42:27Z</time>
      </trkpt>
      <trkpt lat="37.3328034788" lon="-7.48744867554">
        <ele>57</ele>
        <time>2011-03-18T12:42:29Z</time>
      </trkpt>
      <trkpt lat="37.332820075" lon="-7.4875107016">
        <ele>57</ele>
        <time>2011-03-18T12:42:31Z</time>
      </trkpt>
      <trkpt lat="37.3328498307" lon="-7.48757188947">
        <ele>57</ele>
        <time>2011-03-18T12:42:33Z</time>
      </trkpt>
      <trkpt lat="37.3328906506" lon="-7.4876196663">
        <ele>57</ele>
        <time>2011-03-18T12:42:35Z</time>
      </trkpt>
      <trkpt lat="37.3329380083" lon="-7.48766098907">
        <ele>57</ele>
        <time>2011-03-18T12:42:37Z</time>
      </trkpt>
      <trkpt lat="37.3329877968" lon="-7.48768219528">
        <ele>57</ele>
        <time>2011-03-18T12:42:39Z</time>
      </trkpt>
      <trkpt lat="37.3330385073" lon="-7.48768957135">
        <ele>57</ele>
        <time>2011-03-18T12:42:41Z</time>
      </trkpt>
      <trkpt lat="37.3330916485" lon="-7.48769661215">
        <ele>56.6</ele>
        <time>2011-03-18T12:42:43Z</time>
      </trkpt>
      <trkpt lat="37.3331449574" lon="-7.4876968636">
        <ele>56.4</ele>
        <time>2011-03-18T12:42:45Z</time>
      </trkpt>
      <trkpt lat="37.3331929019" lon="-7.48769912672">
        <ele>56.2</ele>
        <time>2011-03-18T12:42:47Z</time>
      </trkpt>
      <trkpt lat="37.333240092" lon="-7.48769962963">
        <ele>55.8</ele>
        <time>2011-03-18T12:42:49Z</time>
      </trkpt>
      <trkpt lat="37.3332918083" lon="-7.48770147365">
        <ele>55.8</ele>
        <time>2011-03-18T12:42:51Z</time>
      </trkpt>
      <trkpt lat="37.3333509845" lon="-7.48770457495">
        <ele>55.6</ele>
        <time>2011-03-18T12:42:53Z</time>
      </trkpt>
      <trkpt lat="37.3334318698" lon="-7.48770180892">
        <ele>55.2</ele>
        <time>2011-03-18T12:42:56Z</time>
      </trkpt>
      <trkpt lat="37.3334861846" lon="-7.48770197656">
        <ele>54.8</ele>
        <time>2011-03-18T12:42:58Z</time>
      </trkpt>
      <trkpt lat="37.3335395773" lon="-7.48769367848">
        <ele>54.4</ele>
        <time>2011-03-18T12:43:00Z</time>
      </trkpt>
      <trkpt lat="37.33359297" lon="-7.48768085417">
        <ele>54.2</ele>
        <time>2011-03-18T12:43:02Z</time>
      </trkpt>
      <trkpt lat="37.3336383999" lon="-7.48765394828">
        <ele>54</ele>
        <time>2011-03-18T12:43:04Z</time>
      </trkpt>
      <trkpt lat="37.3336837459" lon="-7.48762578509">
        <ele>53.8</ele>
        <time>2011-03-18T12:43:06Z</time>
      </trkpt>
      <trkpt lat="37.3337394018" lon="-7.48759544261">
        <ele>53.2</ele>
        <time>2011-03-18T12:43:08Z</time>
      </trkpt>
      <trkpt lat="37.3337875139" lon="-7.48756384285">
        <ele>52.8</ele>
        <time>2011-03-18T12:43:10Z</time>
      </trkpt>
      <trkpt lat="37.3338438402" lon="-7.48753886479">
        <ele>52.4</ele>
        <time>2011-03-18T12:43:12Z</time>
      </trkpt>
      <trkpt lat="37.3338901921" lon="-7.48751011487">
        <ele>52.2</ele>
        <time>2011-03-18T12:43:14Z</time>
      </trkpt>
      <trkpt lat="37.3339341971" lon="-7.48747164195">
        <ele>52</ele>
        <time>2011-03-18T12:43:16Z</time>
      </trkpt>
      <trkpt lat="37.3339756875" lon="-7.48741204664">
        <ele>51.8</ele>
        <time>2011-03-18T12:43:18Z</time>
      </trkpt>
      <trkpt lat="37.3340035992" lon="-7.48734867948">
        <ele>51.2</ele>
        <time>2011-03-18T12:43:20Z</time>
      </trkpt>
      <trkpt lat="37.3340317624" lon="-7.48727910971">
        <ele>50.8</ele>
        <time>2011-03-18T12:43:22Z</time>
      </trkpt>
      <trkpt lat="37.334050035" lon="-7.48720794738">
        <ele>50.4</ele>
        <time>2011-03-18T12:43:24Z</time>
      </trkpt>
      <trkpt lat="37.3340626078" lon="-7.48718255022">
        <ele>50.2</ele>
        <time>2011-03-18T12:43:25Z</time>
      </trkpt>
      <trkpt lat="37.3341601731" lon="-7.48716352331">
        <ele>49.4</ele>
        <time>2011-03-18T12:43:29Z</time>
      </trkpt>
      <trkpt lat="37.3341905156" lon="-7.48717400068">
        <ele>49.2</ele>
        <time>2011-03-18T12:43:30Z</time>
      </trkpt>
      <trkpt lat="37.334272323" lon="-7.48719973311">
        <ele>48.6</ele>
        <time>2011-03-18T12:43:33Z</time>
      </trkpt>
      <trkpt lat="37.3343156574" lon="-7.48720685773">
        <ele>48.2</ele>
        <time>2011-03-18T12:43:35Z</time>
      </trkpt>
      <trkpt lat="37.3343802818" lon="-7.48721213833">
        <ele>47.8</ele>
        <time>2011-03-18T12:43:38Z</time>
      </trkpt>
      <trkpt lat="37.3344330878" lon="-7.48721565872">
        <ele>47.4</ele>
        <time>2011-03-18T12:43:40Z</time>
      </trkpt>
      <trkpt lat="37.3344822057" lon="-7.48721792184">
        <ele>46.8</ele>
        <time>2011-03-18T12:43:42Z</time>
      </trkpt>
      <trkpt lat="37.3345031605" lon="-7.48721565872">
        <ele>46.6</ele>
        <time>2011-03-18T12:43:43Z</time>
      </trkpt>
      <trkpt lat="37.3344540425" lon="-7.48715338121">
        <ele>46</ele>
        <time>2011-03-18T12:43:47Z</time>
      </trkpt>
      <trkpt lat="37.3344363567" lon="-7.48712521802">
        <ele>45.6</ele>
        <time>2011-03-18T12:43:48Z</time>
      </trkpt>
      <trkpt lat="37.3343998117" lon="-7.48706696382">
        <ele>45</ele>
        <time>2011-03-18T12:43:50Z</time>
      </trkpt>
      <trkpt lat="37.3343691339" lon="-7.48701072127">
        <ele>44.6</ele>
        <time>2011-03-18T12:43:52Z</time>
      </trkpt>
      <trkpt lat="37.334365865" lon="-7.48692874629">
        <ele>44.2</ele>
        <time>2011-03-18T12:43:54Z</time>
      </trkpt>
      <trkpt lat="37.3343824611" lon="-7.48685037552">
        <ele>43.6</ele>
        <time>2011-03-18T12:43:56Z</time>
      </trkpt>
      <trkpt lat="37.3343991411" lon="-7.48677686626">
        <ele>43</ele>
        <time>2011-03-18T12:43:58Z</time>
      </trkpt>
      <trkpt lat="37.33441909" lon="-7.48666840447">
        <ele>42.4</ele>
        <time>2011-03-18T12:44:01Z</time>
      </trkpt>
      <trkpt lat="37.3344340936" lon="-7.48656782167">
        <ele>41.8</ele>
        <time>2011-03-18T12:44:04Z</time>
      </trkpt>
      <trkpt lat="37.33445245" lon="-7.48651484807">
        <ele>41.2</ele>
        <time>2011-03-18T12:44:06Z</time>
      </trkpt>
      <trkpt lat="37.3344528691" lon="-7.48649481532">
        <ele>40.8</ele>
        <time>2011-03-18T12:44:07Z</time>
      </trkpt>
      <trkpt lat="37.3343978838" lon="-7.48645265437">
        <ele>40.2</ele>
        <time>2011-03-18T12:44:10Z</time>
      </trkpt>
      <trkpt lat="37.3343408031" lon="-7.48642792776">
        <ele>39.6</ele>
        <time>2011-03-18T12:44:12Z</time>
      </trkpt>
      <trkpt lat="37.3343143163" lon="-7.48641317562">
        <ele>39.2</ele>
        <time>2011-03-18T12:44:13Z</time>
      </trkpt>
      <trkpt lat="37.3342356102" lon="-7.48635559197">
        <ele>38.4</ele>
        <time>2011-03-18T12:44:16Z</time>
      </trkpt>
      <trkpt lat="37.3341784457" lon="-7.48629809213">
        <ele>37.6</ele>
        <time>2011-03-18T12:44:18Z</time>
      </trkpt>
      <trkpt lat="37.3341466783" lon="-7.48623732336">
        <ele>37</ele>
        <time>2011-03-18T12:44:20Z</time>
      </trkpt>
      <trkpt lat="37.3341465945" lon="-7.48620631033">
        <ele>36.6</ele>
        <time>2011-03-18T12:44:21Z</time>
      </trkpt>
      <trkpt lat="37.3341729136" lon="-7.48613104086">
        <ele>36.2</ele>
        <time>2011-03-18T12:44:23Z</time>
      </trkpt>
      <trkpt lat="37.3342009092" lon="-7.48604504257">
        <ele>35.6</ele>
        <time>2011-03-18T12:44:25Z</time>
      </trkpt>
      <trkpt lat="37.3342221154" lon="-7.48596382196">
        <ele>34.8</ele>
        <time>2011-03-18T12:44:27Z</time>
      </trkpt>
      <trkpt lat="37.3342429863" lon="-7.48588234989">
        <ele>34.2</ele>
        <time>2011-03-18T12:44:29Z</time>
      </trkpt>
      <trkpt lat="37.3342641087" lon="-7.48580171601">
        <ele>33.8</ele>
        <time>2011-03-18T12:44:31Z</time>
      </trkpt>
      <trkpt lat="37.3342822974" lon="-7.48572376434">
        <ele>33.2</ele>
        <time>2011-03-18T12:44:33Z</time>
      </trkpt>
      <trkpt lat="37.3342904279" lon="-7.4856489978">
        <ele>32.6</ele>
        <time>2011-03-18T12:44:35Z</time>
      </trkpt>
      <trkpt lat="37.3342897573" lon="-7.48557247105">
        <ele>32.2</ele>
        <time>2011-03-18T12:44:37Z</time>
      </trkpt>
      <trkpt lat="37.3342751728" lon="-7.48549979998">
        <ele>31.6</ele>
        <time>2011-03-18T12:44:39Z</time>
      </trkpt>
      <trkpt lat="37.334247764" lon="-7.48543324769">
        <ele>31.4</ele>
        <time>2011-03-18T12:44:41Z</time>
      </trkpt>
      <trkpt lat="37.3342226183" lon="-7.48536418083">
        <ele>30.8</ele>
        <time>2011-03-18T12:44:43Z</time>
      </trkpt>
      <trkpt lat="37.3341953771" lon="-7.48529570071">
        <ele>30.2</ele>
        <time>2011-03-18T12:44:45Z</time>
      </trkpt>
      <trkpt lat="37.3341671301" lon="-7.4852294837">
        <ele>29.8</ele>
        <time>2011-03-18T12:44:47Z</time>
      </trkpt>
      <trkpt lat="37.334133854" lon="-7.48515957865">
        <ele>29.4</ele>
        <time>2011-03-18T12:44:49Z</time>
      </trkpt>
      <trkpt lat="37.3341039306" lon="-7.48509411602">
        <ele>29.2</ele>
        <time>2011-03-18T12:44:51Z</time>
      </trkpt>
      <trkpt lat="37.3340781143" lon="-7.48503108413">
        <ele>28.8</ele>
        <time>2011-03-18T12:44:53Z</time>
      </trkpt>
      <trkpt lat="37.33404861" lon="-7.48496545385">
        <ele>28.6</ele>
        <time>2011-03-18T12:44:55Z</time>
      </trkpt>
      <trkpt lat="37.3340195248" lon="-7.48490443362">
        <ele>28.2</ele>
        <time>2011-03-18T12:44:57Z</time>
      </trkpt>
      <trkpt lat="37.333995385" lon="-7.48483754606">
        <ele>27.6</ele>
        <time>2011-03-18T12:44:59Z</time>
      </trkpt>
      <trkpt lat="37.3339789565" lon="-7.48477208342">
        <ele>27.4</ele>
        <time>2011-03-18T12:45:01Z</time>
      </trkpt>
      <trkpt lat="37.3339545651" lon="-7.48469924471">
        <ele>27</ele>
        <time>2011-03-18T12:45:03Z</time>
      </trkpt>
      <trkpt lat="37.3339284136" lon="-7.48462808237">
        <ele>26.8</ele>
        <time>2011-03-18T12:45:05Z</time>
      </trkpt>
      <trkpt lat="37.3339139967" lon="-7.48455482457">
        <ele>26.6</ele>
        <time>2011-03-18T12:45:07Z</time>
      </trkpt>
      <trkpt lat="37.3339022621" lon="-7.48448441661">
        <ele>26.4</ele>
        <time>2011-03-18T12:45:09Z</time>
      </trkpt>
      <trkpt lat="37.3338922876" lon="-7.48441023679">
        <ele>26.4</ele>
        <time>2011-03-18T12:45:11Z</time>
      </trkpt>
      <trkpt lat="37.3338778707" lon="-7.48433429678">
        <ele>26</ele>
        <time>2011-03-18T12:45:13Z</time>
      </trkpt>
      <trkpt lat="37.3338523898" lon="-7.48426346973">
        <ele>25.6</ele>
        <time>2011-03-18T12:45:15Z</time>
      </trkpt>
      <trkpt lat="37.3338291719" lon="-7.48420362296">
        <ele>25.2</ele>
        <time>2011-03-18T12:45:17Z</time>
      </trkpt>
      <trkpt lat="37.3337984103" lon="-7.48414101017">
        <ele>25</ele>
        <time>2011-03-18T12:45:19Z</time>
      </trkpt>
      <trkpt lat="37.3337675649" lon="-7.48408527053">
        <ele>24.8</ele>
        <time>2011-03-18T12:45:21Z</time>
      </trkpt>
      <trkpt lat="37.3337301817" lon="-7.48402768688">
        <ele>24.6</ele>
        <time>2011-03-18T12:45:23Z</time>
      </trkpt>
      <trkpt lat="37.3336905353" lon="-7.48397186342">
        <ele>24.4</ele>
        <time>2011-03-18T12:45:25Z</time>
      </trkpt>
      <trkpt lat="37.3336466979" lon="-7.48391905745">
        <ele>24.2</ele>
        <time>2011-03-18T12:45:27Z</time>
      </trkpt>
      <trkpt lat="37.3336042855" lon="-7.4838702748">
        <ele>24.2</ele>
        <time>2011-03-18T12:45:29Z</time>
      </trkpt>
      <trkpt lat="37.3335632142" lon="-7.48382115686">
        <ele>24</ele>
        <time>2011-03-18T12:45:31Z</time>
      </trkpt>
      <trkpt lat="37.3335196283" lon="-7.4837675127">
        <ele>24</ele>
        <time>2011-03-18T12:45:33Z</time>
      </trkpt>
      <trkpt lat="37.3334729411" lon="-7.48371671839">
        <ele>24</ele>
        <time>2011-03-18T12:45:35Z</time>
      </trkpt>
      <trkpt lat="37.333429942" lon="-7.48366843864">
        <ele>24</ele>
        <time>2011-03-18T12:45:37Z</time>
      </trkpt>
      <trkpt lat="37.3333882001" lon="-7.48361806343">
        <ele>24</ele>
        <time>2011-03-18T12:45:39Z</time>
      </trkpt>
      <trkpt lat="37.3333459554" lon="-7.48356718529">
        <ele>23.8</ele>
        <time>2011-03-18T12:45:41Z</time>
      </trkpt>
      <trkpt lat="37.3333048841" lon="-7.48351681007">
        <ele>23.8</ele>
        <time>2011-03-18T12:45:43Z</time>
      </trkpt>
      <trkpt lat="37.333271105" lon="-7.48346660249">
        <ele>23.8</ele>
        <time>2011-03-18T12:45:45Z</time>
      </trkpt>
      <trkpt lat="37.3332388347" lon="-7.4834088512">
        <ele>23.8</ele>
        <time>2011-03-18T12:45:47Z</time>
      </trkpt>
      <trkpt lat="37.3332074026" lon="-7.48333911379">
        <ele>23.8</ele>
        <time>2011-03-18T12:45:49Z</time>
      </trkpt>
      <trkpt lat="37.3331816701" lon="-7.48326535307">
        <ele>23.8</ele>
        <time>2011-03-18T12:45:51Z</time>
      </trkpt>
      <trkpt lat="37.3331527526" lon="-7.48319645386">
        <ele>23.8</ele>
        <time>2011-03-18T12:45:53Z</time>
      </trkpt>
      <trkpt lat="37.3331390063" lon="-7.48312788991">
        <ele>23.8</ele>
        <time>2011-03-18T12:45:55Z</time>
      </trkpt>
      <trkpt lat="37.3331427781" lon="-7.48306075089">
        <ele>23.8</ele>
        <time>2011-03-18T12:45:57Z</time>
      </trkpt>
      <trkpt lat="37.3331734559" lon="-7.48296779562">
        <ele>23.8</ele>
        <time>2011-03-18T12:46:00Z</time>
      </trkpt>
      <trkpt lat="37.3331978472" lon="-7.48291088252">
        <ele>23.8</ele>
        <time>2011-03-18T12:46:02Z</time>
      </trkpt>
      <trkpt lat="37.3332249207" lon="-7.48285480761">
        <ele>23.8</ele>
        <time>2011-03-18T12:46:04Z</time>
      </trkpt>
      <trkpt lat="37.3332508208" lon="-7.48279529612">
        <ele>23.8</ele>
        <time>2011-03-18T12:46:06Z</time>
      </trkpt>
      <trkpt lat="37.3332750445" lon="-7.48273511408">
        <ele>23.8</ele>
        <time>2011-03-18T12:46:08Z</time>
      </trkpt>
      <trkpt lat="37.333295664" lon="-7.48267878771">
        <ele>23.8</ele>
        <time>2011-03-18T12:46:10Z</time>
      </trkpt>
      <trkpt lat="37.3333097456" lon="-7.48262086878">
        <ele>23.8</ele>
        <time>2011-03-18T12:46:12Z</time>
      </trkpt>
      <trkpt lat="37.333326677" lon="-7.48256186021">
        <ele>23.8</ele>
        <time>2011-03-18T12:46:14Z</time>
      </trkpt>
      <trkpt lat="37.3333436084" lon="-7.48250838368">
        <ele>23.8</ele>
        <time>2011-03-18T12:46:16Z</time>
      </trkpt>
      <trkpt lat="37.3333514036" lon="-7.48244434597">
        <ele>23.8</ele>
        <time>2011-03-18T12:46:18Z</time>
      </trkpt>
      <trkpt lat="37.333368838" lon="-7.48238760051">
        <ele>23.8</ele>
        <time>2011-03-18T12:46:20Z</time>
      </trkpt>
      <trkpt lat="37.3333907147" lon="-7.48233119032">
        <ele>23.8</ele>
        <time>2011-03-18T12:46:22Z</time>
      </trkpt>
      <trkpt lat="37.3334118371" lon="-7.48227704324">
        <ele>23.8</ele>
        <time>2011-03-18T12:46:24Z</time>
      </trkpt>
      <trkpt lat="37.3334400003" lon="-7.48219992976">
        <ele>23.8</ele>
        <time>2011-03-18T12:46:27Z</time>
      </trkpt>
      <trkpt lat="37.3334663194" lon="-7.48212792924">
        <ele>23.8</ele>
        <time>2011-03-18T12:46:30Z</time>
      </trkpt>
      <trkpt lat="37.3334866036" lon="-7.48205081576">
        <ele>23.8</ele>
        <time>2011-03-18T12:46:33Z</time>
      </trkpt>
      <trkpt lat="37.3335001823" lon="-7.48198409584">
        <ele>23.8</ele>
        <time>2011-03-18T12:46:36Z</time>
      </trkpt>
      <trkpt lat="37.3335054629" lon="-7.48195249608">
        <ele>23.8</ele>
        <time>2011-03-18T12:46:37Z</time>
      </trkpt>
      <trkpt lat="37.3335587718" lon="-7.48186976672">
        <ele>23.8</ele>
        <time>2011-03-18T12:46:40Z</time>
      </trkpt>
      <trkpt lat="37.3335871864" lon="-7.48181645784">
        <ele>24</ele>
        <time>2011-03-18T12:46:42Z</time>
      </trkpt>
      <trkpt lat="37.3336176966" lon="-7.48176591498">
        <ele>24.4</ele>
        <time>2011-03-18T12:46:44Z</time>
      </trkpt>
      <trkpt lat="37.3336438481" lon="-7.48171579122">
        <ele>24.6</ele>
        <time>2011-03-18T12:46:46Z</time>
      </trkpt>
      <trkpt lat="37.3336718436" lon="-7.48166139269">
        <ele>24.8</ele>
        <time>2011-03-18T12:46:48Z</time>
      </trkpt>
      <trkpt lat="37.333683243" lon="-7.48159894753">
        <ele>25</ele>
        <time>2011-03-18T12:46:50Z</time>
      </trkpt>
      <trkpt lat="37.3336888589" lon="-7.48153742439">
        <ele>25.4</ele>
        <time>2011-03-18T12:46:52Z</time>
      </trkpt>
      <trkpt lat="37.3336936366" lon="-7.48147372195">
        <ele>26</ele>
        <time>2011-03-18T12:46:54Z</time>
      </trkpt>
      <trkpt lat="37.3336885236" lon="-7.4814090975">
        <ele>26.4</ele>
        <time>2011-03-18T12:46:56Z</time>
      </trkpt>
      <trkpt lat="37.3336886913" lon="-7.48133768371">
        <ele>26.6</ele>
        <time>2011-03-18T12:46:58Z</time>
      </trkpt>
      <trkpt lat="37.3336862605" lon="-7.48126953886">
        <ele>27.4</ele>
        <time>2011-03-18T12:47:00Z</time>
      </trkpt>
      <trkpt lat="37.3336843327" lon="-7.48120105874">
        <ele>27.8</ele>
        <time>2011-03-18T12:47:02Z</time>
      </trkpt>
      <trkpt lat="37.3336813152" lon="-7.48113567992">
        <ele>28.2</ele>
        <time>2011-03-18T12:47:04Z</time>
      </trkpt>
      <trkpt lat="37.3336827401" lon="-7.48106946291">
        <ele>29</ele>
        <time>2011-03-18T12:47:06Z</time>
      </trkpt>
      <trkpt lat="37.3336792197" lon="-7.48100282681">
        <ele>29.6</ele>
        <time>2011-03-18T12:47:08Z</time>
      </trkpt>
      <trkpt lat="37.3336616177" lon="-7.48093920819">
        <ele>30.4</ele>
        <time>2011-03-18T12:47:10Z</time>
      </trkpt>
      <trkpt lat="37.3336479552" lon="-7.48087408082">
        <ele>31.2</ele>
        <time>2011-03-18T12:47:12Z</time>
      </trkpt>
      <trkpt lat="37.3336563371" lon="-7.48080895346">
        <ele>31.8</ele>
        <time>2011-03-18T12:47:14Z</time>
      </trkpt>
      <trkpt lat="37.3336590193" lon="-7.48078028736">
        <ele>32.2</ele>
        <time>2011-03-18T12:47:15Z</time>
      </trkpt>
      <trkpt lat="37.333657762" lon="-7.48069194214">
        <ele>33.6</ele>
        <time>2011-03-18T12:47:18Z</time>
      </trkpt>
      <trkpt lat="37.3336605281" lon="-7.48062639568">
        <ele>34.6</ele>
        <time>2011-03-18T12:47:20Z</time>
      </trkpt>
      <trkpt lat="37.3336643837" lon="-7.4805656269">
        <ele>35.4</ele>
        <time>2011-03-18T12:47:22Z</time>
      </trkpt>
      <trkpt lat="37.3336680718" lon="-7.4805038523">
        <ele>36.4</ele>
        <time>2011-03-18T12:47:24Z</time>
      </trkpt>
      <trkpt lat="37.3336772081" lon="-7.48044559809">
        <ele>37.2</ele>
        <time>2011-03-18T12:47:26Z</time>
      </trkpt>
      <trkpt lat="37.3336959835" lon="-7.48038407495">
        <ele>38.2</ele>
        <time>2011-03-18T12:47:28Z</time>
      </trkpt>
      <trkpt lat="37.3337129988" lon="-7.48032179743">
        <ele>39.2</ele>
        <time>2011-03-18T12:47:30Z</time>
      </trkpt>
      <trkpt lat="37.3337367195" lon="-7.48026882382">
        <ele>40</ele>
        <time>2011-03-18T12:47:32Z</time>
      </trkpt>
      <trkpt lat="37.3337658886" lon="-7.48021928679">
        <ele>40.8</ele>
        <time>2011-03-18T12:47:34Z</time>
      </trkpt>
      <trkpt lat="37.3337932135" lon="-7.4801765391">
        <ele>41.6</ele>
        <time>2011-03-18T12:47:36Z</time>
      </trkpt>
      <trkpt lat="37.3338186107" lon="-7.4801301872">
        <ele>42.4</ele>
        <time>2011-03-18T12:47:38Z</time>
      </trkpt>
      <trkpt lat="37.3338427506" lon="-7.48008769096">
        <ele>43.2</ele>
        <time>2011-03-18T12:47:40Z</time>
      </trkpt>
      <trkpt lat="37.3338698241" lon="-7.48003966268">
        <ele>44</ele>
        <time>2011-03-18T12:47:42Z</time>
      </trkpt>
      <trkpt lat="37.3338969815" lon="-7.47999440042">
        <ele>44.8</ele>
        <time>2011-03-18T12:47:44Z</time>
      </trkpt>
      <trkpt lat="37.3339142482" lon="-7.47995014399">
        <ele>45.4</ele>
        <time>2011-03-18T12:47:46Z</time>
      </trkpt>
      <trkpt lat="37.3339236359" lon="-7.47988920757">
        <ele>46.2</ele>
        <time>2011-03-18T12:47:48Z</time>
      </trkpt>
      <trkpt lat="37.3339227977" lon="-7.47982969608">
        <ele>46.8</ele>
        <time>2011-03-18T12:47:50Z</time>
      </trkpt>
      <trkpt lat="37.3339173495" lon="-7.47977244771">
        <ele>47.4</ele>
        <time>2011-03-18T12:47:52Z</time>
      </trkpt>
      <trkpt lat="37.3339124042" lon="-7.47971042165">
        <ele>48.4</ele>
        <time>2011-03-18T12:47:54Z</time>
      </trkpt>
      <trkpt lat="37.3339065368" lon="-7.47965376">
        <ele>49</ele>
        <time>2011-03-18T12:47:56Z</time>
      </trkpt>
      <trkpt lat="37.3338992446" lon="-7.47956776171">
        <ele>50</ele>
        <time>2011-03-18T12:47:59Z</time>
      </trkpt>
      <trkpt lat="37.3338942154" lon="-7.47951319554">
        <ele>50.8</ele>
        <time>2011-03-18T12:48:01Z</time>
      </trkpt>
      <trkpt lat="37.3338896054" lon="-7.47945561189">
        <ele>51.4</ele>
        <time>2011-03-18T12:48:03Z</time>
      </trkpt>
      <trkpt lat="37.3338875099" lon="-7.47940112954">
        <ele>52.4</ele>
        <time>2011-03-18T12:48:06Z</time>
      </trkpt>
      <trkpt lat="37.3338948022" lon="-7.4793251057">
        <ele>53.4</ele>
        <time>2011-03-18T12:48:08Z</time>
      </trkpt>
      <trkpt lat="37.3339006695" lon="-7.47927447903">
        <ele>54.4</ele>
        <time>2011-03-18T12:48:10Z</time>
      </trkpt>
      <trkpt lat="37.3339169304" lon="-7.4792210025">
        <ele>55.2</ele>
        <time>2011-03-18T12:48:12Z</time>
      </trkpt>
      <trkpt lat="37.3339320178" lon="-7.47916895091">
        <ele>55.8</ele>
        <time>2011-03-18T12:48:14Z</time>
      </trkpt>
      <trkpt lat="37.3339476081" lon="-7.47912377246">
        <ele>56.4</ele>
        <time>2011-03-18T12:48:16Z</time>
      </trkpt>
      <trkpt lat="37.3339649587" lon="-7.47906233314">
        <ele>57.2</ele>
        <time>2011-03-18T12:48:18Z</time>
      </trkpt>
      <trkpt lat="37.3339833989" lon="-7.47900692878">
        <ele>57.8</ele>
        <time>2011-03-18T12:48:20Z</time>
      </trkpt>
      <trkpt lat="37.3340043536" lon="-7.47895236261">
        <ele>58.4</ele>
        <time>2011-03-18T12:48:22Z</time>
      </trkpt>
      <trkpt lat="37.3340206145" lon="-7.47889293494">
        <ele>59</ele>
        <time>2011-03-18T12:48:24Z</time>
      </trkpt>
      <trkpt lat="37.3340391385" lon="-7.47884029661">
        <ele>59.6</ele>
        <time>2011-03-18T12:48:26Z</time>
      </trkpt>
      <trkpt lat="37.3340570758" lon="-7.47878329969">
        <ele>60.2</ele>
        <time>2011-03-18T12:48:28Z</time>
      </trkpt>
      <trkpt lat="37.3340755159" lon="-7.47872227945">
        <ele>60.6</ele>
        <time>2011-03-18T12:48:30Z</time>
      </trkpt>
      <trkpt lat="37.3340893461" lon="-7.47866310324">
        <ele>61</ele>
        <time>2011-03-18T12:48:32Z</time>
      </trkpt>
      <trkpt lat="37.3341062775" lon="-7.47860635778">
        <ele>61.4</ele>
        <time>2011-03-18T12:48:34Z</time>
      </trkpt>
      <trkpt lat="37.3341209458" lon="-7.47854458317">
        <ele>62</ele>
        <time>2011-03-18T12:48:36Z</time>
      </trkpt>
      <trkpt lat="37.3341233766" lon="-7.4784807131">
        <ele>62.4</ele>
        <time>2011-03-18T12:48:38Z</time>
      </trkpt>
      <trkpt lat="37.3341114743" lon="-7.47842556019">
        <ele>62.8</ele>
        <time>2011-03-18T12:48:40Z</time>
      </trkpt>
      <trkpt lat="37.3340998235" lon="-7.47836546197">
        <ele>63.2</ele>
        <time>2011-03-18T12:48:42Z</time>
      </trkpt>
      <trkpt lat="37.334084736" lon="-7.47831257218">
        <ele>63.4</ele>
        <time>2011-03-18T12:48:44Z</time>
      </trkpt>
      <trkpt lat="37.3340493644" lon="-7.47824551698">
        <ele>64.2</ele>
        <time>2011-03-18T12:48:47Z</time>
      </trkpt>
      <trkpt lat="37.3339994921" lon="-7.47818659223">
        <ele>64.8</ele>
        <time>2011-03-18T12:48:50Z</time>
      </trkpt>
      <trkpt lat="37.3339514638" lon="-7.47812464998">
        <ele>65.4</ele>
        <time>2011-03-18T12:48:53Z</time>
      </trkpt>
      <trkpt lat="37.3339181039" lon="-7.47806689869">
        <ele>66.2</ele>
        <time>2011-03-18T12:48:56Z</time>
      </trkpt>
      <trkpt lat="37.333884241" lon="-7.47798743828">
        <ele>67</ele>
        <time>2011-03-18T12:48:59Z</time>
      </trkpt>
      <trkpt lat="37.3338756914" lon="-7.47792910026">
        <ele>67.4</ele>
        <time>2011-03-18T12:49:01Z</time>
      </trkpt>
      <trkpt lat="37.3338761944" lon="-7.47786430817">
        <ele>67.6</ele>
        <time>2011-03-18T12:49:03Z</time>
      </trkpt>
      <trkpt lat="37.3338765296" lon="-7.47780479668">
        <ele>68.2</ele>
        <time>2011-03-18T12:49:05Z</time>
      </trkpt>
      <trkpt lat="37.3338825646" lon="-7.47774226771">
        <ele>68.6</ele>
        <time>2011-03-18T12:49:07Z</time>
      </trkpt>
      <trkpt lat="37.3338957242" lon="-7.47768342677">
        <ele>69.2</ele>
        <time>2011-03-18T12:49:09Z</time>
      </trkpt>
      <trkpt lat="37.3338981549" lon="-7.47762466965">
        <ele>69.6</ele>
        <time>2011-03-18T12:49:11Z</time>
      </trkpt>
      <trkpt lat="37.3338937963" lon="-7.47756557725">
        <ele>69.8</ele>
        <time>2011-03-18T12:49:13Z</time>
      </trkpt>
      <trkpt lat="37.333878206" lon="-7.47750598195">
        <ele>70.4</ele>
        <time>2011-03-18T12:49:15Z</time>
      </trkpt>
      <trkpt lat="37.3338588438" lon="-7.47745141578">
        <ele>70.8</ele>
        <time>2011-03-18T12:49:17Z</time>
      </trkpt>
      <trkpt lat="37.3338154256" lon="-7.47739425122">
        <ele>71.6</ele>
        <time>2011-03-18T12:49:20Z</time>
      </trkpt>
      <trkpt lat="37.3337552435" lon="-7.47734907278">
        <ele>72</ele>
        <time>2011-03-18T12:49:23Z</time>
      </trkpt>
      <trkpt lat="37.3336953968" lon="-7.47730498398">
        <ele>72.4</ele>
        <time>2011-03-18T12:49:26Z</time>
      </trkpt>
      <trkpt lat="37.3336332869" lon="-7.47725796152">
        <ele>72.8</ele>
        <time>2011-03-18T12:49:29Z</time>
      </trkpt>
      <trkpt lat="37.3335962389" lon="-7.47722627794">
        <ele>73.4</ele>
        <time>2011-03-18T12:49:31Z</time>
      </trkpt>
      <trkpt lat="37.333544774" lon="-7.47717296906">
        <ele>73.8</ele>
        <time>2011-03-18T12:49:34Z</time>
      </trkpt>
      <trkpt lat="37.3335147668" lon="-7.4771272877">
        <ele>74.2</ele>
        <time>2011-03-18T12:49:36Z</time>
      </trkpt>
      <trkpt lat="37.333487358" lon="-7.47707640957">
        <ele>74.4</ele>
        <time>2011-03-18T12:49:38Z</time>
      </trkpt>
      <trkpt lat="37.3334654813" lon="-7.47703039294">
        <ele>74.6</ele>
        <time>2011-03-18T12:49:40Z</time>
      </trkpt>
      <trkpt lat="37.3334436883" lon="-7.47697666496">
        <ele>74.8</ele>
        <time>2011-03-18T12:49:42Z</time>
      </trkpt>
      <trkpt lat="37.3334214763" lon="-7.47689460616">
        <ele>75.6</ele>
        <time>2011-03-18T12:49:45Z</time>
      </trkpt>
      <trkpt lat="37.3334099931" lon="-7.47683685487">
        <ele>76</ele>
        <time>2011-03-18T12:49:47Z</time>
      </trkpt>
      <trkpt lat="37.3334036228" lon="-7.47677692428">
        <ele>76.2</ele>
        <time>2011-03-18T12:49:49Z</time>
      </trkpt>
      <trkpt lat="37.3334027846" lon="-7.47671397621">
        <ele>76.4</ele>
        <time>2011-03-18T12:49:51Z</time>
      </trkpt>
      <trkpt lat="37.3334041258" lon="-7.47664767539">
        <ele>76.6</ele>
        <time>2011-03-18T12:49:53Z</time>
      </trkpt>
      <trkpt lat="37.3334043772" lon="-7.47658573314">
        <ele>77.2</ele>
        <time>2011-03-18T12:49:55Z</time>
      </trkpt>
      <trkpt lat="37.3334084843" lon="-7.47655815669">
        <ele>77.6</ele>
        <time>2011-03-18T12:49:56Z</time>
      </trkpt>
      <trkpt lat="37.3334275113" lon="-7.47649822611">
        <ele>78</ele>
        <time>2011-03-18T12:49:58Z</time>
      </trkpt>
      <trkpt lat="37.3334482984" lon="-7.47643904989">
        <ele>78.2</ele>
        <time>2011-03-18T12:50:00Z</time>
      </trkpt>
      <trkpt lat="37.3334661518" lon="-7.47639253035">
        <ele>78.6</ele>
        <time>2011-03-18T12:50:02Z</time>
      </trkpt>
      <trkpt lat="37.333499428" lon="-7.47629806634">
        <ele>79</ele>
        <time>2011-03-18T12:50:05Z</time>
      </trkpt>
      <trkpt lat="37.3335200474" lon="-7.47623671083">
        <ele>79.6</ele>
        <time>2011-03-18T12:50:07Z</time>
      </trkpt>
      <trkpt lat="37.3335394096" lon="-7.47617267311">
        <ele>80</ele>
        <time>2011-03-18T12:50:09Z</time>
      </trkpt>
      <trkpt lat="37.3335567602" lon="-7.47610352244">
        <ele>80.4</ele>
        <time>2011-03-18T12:50:11Z</time>
      </trkpt>
      <trkpt lat="37.3335757871" lon="-7.47603185719">
        <ele>80.6</ele>
        <time>2011-03-18T12:50:13Z</time>
      </trkpt>
      <trkpt lat="37.3335871864" lon="-7.4759622036">
        <ele>81.2</ele>
        <time>2011-03-18T12:50:15Z</time>
      </trkpt>
      <trkpt lat="37.3335907907" lon="-7.4758933882">
        <ele>81.8</ele>
        <time>2011-03-18T12:50:17Z</time>
      </trkpt>
      <trkpt lat="37.3335862644" lon="-7.47582482426">
        <ele>82.2</ele>
        <time>2011-03-18T12:50:19Z</time>
      </trkpt>
      <trkpt lat="37.3335788884" lon="-7.47575558977">
        <ele>82.4</ele>
        <time>2011-03-18T12:50:21Z</time>
      </trkpt>
      <trkpt lat="37.333570255" lon="-7.47568493035">
        <ele>83</ele>
        <time>2011-03-18T12:50:23Z</time>
      </trkpt>
      <trkpt lat="37.3335561734" lon="-7.47561116963">
        <ele>83.6</ele>
        <time>2011-03-18T12:50:25Z</time>
      </trkpt>
      <trkpt lat="37.3335491326" lon="-7.47554285715">
        <ele>84</ele>
        <time>2011-03-18T12:50:27Z</time>
      </trkpt>
      <trkpt lat="37.333545696" lon="-7.47547412557">
        <ele>84.4</ele>
        <time>2011-03-18T12:50:29Z</time>
      </trkpt>
      <trkpt lat="37.3335403316" lon="-7.47540816001">
        <ele>84.8</ele>
        <time>2011-03-18T12:50:31Z</time>
      </trkpt>
      <trkpt lat="37.3335371465" lon="-7.47534395466">
        <ele>85.4</ele>
        <time>2011-03-18T12:50:33Z</time>
      </trkpt>
      <trkpt lat="37.3335367274" lon="-7.47527681564">
        <ele>86</ele>
        <time>2011-03-18T12:50:35Z</time>
      </trkpt>
      <trkpt lat="37.333530441" lon="-7.47521051481">
        <ele>86.4</ele>
        <time>2011-03-18T12:50:37Z</time>
      </trkpt>
      <trkpt lat="37.3335329556" lon="-7.47514345961">
        <ele>86.8</ele>
        <time>2011-03-18T12:50:39Z</time>
      </trkpt>
      <trkpt lat="37.3335346319" lon="-7.47507917044">
        <ele>87</ele>
        <time>2011-03-18T12:50:41Z</time>
      </trkpt>
      <trkpt lat="37.333535051" lon="-7.47501177996">
        <ele>87.6</ele>
        <time>2011-03-18T12:50:43Z</time>
      </trkpt>
      <trkpt lat="37.3335347996" lon="-7.4749466526">
        <ele>88.2</ele>
        <time>2011-03-18T12:50:45Z</time>
      </trkpt>
      <trkpt lat="37.3335384876" lon="-7.47487884303">
        <ele>88.6</ele>
        <time>2011-03-18T12:50:47Z</time>
      </trkpt>
      <trkpt lat="37.333540164" lon="-7.47480801597">
        <ele>89</ele>
        <time>2011-03-18T12:50:49Z</time>
      </trkpt>
      <trkpt lat="37.3335381523" lon="-7.47473920057">
        <ele>89.2</ele>
        <time>2011-03-18T12:50:51Z</time>
      </trkpt>
      <trkpt lat="37.3335437682" lon="-7.47466594277">
        <ele>89.8</ele>
        <time>2011-03-18T12:50:53Z</time>
      </trkpt>
      <trkpt lat="37.3335456122" lon="-7.47459478044">
        <ele>90.4</ele>
        <time>2011-03-18T12:50:55Z</time>
      </trkpt>
      <trkpt lat="37.3335487973" lon="-7.47452118736">
        <ele>90.8</ele>
        <time>2011-03-18T12:50:57Z</time>
      </trkpt>
      <trkpt lat="37.3335689139" lon="-7.47445807165">
        <ele>91</ele>
        <time>2011-03-18T12:50:59Z</time>
      </trkpt>
      <trkpt lat="37.3335867674" lon="-7.47440551714">
        <ele>91.4</ele>
        <time>2011-03-18T12:51:01Z</time>
      </trkpt>
      <trkpt lat="37.3336042855" lon="-7.47434483218">
        <ele>91.6</ele>
        <time>2011-03-18T12:51:03Z</time>
      </trkpt>
      <trkpt lat="37.3336096499" lon="-7.47431440588">
        <ele>91.6</ele>
        <time>2011-03-18T12:51:04Z</time>
      </trkpt>
      <trkpt lat="37.3335664832" lon="-7.47421373926">
        <ele>92.4</ele>
        <time>2011-03-18T12:51:07Z</time>
      </trkpt>
      <trkpt lat="37.3335220591" lon="-7.47416001128">
        <ele>92.8</ele>
        <time>2011-03-18T12:51:09Z</time>
      </trkpt>
      <trkpt lat="37.3334726059" lon="-7.47411005516">
        <ele>93.2</ele>
        <time>2011-03-18T12:51:11Z</time>
      </trkpt>
      <trkpt lat="37.3334190455" lon="-7.47406982204">
        <ele>93.4</ele>
        <time>2011-03-18T12:51:13Z</time>
      </trkpt>
      <trkpt lat="37.333364647" lon="-7.47402799636">
        <ele>93.6</ele>
        <time>2011-03-18T12:51:15Z</time>
      </trkpt>
      <trkpt lat="37.3333134336" lon="-7.47398893671">
        <ele>93.8</ele>
        <time>2011-03-18T12:51:17Z</time>
      </trkpt>
      <trkpt lat="37.3332648186" lon="-7.47394442882">
        <ele>93.8</ele>
        <time>2011-03-18T12:51:19Z</time>
      </trkpt>
      <trkpt lat="37.3332208136" lon="-7.47389656817">
        <ele>94</ele>
        <time>2011-03-18T12:51:21Z</time>
      </trkpt>
      <trkpt lat="37.3331761381" lon="-7.47384602531">
        <ele>94.2</ele>
        <time>2011-03-18T12:51:23Z</time>
      </trkpt>
      <trkpt lat="37.3331333066" lon="-7.47379263261">
        <ele>94.8</ele>
        <time>2011-03-18T12:51:25Z</time>
      </trkpt>
      <trkpt lat="37.3330940793" lon="-7.47373278584">
        <ele>95</ele>
        <time>2011-03-18T12:51:27Z</time>
      </trkpt>
      <trkpt lat="37.3330567798" lon="-7.47367285526">
        <ele>95.4</ele>
        <time>2011-03-18T12:51:29Z</time>
      </trkpt>
      <trkpt lat="37.333019648" lon="-7.47360471041">
        <ele>95.6</ele>
        <time>2011-03-18T12:51:31Z</time>
      </trkpt>
      <trkpt lat="37.3329908981" lon="-7.47354662384">
        <ele>95.8</ele>
        <time>2011-03-18T12:51:33Z</time>
      </trkpt>
      <trkpt lat="37.3329522575" lon="-7.47346012263">
        <ele>96</ele>
        <time>2011-03-18T12:51:35Z</time>
      </trkpt>
      <trkpt lat="37.3329267765" lon="-7.47338946322">
        <ele>96</ele>
        <time>2011-03-18T12:51:37Z</time>
      </trkpt>
      <trkpt lat="37.3329013794" lon="-7.47332106691">
        <ele>96.6</ele>
        <time>2011-03-18T12:51:39Z</time>
      </trkpt>
      <trkpt lat="37.332880257" lon="-7.47324806056">
        <ele>97</ele>
        <time>2011-03-18T12:51:41Z</time>
      </trkpt>
      <trkpt lat="37.332860811" lon="-7.47317203673">
        <ele>97.2</ele>
        <time>2011-03-18T12:51:43Z</time>
      </trkpt>
      <trkpt lat="37.3328407783" lon="-7.47309718636">
        <ele>97.6</ele>
        <time>2011-03-18T12:51:45Z</time>
      </trkpt>
      <trkpt lat="37.3328189853" lon="-7.47302736514">
        <ele>97.8</ele>
        <time>2011-03-18T12:51:47Z</time>
      </trkpt>
      <trkpt lat="37.3328018862" lon="-7.472957041">
        <ele>98</ele>
        <time>2011-03-18T12:51:49Z</time>
      </trkpt>
      <trkpt lat="37.3327847033" lon="-7.47288361555">
        <ele>98</ele>
        <time>2011-03-18T12:51:51Z</time>
      </trkpt>
      <trkpt lat="37.3327702027" lon="-7.472808849">
        <ele>98.2</ele>
        <time>2011-03-18T12:51:53Z</time>
      </trkpt>
      <trkpt lat="37.3327511757" lon="-7.47273542356">
        <ele>98.6</ele>
        <time>2011-03-18T12:51:55Z</time>
      </trkpt>
      <trkpt lat="37.3327355854" lon="-7.47267574443">
        <ele>99</ele>
        <time>2011-03-18T12:51:57Z</time>
      </trkpt>
      <trkpt lat="37.332712619" lon="-7.47259083579">
        <ele>99.2</ele>
        <time>2011-03-18T12:51:59Z</time>
      </trkpt>
      <trkpt lat="37.3326924186" lon="-7.47251615306">
        <ele>99.6</ele>
        <time>2011-03-18T12:52:01Z</time>
      </trkpt>
      <trkpt lat="37.3326761577" lon="-7.47243686028">
        <ele>99.8</ele>
        <time>2011-03-18T12:52:03Z</time>
      </trkpt>
      <trkpt lat="37.3326619085" lon="-7.47236309956">
        <ele>100</ele>
        <time>2011-03-18T12:52:05Z</time>
      </trkpt>
      <trkpt lat="37.332643636" lon="-7.47228816538">
        <ele>100.2</ele>
        <time>2011-03-18T12:52:07Z</time>
      </trkpt>
      <trkpt lat="37.3326199152" lon="-7.47217961977">
        <ele>100.2</ele>
        <time>2011-03-18T12:52:10Z</time>
      </trkpt>
      <trkpt lat="37.3326048278" lon="-7.47210150046">
        <ele>100.4</ele>
        <time>2011-03-18T12:52:12Z</time>
      </trkpt>
      <trkpt lat="37.3325895727" lon="-7.47202656628">
        <ele>100.4</ele>
        <time>2011-03-18T12:52:14Z</time>
      </trkpt>
      <trkpt lat="37.3325743177" lon="-7.47195708033">
        <ele>100.6</ele>
        <time>2011-03-18T12:52:16Z</time>
      </trkpt>
      <trkpt lat="37.3325547878" lon="-7.47187879338">
        <ele>100.8</ele>
        <time>2011-03-18T12:52:18Z</time>
      </trkpt>
      <trkpt lat="37.3325372697" lon="-7.47180369156">
        <ele>101.2</ele>
        <time>2011-03-18T12:52:20Z</time>
      </trkpt>
      <trkpt lat="37.3325197515" lon="-7.47172867355">
        <ele>101.4</ele>
        <time>2011-03-18T12:52:22Z</time>
      </trkpt>
      <trkpt lat="37.3325029877" lon="-7.4716508057">
        <ele>101.6</ele>
        <time>2011-03-18T12:52:24Z</time>
      </trkpt>
      <trkpt lat="37.3324890737" lon="-7.47158031392">
        <ele>101.8</ele>
        <time>2011-03-18T12:52:26Z</time>
      </trkpt>
      <trkpt lat="37.332465772" lon="-7.47150940305">
        <ele>102</ele>
        <time>2011-03-18T12:52:28Z</time>
      </trkpt>
      <trkpt lat="37.3324480862" lon="-7.47143279248">
        <ele>102.2</ele>
        <time>2011-03-18T12:52:30Z</time>
      </trkpt>
      <trkpt lat="37.3324325797" lon="-7.47135886412">
        <ele>102.2</ele>
        <time>2011-03-18T12:52:32Z</time>
      </trkpt>
      <trkpt lat="37.3324156483" lon="-7.47128258883">
        <ele>102.4</ele>
        <time>2011-03-18T12:52:34Z</time>
      </trkpt>
      <trkpt lat="37.332398633" lon="-7.47120581063">
        <ele>102.4</ele>
        <time>2011-03-18T12:52:36Z</time>
      </trkpt>
      <trkpt lat="37.3323793547" lon="-7.47112961916">
        <ele>102.8</ele>
        <time>2011-03-18T12:52:38Z</time>
      </trkpt>
      <trkpt lat="37.3323635967" lon="-7.47105870828">
        <ele>103.2</ele>
        <time>2011-03-18T12:52:40Z</time>
      </trkpt>
      <trkpt lat="37.332345408" lon="-7.47098033752">
        <ele>103.4</ele>
        <time>2011-03-18T12:52:42Z</time>
      </trkpt>
      <trkpt lat="37.3323252076" lon="-7.47090389459">
        <ele>103.8</ele>
        <time>2011-03-18T12:52:44Z</time>
      </trkpt>
      <trkpt lat="37.3323094496" lon="-7.4708328999">
        <ele>104</ele>
        <time>2011-03-18T12:52:46Z</time>
      </trkpt>
      <trkpt lat="37.332287489" lon="-7.4707508411">
        <ele>104</ele>
        <time>2011-03-18T12:52:48Z</time>
      </trkpt>
      <trkpt lat="37.3322687136" lon="-7.47067196742">
        <ele>104.2</ele>
        <time>2011-03-18T12:52:50Z</time>
      </trkpt>
      <trkpt lat="37.3322489323" lon="-7.47059619504">
        <ele>104.4</ele>
        <time>2011-03-18T12:52:52Z</time>
      </trkpt>
      <trkpt lat="37.3322273908" lon="-7.47051631554">
        <ele>104.4</ele>
        <time>2011-03-18T12:52:54Z</time>
      </trkpt>
      <trkpt lat="37.3322110461" lon="-7.4704552953">
        <ele>104.8</ele>
        <time>2011-03-18T12:52:56Z</time>
      </trkpt>
      <trkpt lat="37.3321900914" lon="-7.47036435169">
        <ele>105.2</ele>
        <time>2011-03-18T12:52:58Z</time>
      </trkpt>
      <trkpt lat="37.3321753392" lon="-7.47028304726">
        <ele>105.4</ele>
        <time>2011-03-18T12:53:00Z</time>
      </trkpt>
      <trkpt lat="37.3321581563" lon="-7.47020685579">
        <ele>105.8</ele>
        <time>2011-03-18T12:53:02Z</time>
      </trkpt>
      <trkpt lat="37.332138375" lon="-7.47013167014">
        <ele>106</ele>
        <time>2011-03-18T12:53:04Z</time>
      </trkpt>
      <trkpt lat="37.3321181747" lon="-7.47005656832">
        <ele>106</ele>
        <time>2011-03-18T12:53:06Z</time>
      </trkpt>
      <trkpt lat="37.3321014109" lon="-7.46997626972">
        <ele>106.2</ele>
        <time>2011-03-18T12:53:08Z</time>
      </trkpt>
      <trkpt lat="37.3320848147" lon="-7.46990644849">
        <ele>106.4</ele>
        <time>2011-03-18T12:53:10Z</time>
      </trkpt>
      <trkpt lat="37.3320662069" lon="-7.46982640135">
        <ele>106.4</ele>
        <time>2011-03-18T12:53:12Z</time>
      </trkpt>
      <trkpt lat="37.3320470961" lon="-7.46974627038">
        <ele>106.6</ele>
        <time>2011-03-18T12:53:14Z</time>
      </trkpt>
      <trkpt lat="37.3320278178" lon="-7.46968256794">
        <ele>106.6</ele>
        <time>2011-03-18T12:53:16Z</time>
      </trkpt>
      <trkpt lat="37.3320035941" lon="-7.46959346835">
        <ele>106.6</ele>
        <time>2011-03-18T12:53:18Z</time>
      </trkpt>
      <trkpt lat="37.3319793704" lon="-7.46951350502">
        <ele>107</ele>
        <time>2011-03-18T12:53:20Z</time>
      </trkpt>
      <trkpt lat="37.3319553982" lon="-7.46943764882">
        <ele>107.4</ele>
        <time>2011-03-18T12:53:22Z</time>
      </trkpt>
      <trkpt lat="37.3319358683" lon="-7.46935148289">
        <ele>107.8</ele>
        <time>2011-03-18T12:53:24Z</time>
      </trkpt>
      <trkpt lat="37.3319144107" lon="-7.46927537524">
        <ele>108</ele>
        <time>2011-03-18T12:53:26Z</time>
      </trkpt>
      <trkpt lat="37.3318916957" lon="-7.46919901613">
        <ele>108.2</ele>
        <time>2011-03-18T12:53:28Z</time>
      </trkpt>
      <trkpt lat="37.3318669691" lon="-7.46911980718">
        <ele>108.2</ele>
        <time>2011-03-18T12:53:30Z</time>
      </trkpt>
      <trkpt lat="37.331841069" lon="-7.46905342253">
        <ele>108.4</ele>
        <time>2011-03-18T12:53:32Z</time>
      </trkpt>
      <trkpt lat="37.3318177674" lon="-7.46900120329">
        <ele>108.4</ele>
        <time>2011-03-18T12:53:34Z</time>
      </trkpt>
      <trkpt lat="37.3317737624" lon="-7.46893708176">
        <ele>108.6</ele>
        <time>2011-03-18T12:53:36Z</time>
      </trkpt>
      <trkpt lat="37.3317435037" lon="-7.46892207816">
        <ele>108.6</ele>
        <time>2011-03-18T12:53:37Z</time>
      </trkpt>
      <trkpt lat="37.3316809747" lon="-7.4689315497">
        <ele>108.6</ele>
        <time>2011-03-18T12:53:39Z</time>
      </trkpt>
      <trkpt lat="37.3316176914" lon="-7.468952253">
        <ele>108.8</ele>
        <time>2011-03-18T12:53:41Z</time>
      </trkpt>
      <trkpt lat="37.331547954" lon="-7.46897991327">
        <ele>108.8</ele>
        <time>2011-03-18T12:53:43Z</time>
      </trkpt>
      <trkpt lat="37.331513672" lon="-7.46899072592">
        <ele>108.8</ele>
        <time>2011-03-18T12:53:44Z</time>
      </trkpt>
      <trkpt lat="37.3314451081" lon="-7.46900950137">
        <ele>108.8</ele>
        <time>2011-03-18T12:53:46Z</time>
      </trkpt>
      <trkpt lat="37.3313673241" lon="-7.46902098458">
        <ele>108.8</ele>
        <time>2011-03-18T12:53:48Z</time>
      </trkpt>
      <trkpt lat="37.3312962455" lon="-7.46903623963">
        <ele>108.8</ele>
        <time>2011-03-18T12:53:50Z</time>
      </trkpt>
      <trkpt lat="37.3312317887" lon="-7.46906004423">
        <ele>108.8</ele>
        <time>2011-03-18T12:53:52Z</time>
      </trkpt>
      <trkpt lat="37.3311628057" lon="-7.46908150189">
        <ele>108.8</ele>
        <time>2011-03-18T12:53:54Z</time>
      </trkpt>
      <trkpt lat="37.331100612" lon="-7.4690960864">
        <ele>108.8</ele>
        <time>2011-03-18T12:53:56Z</time>
      </trkpt>
      <trkpt lat="37.3310347303" lon="-7.46911326929">
        <ele>108.8</ele>
        <time>2011-03-18T12:53:58Z</time>
      </trkpt>
      <trkpt lat="37.3309701058" lon="-7.46912584214">
        <ele>108.8</ele>
        <time>2011-03-18T12:54:00Z</time>
      </trkpt>
      <trkpt lat="37.3308365821" lon="-7.46915526261">
        <ele>108.8</ele>
        <time>2011-03-18T12:54:04Z</time>
      </trkpt>
      <trkpt lat="37.3307666771" lon="-7.46917655264">
        <ele>108.8</ele>
        <time>2011-03-18T12:54:06Z</time>
      </trkpt>
      <trkpt lat="37.3306919944" lon="-7.46920412909">
        <ele>109</ele>
        <time>2011-03-18T12:54:08Z</time>
      </trkpt>
      <trkpt lat="37.3306210835" lon="-7.46922608967">
        <ele>109</ele>
        <time>2011-03-18T12:54:10Z</time>
      </trkpt>
      <trkpt lat="37.3305460655" lon="-7.46924494894">
        <ele>109</ele>
        <time>2011-03-18T12:54:12Z</time>
      </trkpt>
      <trkpt lat="37.3304780045" lon="-7.46927244158">
        <ele>109</ele>
        <time>2011-03-18T12:54:14Z</time>
      </trkpt>
      <trkpt lat="37.3304184092" lon="-7.46929716818">
        <ele>109</ele>
        <time>2011-03-18T12:54:16Z</time>
      </trkpt>
      <trkpt lat="37.3303544553" lon="-7.46933262362">
        <ele>109</ele>
        <time>2011-03-18T12:54:18Z</time>
      </trkpt>
      <trkpt lat="37.3303007273" lon="-7.46937377875">
        <ele>109</ele>
        <time>2011-03-18T12:54:20Z</time>
      </trkpt>
      <trkpt lat="37.3302537048" lon="-7.46941334131">
        <ele>109</ele>
        <time>2011-03-18T12:54:22Z</time>
      </trkpt>
      <trkpt lat="37.3302058442" lon="-7.46946405181">
        <ele>109</ele>
        <time>2011-03-18T12:54:24Z</time>
      </trkpt>
      <trkpt lat="37.3301623421" lon="-7.4695120801">
        <ele>109</ele>
        <time>2011-03-18T12:54:26Z</time>
      </trkpt>
      <trkpt lat="37.3301211032" lon="-7.46956471843">
        <ele>109</ele>
        <time>2011-03-18T12:54:28Z</time>
      </trkpt>
      <trkpt lat="37.3300815406" lon="-7.4696241461">
        <ele>109</ele>
        <time>2011-03-18T12:54:30Z</time>
      </trkpt>
      <trkpt lat="37.3300421457" lon="-7.46968432814">
        <ele>109</ele>
        <time>2011-03-18T12:54:32Z</time>
      </trkpt>
      <trkpt lat="37.3300036727" lon="-7.46973948104">
        <ele>109</ele>
        <time>2011-03-18T12:54:34Z</time>
      </trkpt>
      <trkpt lat="37.329966038" lon="-7.4697988249">
        <ele>109</ele>
        <time>2011-03-18T12:54:36Z</time>
      </trkpt>
      <trkpt lat="37.3299311693" lon="-7.46985808493">
        <ele>109</ele>
        <time>2011-03-18T12:54:38Z</time>
      </trkpt>
      <trkpt lat="37.3298959653" lon="-7.46991407602">
        <ele>109</ele>
        <time>2011-03-18T12:54:40Z</time>
      </trkpt>
      <trkpt lat="37.3298574924" lon="-7.46997325223">
        <ele>109</ele>
        <time>2011-03-18T12:54:42Z</time>
      </trkpt>
      <trkpt lat="37.3298216179" lon="-7.47002899187">
        <ele>109</ele>
        <time>2011-03-18T12:54:44Z</time>
      </trkpt>
      <trkpt lat="37.3297864139" lon="-7.47008012146">
        <ele>109</ele>
        <time>2011-03-18T12:54:46Z</time>
      </trkpt>
      <trkpt lat="37.3297474381" lon="-7.47013862712">
        <ele>109</ele>
        <time>2011-03-18T12:54:48Z</time>
      </trkpt>
      <trkpt lat="37.3297104739" lon="-7.47019009199">
        <ele>109</ele>
        <time>2011-03-18T12:54:50Z</time>
      </trkpt>
      <trkpt lat="37.3296730906" lon="-7.47023359405">
        <ele>109</ele>
        <time>2011-03-18T12:54:52Z</time>
      </trkpt>
      <trkpt lat="37.3296273254" lon="-7.47028690293">
        <ele>109</ele>
        <time>2011-03-18T12:54:54Z</time>
      </trkpt>
      <trkpt lat="37.3295860027" lon="-7.47033652378">
        <ele>109</ele>
        <time>2011-03-18T12:54:56Z</time>
      </trkpt>
      <trkpt lat="37.3295498767" lon="-7.47037717599">
        <ele>109</ele>
        <time>2011-03-18T12:54:58Z</time>
      </trkpt>
      <trkpt lat="37.3294978251" lon="-7.47042495283">
        <ele>109</ele>
        <time>2011-03-18T12:55:00Z</time>
      </trkpt>
      <trkpt lat="37.3294510541" lon="-7.47046987981">
        <ele>109</ele>
        <time>2011-03-18T12:55:02Z</time>
      </trkpt>
      <trkpt lat="37.3294055404" lon="-7.4705095262">
        <ele>109</ele>
        <time>2011-03-18T12:55:04Z</time>
      </trkpt>
      <trkpt lat="37.3293580988" lon="-7.47055906323">
        <ele>109</ele>
        <time>2011-03-18T12:55:06Z</time>
      </trkpt>
      <trkpt lat="37.3293125013" lon="-7.4706034873">
        <ele>109</ele>
        <time>2011-03-18T12:55:08Z</time>
      </trkpt>
      <trkpt lat="37.3292695859" lon="-7.47064397187">
        <ele>109</ele>
        <time>2011-03-18T12:55:10Z</time>
      </trkpt>
      <trkpt lat="37.3292233179" lon="-7.4706855461">
        <ele>109</ele>
        <time>2011-03-18T12:55:12Z</time>
      </trkpt>
      <trkpt lat="37.3291790614" lon="-7.47072955107">
        <ele>109</ele>
        <time>2011-03-18T12:55:14Z</time>
      </trkpt>
      <trkpt lat="37.3291388283" lon="-7.47076743726">
        <ele>109</ele>
        <time>2011-03-18T12:55:16Z</time>
      </trkpt>
      <trkpt lat="37.329093566" lon="-7.47082552383">
        <ele>109</ele>
        <time>2011-03-18T12:55:18Z</time>
      </trkpt>
      <trkpt lat="37.3290531653" lon="-7.47087975472">
        <ele>109</ele>
        <time>2011-03-18T12:55:20Z</time>
      </trkpt>
      <trkpt lat="37.3290141056" lon="-7.4709317225">
        <ele>109</ele>
        <time>2011-03-18T12:55:22Z</time>
      </trkpt>
      <trkpt lat="37.3289742916" lon="-7.47099358092">
        <ele>109</ele>
        <time>2011-03-18T12:55:24Z</time>
      </trkpt>
      <trkpt lat="37.3289411831" lon="-7.47106122285">
        <ele>109</ele>
        <time>2011-03-18T12:55:26Z</time>
      </trkpt>
      <trkpt lat="37.3289136066" lon="-7.4711192256">
        <ele>109</ele>
        <time>2011-03-18T12:55:28Z</time>
      </trkpt>
      <trkpt lat="37.328875469" lon="-7.47119776401">
        <ele>109</ele>
        <time>2011-03-18T12:55:30Z</time>
      </trkpt>
      <trkpt lat="37.3288415223" lon="-7.47126305901">
        <ele>109</ele>
        <time>2011-03-18T12:55:32Z</time>
      </trkpt>
      <trkpt lat="37.3288034685" lon="-7.47132852165">
        <ele>109</ele>
        <time>2011-03-18T12:55:34Z</time>
      </trkpt>
      <trkpt lat="37.3287618943" lon="-7.47139364901">
        <ele>109</ele>
        <time>2011-03-18T12:55:36Z</time>
      </trkpt>
      <trkpt lat="37.3287128601" lon="-7.47145768672">
        <ele>109</ele>
        <time>2011-03-18T12:55:38Z</time>
      </trkpt>
      <trkpt lat="37.3286613953" lon="-7.47151443219">
        <ele>109</ele>
        <time>2011-03-18T12:55:40Z</time>
      </trkpt>
      <trkpt lat="37.3286061586" lon="-7.47156413685">
        <ele>109</ele>
        <time>2011-03-18T12:55:42Z</time>
      </trkpt>
      <trkpt lat="37.3285475691" lon="-7.47160277741">
        <ele>109</ele>
        <time>2011-03-18T12:55:44Z</time>
      </trkpt>
      <trkpt lat="37.3284935058" lon="-7.47162566">
        <ele>109</ele>
        <time>2011-03-18T12:55:46Z</time>
      </trkpt>
      <trkpt lat="37.3284377662" lon="-7.47166681513">
        <ele>109</ele>
        <time>2011-03-18T12:55:48Z</time>
      </trkpt>
      <trkpt lat="37.3284130396" lon="-7.47173579817">
        <ele>109</ele>
        <time>2011-03-18T12:55:51Z</time>
      </trkpt>
      <trkpt lat="37.3283945994" lon="-7.4718052003">
        <ele>109</ele>
        <time>2011-03-18T12:55:54Z</time>
      </trkpt>
      <trkpt lat="37.3283857984" lon="-7.47187552444">
        <ele>109</ele>
        <time>2011-03-18T12:55:57Z</time>
      </trkpt>
      <trkpt lat="37.3283925877" lon="-7.47196521077">
        <ele>109</ele>
        <time>2011-03-18T12:56:00Z</time>
      </trkpt>
      <trkpt lat="37.3284146321" lon="-7.47204064787">
        <ele>109</ele>
        <time>2011-03-18T12:56:03Z</time>
      </trkpt>
      <trkpt lat="37.328439694" lon="-7.47208951435">
        <ele>109</ele>
        <time>2011-03-18T12:56:05Z</time>
      </trkpt>
      <trkpt lat="37.3284736407" lon="-7.47213754263">
        <ele>109</ele>
        <time>2011-03-18T12:56:07Z</time>
      </trkpt>
      <trkpt lat="37.3285106887" lon="-7.47218255344">
        <ele>109</ele>
        <time>2011-03-18T12:56:09Z</time>
      </trkpt>
      <trkpt lat="37.3285535202" lon="-7.47222069108">
        <ele>108.6</ele>
        <time>2011-03-18T12:56:11Z</time>
      </trkpt>
      <trkpt lat="37.3285936695" lon="-7.47225530833">
        <ele>108.2</ele>
        <time>2011-03-18T12:56:13Z</time>
      </trkpt>
      <trkpt lat="37.3286333997" lon="-7.47229252396">
        <ele>108</ele>
        <time>2011-03-18T12:56:15Z</time>
      </trkpt>
      <trkpt lat="37.3286774047" lon="-7.47231867549">
        <ele>107.6</ele>
        <time>2011-03-18T12:56:17Z</time>
      </trkpt>
      <trkpt lat="37.3287268579" lon="-7.4723447432">
        <ele>107</ele>
        <time>2011-03-18T12:56:19Z</time>
      </trkpt>
      <trkpt lat="37.3287832681" lon="-7.47238782617">
        <ele>106.6</ele>
        <time>2011-03-18T12:56:21Z</time>
      </trkpt>
      <trkpt lat="37.3288390077" lon="-7.47243484863">
        <ele>106.2</ele>
        <time>2011-03-18T12:56:23Z</time>
      </trkpt>
      <trkpt lat="37.3288871198" lon="-7.47247474647">
        <ele>105.8</ele>
        <time>2011-03-18T12:56:25Z</time>
      </trkpt>
      <trkpt lat="37.3289365731" lon="-7.47253258158">
        <ele>105.2</ele>
        <time>2011-03-18T12:56:27Z</time>
      </trkpt>
      <trkpt lat="37.3289833441" lon="-7.4725895785">
        <ele>104.6</ele>
        <time>2011-03-18T12:56:29Z</time>
      </trkpt>
      <trkpt lat="37.3290226552" lon="-7.47264674306">
        <ele>104.2</ele>
        <time>2011-03-18T12:56:31Z</time>
      </trkpt>
      <trkpt lat="37.3290659058" lon="-7.47270491344">
        <ele>103.8</ele>
        <time>2011-03-18T12:56:33Z</time>
      </trkpt>
      <trkpt lat="37.3291046301" lon="-7.47276769388">
        <ele>103</ele>
        <time>2011-03-18T12:56:35Z</time>
      </trkpt>
      <trkpt lat="37.3291576038" lon="-7.47282217623">
        <ele>102.4</ele>
        <time>2011-03-18T12:56:37Z</time>
      </trkpt>
      <trkpt lat="37.3291944003" lon="-7.47287649094">
        <ele>102</ele>
        <time>2011-03-18T12:56:39Z</time>
      </trkpt>
      <trkpt lat="37.3292411713" lon="-7.47292091501">
        <ele>101.6</ele>
        <time>2011-03-18T12:56:41Z</time>
      </trkpt>
      <trkpt lat="37.329289954" lon="-7.47296768601">
        <ele>101.4</ele>
        <time>2011-03-18T12:56:43Z</time>
      </trkpt>
      <trkpt lat="37.32934737" lon="-7.47300540456">
        <ele>101</ele>
        <time>2011-03-18T12:56:45Z</time>
      </trkpt>
      <trkpt lat="37.3293969908" lon="-7.47303583086">
        <ele>100.4</ele>
        <time>2011-03-18T12:56:47Z</time>
      </trkpt>
      <trkpt lat="37.3294579272" lon="-7.47305435486">
        <ele>100</ele>
        <time>2011-03-18T12:56:49Z</time>
      </trkpt>
      <trkpt lat="37.3295241442" lon="-7.4730704481">
        <ele>99.6</ele>
        <time>2011-03-18T12:56:51Z</time>
      </trkpt>
      <trkpt lat="37.3295896907" lon="-7.47310012003">
        <ele>99.2</ele>
        <time>2011-03-18T12:56:53Z</time>
      </trkpt>
      <trkpt lat="37.3296419099" lon="-7.47314211335">
        <ele>99</ele>
        <time>2011-03-18T12:56:55Z</time>
      </trkpt>
      <trkpt lat="37.3296797123" lon="-7.47319458404">
        <ele>98.8</ele>
        <time>2011-03-18T12:56:57Z</time>
      </trkpt>
      <trkpt lat="37.3297142457" lon="-7.47327479883">
        <ele>98.6</ele>
        <time>2011-03-18T12:57:00Z</time>
      </trkpt>
      <trkpt lat="37.3297407325" lon="-7.47344646014">
        <ele>97.6</ele>
        <time>2011-03-18T12:57:05Z</time>
      </trkpt>
      <trkpt lat="37.3297398105" lon="-7.47351401825">
        <ele>97.4</ele>
        <time>2011-03-18T12:57:07Z</time>
      </trkpt>
      <trkpt lat="37.3297430795" lon="-7.47357696632">
        <ele>97</ele>
        <time>2011-03-18T12:57:09Z</time>
      </trkpt>
      <trkpt lat="37.3297471866" lon="-7.47364485971">
        <ele>96.8</ele>
        <time>2011-03-18T12:57:11Z</time>
      </trkpt>
      <trkpt lat="37.3297583345" lon="-7.47371308838">
        <ele>96.6</ele>
        <time>2011-03-18T12:57:13Z</time>
      </trkpt>
      <trkpt lat="37.3297715779" lon="-7.47377385715">
        <ele>96.2</ele>
        <time>2011-03-18T12:57:15Z</time>
      </trkpt>
      <trkpt lat="37.3297771938" lon="-7.47383504502">
        <ele>95.6</ele>
        <time>2011-03-18T12:57:17Z</time>
      </trkpt>
      <trkpt lat="37.3297833964" lon="-7.47390830283">
        <ele>95.4</ele>
        <time>2011-03-18T12:57:19Z</time>
      </trkpt>
      <trkpt lat="37.329783564" lon="-7.47397887843">
        <ele>95</ele>
        <time>2011-03-18T12:57:21Z</time>
      </trkpt>
      <trkpt lat="37.3297893476" lon="-7.47405213623">
        <ele>94.6</ele>
        <time>2011-03-18T12:57:23Z</time>
      </trkpt>
      <trkpt lat="37.3297906048" lon="-7.47412681896">
        <ele>94</ele>
        <time>2011-03-18T12:57:25Z</time>
      </trkpt>
      <trkpt lat="37.3297969751" lon="-7.47420166933">
        <ele>93.6</ele>
        <time>2011-03-18T12:57:27Z</time>
      </trkpt>
      <trkpt lat="37.3298030939" lon="-7.47427308312">
        <ele>93.2</ele>
        <time>2011-03-18T12:57:29Z</time>
      </trkpt>
      <trkpt lat="37.3298160858" lon="-7.47434726293">
        <ele>92.6</ele>
        <time>2011-03-18T12:57:31Z</time>
      </trkpt>
      <trkpt lat="37.3298227075" lon="-7.47442613661">
        <ele>92</ele>
        <time>2011-03-18T12:57:33Z</time>
      </trkpt>
      <trkpt lat="37.3298262279" lon="-7.47449998115">
        <ele>91.6</ele>
        <time>2011-03-18T12:57:35Z</time>
      </trkpt>
      <trkpt lat="37.3298367053" lon="-7.47456837745">
        <ele>91</ele>
        <time>2011-03-18T12:57:37Z</time>
      </trkpt>
      <trkpt lat="37.3298481885" lon="-7.47463903687">
        <ele>90.4</ele>
        <time>2011-03-18T12:57:39Z</time>
      </trkpt>
      <trkpt lat="37.3298509545" lon="-7.47470994774">
        <ele>89.8</ele>
        <time>2011-03-18T12:57:41Z</time>
      </trkpt>
      <trkpt lat="37.3298534691" lon="-7.47478538484">
        <ele>89.2</ele>
        <time>2011-03-18T12:57:43Z</time>
      </trkpt>
      <trkpt lat="37.3298457577" lon="-7.47485847501">
        <ele>88.4</ele>
        <time>2011-03-18T12:57:45Z</time>
      </trkpt>
      <trkpt lat="37.3298201929" lon="-7.47491915997">
        <ele>87.8</ele>
        <time>2011-03-18T12:57:47Z</time>
      </trkpt>
      <trkpt lat="37.3297801275" lon="-7.47496668534">
        <ele>87.2</ele>
        <time>2011-03-18T12:57:49Z</time>
      </trkpt>
      <trkpt lat="37.3297239687" lon="-7.47498713718">
        <ele>86.4</ele>
        <time>2011-03-18T12:57:51Z</time>
      </trkpt>
      <trkpt lat="37.3296783712" lon="-7.47502259261">
        <ele>85.8</ele>
        <time>2011-03-18T12:57:53Z</time>
      </trkpt>
      <trkpt lat="37.329729417" lon="-7.47516081014">
        <ele>83.8</ele>
        <time>2011-03-18T12:57:58Z</time>
      </trkpt>
      <trkpt lat="37.3297770262" lon="-7.47521654978">
        <ele>83.2</ele>
        <time>2011-03-18T12:58:00Z</time>
      </trkpt>
      <trkpt lat="37.3298206959" lon="-7.47526239877">
        <ele>82.2</ele>
        <time>2011-03-18T12:58:02Z</time>
      </trkpt>
      <trkpt lat="37.3298701491" lon="-7.47530673902">
        <ele>81.6</ele>
        <time>2011-03-18T12:58:04Z</time>
      </trkpt>
      <trkpt lat="37.3299205243" lon="-7.47535149837">
        <ele>80.6</ele>
        <time>2011-03-18T12:58:06Z</time>
      </trkpt>
      <trkpt lat="37.3299751743" lon="-7.47539148003">
        <ele>80</ele>
        <time>2011-03-18T12:58:08Z</time>
      </trkpt>
      <trkpt lat="37.330026723" lon="-7.47540799238">
        <ele>79</ele>
        <time>2011-03-18T12:58:10Z</time>
      </trkpt>
      <trkpt lat="37.330082295" lon="-7.47542232542">
        <ele>78.2</ele>
        <time>2011-03-18T12:58:12Z</time>
      </trkpt>
      <trkpt lat="37.3301343466" lon="-7.47541670955">
        <ele>77.4</ele>
        <time>2011-03-18T12:58:14Z</time>
      </trkpt>
      <trkpt lat="37.3301853085" lon="-7.47540329851">
        <ele>76.4</ele>
        <time>2011-03-18T12:58:16Z</time>
      </trkpt>
      <trkpt lat="37.3302169921" lon="-7.47541335679">
        <ele>76</ele>
        <time>2011-03-18T12:58:17Z</time>
      </trkpt>
      <trkpt lat="37.3302498491" lon="-7.47547353883">
        <ele>75.4</ele>
        <time>2011-03-18T12:58:19Z</time>
      </trkpt>
      <trkpt lat="37.3302356837" lon="-7.47552969756">
        <ele>74.4</ele>
        <time>2011-03-18T12:58:21Z</time>
      </trkpt>
      <trkpt lat="37.3302205963" lon="-7.47555559763">
        <ele>74</ele>
        <time>2011-03-18T12:58:22Z</time>
      </trkpt>
      <trkpt lat="37.3301817043" lon="-7.47559851296">
        <ele>73.2</ele>
        <time>2011-03-18T12:58:24Z</time>
      </trkpt>
      <trkpt lat="37.3301576482" lon="-7.47564964255">
        <ele>72.2</ele>
        <time>2011-03-18T12:58:26Z</time>
      </trkpt>
      <trkpt lat="37.3301365259" lon="-7.47570077214">
        <ele>71.4</ele>
        <time>2011-03-18T12:58:28Z</time>
      </trkpt>
      <trkpt lat="37.3301284792" lon="-7.47573111462">
        <ele>71</ele>
        <time>2011-03-18T12:58:29Z</time>
      </trkpt>
      <trkpt lat="37.3301456621" lon="-7.47582474044">
        <ele>69.8</ele>
        <time>2011-03-18T12:58:32Z</time>
      </trkpt>
      <trkpt lat="37.3301672036" lon="-7.47585080815">
        <ele>69.4</ele>
        <time>2011-03-18T12:58:33Z</time>
      </trkpt>
      <trkpt lat="37.3302251225" lon="-7.47592884364">
        <ele>68.4</ele>
        <time>2011-03-18T12:58:36Z</time>
      </trkpt>
      <trkpt lat="37.3302606618" lon="-7.47598743312">
        <ele>67.6</ele>
        <time>2011-03-18T12:58:38Z</time>
      </trkpt>
      <trkpt lat="37.3302948599" lon="-7.47604761516">
        <ele>66.8</ele>
        <time>2011-03-18T12:58:40Z</time>
      </trkpt>
      <trkpt lat="37.3303393678" lon="-7.47611332926">
        <ele>66.2</ele>
        <time>2011-03-18T12:58:42Z</time>
      </trkpt>
      <trkpt lat="37.3303845463" lon="-7.47617082909">
        <ele>65.6</ele>
        <time>2011-03-18T12:58:44Z</time>
      </trkpt>
      <trkpt lat="37.3304228516" lon="-7.47622338361">
        <ele>64.8</ele>
        <time>2011-03-18T12:58:46Z</time>
      </trkpt>
      <trkpt lat="37.3304655992" lon="-7.47628147017">
        <ele>64.2</ele>
        <time>2011-03-18T12:58:48Z</time>
      </trkpt>
      <trkpt lat="37.3305026472" lon="-7.47633955674">
        <ele>63.8</ele>
        <time>2011-03-18T12:58:50Z</time>
      </trkpt>
      <trkpt lat="37.3305399467" lon="-7.47639437437">
        <ele>63</ele>
        <time>2011-03-18T12:58:52Z</time>
      </trkpt>
      <trkpt lat="37.3305792578" lon="-7.47645413731">
        <ele>62.4</ele>
        <time>2011-03-18T12:58:54Z</time>
      </trkpt>
      <trkpt lat="37.3306200777" lon="-7.47651473845">
        <ele>61.8</ele>
        <time>2011-03-18T12:58:56Z</time>
      </trkpt>
      <trkpt lat="37.3306542758" lon="-7.47658053637">
        <ele>61</ele>
        <time>2011-03-18T12:58:58Z</time>
      </trkpt>
      <trkpt lat="37.3306909885" lon="-7.47663527017">
        <ele>60.4</ele>
        <time>2011-03-18T12:59:00Z</time>
      </trkpt>
      <trkpt lat="37.3307122786" lon="-7.47665329126">
        <ele>60.2</ele>
        <time>2011-03-18T12:59:01Z</time>
      </trkpt>
      <trkpt lat="37.3307234265" lon="-7.4767417203">
        <ele>59</ele>
        <time>2011-03-18T12:59:04Z</time>
      </trkpt>
      <trkpt lat="37.3307293776" lon="-7.47679804667">
        <ele>58.8</ele>
        <time>2011-03-18T12:59:05Z</time>
      </trkpt>
      <trkpt lat="37.3307567865" lon="-7.47690357479">
        <ele>57.8</ele>
        <time>2011-03-18T12:59:08Z</time>
      </trkpt>
      <trkpt lat="37.3307849496" lon="-7.47696350538">
        <ele>57.2</ele>
        <time>2011-03-18T12:59:10Z</time>
      </trkpt>
      <trkpt lat="37.330814873" lon="-7.47704187614">
        <ele>56.4</ele>
        <time>2011-03-18T12:59:12Z</time>
      </trkpt>
      <trkpt lat="37.3308426171" lon="-7.47711597214">
        <ele>55.8</ele>
        <time>2011-03-18T12:59:14Z</time>
      </trkpt>
      <trkpt lat="37.3308669246" lon="-7.47717766292">
        <ele>55.4</ele>
        <time>2011-03-18T12:59:16Z</time>
      </trkpt>
      <trkpt lat="37.3308924894" lon="-7.47724773561">
        <ele>54.8</ele>
        <time>2011-03-18T12:59:18Z</time>
      </trkpt>
      <trkpt lat="37.3309188924" lon="-7.47730749855">
        <ele>54.2</ele>
        <time>2011-03-18T12:59:20Z</time>
      </trkpt>
      <trkpt lat="37.3309422779" lon="-7.47737094954">
        <ele>53.6</ele>
        <time>2011-03-18T12:59:22Z</time>
      </trkpt>
      <trkpt lat="37.3309727042" lon="-7.47744378825">
        <ele>53.2</ele>
        <time>2011-03-18T12:59:24Z</time>
      </trkpt>
      <trkpt lat="37.3310015379" lon="-7.47750564667">
        <ele>52.8</ele>
        <time>2011-03-18T12:59:26Z</time>
      </trkpt>
      <trkpt lat="37.3310270189" lon="-7.47756867856">
        <ele>52</ele>
        <time>2011-03-18T12:59:28Z</time>
      </trkpt>
      <trkpt lat="37.3310429445" lon="-7.47763573376">
        <ele>51.4</ele>
        <time>2011-03-18T12:59:30Z</time>
      </trkpt>
      <trkpt lat="37.3310549306" lon="-7.47770630936">
        <ele>51</ele>
        <time>2011-03-18T12:59:32Z</time>
      </trkpt>
      <trkpt lat="37.3310597083" lon="-7.47778216555">
        <ele>50.6</ele>
        <time>2011-03-18T12:59:34Z</time>
      </trkpt>
      <trkpt lat="37.3310587863" lon="-7.47784578417">
        <ele>50.4</ele>
        <time>2011-03-18T12:59:36Z</time>
      </trkpt>
      <trkpt lat="37.3310562717" lon="-7.47791007334">
        <ele>50</ele>
        <time>2011-03-18T12:59:38Z</time>
      </trkpt>
      <trkpt lat="37.3310544277" lon="-7.47797922402">
        <ele>49.4</ele>
        <time>2011-03-18T12:59:40Z</time>
      </trkpt>
      <trkpt lat="37.3310699342" lon="-7.47805088926">
        <ele>49</ele>
        <time>2011-03-18T12:59:42Z</time>
      </trkpt>
      <trkpt lat="37.3310920625" lon="-7.47811308296">
        <ele>48.6</ele>
        <time>2011-03-18T12:59:44Z</time>
      </trkpt>
      <trkpt lat="37.3311257577" lon="-7.47816731386">
        <ele>48.2</ele>
        <time>2011-03-18T12:59:46Z</time>
      </trkpt>
      <trkpt lat="37.3311669128" lon="-7.4782204551">
        <ele>48</ele>
        <time>2011-03-18T12:59:48Z</time>
      </trkpt>
      <trkpt lat="37.3312070621" lon="-7.47826747756">
        <ele>47.8</ele>
        <time>2011-03-18T12:59:50Z</time>
      </trkpt>
      <trkpt lat="37.3312432719" lon="-7.47831458384">
        <ele>47.2</ele>
        <time>2011-03-18T12:59:52Z</time>
      </trkpt>
      <trkpt lat="37.3312910488" lon="-7.47837426297">
        <ele>46.8</ele>
        <time>2011-03-18T12:59:54Z</time>
      </trkpt>
      <trkpt lat="37.3313408372" lon="-7.47841801648">
        <ele>46.4</ele>
        <time>2011-03-18T12:59:56Z</time>
      </trkpt>
      <trkpt lat="37.3314011869" lon="-7.47845841724">
        <ele>46.2</ele>
        <time>2011-03-18T12:59:58Z</time>
      </trkpt>
      <trkpt lat="37.3314616204" lon="-7.47851767728">
        <ele>45.8</ele>
        <time>2011-03-18T13:00:00Z</time>
      </trkpt>
      <trkpt lat="37.3314940584" lon="-7.47858531921">
        <ele>45.2</ele>
        <time>2011-03-18T13:00:02Z</time>
      </trkpt>
      <trkpt lat="37.3315042005" lon="-7.47865840938">
        <ele>44.8</ele>
        <time>2011-03-18T13:00:04Z</time>
      </trkpt>
      <trkpt lat="37.331515516" lon="-7.47873049372">
        <ele>44.4</ele>
        <time>2011-03-18T13:00:06Z</time>
      </trkpt>
      <trkpt lat="37.3315244009" lon="-7.4787992253">
        <ele>44</ele>
        <time>2011-03-18T13:00:08Z</time>
      </trkpt>
      <trkpt lat="37.3315462776" lon="-7.47885815005">
        <ele>43.6</ele>
        <time>2011-03-18T13:00:10Z</time>
      </trkpt>
      <trkpt lat="37.3315923781" lon="-7.47891950556">
        <ele>43</ele>
        <time>2011-03-18T13:00:12Z</time>
      </trkpt>
      <trkpt lat="37.3316415798" lon="-7.47897499374">
        <ele>42.6</ele>
        <time>2011-03-18T13:00:14Z</time>
      </trkpt>
      <trkpt lat="37.3316715032" lon="-7.47903073337">
        <ele>42.2</ele>
        <time>2011-03-18T13:00:16Z</time>
      </trkpt>
      <trkpt lat="37.3316899434" lon="-7.47910449409">
        <ele>42</ele>
        <time>2011-03-18T13:00:18Z</time>
      </trkpt>
      <trkpt lat="37.3316849142" lon="-7.47916878327">
        <ele>41.6</ele>
        <time>2011-03-18T13:00:20Z</time>
      </trkpt>
      <trkpt lat="37.3316684019" lon="-7.47923248571">
        <ele>41.4</ele>
        <time>2011-03-18T13:00:22Z</time>
      </trkpt>
      <trkpt lat="37.3316472795" lon="-7.47930842572">
        <ele>41.4</ele>
        <time>2011-03-18T13:00:24Z</time>
      </trkpt>
      <trkpt lat="37.3316365507" lon="-7.47937548092">
        <ele>41</ele>
        <time>2011-03-18T13:00:26Z</time>
      </trkpt>
      <trkpt lat="37.3316365507" lon="-7.47944471542">
        <ele>40.6</ele>
        <time>2011-03-18T13:00:28Z</time>
      </trkpt>
      <trkpt lat="37.331646609" lon="-7.47952124216">
        <ele>40.2</ele>
        <time>2011-03-18T13:00:30Z</time>
      </trkpt>
      <trkpt lat="37.3316608582" lon="-7.47959483524">
        <ele>39.8</ele>
        <time>2011-03-18T13:00:32Z</time>
      </trkpt>
      <trkpt lat="37.3316566672" lon="-7.47965769949">
        <ele>39.6</ele>
        <time>2011-03-18T13:00:34Z</time>
      </trkpt>
      <trkpt lat="37.3316638757" lon="-7.47972274304">
        <ele>39.4</ele>
        <time>2011-03-18T13:00:36Z</time>
      </trkpt>
      <trkpt lat="37.3316932123" lon="-7.47979407301">
        <ele>39.2</ele>
        <time>2011-03-18T13:00:38Z</time>
      </trkpt>
      <trkpt lat="37.3317248959" lon="-7.47985417123">
        <ele>39.2</ele>
        <time>2011-03-18T13:00:40Z</time>
      </trkpt>
      <trkpt lat="37.331767476" lon="-7.47991762221">
        <ele>39</ele>
        <time>2011-03-18T13:00:42Z</time>
      </trkpt>
      <trkpt lat="37.3318122353" lon="-7.47996799743">
        <ele>39</ele>
        <time>2011-03-18T13:00:44Z</time>
      </trkpt>
      <trkpt lat="37.3318580005" lon="-7.48000529689">
        <ele>38.8</ele>
        <time>2011-03-18T13:00:46Z</time>
      </trkpt>
      <trkpt lat="37.3319138239" lon="-7.48004578146">
        <ele>38.8</ele>
        <time>2011-03-18T13:00:48Z</time>
      </trkpt>
      <trkpt lat="37.3319678872" lon="-7.48006958606">
        <ele>38.8</ele>
        <time>2011-03-18T13:00:50Z</time>
      </trkpt>
      <trkpt lat="37.3319999899" lon="-7.48008081781">
        <ele>38.8</ele>
        <time>2011-03-18T13:00:51Z</time>
      </trkpt>
      <trkpt lat="37.3320257223" lon="-7.48008878061">
        <ele>38.8</ele>
        <time>2011-03-18T13:00:52Z</time>
      </trkpt>
      <trkpt lat="37.3320914364" lon="-7.48010043145">
        <ele>38.8</ele>
        <time>2011-03-18T13:00:54Z</time>
      </trkpt>
      <trkpt lat="37.3321598327" lon="-7.48010202401">
        <ele>38.6</ele>
        <time>2011-03-18T13:00:56Z</time>
      </trkpt>
      <trkpt lat="37.3321924383" lon="-7.48010361657">
        <ele>38.4</ele>
        <time>2011-03-18T13:00:57Z</time>
      </trkpt>
      <trkpt lat="37.3322263012" lon="-7.48019975697">
        <ele>37.8</ele>
        <time>2011-03-18T13:01:01Z</time>
      </trkpt>
      <trkpt lat="37.3322081124" lon="-7.48024979691">
        <ele>37.4</ele>
        <time>2011-03-18T13:01:03Z</time>
      </trkpt>
      <trkpt lat="37.3321947852" lon="-7.48030905694">
        <ele>37.4</ele>
        <time>2011-03-18T13:01:05Z</time>
      </trkpt>
      <trkpt lat="37.332178692" lon="-7.4803763636">
        <ele>37.2</ele>
        <time>2011-03-18T13:01:07Z</time>
      </trkpt>
      <trkpt lat="37.3321718188" lon="-7.48044232915">
        <ele>37</ele>
        <time>2011-03-18T13:01:09Z</time>
      </trkpt>
      <trkpt lat="37.3321616767" lon="-7.48049748206">
        <ele>37</ele>
        <time>2011-03-18T13:01:11Z</time>
      </trkpt>
      <trkpt lat="37.332158743" lon="-7.48056554308">
        <ele>36.8</ele>
        <time>2011-03-18T13:01:13Z</time>
      </trkpt>
      <trkpt lat="37.3321658677" lon="-7.48063678923">
        <ele>36.6</ele>
        <time>2011-03-18T13:01:15Z</time>
      </trkpt>
      <trkpt lat="37.3321813742" lon="-7.48071977004">
        <ele>36.2</ele>
        <time>2011-03-18T13:01:17Z</time>
      </trkpt>
      <trkpt lat="37.3322000658" lon="-7.48080551688">
        <ele>35.8</ele>
        <time>2011-03-18T13:01:19Z</time>
      </trkpt>
      <trkpt lat="37.3322176678" lon="-7.48089059317">
        <ele>35.6</ele>
        <time>2011-03-18T13:01:21Z</time>
      </trkpt>
      <trkpt lat="37.3322265526" lon="-7.48097365779">
        <ele>35.4</ele>
        <time>2011-03-18T13:01:23Z</time>
      </trkpt>
      <trkpt lat="37.3322284805" lon="-7.4810588179">
        <ele>35.2</ele>
        <time>2011-03-18T13:01:25Z</time>
      </trkpt>
      <trkpt lat="37.3322267203" lon="-7.48112360999">
        <ele>34.8</ele>
        <time>2011-03-18T13:01:27Z</time>
      </trkpt>
      <trkpt lat="37.3322147341" lon="-7.48120114256">
        <ele>34.2</ele>
        <time>2011-03-18T13:01:29Z</time>
      </trkpt>
      <trkpt lat="37.3321994791" lon="-7.48128127352">
        <ele>34</ele>
        <time>2011-03-18T13:01:31Z</time>
      </trkpt>
      <trkpt lat="37.3321873253" lon="-7.4813654278">
        <ele>33.6</ele>
        <time>2011-03-18T13:01:33Z</time>
      </trkpt>
      <trkpt lat="37.3321670411" lon="-7.48147120738">
        <ele>33.4</ele>
        <time>2011-03-18T13:01:36Z</time>
      </trkpt>
      <trkpt lat="37.3321449129" lon="-7.4815683536">
        <ele>33.2</ele>
        <time>2011-03-18T13:01:38Z</time>
      </trkpt>
      <trkpt lat="37.332125886" lon="-7.48164647291">
        <ele>32.8</ele>
        <time>2011-03-18T13:01:40Z</time>
      </trkpt>
      <trkpt lat="37.3321072782" lon="-7.48173163301">
        <ele>32.4</ele>
        <time>2011-03-18T13:01:42Z</time>
      </trkpt>
      <trkpt lat="37.3320910173" lon="-7.48181369181">
        <ele>32</ele>
        <time>2011-03-18T13:01:44Z</time>
      </trkpt>
      <trkpt lat="37.3320885027" lon="-7.48189415805">
        <ele>31.6</ele>
        <time>2011-03-18T13:01:46Z</time>
      </trkpt>
      <trkpt lat="37.3320815458" lon="-7.48198593986">
        <ele>31.4</ele>
        <time>2011-03-18T13:01:48Z</time>
      </trkpt>
      <trkpt lat="37.3320761813" lon="-7.48207269252">
        <ele>31.2</ele>
        <time>2011-03-18T13:01:50Z</time>
      </trkpt>
      <trkpt lat="37.3320789474" lon="-7.48214284903">
        <ele>31</ele>
        <time>2011-03-18T13:01:52Z</time>
      </trkpt>
      <trkpt lat="37.3320865749" lon="-7.48221518482">
        <ele>30.8</ele>
        <time>2011-03-18T13:01:54Z</time>
      </trkpt>
      <trkpt lat="37.3321041769" lon="-7.48228240766">
        <ele>30.8</ele>
        <time>2011-03-18T13:01:56Z</time>
      </trkpt>
      <trkpt lat="37.3321121397" lon="-7.48230227276">
        <ele>30.8</ele>
        <time>2011-03-18T13:01:57Z</time>
      </trkpt>
      <trkpt lat="37.332163856" lon="-7.48237678785">
        <ele>30.2</ele>
        <time>2011-03-18T13:02:00Z</time>
      </trkpt>
      <trkpt lat="37.3322005687" lon="-7.48243512588">
        <ele>29.8</ele>
        <time>2011-03-18T13:02:02Z</time>
      </trkpt>
      <trkpt lat="37.3322389578" lon="-7.48248005286">
        <ele>29.6</ele>
        <time>2011-03-18T13:02:04Z</time>
      </trkpt>
      <trkpt lat="37.332275922" lon="-7.48253160155">
        <ele>29.4</ele>
        <time>2011-03-18T13:02:06Z</time>
      </trkpt>
      <trkpt lat="37.3323239503" lon="-7.48257912692">
        <ele>29.2</ele>
        <time>2011-03-18T13:02:08Z</time>
      </trkpt>
      <trkpt lat="37.3323848029" lon="-7.48262179079">
        <ele>29</ele>
        <time>2011-03-18T13:02:10Z</time>
      </trkpt>
      <trkpt lat="37.3324557138" lon="-7.48266009607">
        <ele>28.8</ele>
        <time>2011-03-18T13:02:12Z</time>
      </trkpt>
      <trkpt lat="37.3325240263" lon="-7.48268859453">
        <ele>28.8</ele>
        <time>2011-03-18T13:02:14Z</time>
      </trkpt>
      <trkpt lat="37.3325832025" lon="-7.48273285097">
        <ele>28.6</ele>
        <time>2011-03-18T13:02:16Z</time>
      </trkpt>
      <trkpt lat="37.3326347512" lon="-7.48278071162">
        <ele>28.2</ele>
        <time>2011-03-18T13:02:18Z</time>
      </trkpt>
      <trkpt lat="37.3326650936" lon="-7.48285019757">
        <ele>27.8</ele>
        <time>2011-03-18T13:02:20Z</time>
      </trkpt>
      <trkpt lat="37.3326878086" lon="-7.48292161135">
        <ele>27.6</ele>
        <time>2011-03-18T13:02:22Z</time>
      </trkpt>
      <trkpt lat="37.3327117808" lon="-7.48300308342">
        <ele>27.2</ele>
        <time>2011-03-18T13:02:24Z</time>
      </trkpt>
      <trkpt lat="37.3327349987" lon="-7.48307156355">
        <ele>27</ele>
        <time>2011-03-18T13:02:26Z</time>
      </trkpt>
      <trkpt lat="37.3327599767" lon="-7.48314297733">
        <ele>27</ele>
        <time>2011-03-18T13:02:28Z</time>
      </trkpt>
      <trkpt lat="37.332791325" lon="-7.4832076856">
        <ele>26.8</ele>
        <time>2011-03-18T13:02:30Z</time>
      </trkpt>
      <trkpt lat="37.3328266967" lon="-7.48327180714">
        <ele>26.6</ele>
        <time>2011-03-18T13:02:32Z</time>
      </trkpt>
      <trkpt lat="37.3328693605" lon="-7.48333265973">
        <ele>26.2</ele>
        <time>2011-03-18T13:02:34Z</time>
      </trkpt>
      <trkpt lat="37.3329267765" lon="-7.48337599415">
        <ele>25.8</ele>
        <time>2011-03-18T13:02:36Z</time>
      </trkpt>
      <trkpt lat="37.3329943347" lon="-7.48339376378">
        <ele>25.4</ele>
        <time>2011-03-18T13:02:39Z</time>
      </trkpt>
      <trkpt lat="37.3330512478" lon="-7.48340558226">
        <ele>25.2</ele>
        <time>2011-03-18T13:02:40Z</time>
      </trkpt>
      <trkpt lat="37.3331063168" lon="-7.48343852313">
        <ele>25</ele>
        <time>2011-03-18T13:02:42Z</time>
      </trkpt>
      <trkpt lat="37.333156273" lon="-7.4834780857">
        <ele>24.8</ele>
        <time>2011-03-18T13:02:44Z</time>
      </trkpt>
      <trkpt lat="37.3332009485" lon="-7.48352234213">
        <ele>24.6</ele>
        <time>2011-03-18T13:02:46Z</time>
      </trkpt>
      <trkpt lat="37.3332478033" lon="-7.48358369764">
        <ele>24.6</ele>
        <time>2011-03-18T13:02:48Z</time>
      </trkpt>
      <trkpt lat="37.3332841808" lon="-7.48364865736">
        <ele>24</ele>
        <time>2011-03-18T13:02:50Z</time>
      </trkpt>
      <trkpt lat="37.3333240786" lon="-7.48370992905">
        <ele>23.6</ele>
        <time>2011-03-18T13:02:52Z</time>
      </trkpt>
      <trkpt lat="37.3333662396" lon="-7.48376508195">
        <ele>23.4</ele>
        <time>2011-03-18T13:02:54Z</time>
      </trkpt>
      <trkpt lat="37.3334089034" lon="-7.48381587626">
        <ele>23.2</ele>
        <time>2011-03-18T13:02:56Z</time>
      </trkpt>
      <trkpt lat="37.3334509806" lon="-7.48386692204">
        <ele>23</ele>
        <time>2011-03-18T13:02:58Z</time>
      </trkpt>
      <trkpt lat="37.3334937283" lon="-7.48392827754">
        <ele>22.8</ele>
        <time>2011-03-18T13:03:00Z</time>
      </trkpt>
      <trkpt lat="37.3335358892" lon="-7.48397848513">
        <ele>22.6</ele>
        <time>2011-03-18T13:03:02Z</time>
      </trkpt>
      <trkpt lat="37.3335742783" lon="-7.48402835743">
        <ele>22.6</ele>
        <time>2011-03-18T13:03:04Z</time>
      </trkpt>
      <trkpt lat="37.3336135894" lon="-7.48408099576">
        <ele>22.2</ele>
        <time>2011-03-18T13:03:06Z</time>
      </trkpt>
      <trkpt lat="37.3336534873" lon="-7.48413640012">
        <ele>21.8</ele>
        <time>2011-03-18T13:03:08Z</time>
      </trkpt>
      <trkpt lat="37.3336880207" lon="-7.48418736207">
        <ele>21.4</ele>
        <time>2011-03-18T13:03:10Z</time>
      </trkpt>
      <trkpt lat="37.3337255716" lon="-7.48424368844">
        <ele>21.2</ele>
        <time>2011-03-18T13:03:12Z</time>
      </trkpt>
      <trkpt lat="37.3337594345" lon="-7.48430252938">
        <ele>21</ele>
        <time>2011-03-18T13:03:14Z</time>
      </trkpt>
      <trkpt lat="37.3337848316" lon="-7.48436707001">
        <ele>20.8</ele>
        <time>2011-03-18T13:03:16Z</time>
      </trkpt>
      <trkpt lat="37.3338099773" lon="-7.48443663978">
        <ele>20.6</ele>
        <time>2011-03-18T13:03:18Z</time>
      </trkpt>
      <trkpt lat="37.3338337819" lon="-7.4844989173">
        <ele>20.6</ele>
        <time>2011-03-18T13:03:20Z</time>
      </trkpt>
      <trkpt lat="37.333848115" lon="-7.48455683623">
        <ele>20.4</ele>
        <time>2011-03-18T13:03:22Z</time>
      </trkpt>
      <trkpt lat="37.3338640406" lon="-7.48462322087">
        <ele>20.4</ele>
        <time>2011-03-18T13:03:24Z</time>
      </trkpt>
      <trkpt lat="37.3338779546" lon="-7.48468700713">
        <ele>20</ele>
        <time>2011-03-18T13:03:26Z</time>
      </trkpt>
      <trkpt lat="37.333893964" lon="-7.48475498434">
        <ele>19.6</ele>
        <time>2011-03-18T13:03:28Z</time>
      </trkpt>
      <trkpt lat="37.3339117336" lon="-7.48482614667">
        <ele>19.4</ele>
        <time>2011-03-18T13:03:30Z</time>
      </trkpt>
      <trkpt lat="37.3339350353" lon="-7.48489169313">
        <ele>19</ele>
        <time>2011-03-18T13:03:32Z</time>
      </trkpt>
      <trkpt lat="37.3339581693" lon="-7.48495103698">
        <ele>18.8</ele>
        <time>2011-03-18T13:03:34Z</time>
      </trkpt>
      <trkpt lat="37.3339810519" lon="-7.48501406887">
        <ele>18.8</ele>
        <time>2011-03-18T13:03:36Z</time>
      </trkpt>
      <trkpt lat="37.3340046889" lon="-7.48508590175">
        <ele>18.6</ele>
        <time>2011-03-18T13:03:38Z</time>
      </trkpt>
      <trkpt lat="37.3340301699" lon="-7.48514574852">
        <ele>18.4</ele>
        <time>2011-03-18T13:03:40Z</time>
      </trkpt>
      <trkpt lat="37.3340572434" lon="-7.485214061">
        <ele>18.4</ele>
        <time>2011-03-18T13:03:42Z</time>
      </trkpt>
      <trkpt lat="37.3340871668" lon="-7.48527281812">
        <ele>18.2</ele>
        <time>2011-03-18T13:03:44Z</time>
      </trkpt>
      <trkpt lat="37.3341135698" lon="-7.48532855776">
        <ele>18.2</ele>
        <time>2011-03-18T13:03:46Z</time>
      </trkpt>
      <trkpt lat="37.3341425711" lon="-7.48539946863">
        <ele>18.2</ele>
        <time>2011-03-18T13:03:48Z</time>
      </trkpt>
      <trkpt lat="37.3341695609" lon="-7.48546006977">
        <ele>18.2</ele>
        <time>2011-03-18T13:03:50Z</time>
      </trkpt>
      <trkpt lat="37.3341978917" lon="-7.48552318548">
        <ele>17.8</ele>
        <time>2011-03-18T13:03:52Z</time>
      </trkpt>
      <trkpt lat="37.3342252167" lon="-7.48558864812">
        <ele>17.4</ele>
        <time>2011-03-18T13:03:54Z</time>
      </trkpt>
      <trkpt lat="37.3342317546" lon="-7.48563575439">
        <ele>17.2</ele>
        <time>2011-03-18T13:03:56Z</time>
      </trkpt>
      <trkpt lat="37.334224127" lon="-7.48569291895">
        <ele>17</ele>
        <time>2011-03-18T13:03:57Z</time>
      </trkpt>
      <trkpt lat="37.3342130629" lon="-7.48577204409">
        <ele>16.8</ele>
        <time>2011-03-18T13:03:59Z</time>
      </trkpt>
      <trkpt lat="37.3342102969" lon="-7.48584764883">
        <ele>16.6</ele>
        <time>2011-03-18T13:04:01Z</time>
      </trkpt>
      <trkpt lat="37.3341942875" lon="-7.48591830824">
        <ele>16.6</ele>
        <time>2011-03-18T13:04:03Z</time>
      </trkpt>
      <trkpt lat="37.3341713211" lon="-7.48600154051">
        <ele>16.4</ele>
        <time>2011-03-18T13:04:05Z</time>
      </trkpt>
      <trkpt lat="37.3341545573" lon="-7.48606859571">
        <ele>16.4</ele>
        <time>2011-03-18T13:04:07Z</time>
      </trkpt>
      <trkpt lat="37.3341428226" lon="-7.48615140888">
        <ele>16.2</ele>
        <time>2011-03-18T13:04:09Z</time>
      </trkpt>
      <trkpt lat="37.3341297468" lon="-7.48622986347">
        <ele>16.2</ele>
        <time>2011-03-18T13:04:11Z</time>
      </trkpt>
      <trkpt lat="37.334102338" lon="-7.48628266943">
        <ele>16.2</ele>
        <time>2011-03-18T13:04:13Z</time>
      </trkpt>
      <trkpt lat="37.3340746778" lon="-7.48632600386">
        <ele>16.2</ele>
        <time>2011-03-18T13:04:15Z</time>
      </trkpt>
      <trkpt lat="37.3340532201" lon="-7.48638191113">
        <ele>16</ele>
        <time>2011-03-18T13:04:17Z</time>
      </trkpt>
      <trkpt lat="37.334045844" lon="-7.48644770905">
        <ele>16</ele>
        <time>2011-03-18T13:04:19Z</time>
      </trkpt>
      <trkpt lat="37.3340558185" lon="-7.48651266877">
        <ele>16</ele>
        <time>2011-03-18T13:04:21Z</time>
      </trkpt>
      <trkpt lat="37.3340839817" lon="-7.48656983333">
        <ele>16</ele>
        <time>2011-03-18T13:04:23Z</time>
      </trkpt>
      <trkpt lat="37.3340981471" lon="-7.48659405702">
        <ele>16</ele>
        <time>2011-03-18T13:04:25Z</time>
      </trkpt>
      <trkpt lat="37.3341081215" lon="-7.48665180831">
        <ele>16</ele>
        <time>2011-03-18T13:04:26Z</time>
      </trkpt>
      <trkpt lat="37.3340911063" lon="-7.48674576941">
        <ele>16</ele>
        <time>2011-03-18T13:04:30Z</time>
      </trkpt>
      <trkpt lat="37.3341103008" lon="-7.48680502944">
        <ele>16</ele>
        <time>2011-03-18T13:04:33Z</time>
      </trkpt>
      <trkpt lat="37.3340807127" lon="-7.48687334193">
        <ele>16</ele>
        <time>2011-03-18T13:04:36Z</time>
      </trkpt>
      <trkpt lat="37.3340688942" lon="-7.4868838193">
        <ele>16</ele>
        <time>2011-03-18T13:04:38Z</time>
      </trkpt>
      <trkpt lat="37.3340103886" lon="-7.48694056477">
        <ele>16</ele>
        <time>2011-03-18T13:04:41Z</time>
      </trkpt>
      <trkpt lat="37.3339959717" lon="-7.48696612956">
        <ele>16</ele>
        <time>2011-03-18T13:04:43Z</time>
      </trkpt>
      <trkpt lat="37.3339713289" lon="-7.48701566659">
        <ele>16</ele>
        <time>2011-03-18T13:04:45Z</time>
      </trkpt>
      <trkpt lat="37.3339487816" lon="-7.48706092885">
        <ele>16</ele>
        <time>2011-03-18T13:04:46Z</time>
      </trkpt>
      <trkpt lat="37.3339271563" lon="-7.48710049142">
        <ele>16</ele>
        <time>2011-03-18T13:04:48Z</time>
      </trkpt>
      <trkpt lat="37.3338668066" lon="-7.48712261963">
        <ele>16</ele>
        <time>2011-03-18T13:04:51Z</time>
      </trkpt>
      <trkpt lat="37.3338443431" lon="-7.48712102707">
        <ele>16</ele>
        <time>2011-03-18T13:04:52Z</time>
      </trkpt>
      <trkpt lat="37.3337593507" lon="-7.48713251028">
        <ele>16</ele>
        <time>2011-03-18T13:04:56Z</time>
      </trkpt>
      <trkpt lat="37.3337083887" lon="-7.48714600514">
        <ele>16</ele>
        <time>2011-03-18T13:04:58Z</time>
      </trkpt>
      <trkpt lat="37.3336529844" lon="-7.48716620551">
        <ele>16</ele>
        <time>2011-03-18T13:05:00Z</time>
      </trkpt>
      <trkpt lat="37.3335903716" lon="-7.48730601561">
        <ele>17</ele>
        <time>2011-03-18T13:05:06Z</time>
      </trkpt>
      <trkpt lat="37.3335583527" lon="-7.48736041414">
        <ele>17.2</ele>
        <time>2011-03-18T13:05:09Z</time>
      </trkpt>
      <trkpt lat="37.3335254118" lon="-7.48741296865">
        <ele>17.4</ele>
        <time>2011-03-18T13:05:11Z</time>
      </trkpt>
      <trkpt lat="37.3334965781" lon="-7.48746099694">
        <ele>17.6</ele>
        <time>2011-03-18T13:05:14Z</time>
      </trkpt>
      <trkpt lat="37.3334981707" lon="-7.48748002385">
        <ele>17.8</ele>
        <time>2011-03-18T13:05:15Z</time>
      </trkpt>
      <trkpt lat="37.3334993441" lon="-7.48748605882">
        <ele>18</ele>
        <time>2011-03-18T13:05:16Z</time>
      </trkpt>
      <trkpt lat="37.3335239869" lon="-7.48750131388">
        <ele>18.6</ele>
        <time>2011-03-18T13:05:20Z</time>
      </trkpt>
      <trkpt lat="37.3335632142" lon="-7.48751262944">
        <ele>19.2</ele>
        <time>2011-03-18T13:05:25Z</time>
      </trkpt>
      <trkpt lat="37.3335681595" lon="-7.48751137216">
        <ele>19.4</ele>
        <time>2011-03-18T13:05:26Z</time>
      </trkpt>
      <trkpt lat="37.3335864321" lon="-7.48753039907">
        <ele>20.8</ele>
        <time>2011-03-18T13:05:33Z</time>
      </trkpt>
      <trkpt lat="37.333553575" lon="-7.48754188227">
        <ele>21.2</ele>
        <time>2011-03-18T13:05:35Z</time>
      </trkpt>
      <trkpt lat="37.3335198798" lon="-7.48756157974">
        <ele>21.6</ele>
        <time>2011-03-18T13:05:38Z</time>
      </trkpt>
      <trkpt lat="37.3334689178" lon="-7.48759602935">
        <ele>22.4</ele>
        <time>2011-03-18T13:05:41Z</time>
      </trkpt>
      <trkpt lat="37.3334524893" lon="-7.48759711899">
        <ele>22.6</ele>
        <time>2011-03-18T13:05:43Z</time>
      </trkpt>
      <trkpt lat="37.3333929778" lon="-7.48760776401">
        <ele>23</ele>
        <time>2011-03-18T13:05:46Z</time>
      </trkpt>
      <trkpt lat="37.3333291077" lon="-7.48760717727">
        <ele>23.4</ele>
        <time>2011-03-18T13:05:49Z</time>
      </trkpt>
      <trkpt lat="37.3332835102" lon="-7.48761337988">
        <ele>24</ele>
        <time>2011-03-18T13:05:51Z</time>
      </trkpt>
      <trkpt lat="37.3332070673" lon="-7.48760960802">
        <ele>24.8</ele>
        <time>2011-03-18T13:05:55Z</time>
      </trkpt>
      <trkpt lat="37.3331441192" lon="-7.4876183252">
        <ele>25.6</ele>
        <time>2011-03-18T13:05:57Z</time>
      </trkpt>
      <trkpt lat="37.3331088314" lon="-7.48761991776">
        <ele>26.2</ele>
        <time>2011-03-18T13:05:59Z</time>
      </trkpt>
      <trkpt lat="37.3330343163" lon="-7.4876169841">
        <ele>26.8</ele>
        <time>2011-03-18T13:06:03Z</time>
      </trkpt>
      <trkpt lat="37.332971033" lon="-7.48762075595">
        <ele>27.6</ele>
        <time>2011-03-18T13:06:06Z</time>
      </trkpt>
      <trkpt lat="37.3329208254" lon="-7.48760399215">
        <ele>28.4</ele>
        <time>2011-03-18T13:06:09Z</time>
      </trkpt>
      <trkpt lat="37.3328711207" lon="-7.48756468104">
        <ele>29</ele>
        <time>2011-03-18T13:06:12Z</time>
      </trkpt>
      <trkpt lat="37.3328299656" lon="-7.48750634302">
        <ele>29.8</ele>
        <time>2011-03-18T13:06:15Z</time>
      </trkpt>
      <trkpt lat="37.332802473" lon="-7.48743174411">
        <ele>30.6</ele>
        <time>2011-03-18T13:06:18Z</time>
      </trkpt>
      <trkpt lat="37.332783027" lon="-7.4873518646">
        <ele>31.6</ele>
        <time>2011-03-18T13:06:21Z</time>
      </trkpt>
      <trkpt lat="37.3327674366" lon="-7.48726829706">
        <ele>32.4</ele>
        <time>2011-03-18T13:06:24Z</time>
      </trkpt>
      <trkpt lat="37.332748745" lon="-7.48720836647">
        <ele>33.2</ele>
        <time>2011-03-18T13:06:26Z</time>
      </trkpt>
      <trkpt lat="37.3327337414" lon="-7.48715639869">
        <ele>34</ele>
        <time>2011-03-18T13:06:28Z</time>
      </trkpt>
      <trkpt lat="37.3327096853" lon="-7.48708423053">
        <ele>35</ele>
        <time>2011-03-18T13:06:31Z</time>
      </trkpt>
      <trkpt lat="37.3326815222" lon="-7.48703762717">
        <ele>35.8</ele>
        <time>2011-03-18T13:06:33Z</time>
      </trkpt>
      <trkpt lat="37.3326573823" lon="-7.48701122418">
        <ele>36.4</ele>
        <time>2011-03-18T13:06:34Z</time>
      </trkpt>
      <trkpt lat="37.3326340806" lon="-7.48699596913">
        <ele>37</ele>
        <time>2011-03-18T13:06:35Z</time>
      </trkpt>
      <trkpt lat="37.3325700429" lon="-7.48696135188">
        <ele>38</ele>
        <time>2011-03-18T13:06:38Z</time>
      </trkpt>
      <trkpt lat="37.3325001378" lon="-7.48696621338">
        <ele>39.4</ele>
        <time>2011-03-18T13:06:41Z</time>
      </trkpt>
      <trkpt lat="37.3324350105" lon="-7.4869844021">
        <ele>40.4</ele>
        <time>2011-03-18T13:06:44Z</time>
      </trkpt>
      <trkpt lat="37.3324244493" lon="-7.48699705877">
        <ele>40.8</ele>
        <time>2011-03-18T13:06:45Z</time>
      </trkpt>
    </trkseg>
  </trk>
</gpx>